# Wetter Temperatur Luftdruck Luftfeuchtigkeit Sichtweite Windgeschwindigkeit Windrichtung Zeit
1 Clouds -21 1017 97 0 3.66 315 21:42 28.01.2020
2 Clouds -21 1017 97 0 3.66 315 21:23 28.01.2020
3 Clouds -21 1017 97 0 3.66 315 21:23 28.01.2020
4 Clouds -21 1017 97 0 3.66 315 20:58 28.01.2020
5 Clouds -21 1017 97 0 3.66 315 20:40 28.01.2020
6 Clouds -20 1017 95 0 3.67 328 20:21 28.01.2020
7 Clouds -20 1017 95 0 3.77 333 19:39 28.01.2020
8 Clouds -20 1017 95 0 3.77 333 19:21 28.01.2020
9 Clouds -20 1017 95 0 3.77 333 19:21 28.01.2020
10 Clouds -20 1017 95 0 3.77 333 18:58 28.01.2020
11 Clouds -20 1017 95 0 3.77 333 18:40 28.01.2020
12 Clouds -20 1017 95 0 3.77 333 18:21 28.01.2020
13 Clouds -20 1017 95 0 3.77 333 17:57 28.01.2020
14 Clouds -20 1017 95 0 3.77 333 17:37 28.01.2020
15 Clouds -20 1016 95 0 3.87 334 17:19 28.01.2020
16 Clouds -20 1016 95 0 3.87 334 16:55 28.01.2020
17 Clouds -20 1016 95 0 3.87 334 16:36 28.01.2020
18 Clouds -20 1016 95 0 3.87 334 16:18 28.01.2020
19 Clouds -20 1016 95 0 3.87 334 15:42 28.01.2020
20 Clouds -20 1016 95 0 3.87 334 15:19 28.01.2020
21 Clouds -20 1016 95 0 3.87 334 14:54 28.01.2020
22 Clouds -20 1016 95 0 3.87 334 14:36 28.01.2020
23 Clouds -20 1015 96 0 3.53 333 14:18 28.01.2020
24 Clouds -20 1015 96 0 3.53 333 13:39 28.01.2020
25 Clouds -20 1015 97 0 3.52 320 13:21 28.01.2020
26 Clouds -20 1015 97 0 3.52 320 12:42 28.01.2020
27 Clouds -20 1015 97 0 3.52 320 12:23 28.01.2020
28 Clouds -20 1015 97 0 3.52 320 12:23 28.01.2020
29 Clouds -20 1015 97 0 3.52 320 11:48 28.01.2020
30 Clouds -20 1015 97 0 3.52 320 11:23 28.01.2020
31 Clouds -20 1014 94 0 3.95 327 10:59 28.01.2020
32 Clouds -20 1014 94 0 3.95 327 10:40 28.01.2020
33 Clouds -20 1014 94 0 3.95 327 10:20 28.01.2020
34 Clouds -20 1014 94 0 3.95 327 09:55 28.01.2020
35 Clouds -20 1014 94 0 3.95 327 09:36 28.01.2020
36 Clouds -20 1014 94 0 3.95 327 09:18 28.01.2020
37 Clouds -20 1014 94 0 3.95 327 08:39 28.01.2020
38 Clouds -22 1013 97 0 4.29 315 08:19 28.01.2020
39 Clouds -22 1013 97 0 4.29 315 08:19 28.01.2020
40 Clouds -22 1013 97 0 4.29 315 07:37 28.01.2020
41 Clouds -22 1013 97 0 4.29 315 06:50 28.01.2020
42 Clouds -22 1013 97 0 4.29 315 06:26 28.01.2020
43 Clouds -22 1013 97 0 4.29 315 05:54 28.01.2020
44 Clouds -22 1013 97 0 4.29 315 05:26 28.01.2020
45 Clouds -22 1012 95 0 4.12 330 04:28 28.01.2020
46 Clouds -22 1012 95 0 4.12 330 02:58 28.01.2020
47 Clouds -22 1012 95 0 4.12 330 02:25 28.01.2020
48 Clouds -22 1012 95 0 4.12 330 02:25 28.01.2020
49 Clouds -23 1012 97 0 4.14 333 01:57 28.01.2020
50 Clouds -23 1012 97 0 4.14 333 01:57 28.01.2020
51 Clouds -23 1012 97 0 4.14 333 01:26 28.01.2020
52 Clouds -23 1012 96 0 4.45 331 00:51 28.01.2020
53 Clouds -23 1012 96 0 4.45 331 00:29 28.01.2020
54 Clouds -23 1012 96 0 4.45 331 23:51 27.01.2020
55 Clouds -23 1012 96 0 4.45 331 23:30 27.01.2020
56 Clouds -23 1011 96 0 4.09 339 22:56 27.01.2020
57 Clouds -23 1011 96 0 4.09 339 22:38 27.01.2020
58 Clouds -23 1011 96 0 4.09 339 22:18 27.01.2020
59 Clouds -23 1011 96 0 4.09 339 21:54 27.01.2020
60 Clouds -23 1011 96 0 4.09 339 21:36 27.01.2020
61 Clouds -23 1011 96 0 4.09 339 21:18 27.01.2020
62 Clouds -23 1011 96 0 4.09 339 20:43 27.01.2020
63 Clouds -23 1011 96 0 4.09 339 20:22 27.01.2020
64 Clouds -22 1011 95 0 3.97 356 19:59 27.01.2020
65 Clouds -22 1011 95 0 3.97 356 19:40 27.01.2020
66 Clouds -22 1011 95 0 3.97 356 19:22 27.01.2020
67 Clouds -22 1011 95 0 3.97 356 18:56 27.01.2020
68 Clouds -22 1011 95 0 3.97 356 18:37 27.01.2020
69 Clouds -22 1011 95 0 3.97 356 18:37 27.01.2020
70 Clouds -22 1011 95 0 3.97 356 18:19 27.01.2020
71 Clouds -22 1011 95 0 3.97 356 17:39 27.01.2020
72 Clouds -23 1010 96 0 3.91 8 17:20 27.01.2020
73 Clouds -23 1010 96 0 3.91 8 16:58 27.01.2020
74 Clouds -23 1010 96 0 3.91 8 16:58 27.01.2020
75 Clouds -23 1010 96 0 3.91 8 16:40 27.01.2020
76 Clouds -23 1010 96 0 3.91 8 16:22 27.01.2020
77 Clouds -23 1010 96 0 3.91 8 16:22 27.01.2020
78 Clouds -23 1010 96 0 3.91 8 15:55 27.01.2020
79 Clouds -23 1010 96 0 3.91 8 15:36 27.01.2020
80 Clouds -23 1010 96 0 3.91 8 15:18 27.01.2020
81 Clouds -23 1010 96 0 3.91 8 14:41 27.01.2020
82 Clouds -23 1010 96 0 3.91 8 14:22 27.01.2020
83 Clouds -23 1009 96 0 4.1 9 13:55 27.01.2020
84 Clouds -23 1009 96 0 4.1 9 13:37 27.01.2020
85 Clouds -24 1009 97 0 4.12 8 13:18 27.01.2020
86 Clouds -24 1009 97 0 4.12 8 12:43 27.01.2020
87 Clouds -24 1009 97 0 4.12 8 12:23 27.01.2020
88 Clouds -24 1009 97 0 4.12 8 11:58 27.01.2020
89 Clouds -24 1009 97 0 4.12 8 11:40 27.01.2020
90 Clouds -23 1008 96 0 4.25 17 11:19 27.01.2020
91 Clouds -23 1008 96 0 4.25 17 10:42 27.01.2020
92 Clouds -23 1008 96 0 4.25 17 10:24 27.01.2020
93 Clouds -23 1008 96 0 4.25 17 09:40 27.01.2020
94 Clouds -23 1008 96 0 4.25 17 09:19 27.01.2020
95 Clouds -23 1008 96 0 4.25 17 08:59 27.01.2020
96 Clouds -23 1008 96 0 4.25 17 08:40 27.01.2020
97 Clouds -23 1007 96 0 4.22 14 08:19 27.01.2020
98 -273 0 0 0 0 0 07:52 27.01.2020
99 Clouds -23 1007 96 0 4.22 14 07:33 27.01.2020
100 Clouds -23 1007 96 0 4.22 14 06:49 27.01.2020
101 Clouds -23 1007 96 0 4.22 14 05:53 27.01.2020
102 Clouds -21 1006 95 0 5.02 31 05:18 27.01.2020
103 Clouds -21 1006 95 0 5.02 31 03:37 27.01.2020
104 Clouds -21 1006 95 0 5.02 31 02:27 27.01.2020
105 Clouds -21 1005 96 0 4.71 22 01:28 27.01.2020
106 Clouds -21 1005 96 0 4.71 22 00:42 27.01.2020
107 Clouds -21 1005 96 0 4.71 22 00:22 27.01.2020
108 Clouds -21 1005 96 0 4.71 22 23:58 26.01.2020
109 Clouds -21 1005 96 0 4.71 22 23:39 26.01.2020
110 Clouds -20 1004 96 0 4 32 23:18 26.01.2020
111 Clouds -20 1004 96 0 4 32 22:39 26.01.2020
112 Clouds -20 1004 96 0 4 32 22:20 26.01.2020
113 Clouds -20 1004 96 0 4 32 21:59 26.01.2020
114 Clouds -20 1004 96 0 4 32 21:40 26.01.2020
115 Clouds -20 1004 96 0 4 32 21:22 26.01.2020
116 Clouds -20 1004 96 0 4 32 21:22 26.01.2020
117 Clouds -20 1004 96 0 4 32 20:58 26.01.2020
118 Clouds -20 1004 96 0 4 32 20:40 26.01.2020
119 Clouds -19 1003 95 0 4.43 40 20:20 26.01.2020
120 Clouds -20 1004 95 0 4.48 32 19:59 26.01.2020
121 Clouds -20 1004 95 0 4.48 32 19:39 26.01.2020
122 Clouds -20 1004 95 0 4.48 32 19:21 26.01.2020
123 Clouds -20 1004 95 0 4.48 32 18:58 26.01.2020
124 Clouds -20 1004 95 0 4.48 32 18:39 26.01.2020
125 Clouds -20 1004 95 0 4.48 32 18:39 26.01.2020
126 Clouds -20 1004 95 0 4.48 32 18:21 26.01.2020
127 Clouds -20 1004 95 0 4.48 32 17:57 26.01.2020
128 Clouds -20 1004 95 0 4.48 32 17:38 26.01.2020
129 Clouds -20 1003 95 0 4.59 28 17:18 26.01.2020
130 Clouds -20 1003 95 0 4.59 28 16:56 26.01.2020
131 Clouds -20 1003 95 0 4.59 28 16:38 26.01.2020
132 Clouds -20 1003 95 0 4.59 28 16:19 26.01.2020
133 Clouds -20 1003 95 0 4.59 28 15:45 26.01.2020
134 Clouds -20 1003 95 0 4.59 28 15:22 26.01.2020
135 Clouds -20 1003 95 0 4.59 28 14:58 26.01.2020
136 Clouds -20 1003 95 0 4.59 28 14:39 26.01.2020
137 Clouds -19 1002 96 0 4.15 33 14:19 26.01.2020
138 Clouds -19 1002 96 0 4.15 33 13:40 26.01.2020
139 Clouds -19 1002 96 0 4.15 33 13:20 26.01.2020
140 Clouds -19 1002 96 0 3.89 33 12:56 26.01.2020
141 Clouds -19 1002 96 0 3.89 33 12:37 26.01.2020
142 Clouds -19 1002 96 0 3.89 33 12:19 26.01.2020
143 Clouds -19 1002 96 0 3.89 33 11:57 26.01.2020
144 Clouds -19 1002 96 0 3.89 33 11:37 26.01.2020
145 Snow -19 1000 95 0 3.93 33 11:18 26.01.2020
146 Snow -19 1000 95 0 3.93 33 10:55 26.01.2020
147 Snow -19 1000 95 0 3.93 33 10:37 26.01.2020
148 Snow -19 1000 95 0 3.93 33 10:19 26.01.2020
149 Snow -19 1000 95 0 3.93 33 10:19 26.01.2020
150 Snow -19 1000 95 0 3.93 33 09:42 26.01.2020
151 Snow -19 1000 95 0 3.93 33 09:23 26.01.2020
152 Snow -19 1000 95 0 3.93 33 08:59 26.01.2020
153 Snow -19 1000 95 0 3.93 33 08:41 26.01.2020
154 Clouds -21 999 96 0 4.41 34 08:22 26.01.2020
155 Clouds -21 999 96 0 4.41 34 07:50 26.01.2020
156 Clouds -21 999 96 0 4.41 34 07:27 26.01.2020
157 Clouds -21 999 96 0 4.41 34 06:51 26.01.2020
158 Clouds -21 999 96 0 4.41 34 06:23 26.01.2020
159 Snow -20 997 96 0 4.5 33 05:28 26.01.2020
160 Snow -20 997 96 0 4.5 33 03:31 26.01.2020
161 Snow -20 997 96 0 4.5 33 02:38 26.01.2020
162 Snow -20 997 96 0 5.03 35 01:45 26.01.2020
163 Snow -20 997 96 0 5.03 35 01:22 26.01.2020
164 Snow -20 997 96 0 4.77 35 00:42 26.01.2020
165 Snow -20 997 96 0 4.77 35 00:24 26.01.2020
166 Snow -20 997 96 0 4.77 35 23:39 25.01.2020
167 Clouds -20 996 96 0 4.89 37 23:21 25.01.2020
168 Clouds -20 996 96 0 4.89 37 22:56 25.01.2020
169 Clouds -20 996 96 0 4.89 37 22:36 25.01.2020
170 Clouds -20 996 96 0 4.89 37 22:18 25.01.2020
171 Clouds -20 996 96 0 4.89 37 21:41 25.01.2020
172 Clouds -20 996 96 0 4.89 37 21:23 25.01.2020
173 Clouds -20 996 96 0 4.89 37 20:56 25.01.2020
174 Clouds -20 996 96 0 4.89 37 20:38 25.01.2020
175 Snow -19 994 95 0 5.54 43 20:20 25.01.2020
176 Snow -19 994 95 0 5.54 43 19:44 25.01.2020
177 Snow -19 994 95 0 5.54 43 19:20 25.01.2020
178 Snow -20 994 96 0 5.5 41 18:57 25.01.2020
179 Snow -20 994 96 0 5.5 41 18:39 25.01.2020
180 Snow -20 994 96 0 5.5 41 18:20 25.01.2020
181 Snow -20 994 96 0 5.5 41 17:42 25.01.2020
182 Snow -20 994 96 0 5.5 41 17:23 25.01.2020
183 Snow -19 994 95 0 5.57 43 16:58 25.01.2020
184 Snow -19 994 95 0 5.57 43 16:40 25.01.2020
185 Snow -19 994 95 0 5.57 43 16:21 25.01.2020
186 Snow -19 994 95 0 5.57 43 15:47 25.01.2020
187 Snow -19 994 95 0 5.57 43 15:25 25.01.2020
188 Snow -19 994 95 0 5.57 43 14:59 25.01.2020
189 Snow -19 994 95 0 5.57 43 14:41 25.01.2020
190 Snow -18 993 95 0 5.7 52 14:18 25.01.2020
191 Snow -18 993 95 0 5.7 52 13:43 25.01.2020
192 Snow -18 993 95 0 5.7 52 13:23 25.01.2020
193 Clouds -19 993 95 0 5.46 46 12:46 25.01.2020
194 Clouds -19 993 95 0 5.46 46 12:26 25.01.2020
195 Clouds -19 993 95 0 5.46 46 11:46 25.01.2020
196 Clouds -19 993 95 0 5.46 46 11:22 25.01.2020
197 Snow -19 991 95 0 5.86 44 10:59 25.01.2020
198 Snow -19 991 95 0 5.86 44 10:40 25.01.2020
199 Snow -19 991 95 0 5.86 44 10:20 25.01.2020
200 Snow -19 991 95 0 5.86 44 09:54 25.01.2020
201 Snow -19 991 95 0 5.86 44 09:36 25.01.2020
202 Snow -19 991 95 0 5.86 44 09:18 25.01.2020
203 Snow -19 991 95 0 5.86 44 08:42 25.01.2020
204 Snow -19 990 95 0 5.99 39 07:51 25.01.2020
205 Snow -19 990 95 0 5.99 39 06:57 25.01.2020
206 Snow -19 990 95 0 5.99 39 06:29 25.01.2020
207 Snow -19 990 95 0 5.99 39 05:48 25.01.2020
208 Snow -19 990 95 0 5.99 39 05:23 25.01.2020
209 Snow -19 989 96 0 6.08 39 03:54 25.01.2020
210 Snow -19 989 96 0 6.08 39 03:23 25.01.2020
211 Snow -19 989 96 0 6.08 39 02:23 25.01.2020
212 Snow -18 989 95 0 6.23 42 01:53 25.01.2020
213 Clouds -19 990 96 0 6.03 43 00:52 25.01.2020
214 Clouds -19 990 96 0 6.03 43 00:26 25.01.2020
215 Clouds -19 990 96 0 6.03 43 00:26 25.01.2020
216 Clouds -19 990 96 0 6.03 43 23:59 24.01.2020
217 Clouds -19 990 96 0 6.03 43 23:59 24.01.2020
218 Clouds -19 990 96 0 6.03 43 23:40 24.01.2020
219 Clouds -19 990 96 0 6.03 43 23:40 24.01.2020
220 Clouds -19 990 96 0 6.03 43 23:22 24.01.2020
221 Snow -19 989 95 0 6.73 42 22:45 24.01.2020
222 Snow -19 989 95 0 6.73 42 22:25 24.01.2020
223 Snow -19 989 95 0 6.73 42 21:56 24.01.2020
224 Snow -19 989 95 0 6.73 42 21:37 24.01.2020
225 Snow -19 989 95 0 6.73 42 21:18 24.01.2020
226 Snow -19 989 95 0 6.73 42 20:42 24.01.2020
227 Snow -20 989 100 0 6.49 35 20:21 24.01.2020
228 Snow -20 989 100 0 6.49 35 19:57 24.01.2020
229 Snow -20 989 100 0 6.49 35 19:39 24.01.2020
230 Snow -20 989 100 0 6.49 35 19:21 24.01.2020
231 Snow -20 989 100 0 6.49 35 18:43 24.01.2020
232 Snow -20 989 100 0 6.49 35 18:43 24.01.2020
233 Snow -20 989 100 0 6.49 35 18:24 24.01.2020
234 Snow -20 989 100 0 6.49 35 17:56 24.01.2020
235 Snow -20 989 100 0 6.49 35 17:38 24.01.2020
236 Snow -19 989 98 0 6.93 41 17:18 24.01.2020
237 Snow -19 989 98 0 6.93 41 16:39 24.01.2020
238 Snow -19 989 98 0 6.93 41 16:39 24.01.2020
239 Snow -19 989 98 0 6.93 41 16:21 24.01.2020
240 Snow -19 989 98 0 6.93 41 15:43 24.01.2020
241 Snow -19 989 98 0 6.93 41 15:23 24.01.2020
242 Snow -19 989 98 0 6.93 41 14:59 24.01.2020
243 Snow -19 989 98 0 6.93 41 14:40 24.01.2020
244 Snow -18 989 97 0 7.73 40 14:22 24.01.2020
245 Snow -18 989 97 0 7.73 40 13:43 24.01.2020
246 Snow -18 989 97 0 7.73 40 13:23 24.01.2020
247 Snow -18 989 98 0 7.33 38 12:45 24.01.2020
248 Snow -18 989 98 0 7.33 38 12:23 24.01.2020
249 Snow -18 989 98 0 7.33 38 11:58 24.01.2020
250 Snow -18 989 98 0 7.33 38 11:39 24.01.2020
251 Snow -17 989 96 0 7.75 42 11:18 24.01.2020
252 Snow -17 989 96 0 7.75 42 10:42 24.01.2020
253 Snow -17 989 96 0 7.75 42 10:42 24.01.2020
254 Snow -17 989 96 0 7.75 42 10:42 24.01.2020
255 Snow -17 989 96 0 7.75 42 10:21 24.01.2020
256 Snow -17 989 96 0 7.75 42 09:55 24.01.2020
257 Snow -17 989 96 0 7.75 42 09:37 24.01.2020
258 Snow -17 989 96 0 7.75 42 09:18 24.01.2020
259 Snow -17 989 96 0 7.75 42 08:39 24.01.2020
260 Snow -17 989 95 0 8.25 38 08:19 24.01.2020
261 Snow -17 989 95 0 8.25 38 07:48 24.01.2020
262 Snow -17 989 95 0 8.25 38 07:24 24.01.2020
263 Snow -17 989 95 0 8.25 38 06:45 24.01.2020
264 Snow -17 989 95 0 8.25 38 06:24 24.01.2020
265 Snow -17 989 95 0 8.25 38 05:37 24.01.2020
266 Snow -16 989 95 0 8.38 42 03:47 24.01.2020
267 Snow -16 989 95 0 8.38 42 02:41 24.01.2020
268 Snow -16 989 95 0 8.38 42 02:22 24.01.2020
269 Snow -15 989 94 0 8.71 40 01:39 24.01.2020
270 Snow -16 990 94 0 8.39 38 00:52 24.01.2020
271 Snow -16 990 94 0 8.39 38 00:19 24.01.2020
272 Snow -16 990 94 0 8.39 38 23:45 23.01.2020
273 Snow -16 990 94 0 8.39 38 23:26 23.01.2020
274 Snow -15 989 94 0 8.55 40 22:59 23.01.2020
275 Snow -15 989 94 0 8.55 40 22:37 23.01.2020
276 Snow -15 989 94 0 8.55 40 22:18 23.01.2020
277 Snow -15 989 94 0 8.55 40 21:55 23.01.2020
278 Snow -15 989 94 0 8.55 40 21:37 23.01.2020
279 Snow -15 989 94 0 8.55 40 21:19 23.01.2020
280 Snow -15 989 94 0 8.55 40 20:55 23.01.2020
281 Snow -15 989 94 0 8.55 40 20:37 23.01.2020
282 Snow -14 989 94 0 7.99 43 20:18 23.01.2020
283 Snow -14 989 94 0 7.99 43 19:44 23.01.2020
284 Snow -14 989 94 0 7.99 43 19:23 23.01.2020
285 Snow -14 989 94 0 7.99 43 18:58 23.01.2020
286 Snow -14 989 94 0 7.99 43 18:39 23.01.2020
287 Snow -14 989 94 0 7.99 43 18:20 23.01.2020
288 Snow -14 989 94 0 7.99 43 17:56 23.01.2020
289 Snow -14 989 94 0 7.99 43 17:37 23.01.2020
290 Snow -14 988 93 0 7.68 49 17:18 23.01.2020
291 Snow -14 988 93 0 7.68 49 16:39 23.01.2020
292 Snow -14 988 93 0 7.68 49 16:20 23.01.2020
293 Snow -14 988 93 0 7.68 49 15:58 23.01.2020
294 Snow -14 988 93 0 7.68 49 15:40 23.01.2020
295 Snow -14 988 93 0 7.68 49 15:19 23.01.2020
296 Snow -14 988 93 0 7.68 49 14:59 23.01.2020
297 Snow -14 988 93 0 7.68 49 14:41 23.01.2020
298 Snow -14 988 93 0 7.68 49 14:22 23.01.2020
299 Snow -15 987 94 0 7.61 55 13:56 23.01.2020
300 Snow -15 987 94 0 7.61 55 13:37 23.01.2020
301 Snow -15 987 94 0 6.91 50 13:18 23.01.2020
302 Snow -15 987 94 0 6.91 50 12:43 23.01.2020
303 Snow -15 987 94 0 6.91 50 12:24 23.01.2020
304 Snow -15 987 94 0 6.91 50 11:56 23.01.2020
305 Snow -15 987 94 0 6.91 50 11:37 23.01.2020
306 Snow -14 986 93 0 6.58 49 11:18 23.01.2020
307 Snow -14 985 93 0 7.01 52 10:43 23.01.2020
308 Snow -14 985 93 0 7.01 52 10:19 23.01.2020
309 Snow -14 985 93 0 7.01 52 09:43 23.01.2020
310 Snow -14 985 93 0 7.01 52 09:25 23.01.2020
311 Snow -14 986 93 0 6.58 49 08:58 23.01.2020
312 Snow -14 986 93 0 6.58 49 08:40 23.01.2020
313 Snow -12 984 93 0 7.4 37 08:21 23.01.2020
314 Snow -12 984 93 0 7.4 37 07:44 23.01.2020
315 Snow -12 984 93 0 7.4 37 07:24 23.01.2020
316 Snow -12 984 93 0 7.4 37 06:51 23.01.2020
317 Snow -12 984 93 0 7.4 37 06:22 23.01.2020
318 Snow -12 984 93 0 7.4 37 05:44 23.01.2020
319 Snow -11 982 94 0 7.05 41 04:24 23.01.2020
320 Snow -11 982 94 0 7.05 41 02:34 23.01.2020
321 Snow -12 982 94 0 6.66 57 01:19 23.01.2020
322 Snow -12 982 94 0 6.66 57 00:27 23.01.2020
323 Snow -12 982 94 0 6.66 57 23:48 22.01.2020
324 Snow -12 982 94 0 6.66 57 23:29 22.01.2020
325 Snow -10 980 93 0 6.1 96 22:59 22.01.2020
326 Snow -10 980 93 0 6.1 96 22:40 22.01.2020
327 Snow -10 980 93 0 6.1 96 22:22 22.01.2020
328 Snow -10 980 93 0 6.1 96 21:40 22.01.2020
329 Snow -10 980 93 0 6.1 96 21:22 22.01.2020
330 Snow -10 980 93 0 6.1 96 20:57 22.01.2020
331 Snow -10 980 93 0 6.1 96 20:37 22.01.2020
332 Snow -10 979 94 0 5.24 105 20:19 22.01.2020
333 Snow -11 979 94 0 4.64 101 19:56 22.01.2020
334 Snow -11 979 94 0 4.64 101 19:37 22.01.2020
335 Snow -11 979 94 0 4.64 101 19:18 22.01.2020
336 Snow -11 979 94 0 4.64 101 18:56 22.01.2020
337 Snow -11 979 94 0 4.64 101 18:37 22.01.2020
338 Snow -11 979 94 0 4.64 101 18:19 22.01.2020
339 Snow -11 979 94 0 4.64 101 17:40 22.01.2020
340 Snow -11 978 94 0 3.71 107 17:21 22.01.2020
341 Snow -11 978 94 0 3.71 107 16:58 22.01.2020
342 Snow -11 978 94 0 3.71 107 16:39 22.01.2020
343 Snow -11 978 94 0 3.71 107 16:21 22.01.2020
344 Snow -11 978 94 0 3.71 107 15:56 22.01.2020
345 Snow -11 978 94 0 3.71 107 15:38 22.01.2020
346 Snow -11 978 94 0 3.71 107 15:19 22.01.2020
347 Snow -11 978 94 0 3.71 107 14:39 22.01.2020
348 Snow -11 977 95 0 4.01 114 14:20 22.01.2020
349 Snow -11 977 95 0 4.01 114 13:59 22.01.2020
350 Snow -11 977 95 0 4.01 114 13:38 22.01.2020
351 Snow -11 977 95 0 3.97 116 13:19 22.01.2020
352 Snow -11 977 95 0 3.97 116 12:57 22.01.2020
353 Snow -11 977 95 0 3.97 116 12:39 22.01.2020
354 Snow -11 977 95 0 3.97 116 12:19 22.01.2020
355 Snow -11 977 95 0 3.97 116 11:58 22.01.2020
356 Snow -11 977 95 0 3.97 116 11:39 22.01.2020
357 Snow -10 976 95 0 4.24 141 11:19 22.01.2020
358 Snow -10 976 95 0 4.24 141 10:46 22.01.2020
359 Snow -10 976 95 0 4.24 141 10:21 22.01.2020
360 Snow -10 976 95 0 4.24 141 09:59 22.01.2020
361 Snow -10 976 95 0 4.24 141 09:40 22.01.2020
362 Snow -10 976 95 0 4.24 141 09:22 22.01.2020
363 Snow -10 976 95 0 4.24 141 08:56 22.01.2020
364 Snow -10 976 95 0 4.24 141 08:37 22.01.2020
365 Snow -9 976 94 0 5.08 141 08:19 22.01.2020
366 Snow -9 976 94 0 5.08 141 07:44 22.01.2020
367 Snow -9 976 94 0 5.08 141 07:26 22.01.2020
368 Snow -9 976 94 0 5.08 141 06:37 22.01.2020
369 Snow -9 976 94 0 5.08 141 06:18 22.01.2020
370 Snow -9 976 94 0 4.75 155 04:27 22.01.2020
371 Snow -9 976 94 0 4.75 155 03:27 22.01.2020
372 Snow -9 976 94 0 4.75 155 02:48 22.01.2020
373 Snow -9 977 94 0 4.81 172 00:47 22.01.2020
374 Snow -9 977 94 0 4.81 172 00:28 22.01.2020
375 Snow -9 977 94 0 4.81 172 23:59 21.01.2020
376 Snow -9 977 94 0 4.81 172 23:37 21.01.2020
377 Snow -11 977 93 0 5.57 180 23:19 21.01.2020
378 Snow -11 977 93 0 5.57 180 22:42 21.01.2020
379 Snow -11 977 93 0 5.57 180 22:23 21.01.2020
380 Snow -11 977 93 0 5.57 180 21:58 21.01.2020
381 Snow -11 977 93 0 5.57 180 21:39 21.01.2020
382 Snow -11 977 93 0 5.57 180 21:20 21.01.2020
383 Snow -11 977 93 0 5.57 180 20:57 21.01.2020
384 Snow -11 977 93 0 5.57 180 20:39 21.01.2020
385 Snow -12 979 92 0 5.74 188 20:20 21.01.2020
386 Snow -12 979 92 0 5.74 188 19:58 21.01.2020
387 Snow -12 979 92 0 5.74 188 19:39 21.01.2020
388 Snow -12 979 92 0 5.74 188 19:20 21.01.2020
389 Snow -12 979 92 0 5.74 188 18:56 21.01.2020
390 Snow -12 979 92 0 5.74 188 18:38 21.01.2020
391 Snow -12 979 92 0 5.74 188 18:20 21.01.2020
392 Snow -12 979 92 0 5.74 188 17:45 21.01.2020
393 Clouds -13 981 88 0 6.56 198 17:21 21.01.2020
394 Clouds -13 981 88 0 6.56 198 16:59 21.01.2020
395 Clouds -13 981 88 0 6.56 198 16:37 21.01.2020
396 Clouds -13 981 88 0 6.56 198 16:19 21.01.2020
397 Clouds -13 981 88 0 6.56 198 15:57 21.01.2020
398 Clouds -13 981 88 0 6.56 198 15:37 21.01.2020
399 Clouds -13 981 88 0 6.56 198 15:19 21.01.2020
400 Clouds -13 981 88 0 6.56 198 14:39 21.01.2020
401 Clouds -14 984 88 0 6.52 201 14:20 21.01.2020
402 Clouds -14 984 88 0 6.52 201 13:42 21.01.2020
403 Clouds -14 984 88 0 6.52 201 13:20 21.01.2020
404 Clouds -14 984 88 0 6.34 197 12:57 21.01.2020
405 Clouds -14 984 88 0 6.34 197 12:39 21.01.2020
406 Clouds -14 984 88 0 6.34 197 12:21 21.01.2020
407 Clouds -14 984 88 0 6.34 197 11:41 21.01.2020
408 Clouds -15 986 87 0 8.43 207 11:22 21.01.2020
409 Clouds -15 986 87 0 8.43 207 11:00 21.01.2020
410 Clouds -15 986 87 0 8.43 207 10:41 21.01.2020
411 Clouds -15 986 87 0 8.43 207 10:22 21.01.2020
412 Clouds -15 986 87 0 8.43 207 09:43 21.01.2020
413 Clouds -15 986 87 0 8.43 207 09:23 21.01.2020
414 Clouds -15 986 87 0 8.43 207 08:56 21.01.2020
415 Clouds -15 986 87 0 8.43 207 08:38 21.01.2020
416 Clouds -15 989 88 0 9.22 209 08:19 21.01.2020
417 Clouds -16 989 88 0 9.33 209 07:41 21.01.2020
418 Clouds -16 989 88 0 9.33 209 07:22 21.01.2020
419 Clouds -16 989 88 0 9.33 209 06:55 21.01.2020
420 Clouds -16 989 88 0 9.33 209 06:37 21.01.2020
421 Clouds -16 989 88 0 9.33 209 05:50 21.01.2020
422 Clouds -15 992 88 0 10.29 213 04:41 21.01.2020
423 Clouds -15 992 88 0 10.29 213 03:40 21.01.2020
424 Clouds -15 992 88 0 10.29 213 02:26 21.01.2020
425 Clouds -14 996 86 0 9.79 222 01:28 21.01.2020
426 Clouds -14 996 86 0 9.79 222 00:40 21.01.2020
427 Clouds -14 996 86 0 9.79 222 23:59 20.01.2020
428 Clouds -14 996 86 0 9.79 222 23:41 20.01.2020
429 Clouds -14 998 89 0 10.32 226 23:19 20.01.2020
430 Clouds -14 998 89 0 10.32 226 22:58 20.01.2020
431 Clouds -14 998 89 0 10.32 226 22:38 20.01.2020
432 Clouds -14 998 89 0 10.32 226 22:20 20.01.2020
433 Clouds -14 998 89 0 10.32 226 22:20 20.01.2020
434 Clouds -14 998 89 0 10.32 226 21:58 20.01.2020
435 Clouds -14 998 89 0 10.32 226 21:37 20.01.2020
436 Clouds -14 998 89 0 10.32 226 21:19 20.01.2020
437 Clouds -14 998 89 0 10.32 226 20:57 20.01.2020
438 Clouds -14 998 89 0 10.32 226 20:38 20.01.2020
439 Clouds -16 1000 86 0 9.6 223 20:18 20.01.2020
440 Clouds -16 1000 86 0 9.6 223 19:56 20.01.2020
441 Clouds -16 1000 86 0 9.6 223 19:38 20.01.2020
442 Clouds -16 1000 86 0 9.6 223 19:18 20.01.2020
443 Clouds -16 1000 86 0 9.6 223 18:44 20.01.2020
444 Clouds -16 1000 86 0 9.6 223 18:23 20.01.2020
445 Clouds -16 1000 86 0 9.6 223 17:58 20.01.2020
446 Clouds -16 1000 86 0 9.6 223 17:36 20.01.2020
447 Clouds -14 1004 89 0 9.04 231 17:18 20.01.2020
448 Clouds -14 1004 89 0 9.04 231 16:43 20.01.2020
449 Clouds -14 1004 89 0 9.04 231 16:25 20.01.2020
450 Clouds -14 1004 89 0 9.04 231 15:58 20.01.2020
451 Clouds -14 1004 89 0 9.04 231 15:39 20.01.2020
452 Clouds -14 1004 89 0 9.04 231 15:21 20.01.2020
453 Clouds -14 1004 89 0 9.04 231 14:42 20.01.2020
454 Clouds -14 1004 89 0 9.04 231 14:24 20.01.2020
455 Snow -7 1006 93 0 7.57 251 13:59 20.01.2020
456 Snow -7 1006 93 0 7.57 251 13:40 20.01.2020
457 Snow -7 1005 93 0 7.21 250 13:22 20.01.2020
458 Snow -7 1005 93 0 7.21 250 12:47 20.01.2020
459 Snow -7 1005 93 0 7.21 250 12:29 20.01.2020
460 Snow -7 1005 93 0 7.21 250 11:59 20.01.2020
461 Snow -7 1005 93 0 7.21 250 11:40 20.01.2020
462 Snow -8 1007 92 0 5.28 291 11:21 20.01.2020
463 Snow -8 1007 92 0 5.28 291 10:55 20.01.2020
464 Snow -8 1007 92 0 5.28 291 10:37 20.01.2020
465 Snow -8 1007 92 0 5.28 291 10:37 20.01.2020
466 Snow -8 1007 92 0 5.28 291 10:18 20.01.2020
467 Snow -8 1007 92 0 5.28 291 09:40 20.01.2020
468 Snow -8 1007 92 0 5.28 291 09:40 20.01.2020
469 Snow -8 1007 92 0 5.28 291 09:20 20.01.2020
470 Snow -8 1007 92 0 5.28 291 08:46 20.01.2020
471 Snow -8 1007 92 0 5.28 291 08:28 20.01.2020
472 Snow -7 1007 90 0 8.28 300 07:46 20.01.2020
473 Snow -7 1007 90 0 8.28 300 07:26 20.01.2020
474 Snow -7 1007 90 0 8.28 300 06:54 20.01.2020
475 Snow -7 1007 90 0 8.28 300 06:28 20.01.2020
476 Snow -7 1007 90 0 8.28 300 05:43 20.01.2020
477 Snow -7 1007 90 0 8.28 300 05:43 20.01.2020
478 Snow -7 1007 90 0 8.28 300 05:43 20.01.2020
479 Snow -7 1007 90 0 8.28 300 05:22 20.01.2020
480 Snow -6 1007 85 0 11.62 297 04:47 20.01.2020
481 Snow -6 1007 85 0 11.62 297 02:58 20.01.2020
482 Snow -6 1007 85 0 11.62 297 02:58 20.01.2020
483 Snow -5 1007 92 0 12.54 299 01:55 20.01.2020
484 Snow -5 1007 92 0 12.54 299 01:37 20.01.2020
485 Snow -5 1007 91 0 12.27 299 00:45 20.01.2020
486 Snow -5 1007 91 0 12.27 299 00:24 20.01.2020
487 Snow -5 1007 91 0 12.27 299 23:39 19.01.2020
488 Snow -4 1006 86 0 12.71 301 23:20 19.01.2020
489 Snow -4 1006 86 0 12.71 301 23:20 19.01.2020
490 Snow -4 1006 86 0 12.71 301 22:57 19.01.2020
491 Snow -4 1006 86 0 12.71 301 22:39 19.01.2020
492 Snow -4 1006 86 0 12.71 301 22:39 19.01.2020
493 Snow -4 1006 86 0 12.71 301 22:20 19.01.2020
494 Snow -4 1006 86 0 12.71 301 22:20 19.01.2020
495 Snow -4 1006 86 0 12.71 301 21:57 19.01.2020
496 Snow -4 1006 86 0 12.71 301 21:38 19.01.2020
497 Snow -4 1006 86 0 12.71 301 21:20 19.01.2020
498 Snow -4 1006 86 0 12.71 301 20:57 19.01.2020
499 Snow -4 1006 86 0 12.71 301 20:39 19.01.2020
500 Clouds -5 1008 85 0 11.1 294 20:20 19.01.2020
501 Clouds -5 1008 85 0 11.1 294 19:57 19.01.2020
502 Clouds -5 1008 85 0 11.1 294 19:39 19.01.2020
503 Clouds -5 1008 85 0 11.1 294 19:20 19.01.2020
504 Clouds -5 1008 85 0 11.1 294 19:20 19.01.2020
505 Clouds -5 1008 85 0 11.1 294 18:57 19.01.2020
506 Clouds -5 1008 85 0 11.1 294 18:38 19.01.2020
507 Clouds -5 1008 85 0 11.1 294 18:20 19.01.2020
508 Clouds -5 1008 85 0 11.1 294 17:58 19.01.2020
509 Clouds -5 1008 85 0 11.1 294 17:58 19.01.2020
510 Clouds -5 1008 85 0 11.1 294 17:40 19.01.2020
511 Clouds -8 1010 91 0 6.35 279 17:21 19.01.2020
512 Clouds -8 1010 91 0 6.35 279 16:59 19.01.2020
513 Clouds -8 1010 91 0 6.35 279 16:39 19.01.2020
514 Clouds -8 1010 91 0 6.35 279 16:21 19.01.2020
515 Clouds -8 1010 91 0 6.35 279 15:58 19.01.2020
516 Clouds -8 1010 91 0 6.35 279 15:39 19.01.2020
517 Clouds -8 1010 91 0 6.35 279 15:20 19.01.2020
518 Clouds -8 1010 91 0 6.35 279 14:58 19.01.2020
519 Clouds -8 1010 91 0 6.35 279 14:39 19.01.2020
520 Snow -9 1011 92 0 6.47 315 14:18 19.01.2020
521 Snow -9 1011 92 0 6.47 315 13:57 19.01.2020
522 Snow -9 1011 92 0 6.47 315 13:38 19.01.2020
523 Snow -10 1011 93 0 6.38 323 13:19 19.01.2020
524 Snow -10 1011 93 0 6.38 323 12:55 19.01.2020
525 Snow -10 1011 93 0 6.38 323 12:37 19.01.2020
526 Snow -10 1011 93 0 6.38 323 12:19 19.01.2020
527 Snow -10 1011 93 0 6.38 323 11:42 19.01.2020
528 Snow -11 1011 94 0 6.11 287 11:20 19.01.2020
529 Snow -11 1011 94 0 6.11 287 10:56 19.01.2020
530 Snow -11 1011 94 0 6.11 287 10:38 19.01.2020
531 Snow -11 1011 94 0 6.11 287 10:19 19.01.2020
532 Snow -11 1011 94 0 6.11 287 09:55 19.01.2020
533 Snow -11 1011 94 0 6.11 287 09:55 19.01.2020
534 Snow -11 1011 94 0 6.11 287 09:55 19.01.2020
535 Snow -11 1011 94 0 6.11 287 09:55 19.01.2020
536 Snow -11 1011 94 0 6.11 287 09:36 19.01.2020
537 Snow -11 1011 94 0 6.11 287 09:18 19.01.2020
538 Snow -11 1011 94 0 6.11 287 08:44 19.01.2020
539 Snow -10 1011 91 0 8.47 288 08:26 19.01.2020
540 Clear -16 1011 87 0 5.55 281 07:42 19.01.2020
541 Clear -16 1011 87 0 5.55 281 07:22 19.01.2020
542 Clear -16 1011 87 0 5.55 281 06:53 19.01.2020
543 Clear -16 1011 87 0 5.55 281 06:21 19.01.2020
544 Clear -18 1011 92 0 4.55 300 02:44 19.01.2020
545 Clouds -18 1011 95 0 4.64 288 02:21 19.01.2020
546 Clouds -18 1011 94 0 5 276 01:25 19.01.2020
547 Clouds -18 1011 94 0 5 276 00:50 19.01.2020
548 Clouds -18 1011 94 0 5 276 00:29 19.01.2020
549 Clouds -18 1011 94 0 5 276 23:58 18.01.2020
550 Clouds -18 1011 94 0 5 276 23:40 18.01.2020
551 Clear -20 1010 92 0 5.4 261 23:21 18.01.2020
552 Clear -20 1010 92 0 5.4 261 22:55 18.01.2020
553 Clear -20 1010 92 0 5.4 261 22:37 18.01.2020
554 Clear -20 1010 92 0 5.4 261 22:37 18.01.2020
555 Clear -20 1010 92 0 5.4 261 22:19 18.01.2020
556 Clear -20 1010 92 0 5.4 261 22:19 18.01.2020
557 Clear -20 1010 92 0 5.4 261 21:57 18.01.2020
558 Clear -20 1010 92 0 5.4 261 21:37 18.01.2020
559 Clear -20 1010 92 0 5.4 261 21:19 18.01.2020
560 Clear -20 1010 92 0 5.4 261 20:42 18.01.2020
561 Clear -21 1010 92 0 5.39 257 20:21 18.01.2020
562 Clear -22 1010 94 0 5.29 258 19:57 18.01.2020
563 Clear -22 1010 94 0 5.29 258 19:39 18.01.2020
564 Clear -22 1010 94 0 5.29 258 19:21 18.01.2020
565 Clear -22 1010 94 0 5.29 258 18:42 18.01.2020
566 Clear -22 1010 94 0 5.29 258 18:21 18.01.2020
567 Clear -22 1010 94 0 5.29 258 17:55 18.01.2020
568 Clear -22 1010 94 0 5.29 258 17:37 18.01.2020
569 Clear -22 1008 91 0 4.5 283 17:18 18.01.2020
570 Clear -22 1008 91 0 4.5 283 16:41 18.01.2020
571 Clear -22 1008 91 0 4.5 283 16:23 18.01.2020
572 Clear -22 1008 91 0 4.5 283 15:59 18.01.2020
573 Clear -22 1008 91 0 4.5 283 15:40 18.01.2020
574 Clear -22 1008 91 0 4.5 283 15:22 18.01.2020
575 Clear -22 1008 91 0 4.5 283 14:44 18.01.2020
576 Clear -22 1008 91 0 4.5 283 14:24 18.01.2020
577 Clear -21 1007 90 0 4.4 309 13:59 18.01.2020
578 Clear -21 1007 90 0 4.4 309 13:41 18.01.2020
579 Clear -22 1007 88 0 4.25 316 13:21 18.01.2020
580 Clear -22 1007 88 0 4.25 316 12:55 18.01.2020
581 Clear -22 1007 88 0 4.25 316 12:55 18.01.2020
582 Clear -22 1007 88 0 4.25 316 12:37 18.01.2020
583 Clear -22 1007 88 0 4.25 316 12:19 18.01.2020
584 Clear -22 1007 88 0 4.25 316 11:44 18.01.2020
585 Clear -21 1004 88 0 4.46 341 11:21 18.01.2020
586 Clear -21 1004 88 0 4.46 341 10:54 18.01.2020
587 Clear -21 1004 88 0 4.46 341 10:36 18.01.2020
588 Clear -21 1004 88 0 4.46 341 10:18 18.01.2020
589 Clear -21 1004 88 0 4.46 341 09:42 18.01.2020
590 Clear -21 1004 88 0 4.46 341 09:20 18.01.2020
591 Clear -21 1004 88 0 4.46 341 08:42 18.01.2020
592 Clouds -20 1001 94 0 3.44 344 08:20 18.01.2020
593 Clouds -20 1001 94 0 3.44 344 07:59 18.01.2020
594 Clouds -20 1001 94 0 3.44 344 07:40 18.01.2020
595 Clouds -20 1001 94 0 3.44 344 07:18 18.01.2020
596 Clouds -20 1001 94 0 3.44 344 06:44 18.01.2020
597 Clouds -20 1001 94 0 3.44 344 05:52 18.01.2020
598 Snow -17 999 96 0 3.88 304 04:25 18.01.2020
599 Snow -17 999 96 0 3.88 304 02:49 18.01.2020
600 Clouds -18 998 94 0 3.26 287 01:40 18.01.2020
601 Clear -20 999 93 0 3.82 291 00:39 18.01.2020
602 Clear -20 999 93 0 3.82 291 00:20 18.01.2020
603 Clear -20 999 93 0 3.82 291 23:58 17.01.2020
604 Clear -20 999 93 0 3.82 291 23:39 17.01.2020
605 Clouds -19 997 95 0 3.96 305 23:18 17.01.2020
606 Clouds -19 997 95 0 3.96 305 22:42 17.01.2020
607 Clouds -19 997 95 0 3.96 305 22:20 17.01.2020
608 Clouds -19 997 95 0 3.96 305 21:56 17.01.2020
609 Clouds -19 997 95 0 3.96 305 21:38 17.01.2020
610 Clouds -19 997 95 0 3.96 305 21:19 17.01.2020
611 Clouds -19 997 95 0 3.96 305 20:43 17.01.2020
612 Clouds -17 995 99 0 4.32 303 20:21 17.01.2020
613 Clouds -17 995 99 0 4.32 303 19:58 17.01.2020
614 Clouds -17 995 99 0 4.32 303 19:39 17.01.2020
615 Clouds -17 995 99 0 4.32 303 19:21 17.01.2020
616 Clouds -17 995 99 0 4.32 303 19:21 17.01.2020
617 Clouds -17 995 99 0 4.32 303 18:59 17.01.2020
618 Clouds -17 995 99 0 4.32 303 18:41 17.01.2020
619 Clouds -17 995 99 0 4.32 303 18:23 17.01.2020
620 Clouds -17 995 99 0 4.32 303 17:54 17.01.2020
621 Clouds -17 995 99 0 4.32 303 17:36 17.01.2020
622 Clouds -16 993 94 0 3.71 300 17:18 17.01.2020
623 Clouds -16 993 94 0 3.71 300 16:41 17.01.2020
624 Clouds -16 993 94 0 3.71 300 16:19 17.01.2020
625 Clouds -16 993 94 0 3.71 300 15:48 17.01.2020
626 Clouds -16 993 94 0 3.71 300 15:26 17.01.2020
627 Clouds -16 993 94 0 3.71 300 14:54 17.01.2020
628 Clouds -16 993 94 0 3.71 300 14:36 17.01.2020
629 Clouds -15 993 93 0 4.93 298 14:18 17.01.2020
630 Clouds -15 993 93 0 4.93 298 13:38 17.01.2020
631 Clouds -15 993 92 0 5.84 298 13:19 17.01.2020
632 Clouds -15 993 92 0 5.84 298 12:44 17.01.2020
633 Clouds -15 993 92 0 5.84 298 12:22 17.01.2020
634 Clouds -15 993 92 0 5.84 298 11:40 17.01.2020
635 Clouds -13 992 90 0 6.99 296 11:19 17.01.2020
636 Clouds -13 992 90 0 6.99 296 10:44 17.01.2020
637 Clouds -13 992 90 0 6.99 296 10:23 17.01.2020
638 Clouds -13 992 90 0 6.99 296 09:59 17.01.2020
639 Clouds -13 992 90 0 6.99 296 09:59 17.01.2020
640 Clouds -13 992 90 0 6.99 296 09:41 17.01.2020
641 Clouds -13 992 90 0 6.99 296 09:20 17.01.2020
642 Clouds -13 992 90 0 6.99 296 09:20 17.01.2020
643 Clouds -13 992 90 0 6.99 296 08:46 17.01.2020
644 Clouds -13 992 90 0 6.99 296 08:25 17.01.2020
645 Clear -15 994 91 0 5.06 286 08:25 17.01.2020
646 Clear -15 993 93 0 5.78 276 07:56 17.01.2020
647 Clear -15 993 93 0 5.78 276 07:56 17.01.2020
648 Clear -15 993 93 0 5.78 276 07:34 17.01.2020
649 Clear -15 993 93 0 5.78 276 06:59 17.01.2020
650 Clear -15 993 93 0 5.78 276 06:41 17.01.2020
651 Clear -15 993 93 0 5.78 276 05:57 17.01.2020
652 Clear -18 993 95 0 6.08 248 03:39 17.01.2020
653 Clear -18 993 95 0 6.08 248 02:55 17.01.2020
654 Clouds -19 994 99 0 4.72 264 01:48 17.01.2020
655 Clouds -19 994 99 0 4.58 269 01:29 17.01.2020
656 Clouds -19 994 99 0 4.58 269 00:55 17.01.2020
657 Clouds -19 994 99 0 4.58 269 00:28 17.01.2020
658 Clouds -19 994 99 0 4.58 269 23:46 16.01.2020
659 Clouds -19 994 99 0 4.58 269 23:26 16.01.2020
660 Clear -20 993 100 0 4.96 301 22:58 16.01.2020
661 Clear -20 993 100 0 4.96 301 22:40 16.01.2020
662 Clear -20 993 100 0 4.96 301 22:21 16.01.2020
663 Clear -20 993 100 0 4.96 301 21:55 16.01.2020
664 Clear -20 993 100 0 4.96 301 21:37 16.01.2020
665 Clear -20 993 100 0 4.96 301 21:18 16.01.2020
666 Clear -20 993 100 0 4.96 301 21:18 16.01.2020
667 Clear -20 993 100 0 4.96 301 20:56 16.01.2020
668 Clear -20 993 100 0 4.96 301 20:36 16.01.2020
669 Clouds -19 991 99 0 6.62 326 20:18 16.01.2020
670 Clouds -18 991 98 0 6.8 330 20:18 16.01.2020
671 Clouds -18 991 98 0 6.8 330 19:41 16.01.2020
672 Clouds -18 991 98 0 6.8 330 19:23 16.01.2020
673 Clouds -18 991 98 0 6.8 330 18:58 16.01.2020
674 Clouds -18 991 98 0 6.8 330 18:39 16.01.2020
675 Clouds -18 991 98 0 6.8 330 18:21 16.01.2020
676 Clouds -18 991 98 0 6.8 330 17:59 16.01.2020
677 Clouds -18 991 98 0 6.8 330 17:41 16.01.2020
678 Clouds -18 991 98 0 6.8 330 17:41 16.01.2020
679 Clouds -17 988 99 0 7.26 332 17:21 16.01.2020
680 Clouds -17 988 99 0 7.26 332 16:56 16.01.2020
681 Clouds -17 988 99 0 7.26 332 16:36 16.01.2020
682 Clouds -17 988 99 0 7.26 332 16:18 16.01.2020
683 Clouds -17 988 99 0 7.26 332 15:42 16.01.2020
684 Clouds -17 988 99 0 7.26 332 15:21 16.01.2020
685 Clouds -17 988 99 0 7.26 332 14:45 16.01.2020
686 Clouds -17 988 99 0 7.26 332 14:24 16.01.2020
687 Clouds -15 985 97 0 7.25 341 13:57 16.01.2020
688 Clouds -15 985 97 0 7.25 341 13:39 16.01.2020
689 Clouds -15 985 97 0 7.25 341 13:21 16.01.2020
690 Clouds -15 985 97 0 7.28 341 12:45 16.01.2020
691 Clouds -15 985 97 0 7.28 341 12:27 16.01.2020
692 Clouds -15 985 97 0 7.28 341 11:55 16.01.2020
693 Clouds -15 985 97 0 7.28 341 11:37 16.01.2020
694 Snow -13 982 94 0 7.83 359 11:19 16.01.2020
695 Snow -13 982 94 0 7.83 359 10:39 16.01.2020
696 Snow -13 982 94 0 7.83 359 10:20 16.01.2020
697 Snow -13 982 94 0 7.83 359 09:57 16.01.2020
698 Snow -13 982 94 0 7.83 359 09:38 16.01.2020
699 Snow -13 982 94 0 7.83 359 09:19 16.01.2020
700 Snow -13 982 94 0 7.83 359 08:51 16.01.2020
701 Snow -13 982 94 0 7.83 359 08:30 16.01.2020
702 Snow -10 980 93 0 8.13 12 07:58 16.01.2020
703 Snow -10 980 93 0 8.13 12 07:38 16.01.2020
704 Snow -10 980 93 0 8.13 12 07:19 16.01.2020
705 Snow -10 980 93 0 8.13 12 06:42 16.01.2020
706 Snow -10 980 93 0 8.13 12 05:59 16.01.2020
707 Snow -10 980 93 0 8.13 12 05:40 16.01.2020
708 Snow -7 980 95 0 3.91 30 04:37 16.01.2020
709 Snow -7 980 95 0 3.91 30 04:37 16.01.2020
710 Snow -7 980 95 0 3.91 30 03:28 16.01.2020
711 Snow -7 980 95 0 3.91 30 02:42 16.01.2020
712 Snow -8 982 94 0 5.84 97 00:53 16.01.2020
713 Snow -8 982 94 0 5.84 97 00:24 16.01.2020
714 Snow -8 982 94 0 5.84 97 23:50 15.01.2020
715 Snow -8 982 94 0 5.84 97 23:50 15.01.2020
716 Snow -8 982 94 0 5.84 97 23:23 15.01.2020
717 Snow -11 985 94 0 5.18 122 22:58 15.01.2020
718 Snow -11 985 94 0 5.18 122 22:40 15.01.2020
719 Snow -11 985 94 0 5.18 122 22:19 15.01.2020
720 Snow -11 985 94 0 5.18 122 21:58 15.01.2020
721 Snow -11 985 94 0 5.18 122 21:39 15.01.2020
722 Snow -11 985 94 0 5.18 122 21:20 15.01.2020
723 Snow -11 985 94 0 5.18 122 20:58 15.01.2020
724 Snow -11 985 94 0 5.18 122 20:40 15.01.2020
725 Snow -12 989 94 0 5.56 153 20:21 15.01.2020
726 Snow -12 990 95 0 5.42 150 19:55 15.01.2020
727 Snow -12 990 95 0 5.42 150 19:37 15.01.2020
728 Snow -12 990 95 0 5.42 150 19:19 15.01.2020
729 Snow -12 990 95 0 5.42 150 18:57 15.01.2020
730 Snow -12 990 95 0 5.42 150 18:57 15.01.2020
731 Snow -12 990 95 0 5.42 150 18:38 15.01.2020
732 Snow -12 990 95 0 5.42 150 18:20 15.01.2020
733 Snow -12 990 95 0 5.42 150 17:58 15.01.2020
734 Snow -12 990 95 0 5.42 150 17:39 15.01.2020
735 Clouds -13 994 82 0 5.35 183 17:20 15.01.2020
736 Clouds -13 994 82 0 5.35 183 16:42 15.01.2020
737 Clouds -13 994 82 0 5.35 183 16:23 15.01.2020
738 Clouds -13 994 82 0 5.35 183 15:59 15.01.2020
739 Clouds -13 994 82 0 5.35 183 15:41 15.01.2020
740 Clouds -13 994 82 0 5.35 183 15:20 15.01.2020
741 Clouds -13 994 82 0 5.35 183 14:44 15.01.2020
742 Clouds -13 996 94 0 7.65 210 14:21 15.01.2020
743 Clouds -13 996 94 0 7.65 210 13:56 15.01.2020
744 Clouds -13 996 94 0 7.65 210 13:38 15.01.2020
745 Snow -14 996 94 0 7.58 210 13:19 15.01.2020
746 Snow -14 996 94 0 7.58 210 12:54 15.01.2020
747 Snow -14 996 94 0 7.58 210 12:36 15.01.2020
748 Snow -14 996 94 0 7.58 210 12:18 15.01.2020
749 Snow -14 996 94 0 7.58 210 11:38 15.01.2020
750 Clouds -11 998 94 0 5.91 219 11:19 15.01.2020
751 Clouds -11 998 94 0 5.91 219 10:47 15.01.2020
752 Clouds -11 998 94 0 5.91 219 10:28 15.01.2020
753 Clouds -11 998 94 0 5.91 219 09:57 15.01.2020
754 Clouds -11 998 94 0 5.91 219 09:57 15.01.2020
755 Clouds -11 998 94 0 5.91 219 09:38 15.01.2020
756 Clouds -11 998 94 0 5.91 219 09:19 15.01.2020
757 Clouds -11 998 94 0 5.91 219 08:44 15.01.2020
758 Clouds -11 998 94 0 5.91 219 08:24 15.01.2020
759 Clear -15 997 87 0 4.84 234 07:54 15.01.2020
760 Clear -15 997 87 0 4.84 234 07:33 15.01.2020
761 Clear -15 997 87 0 4.84 234 06:49 15.01.2020
762 Clear -15 997 87 0 4.84 234 06:28 15.01.2020
763 Clear -15 996 89 0 4.05 265 04:56 15.01.2020
764 Clear -15 996 89 0 4.05 265 02:48 15.01.2020
765 Clouds -15 994 93 0 4.14 300 01:48 15.01.2020
766 Clouds -15 994 93 0 4.14 300 01:20 15.01.2020
767 Snow -14 994 91 0 4.08 321 00:37 15.01.2020
768 Snow -14 994 91 0 4.08 321 00:19 15.01.2020
769 Snow -14 994 91 0 4.08 321 23:46 14.01.2020
770 Snow -14 994 91 0 4.08 321 23:24 14.01.2020
771 Snow -11 992 95 0 4.08 260 22:56 14.01.2020
772 Snow -11 992 95 0 4.08 260 22:38 14.01.2020
773 Snow -11 992 95 0 4.08 260 22:18 14.01.2020
774 Snow -11 992 95 0 4.08 260 21:55 14.01.2020
775 Snow -11 992 95 0 4.08 260 21:37 14.01.2020
776 Snow -11 992 95 0 4.08 260 21:19 14.01.2020
777 Snow -11 992 95 0 4.08 260 20:42 14.01.2020
778 Snow -11 992 95 0 4.08 260 20:42 14.01.2020
779 Snow -11 992 95 0 4.08 260 20:22 14.01.2020
780 Clouds -12 992 93 0 6.15 217 19:57 14.01.2020
781 Clouds -12 992 93 0 6.15 217 19:38 14.01.2020
782 Clouds -12 992 93 0 6.15 217 19:20 14.01.2020
783 Clouds -12 992 93 0 6.15 217 19:20 14.01.2020
784 Clouds -12 992 93 0 6.15 217 18:58 14.01.2020
785 Clouds -12 992 93 0 6.15 217 18:39 14.01.2020
786 Clouds -12 992 93 0 6.15 217 18:19 14.01.2020
787 Clouds -12 992 93 0 6.15 217 17:39 14.01.2020
788 Clouds -12 992 90 0 7.61 211 17:19 14.01.2020
789 Clouds -12 992 90 0 7.61 211 16:59 14.01.2020
790 Clouds -12 992 90 0 7.61 211 16:40 14.01.2020
791 Clouds -12 992 90 0 7.61 211 16:21 14.01.2020
792 Clouds -12 992 90 0 7.61 211 15:55 14.01.2020
793 Clouds -12 992 90 0 7.61 211 15:37 14.01.2020
794 Clouds -12 992 90 0 7.61 211 15:18 14.01.2020
795 Clouds -12 992 90 0 7.61 211 14:43 14.01.2020
796 Snow -11 992 91 0 9.52 214 14:20 14.01.2020
797 Snow -11 992 91 0 9.52 214 13:43 14.01.2020
798 Snow -11 992 91 0 9.52 214 13:20 14.01.2020
799 Snow -11 993 93 0 7.46 211 12:59 14.01.2020
800 Snow -11 993 93 0 7.46 211 12:40 14.01.2020
801 Snow -11 993 93 0 7.46 211 12:20 14.01.2020
802 Snow -11 993 93 0 7.46 211 11:42 14.01.2020
803 Snow -11 993 93 0 7.46 211 11:23 14.01.2020
804 Clouds -14 993 98 0 5.66 217 10:58 14.01.2020
805 Clouds -14 993 98 0 5.66 217 10:39 14.01.2020
806 Clouds -14 993 98 0 5.66 217 10:19 14.01.2020
807 Clouds -14 993 98 0 5.66 217 09:56 14.01.2020
808 Clouds -14 993 98 0 5.66 217 09:38 14.01.2020
809 Clouds -14 993 98 0 5.66 217 09:20 14.01.2020
810 Clouds -14 993 98 0 5.66 217 08:42 14.01.2020
811 Clouds -15 995 100 0 4.74 225 08:23 14.01.2020
812 Clouds -18 993 100 0 5.45 236 07:53 14.01.2020
813 Clouds -18 993 100 0 5.45 236 07:31 14.01.2020
814 Clouds -18 993 100 0 5.45 236 06:50 14.01.2020
815 Clouds -18 993 100 0 5.45 236 06:23 14.01.2020
816 Clouds -16 993 98 0 4.44 266 05:21 14.01.2020
817 Clouds -16 993 98 0 4.44 266 03:51 14.01.2020
818 Clouds -16 993 98 0 4.44 266 02:42 14.01.2020
819 Clouds -16 991 96 0 5.96 314 01:35 14.01.2020
820 Clouds -16 991 96 0 5.96 317 00:49 14.01.2020
821 Clouds -16 991 96 0 5.96 317 00:28 14.01.2020
822 Clouds -16 991 96 0 5.96 317 23:48 13.01.2020
823 Clear -17 989 94 0 7.62 330 23:20 13.01.2020
824 Clear -17 989 94 0 7.62 330 23:00 13.01.2020
825 Clear -17 989 94 0 7.62 330 22:40 13.01.2020
826 Clear -17 989 94 0 7.62 330 22:20 13.01.2020
827 Clear -17 989 94 0 7.62 330 21:56 13.01.2020
828 Clear -17 989 94 0 7.62 330 21:37 13.01.2020
829 Clear -17 989 94 0 7.62 330 21:18 13.01.2020
830 Clear -17 989 94 0 7.62 330 20:57 13.01.2020
831 Clear -17 989 94 0 7.62 330 20:57 13.01.2020
832 Clear -17 989 94 0 7.62 330 20:38 13.01.2020
833 Snow -16 985 97 0 9.13 345 20:20 13.01.2020
834 Snow -16 985 97 0 9.13 345 19:56 13.01.2020
835 Snow -16 985 97 0 9.13 345 19:38 13.01.2020
836 Snow -16 985 97 0 9.13 345 19:18 13.01.2020
837 Snow -16 985 97 0 9.13 345 18:56 13.01.2020
838 Snow -16 985 97 0 9.13 345 18:37 13.01.2020
839 Snow -16 985 97 0 9.13 345 18:18 13.01.2020
840 Snow -16 985 97 0 9.13 345 17:40 13.01.2020
841 Snow -16 985 97 0 9.13 345 17:40 13.01.2020
842 Snow -14 982 96 0 9.42 348 17:22 13.01.2020
843 Snow -14 982 96 0 9.42 348 16:56 13.01.2020
844 Snow -14 982 96 0 9.42 348 16:37 13.01.2020
845 Snow -14 982 96 0 9.42 348 16:19 13.01.2020
846 Snow -14 982 96 0 9.42 348 15:43 13.01.2020
847 Snow -14 982 96 0 9.42 348 15:22 13.01.2020
848 Snow -14 982 96 0 9.42 348 15:22 13.01.2020
849 Snow -14 982 96 0 9.42 348 14:57 13.01.2020
850 Snow -14 982 96 0 9.42 348 14:37 13.01.2020
851 Snow -14 982 96 0 9.42 348 14:37 13.01.2020
852 Snow -12 979 96 0 9.61 1 14:18 13.01.2020
853 Snow -12 979 96 0 9.61 1 13:41 13.01.2020
854 Snow -12 979 95 0 9.7 0 13:23 13.01.2020
855 Snow -12 979 95 0 9.7 0 12:58 13.01.2020
856 Snow -12 979 95 0 9.7 0 12:40 13.01.2020
857 Snow -12 979 95 0 9.7 0 12:22 13.01.2020
858 Snow -12 979 95 0 9.7 0 11:56 13.01.2020
859 Snow -12 979 95 0 9.7 0 11:37 13.01.2020
860 Snow -9 976 93 0 3.46 234 11:18 13.01.2020
861 Snow -9 976 93 0 3.46 234 10:55 13.01.2020
862 Snow -9 976 93 0 3.46 234 10:36 13.01.2020
863 Snow -9 976 93 0 3.46 234 10:18 13.01.2020
864 Snow -9 976 93 0 3.46 234 10:18 13.01.2020
865 Snow -9 976 93 0 3.46 234 09:42 13.01.2020
866 Snow -9 976 93 0 3.46 234 09:23 13.01.2020
867 Snow -9 976 93 0 3.46 234 08:44 13.01.2020
868 Snow -9 977 94 0 3.68 181 08:22 13.01.2020
869 Snow -9 977 94 0 3.68 181 07:59 13.01.2020
870 Snow -9 977 94 0 3.68 181 07:59 13.01.2020
871 Snow -9 977 94 0 3.68 181 07:40 13.01.2020
872 Snow -9 977 94 0 3.68 181 07:18 13.01.2020
873 Snow -9 977 94 0 3.68 181 06:37 13.01.2020
874 Snow -9 977 94 0 3.68 181 05:36 13.01.2020
875 Snow -8 977 93 0 4.93 176 04:25 13.01.2020
876 Snow -8 977 93 0 4.93 176 03:34 13.01.2020
877 Snow -8 977 93 0 4.93 176 02:49 13.01.2020
878 Snow -8 977 93 0 4.93 176 02:29 13.01.2020
879 Snow -8 977 93 0 4.93 176 02:29 13.01.2020
880 Snow -8 978 94 0 5.08 173 01:32 13.01.2020
881 Snow -8 978 94 0 4.88 172 00:43 13.01.2020
882 Snow -8 978 94 0 4.88 172 00:24 13.01.2020
883 Snow -8 978 94 0 4.88 172 23:57 12.01.2020
884 Snow -8 978 94 0 4.88 172 23:37 12.01.2020
885 Snow -8 979 93 0 4.89 178 23:19 12.01.2020
886 Snow -8 979 93 0 4.89 178 22:42 12.01.2020
887 Snow -8 979 93 0 4.89 178 22:24 12.01.2020
888 Snow -8 979 93 0 4.89 178 21:59 12.01.2020
889 Snow -8 979 93 0 4.89 178 21:40 12.01.2020
890 Snow -8 979 93 0 4.89 178 21:20 12.01.2020
891 Snow -8 979 93 0 4.89 178 20:57 12.01.2020
892 Snow -8 979 93 0 4.89 178 20:39 12.01.2020
893 Snow -9 982 93 0 6.52 204 20:20 12.01.2020
894 Snow -9 982 93 0 6.52 204 19:56 12.01.2020
895 Snow -9 982 93 0 6.52 204 19:38 12.01.2020
896 Snow -9 982 93 0 6.52 204 19:19 12.01.2020
897 Snow -9 982 93 0 6.52 204 18:58 12.01.2020
898 Snow -9 982 93 0 6.52 204 18:40 12.01.2020
899 Snow -9 982 93 0 6.52 204 18:21 12.01.2020
900 Snow -9 982 93 0 6.52 204 17:57 12.01.2020
901 Snow -9 982 93 0 6.52 204 17:38 12.01.2020
902 Snow -9 984 92 0 7.07 207 17:19 12.01.2020
903 Snow -9 984 92 0 7.07 207 16:55 12.01.2020
904 Snow -9 984 92 0 7.07 207 16:37 12.01.2020
905 Snow -9 984 92 0 7.07 207 16:18 12.01.2020
906 Snow -9 984 92 0 7.07 207 15:42 12.01.2020
907 Snow -9 984 92 0 7.07 207 15:24 12.01.2020
908 Snow -9 984 92 0 7.07 207 14:57 12.01.2020
909 Snow -9 984 92 0 7.07 207 14:38 12.01.2020
910 Snow -9 987 92 0 7.08 200 14:19 12.01.2020
911 Snow -9 987 92 0 7.08 200 13:44 12.01.2020
912 Snow -9 987 92 0 7.08 200 13:25 12.01.2020
913 Snow -9 987 89 0 9 206 12:58 12.01.2020
914 Snow -9 987 89 0 9 206 12:39 12.01.2020
915 Snow -9 987 89 0 9 206 12:20 12.01.2020
916 Snow -9 987 89 0 9 206 11:58 12.01.2020
917 Snow -9 987 89 0 9 206 11:38 12.01.2020
918 Snow -10 989 93 0 7.98 198 11:19 12.01.2020
919 Snow -10 989 93 0 7.98 198 10:41 12.01.2020
920 Snow -10 989 93 0 7.98 198 10:41 12.01.2020
921 Snow -10 989 93 0 7.98 198 10:22 12.01.2020
922 Snow -10 989 93 0 7.98 198 09:57 12.01.2020
923 Snow -10 989 93 0 7.98 198 09:38 12.01.2020
924 Snow -10 989 93 0 7.98 198 09:18 12.01.2020
925 Snow -10 989 93 0 7.98 198 08:44 12.01.2020
926 Snow -10 993 95 0 7.26 217 08:20 12.01.2020
927 Snow -10 993 95 0 7.26 217 07:40 12.01.2020
928 Snow -10 993 95 0 7.26 217 07:22 12.01.2020
929 Snow -10 993 95 0 7.26 217 06:48 12.01.2020
930 Snow -10 993 95 0 7.26 217 06:29 12.01.2020
931 Snow -10 993 95 0 7.26 217 05:32 12.01.2020
932 Snow -11 994 96 0 6.79 207 04:27 12.01.2020
933 Snow -11 994 96 0 6.79 207 03:23 12.01.2020
934 Snow -11 994 96 0 6.79 207 02:33 12.01.2020
935 Clouds -12 997 97 0 5.43 213 01:43 12.01.2020
936 Clouds -12 997 97 0 5.43 213 01:22 12.01.2020
937 Clouds -12 997 97 0 6.02 210 00:41 12.01.2020
938 Clouds -12 997 97 0 6.02 210 00:20 12.01.2020
939 Clouds -12 997 97 0 6.02 210 23:42 11.01.2020
940 Clouds -14 997 99 0 5.48 221 23:19 11.01.2020
941 Clouds -14 997 99 0 5.48 221 22:58 11.01.2020
942 Clouds -14 997 99 0 5.48 221 22:39 11.01.2020
943 Clouds -14 997 99 0 5.48 221 22:20 11.01.2020
944 Clouds -14 997 99 0 5.48 221 21:58 11.01.2020
945 Clouds -14 997 99 0 5.48 221 21:39 11.01.2020
946 Clouds -14 997 99 0 5.48 221 21:18 11.01.2020
947 Clouds -14 997 99 0 5.48 221 20:40 11.01.2020
948 Clouds -13 997 98 0 5.65 233 20:22 11.01.2020
949 Clouds -12 998 85 0 5.52 255 19:58 11.01.2020
950 Clouds -12 998 85 0 5.52 255 19:39 11.01.2020
951 Clouds -12 998 85 0 5.52 255 19:21 11.01.2020
952 Clouds -12 998 85 0 5.52 255 18:58 11.01.2020
953 Clouds -12 998 85 0 5.52 255 18:38 11.01.2020
954 Clouds -12 998 85 0 5.52 255 18:19 11.01.2020
955 Clouds -12 998 85 0 5.52 255 17:57 11.01.2020
956 Clouds -12 998 85 0 5.52 255 17:39 11.01.2020
957 Clouds -12 997 85 0 6.16 319 17:19 11.01.2020
958 Clouds -12 997 85 0 6.16 319 16:45 11.01.2020
959 Clouds -12 997 85 0 6.16 319 16:27 11.01.2020
960 Clouds -12 997 85 0 6.16 319 15:58 11.01.2020
961 Clouds -12 997 85 0 6.16 319 15:40 11.01.2020
962 Clouds -12 997 85 0 6.16 319 15:22 11.01.2020
963 Clouds -12 997 85 0 6.16 319 14:56 11.01.2020
964 Clouds -12 997 85 0 6.16 319 14:38 11.01.2020
965 Snow -13 995 90 0 7.92 329 14:19 11.01.2020
966 Snow -13 995 90 0 7.92 329 13:39 11.01.2020
967 Snow -13 995 91 0 7.74 331 13:20 11.01.2020
968 Snow -13 995 90 0 7.92 329 13:20 11.01.2020
969 Snow -13 995 91 0 7.74 331 12:57 11.01.2020
970 Snow -13 995 91 0 7.74 331 12:38 11.01.2020
971 Snow -13 995 91 0 7.74 331 12:20 11.01.2020
972 Snow -13 995 91 0 7.74 331 11:46 11.01.2020
973 Snow -13 995 91 0 7.74 331 11:25 11.01.2020
974 Snow -12 991 92 0 8.71 335 10:50 11.01.2020
975 Snow -12 991 92 0 8.71 335 10:30 11.01.2020
976 Snow -12 991 92 0 8.71 335 09:55 11.01.2020
977 Snow -12 991 92 0 8.71 335 09:37 11.01.2020
978 Snow -12 991 92 0 8.71 335 09:18 11.01.2020
979 Snow -12 991 92 0 8.71 335 08:41 11.01.2020
980 Snow -10 987 92 0 8.22 332 08:21 11.01.2020
981 Snow -10 988 93 0 7.46 342 07:43 11.01.2020
982 Snow -10 988 93 0 7.46 342 07:25 11.01.2020
983 Snow -10 988 93 0 7.46 342 06:45 11.01.2020
984 Snow -10 988 93 0 7.46 342 05:33 11.01.2020
985 Snow -7 985 93 0 5.35 336 04:45 11.01.2020
986 Snow -7 985 93 0 5.35 336 04:27 11.01.2020
987 Snow -7 985 93 0 5.35 336 02:48 11.01.2020
988 Snow -4 983 95 0 5.54 292 01:51 11.01.2020
989 Snow -4 983 95 0 5.54 292 01:32 11.01.2020
990 Snow -4 982 95 0 5 277 00:58 11.01.2020
991 Snow -4 982 95 0 5 277 00:32 11.01.2020
992 Snow -4 982 95 0 5 277 23:59 10.01.2020
993 Snow -4 982 95 0 5 277 23:39 10.01.2020
994 Snow -4 982 95 0 5 277 23:39 10.01.2020
995 Snow -3 981 94 0 8.28 244 23:21 10.01.2020
996 Snow -3 981 94 0 8.28 244 22:55 10.01.2020
997 Snow -3 981 94 0 8.28 244 22:37 10.01.2020
998 Snow -3 981 94 0 8.28 244 22:18 10.01.2020
999 Snow -3 981 94 0 8.28 244 21:54 10.01.2020
1000 Snow -3 981 94 0 8.28 244 21:36 10.01.2020
1001 Snow -3 981 94 0 8.28 244 21:18 10.01.2020
1002 Snow -3 981 94 0 8.28 244 20:42 10.01.2020
1003 Snow -3 981 94 0 8.28 244 20:24 10.01.2020
1004 Snow -2 981 93 0 9.25 227 19:54 10.01.2020
1005 Snow -2 981 93 0 9.25 227 19:36 10.01.2020
1006 Snow -2 981 93 0 9.25 227 19:18 10.01.2020
1007 Snow -2 981 93 0 9.25 227 18:41 10.01.2020
1008 Snow -2 981 93 0 9.25 227 18:19 10.01.2020
1009 Snow -2 981 93 0 9.25 227 17:57 10.01.2020
1010 Snow -2 981 93 0 9.25 227 17:38 10.01.2020
1011 Clouds -3 980 92 0 7.21 197 17:20 10.01.2020
1012 Clouds -3 980 92 0 7.21 197 16:55 10.01.2020
1013 Clouds -3 980 92 0 7.21 197 16:36 10.01.2020
1014 Clouds -3 980 92 0 7.21 197 16:18 10.01.2020
1015 Clouds -3 980 92 0 7.21 197 15:55 10.01.2020
1016 Clouds -3 980 92 0 7.21 197 15:36 10.01.2020
1017 Clouds -3 980 92 0 7.21 197 15:18 10.01.2020
1018 Clouds -3 980 92 0 7.21 197 14:42 10.01.2020
1019 Clouds -4 981 90 0 7.16 208 14:20 10.01.2020
1020 Clouds -4 981 90 0 7.16 208 13:58 10.01.2020
1021 Clouds -4 981 90 0 7.16 208 13:58 10.01.2020
1022 Clouds -4 981 90 0 7.16 208 13:40 10.01.2020
1023 Clouds -4 981 90 0 7.18 208 13:22 10.01.2020
1024 Clouds -4 981 90 0 7.18 208 12:57 10.01.2020
1025 Clouds -4 981 90 0 7.18 208 12:38 10.01.2020
1026 Clouds -4 981 90 0 7.18 208 12:18 10.01.2020
1027 Clouds -4 981 90 0 7.18 208 11:54 10.01.2020
1028 Clouds -4 981 90 0 7.18 208 11:36 10.01.2020
1029 Snow -3 982 93 0 7.44 226 11:18 10.01.2020
1030 Snow -3 982 93 0 7.44 226 10:42 10.01.2020
1031 Snow -3 982 93 0 7.44 226 10:24 10.01.2020
1032 Snow -3 982 93 0 7.44 226 09:56 10.01.2020
1033 Snow -3 982 93 0 7.44 226 09:37 10.01.2020
1034 Snow -3 982 93 0 7.44 226 09:19 10.01.2020
1035 Snow -3 982 93 0 7.44 226 08:41 10.01.2020
1036 Snow -3 982 94 0 6.81 225 08:23 10.01.2020
1037 Snow -2 982 91 0 8.97 244 07:44 10.01.2020
1038 Snow -2 982 91 0 8.97 244 07:26 10.01.2020
1039 Snow -2 982 91 0 8.97 244 06:46 10.01.2020
1040 Snow -2 982 91 0 8.97 244 06:26 10.01.2020
1041 Snow -2 982 91 0 8.97 244 05:48 10.01.2020
1042 Snow -2 979 96 0 4.53 282 03:37 10.01.2020
1043 Snow -2 979 96 0 4.53 282 03:18 10.01.2020
1044 Snow -2 979 96 0 4.53 282 02:47 10.01.2020
1045 Snow 0 977 97 0 6.98 268 01:38 10.01.2020
1046 Snow 0 977 97 0 6.78 272 01:19 10.01.2020
1047 Snow 0 977 97 0 6.78 272 00:39 10.01.2020
1048 Snow 0 977 97 0 6.78 272 23:58 09.01.2020
1049 Snow 0 977 97 0 6.78 272 23:38 09.01.2020
1050 Snow 0 976 98 0 7.06 251 23:20 09.01.2020
1051 Snow 0 976 98 0 7.06 251 22:57 09.01.2020
1052 Snow 0 976 98 0 7.06 251 22:39 09.01.2020
1053 Snow 0 976 98 0 7.06 251 22:19 09.01.2020
1054 Snow 0 976 98 0 7.06 251 21:57 09.01.2020
1055 Snow 0 976 98 0 7.06 251 21:37 09.01.2020
1056 Snow 0 976 98 0 7.06 251 21:37 09.01.2020
1057 Snow 0 976 98 0 7.06 251 21:19 09.01.2020
1058 Snow 0 976 98 0 7.06 251 20:57 09.01.2020
1059 Snow 0 976 98 0 7.06 251 20:39 09.01.2020
1060 Snow 0 976 97 0 10.14 234 20:19 09.01.2020
1061 Snow 0 976 97 0 10.14 234 20:19 09.01.2020
1062 Snow 0 976 97 0 10.14 234 19:56 09.01.2020
1063 Snow 0 976 97 0 10.14 234 19:37 09.01.2020
1064 Snow 0 976 97 0 10.14 234 19:19 09.01.2020
1065 Snow 0 976 97 0 10.14 234 18:55 09.01.2020
1066 Snow 0 976 97 0 10.14 234 18:36 09.01.2020
1067 Snow 0 976 97 0 10.14 234 18:18 09.01.2020
1068 Snow 0 976 97 0 10.14 234 17:41 09.01.2020
1069 Snow 0 975 96 0 13.36 226 17:18 09.01.2020
1070 Snow 0 975 96 0 13.36 226 16:49 09.01.2020
1071 Snow 0 975 96 0 13.36 226 16:24 09.01.2020
1072 Snow 0 975 96 0 13.36 226 15:59 09.01.2020
1073 Snow 0 975 96 0 13.36 226 15:40 09.01.2020
1074 Snow 0 975 96 0 13.36 226 15:19 09.01.2020
1075 Snow 0 975 96 0 13.36 226 14:42 09.01.2020
1076 Snow 0 976 96 0 12.84 214 14:22 09.01.2020
1077 Snow 0 976 96 0 12.84 214 13:57 09.01.2020
1078 Snow 0 976 96 0 12.84 214 13:39 09.01.2020
1079 Snow 0 976 96 0 12.84 214 13:20 09.01.2020
1080 Snow 0 976 96 0 13.01 211 12:58 09.01.2020
1081 Snow 0 976 96 0 13.01 211 12:58 09.01.2020
1082 Snow 0 976 96 0 13.01 211 12:39 09.01.2020
1083 Snow 0 976 96 0 13.01 211 12:19 09.01.2020
1084 Snow 0 976 96 0 13.01 211 11:56 09.01.2020
1085 Snow 0 976 96 0 13.01 211 11:37 09.01.2020
1086 Snow -1 978 91 0 12.8 205 11:19 09.01.2020
1087 Snow -1 978 91 0 12.8 205 10:43 09.01.2020
1088 Snow -1 978 91 0 12.8 205 10:22 09.01.2020
1089 Snow -1 978 91 0 12.8 205 09:55 09.01.2020
1090 Snow -1 978 91 0 12.8 205 09:37 09.01.2020
1091 Snow -1 978 91 0 12.8 205 09:18 09.01.2020
1092 Snow -1 978 91 0 12.8 205 08:54 09.01.2020
1093 Snow -1 978 91 0 12.8 205 08:36 09.01.2020
1094 Snow -5 982 86 0 11.85 197 08:18 09.01.2020
1095 Snow -5 982 86 0 11.85 197 07:41 09.01.2020
1096 Snow -5 982 86 0 11.85 197 07:23 09.01.2020
1097 Snow -5 982 86 0 11.85 197 06:38 09.01.2020
1098 Snow -5 982 86 0 11.85 197 06:18 09.01.2020
1099 Snow -5 982 86 0 11.85 197 05:43 09.01.2020
1100 Snow -6 986 89 0 11.48 198 04:42 09.01.2020
1101 Snow -6 986 89 0 11.48 198 03:30 09.01.2020
1102 Snow -6 986 89 0 11.48 198 02:48 09.01.2020
1103 Snow -6 986 89 0 11.48 198 02:23 09.01.2020
1104 Snow -7 990 90 0 10.71 183 01:35 09.01.2020
1105 Snow -7 990 90 0 10.84 184 00:40 09.01.2020
1106 Snow -7 990 90 0 10.84 184 00:20 09.01.2020
1107 Snow -7 990 90 0 10.84 184 23:41 08.01.2020
1108 Snow -7 990 90 0 10.84 184 23:23 08.01.2020
1109 Snow -9 996 87 0 9.6 175 22:58 08.01.2020
1110 Snow -9 996 87 0 9.6 175 22:38 08.01.2020
1111 Snow -9 996 87 0 9.6 175 22:20 08.01.2020
1112 Snow -9 996 87 0 9.6 175 21:56 08.01.2020
1113 Snow -9 996 87 0 9.6 175 21:56 08.01.2020
1114 Snow -9 996 87 0 9.6 175 21:37 08.01.2020
1115 Snow -9 996 87 0 9.6 175 21:18 08.01.2020
1116 Snow -9 996 87 0 9.6 175 20:56 08.01.2020
1117 Snow -9 996 87 0 9.6 175 20:37 08.01.2020
1118 Clouds -13 1002 95 0 8.12 177 20:19 08.01.2020
1119 Clouds -13 1002 95 0 8.12 177 19:39 08.01.2020
1120 Clouds -13 1002 95 0 8.12 177 19:21 08.01.2020
1121 Clouds -13 1002 95 0 8.12 177 18:59 08.01.2020
1122 Clouds -13 1002 95 0 8.12 177 18:40 08.01.2020
1123 Clouds -13 1002 95 0 8.12 177 18:19 08.01.2020
1124 Clouds -13 1002 95 0 8.12 177 17:59 08.01.2020
1125 Clouds -13 1002 95 0 8.12 177 17:40 08.01.2020
1126 Clouds -13 1006 95 0 6.87 170 17:22 08.01.2020
1127 Clouds -13 1006 95 0 6.87 170 16:57 08.01.2020
1128 Clouds -13 1006 95 0 6.87 170 16:38 08.01.2020
1129 Clouds -13 1006 95 0 6.87 170 16:19 08.01.2020
1130 Clouds -13 1006 95 0 6.87 170 15:55 08.01.2020
1131 Clouds -13 1006 95 0 6.87 170 15:37 08.01.2020
1132 Clouds -13 1006 95 0 6.87 170 15:18 08.01.2020
1133 Clouds -13 1006 95 0 6.87 170 14:41 08.01.2020
1134 Clouds -13 1009 95 0 6.52 187 14:21 08.01.2020
1135 Clouds -13 1009 95 0 6.52 187 13:42 08.01.2020
1136 Clouds -13 1009 95 0 6.44 187 13:24 08.01.2020
1137 Clouds -13 1009 95 0 6.44 187 12:59 08.01.2020
1138 Clouds -13 1009 95 0 6.44 187 12:40 08.01.2020
1139 Clouds -13 1009 95 0 6.44 187 12:18 08.01.2020
1140 Clouds -13 1009 95 0 6.44 187 11:48 08.01.2020
1141 Clouds -13 1011 96 0 6.66 203 11:20 08.01.2020
1142 Clouds -13 1011 96 0 6.66 203 10:59 08.01.2020
1143 Clouds -13 1011 96 0 6.66 203 10:41 08.01.2020
1144 Clouds -13 1011 96 0 6.66 203 10:21 08.01.2020
1145 Clouds -13 1011 96 0 6.66 203 09:57 08.01.2020
1146 Clouds -13 1011 96 0 6.66 203 09:36 08.01.2020
1147 Clouds -13 1011 96 0 6.66 203 09:18 08.01.2020
1148 Clouds -13 1011 96 0 6.66 203 08:41 08.01.2020
1149 Clouds -13 1011 96 0 6.62 199 08:22 08.01.2020
1150 Clouds -12 1012 95 0 6.66 214 07:59 08.01.2020
1151 Clouds -12 1012 95 0 6.66 214 07:40 08.01.2020
1152 Clouds -12 1012 95 0 6.66 214 07:19 08.01.2020
1153 Clouds -12 1012 95 0 6.66 214 06:42 08.01.2020
1154 Clouds -12 1012 95 0 6.66 214 05:56 08.01.2020
1155 Clouds -12 1012 95 0 6.66 214 05:27 08.01.2020
1156 Snow -10 1013 94 0 5.9 215 04:37 08.01.2020
1157 Snow -10 1013 94 0 5.9 215 02:47 08.01.2020
1158 Snow -10 1013 94 0 5.9 215 02:28 08.01.2020
1159 Clouds -10 1014 95 0 3.07 215 01:58 08.01.2020
1160 Clouds -10 1014 94 0 2.99 220 01:32 08.01.2020
1161 Clouds -10 1014 94 0 2.99 220 00:51 08.01.2020
1162 Clouds -10 1014 94 0 2.99 220 00:23 08.01.2020
1163 Clouds -10 1014 94 0 2.99 220 23:46 07.01.2020
1164 Clouds -11 1013 91 0 3.13 222 23:21 07.01.2020
1165 Clouds -11 1013 91 0 3.13 222 22:56 07.01.2020
1166 Clouds -11 1013 91 0 3.13 222 22:37 07.01.2020
1167 Clouds -11 1013 91 0 3.13 222 22:18 07.01.2020
1168 Clouds -11 1013 91 0 3.13 222 21:42 07.01.2020
1169 Clouds -11 1013 91 0 3.13 222 21:22 07.01.2020
1170 Clouds -11 1013 91 0 3.13 222 20:58 07.01.2020
1171 Clouds -11 1013 91 0 3.13 222 20:40 07.01.2020
1172 Clouds -7 1013 87 0 2.73 256 20:21 07.01.2020
1173 Clouds -7 1013 87 0 2.73 256 19:57 07.01.2020
1174 Clouds -7 1013 87 0 2.73 256 19:37 07.01.2020
1175 Clouds -7 1013 87 0 2.73 256 19:19 07.01.2020
1176 Clouds -7 1013 87 0 2.73 256 18:56 07.01.2020
1177 Clouds -7 1013 87 0 2.73 256 18:38 07.01.2020
1178 Clouds -7 1013 87 0 2.73 256 18:18 07.01.2020
1179 Clouds -7 1013 87 0 2.73 256 17:54 07.01.2020
1180 Clouds -7 1013 87 0 2.73 256 17:36 07.01.2020
1181 Clouds -6 1011 80 0 2.22 324 17:18 07.01.2020
1182 Clouds -6 1011 80 0 2.22 324 16:54 07.01.2020
1183 Clouds -6 1011 80 0 2.22 324 16:36 07.01.2020
1184 Clouds -6 1011 80 0 2.22 324 16:18 07.01.2020
1185 Clouds -6 1011 80 0 2.22 324 15:42 07.01.2020
1186 Clouds -6 1011 80 0 2.22 324 15:23 07.01.2020
1187 Clouds -6 1011 80 0 2.22 324 14:58 07.01.2020
1188 Clouds -6 1011 80 0 2.22 324 14:38 07.01.2020
1189 Clouds -6 1009 85 0 3.89 305 14:19 07.01.2020
1190 Clouds -6 1009 85 0 3.89 305 13:44 07.01.2020
1191 Clouds -6 1009 86 0 3.56 306 13:20 07.01.2020
1192 Clouds -6 1009 86 0 3.56 306 12:55 07.01.2020
1193 Clouds -6 1009 86 0 3.56 306 12:36 07.01.2020
1194 Clouds -6 1009 86 0 3.56 306 12:18 07.01.2020
1195 Clouds -6 1009 86 0 3.56 306 11:41 07.01.2020
1196 Clouds -6 1006 84 0 5.93 297 11:22 07.01.2020
1197 Clouds -6 1006 84 0 5.93 297 10:55 07.01.2020
1198 Clouds -6 1006 84 0 5.93 297 10:37 07.01.2020
1199 Clouds -6 1006 84 0 5.93 297 10:19 07.01.2020
1200 Clouds -6 1006 84 0 5.93 297 09:38 07.01.2020
1201 Clouds -6 1006 84 0 5.93 297 09:20 07.01.2020
1202 Clouds -6 1006 84 0 5.93 297 08:47 07.01.2020
1203 Clear -6 1007 83 0 5.91 291 08:29 07.01.2020
1204 Clouds -5 1004 79 0 7.09 296 07:55 07.01.2020
1205 Clouds -5 1004 79 0 7.09 296 07:35 07.01.2020
1206 Clouds -5 1004 79 0 7.09 296 06:54 07.01.2020
1207 Clouds -5 1004 79 0 7.09 296 06:35 07.01.2020
1208 Clouds -5 1004 79 0 7.09 296 05:59 07.01.2020
1209 Clouds -5 1004 79 0 7.09 296 05:40 07.01.2020
1210 Clouds -5 1002 77 0 8.38 290 03:45 07.01.2020
1211 Clouds -5 1002 77 0 8.38 290 02:47 07.01.2020
1212 Clouds -5 999 77 0 8.8 290 01:59 07.01.2020
1213 Clouds -5 999 77 0 8.8 290 01:36 07.01.2020
1214 Clouds -5 999 75 0 9.12 290 00:55 07.01.2020
1215 Clouds -5 999 75 0 9.12 290 00:20 07.01.2020
1216 Clouds -5 999 75 0 9.12 290 23:56 06.01.2020
1217 Clouds -5 999 75 0 9.12 290 23:37 06.01.2020
1218 Clouds -5 997 74 0 10.59 285 23:19 06.01.2020
1219 Clouds -5 997 74 0 10.59 285 22:43 06.01.2020
1220 Clouds -5 997 74 0 10.59 285 22:24 06.01.2020
1221 Clouds -5 997 74 0 10.59 285 22:24 06.01.2020
1222 Clouds -5 997 74 0 10.59 285 21:58 06.01.2020
1223 Clouds -5 997 74 0 10.59 285 21:39 06.01.2020
1224 Clouds -5 997 74 0 10.59 285 21:20 06.01.2020
1225 Clouds -5 997 74 0 10.59 285 21:20 06.01.2020
1226 Clouds -5 997 74 0 10.59 285 21:20 06.01.2020
1227 Clouds -5 997 74 0 10.59 285 20:57 06.01.2020
1228 Clouds -5 997 74 0 10.59 285 20:38 06.01.2020
1229 Clouds -5 995 75 0 10.84 281 20:20 06.01.2020
1230 Clouds -5 995 75 0 10.84 281 19:56 06.01.2020
1231 Clouds -5 995 75 0 10.84 281 19:38 06.01.2020
1232 Clouds -5 995 75 0 10.84 281 19:20 06.01.2020
1233 Clouds -5 995 75 0 10.84 281 18:48 06.01.2020
1234 Clouds -5 995 75 0 10.84 281 18:23 06.01.2020
1235 Clouds -5 995 75 0 10.84 281 17:59 06.01.2020
1236 Clouds -5 995 75 0 10.84 281 17:38 06.01.2020
1237 Clouds -5 994 75 0 10.66 277 17:18 06.01.2020
1238 Clouds -5 994 75 0 10.66 277 16:44 06.01.2020
1239 Clouds -5 994 75 0 10.66 277 16:25 06.01.2020
1240 Clouds -5 994 75 0 10.66 277 16:25 06.01.2020
1241 Clouds -5 994 75 0 10.66 277 15:59 06.01.2020
1242 Clouds -5 994 75 0 10.66 277 15:39 06.01.2020
1243 Clouds -5 994 75 0 10.66 277 15:19 06.01.2020
1244 Clouds -5 994 75 0 10.66 277 14:58 06.01.2020
1245 Clouds -5 994 75 0 10.66 277 14:39 06.01.2020
1246 Clouds -5 991 75 0 10.84 273 14:19 06.01.2020
1247 Clouds -5 991 75 0 10.84 273 13:54 06.01.2020
1248 Clouds -5 991 75 0 10.84 273 13:36 06.01.2020
1249 Clouds -5 991 75 0 10.84 273 13:18 06.01.2020
1250 Clouds -5 991 72 0 11.35 274 12:41 06.01.2020
1251 Clouds -5 991 72 0 11.35 274 12:20 06.01.2020
1252 Clouds -5 991 72 0 11.35 274 11:57 06.01.2020
1253 Clouds -5 991 72 0 11.35 274 11:38 06.01.2020
1254 Clouds -5 991 72 0 11.35 274 11:38 06.01.2020
1255 Clouds -5 989 72 0 10.82 270 11:20 06.01.2020
1256 Clouds -5 989 72 0 10.82 270 10:43 06.01.2020
1257 Clouds -5 989 72 0 10.82 270 10:25 06.01.2020
1258 Clouds -5 989 72 0 10.82 270 09:57 06.01.2020
1259 Clouds -5 989 72 0 10.82 270 09:37 06.01.2020
1260 Clouds -5 989 72 0 10.82 270 09:19 06.01.2020
1261 Clouds -5 989 72 0 10.82 270 08:42 06.01.2020
1262 Clouds -6 990 69 0 11.52 277 08:23 06.01.2020
1263 Clouds -5 988 68 0 11.1 273 07:48 06.01.2020
1264 Clouds -5 988 68 0 11.1 273 07:23 06.01.2020
1265 Clouds -5 988 68 0 11.1 273 06:44 06.01.2020
1266 Clouds -5 988 68 0 11.1 273 05:52 06.01.2020
1267 Clouds -5 988 68 0 11.1 273 05:33 06.01.2020
1268 Snow -5 986 73 0 9.84 268 04:26 06.01.2020
1269 Snow -5 986 73 0 9.84 268 03:58 06.01.2020
1270 Snow -5 986 73 0 9.84 268 02:40 06.01.2020
1271 Snow -5 985 93 0 9.23 261 02:20 06.01.2020
1272 Snow -5 985 93 0 9.23 261 01:41 06.01.2020
1273 Snow -5 985 85 0 9.49 277 01:20 06.01.2020
1274 Snow -5 985 85 0 9.49 277 00:40 06.01.2020
1275 Snow -5 985 85 0 9.49 277 00:19 06.01.2020
1276 Snow -5 985 85 0 9.49 277 00:19 06.01.2020
1277 Snow -5 985 85 0 9.49 277 23:41 05.01.2020
1278 Snow -4 983 80 0 10.92 248 23:21 05.01.2020
1279 Snow -4 983 80 0 10.92 248 22:55 05.01.2020
1280 Snow -4 983 80 0 10.92 248 22:37 05.01.2020
1281 Snow -4 983 80 0 10.92 248 22:18 05.01.2020
1282 Snow -4 983 80 0 10.92 248 21:41 05.01.2020
1283 Snow -4 983 80 0 10.92 248 21:21 05.01.2020
1284 Snow -4 983 80 0 10.92 248 20:59 05.01.2020
1285 Snow -4 983 80 0 10.92 248 20:39 05.01.2020
1286 Snow -4 981 80 0 8.56 264 20:20 05.01.2020
1287 Snow -4 981 80 0 8.56 264 20:20 05.01.2020
1288 Snow -5 982 79 0 7.25 258 19:59 05.01.2020
1289 Snow -5 982 79 0 7.25 258 19:41 05.01.2020
1290 Snow -5 982 79 0 7.25 258 19:21 05.01.2020
1291 Snow -5 982 79 0 7.25 258 18:56 05.01.2020
1292 Snow -5 982 79 0 7.25 258 18:38 05.01.2020
1293 Snow -5 982 79 0 7.25 258 18:19 05.01.2020
1294 Snow -5 982 79 0 7.25 258 17:59 05.01.2020
1295 Snow -5 982 79 0 7.25 258 17:39 05.01.2020
1296 Snow -4 980 93 0 11.98 257 17:20 05.01.2020
1297 Snow -4 980 93 0 11.98 257 16:57 05.01.2020
1298 Snow -4 980 93 0 11.98 257 16:39 05.01.2020
1299 Snow -4 980 93 0 11.98 257 16:20 05.01.2020
1300 Snow -4 980 93 0 11.98 257 15:40 05.01.2020
1301 Snow -4 980 93 0 11.98 257 15:22 05.01.2020
1302 Snow -4 980 93 0 11.98 257 14:57 05.01.2020
1303 Snow -4 980 93 0 11.98 257 14:39 05.01.2020
1304 Snow -5 977 89 0 9.56 252 14:20 05.01.2020
1305 Snow -5 977 89 0 9.56 252 13:57 05.01.2020
1306 Snow -5 977 89 0 9.56 252 13:38 05.01.2020
1307 Snow -5 977 93 0 9.15 250 13:20 05.01.2020
1308 Snow -5 977 93 0 9.15 250 13:20 05.01.2020
1309 Snow -5 977 93 0 9.15 250 12:56 05.01.2020
1310 Snow -5 977 93 0 9.15 250 12:37 05.01.2020
1311 Snow -5 977 93 0 9.15 250 12:19 05.01.2020
1312 Snow -5 977 93 0 9.15 250 12:19 05.01.2020
1313 Snow -5 977 93 0 9.15 250 11:54 05.01.2020
1314 Snow -5 977 93 0 9.15 250 11:36 05.01.2020
1315 Snow -4 973 93 0 8.2 271 11:18 05.01.2020
1316 Snow -4 973 93 0 8.2 271 10:40 05.01.2020
1317 Snow -4 973 93 0 8.2 271 10:20 05.01.2020
1318 Snow -4 973 93 0 8.2 271 09:42 05.01.2020
1319 Snow -4 973 93 0 8.2 271 09:22 05.01.2020
1320 Snow -4 973 93 0 8.2 271 08:54 05.01.2020
1321 Snow -4 973 93 0 8.2 271 08:35 05.01.2020
1322 Clouds -6 968 88 0 10.79 266 07:59 05.01.2020
1323 Clouds -6 968 88 0 10.79 266 07:39 05.01.2020
1324 Clouds -6 968 88 0 10.79 266 07:21 05.01.2020
1325 Clouds -6 968 88 0 10.79 266 06:47 05.01.2020
1326 Clouds -6 968 88 0 10.79 266 05:39 05.01.2020
1327 Snow -3 965 90 0 12.74 230 04:56 05.01.2020
1328 Snow -3 965 90 0 12.74 230 04:18 05.01.2020
1329 Snow -3 965 90 0 12.74 230 03:27 05.01.2020
1330 Snow -3 965 90 0 12.74 230 02:32 05.01.2020
1331 Snow -3 965 92 0 14.45 204 01:49 05.01.2020
1332 Snow -3 965 92 0 14.45 204 01:20 05.01.2020
1333 Snow -4 966 92 0 13.93 207 00:57 05.01.2020
1334 Snow -4 966 92 0 13.93 207 00:57 05.01.2020
1335 Snow -4 966 92 0 13.93 207 00:39 05.01.2020
1336 Snow -4 966 92 0 13.93 207 00:19 05.01.2020
1337 Snow -4 966 92 0 13.93 207 23:41 04.01.2020
1338 Clouds -5 968 88 0 11.99 198 23:20 04.01.2020
1339 Clouds -5 968 88 0 11.99 198 22:56 04.01.2020
1340 Clouds -5 968 88 0 11.99 198 22:38 04.01.2020
1341 Clouds -5 968 88 0 11.99 198 22:20 04.01.2020
1342 Clouds -5 968 88 0 11.99 198 21:55 04.01.2020
1343 Clouds -5 968 88 0 11.99 198 21:36 04.01.2020
1344 Clouds -5 968 88 0 11.99 198 21:18 04.01.2020
1345 Clouds -5 968 88 0 11.99 198 20:41 04.01.2020
1346 Clouds -5 970 86 0 13.26 202 20:22 04.01.2020
1347 Clouds -4 970 84 0 9.49 207 19:57 04.01.2020
1348 Clouds -4 970 84 0 9.49 207 19:39 04.01.2020
1349 Clouds -4 970 84 0 9.49 207 19:21 04.01.2020
1350 Clouds -4 970 84 0 9.49 207 18:57 04.01.2020
1351 Clouds -4 970 84 0 9.49 207 18:38 04.01.2020
1352 Clouds -4 970 84 0 9.49 207 18:19 04.01.2020
1353 Clouds -4 970 84 0 9.49 207 17:42 04.01.2020
1354 Clouds -4 970 84 0 9.49 207 17:42 04.01.2020
1355 Clouds -4 970 84 0 9.49 207 17:24 04.01.2020
1356 Clouds -1 969 87 0 8.38 220 16:59 04.01.2020
1357 Clouds -1 969 87 0 8.38 220 16:40 04.01.2020
1358 Clouds -1 969 87 0 8.38 220 16:22 04.01.2020
1359 Clouds -1 969 87 0 8.38 220 16:22 04.01.2020
1360 Clouds -1 969 87 0 8.38 220 15:56 04.01.2020
1361 Clouds -1 969 87 0 8.38 220 15:38 04.01.2020
1362 Clouds -1 969 87 0 8.38 220 15:19 04.01.2020
1363 Clouds -1 969 87 0 8.38 220 14:54 04.01.2020
1364 Clouds -1 969 87 0 8.38 220 14:36 04.01.2020
1365 Snow 0 968 97 0 8.54 217 14:18 04.01.2020
1366 Snow 0 968 97 0 8.54 217 13:39 04.01.2020
1367 Snow 0 968 97 0 8.54 217 13:39 04.01.2020
1368 Snow 0 968 97 0 8.5 217 13:20 04.01.2020
1369 Snow 0 968 97 0 8.5 217 12:59 04.01.2020
1370 Snow 0 968 97 0 8.5 217 12:40 04.01.2020
1371 Snow 0 968 97 0 8.5 217 12:40 04.01.2020
1372 Snow 0 968 97 0 8.5 217 12:19 04.01.2020
1373 Snow 0 968 97 0 8.5 217 11:57 04.01.2020
1374 Snow 0 968 97 0 8.5 217 11:38 04.01.2020
1375 Snow 0 968 98 0 8.68 195 11:18 04.01.2020
1376 Snow 0 968 98 0 8.68 195 10:41 04.01.2020
1377 Snow 0 968 98 0 8.68 195 10:22 04.01.2020
1378 Snow 0 968 98 0 8.68 195 09:50 04.01.2020
1379 Snow 0 968 98 0 8.68 195 09:26 04.01.2020
1380 Snow 0 968 98 0 8.68 195 09:26 04.01.2020
1381 Snow 0 968 98 0 8.68 195 08:57 04.01.2020
1382 Snow 0 968 98 0 8.68 195 08:37 04.01.2020
1383 Snow -4 970 93 0 9.02 159 08:19 04.01.2020
1384 Snow -3 970 92 0 9.54 170 07:42 04.01.2020
1385 Snow -3 970 92 0 9.54 170 06:49 04.01.2020
1386 Snow -3 970 92 0 9.54 170 05:59 04.01.2020
1387 Snow -8 973 94 0 8.36 143 05:18 04.01.2020
1388 Snow -8 973 94 0 8.36 143 04:33 04.01.2020
1389 Snow -8 973 94 0 8.36 143 03:39 04.01.2020
1390 Snow -8 973 94 0 8.36 143 03:18 04.01.2020
1391 Snow -10 976 96 0 8.46 132 02:21 04.01.2020
1392 Snow -10 976 96 0 8.46 132 01:53 04.01.2020
1393 Snow -10 976 96 0 8.46 132 01:30 04.01.2020
1394 Clouds -11 977 96 0 8.47 128 00:30 04.01.2020
1395 Clouds -11 977 96 0 8.47 128 23:59 03.01.2020
1396 Clouds -11 977 96 0 8.47 128 23:38 03.01.2020
1397 Clouds -12 979 96 0 6.53 136 23:20 03.01.2020
1398 Clouds -12 979 96 0 6.53 136 22:41 03.01.2020
1399 Clouds -12 979 96 0 6.53 136 22:20 03.01.2020
1400 Clouds -12 979 96 0 6.53 136 21:58 03.01.2020
1401 Clouds -12 979 96 0 6.53 136 21:38 03.01.2020
1402 Clouds -12 979 96 0 6.53 136 21:19 03.01.2020
1403 Clouds -12 979 96 0 6.53 136 20:57 03.01.2020
1404 Clouds -12 979 96 0 6.53 136 20:39 03.01.2020
1405 Clouds -12 980 92 0 6.73 142 20:18 03.01.2020
1406 Clouds -12 980 92 0 6.73 142 19:55 03.01.2020
1407 Clouds -12 980 92 0 6.73 142 19:37 03.01.2020
1408 Clouds -12 980 92 0 6.73 142 19:18 03.01.2020
1409 Clouds -12 980 92 0 6.73 142 18:41 03.01.2020
1410 Clouds -12 980 92 0 6.73 142 18:23 03.01.2020
1411 Clouds -12 980 92 0 6.73 142 17:55 03.01.2020
1412 Clouds -12 980 92 0 6.73 142 17:36 03.01.2020
1413 Clouds -12 982 89 0 6.61 149 17:18 03.01.2020
1414 Clouds -12 982 89 0 6.61 149 16:42 03.01.2020
1415 Clouds -12 982 89 0 6.61 149 16:22 03.01.2020
1416 Clouds -12 982 89 0 6.61 149 16:22 03.01.2020
1417 Clouds -12 982 89 0 6.61 149 15:43 03.01.2020
1418 Clouds -12 982 89 0 6.61 149 15:19 03.01.2020
1419 Clouds -12 982 89 0 6.61 149 14:57 03.01.2020
1420 Clouds -12 982 89 0 6.61 149 14:37 03.01.2020
1421 Clouds -11 984 88 0 6.52 144 14:19 03.01.2020
1422 Clouds -11 984 88 0 6.52 144 13:43 03.01.2020
1423 Clouds -11 983 88 0 6.32 142 13:23 03.01.2020
1424 Clouds -11 983 88 0 6.32 142 12:57 03.01.2020
1425 Clouds -11 983 88 0 6.32 142 12:38 03.01.2020
1426 Clouds -11 983 88 0 6.32 142 12:20 03.01.2020
1427 Clouds -11 983 88 0 6.32 142 11:44 03.01.2020
1428 Clouds -11 985 83 0 6.14 178 11:19 03.01.2020
1429 Clouds -11 985 83 0 6.14 178 10:44 03.01.2020
1430 Clouds -11 985 83 0 6.14 178 10:25 03.01.2020
1431 Clouds -11 985 83 0 6.14 178 09:57 03.01.2020
1432 Clouds -11 985 83 0 6.14 178 09:39 03.01.2020
1433 Clouds -11 985 83 0 6.14 178 09:21 03.01.2020
1434 Clouds -11 985 83 0 6.14 178 08:56 03.01.2020
1435 Clouds -11 985 83 0 6.14 178 08:36 03.01.2020
1436 Clear -14 986 97 0 6.62 189 08:18 03.01.2020
1437 Clear -14 986 97 0 6.62 189 07:39 03.01.2020
1438 Clear -14 986 97 0 6.62 189 07:18 03.01.2020
1439 Clear -14 986 97 0 6.62 189 06:47 03.01.2020
1440 Clear -14 986 97 0 6.62 189 06:28 03.01.2020
1441 Clear -14 986 97 0 6.62 189 05:28 03.01.2020
1442 Clear -13 988 94 0 8.19 202 04:18 03.01.2020
1443 Clear -13 988 94 0 8.19 202 02:56 03.01.2020
1444 Clear -13 988 94 0 8.19 202 02:26 03.01.2020
1445 Clouds -12 990 96 0 8.78 212 01:39 03.01.2020
1446 Clouds -12 990 94 0 9.02 213 00:49 03.01.2020
1447 Clouds -12 990 94 0 9.02 213 00:29 03.01.2020
1448 Clouds -12 990 94 0 9.02 213 23:55 02.01.2020
1449 Clouds -12 990 94 0 9.02 213 23:37 02.01.2020
1450 Snow -10 990 95 0 9.93 221 23:18 02.01.2020
1451 Snow -10 990 95 0 9.93 221 22:44 02.01.2020
1452 Snow -10 990 95 0 9.93 221 22:20 02.01.2020
1453 Snow -10 990 95 0 9.93 221 21:57 02.01.2020
1454 Snow -10 990 95 0 9.93 221 21:38 02.01.2020
1455 Snow -10 990 95 0 9.93 221 21:38 02.01.2020
1456 Snow -10 990 95 0 9.93 221 21:20 02.01.2020
1457 Snow -10 990 95 0 9.93 221 20:57 02.01.2020
1458 Snow -10 990 95 0 9.93 221 20:38 02.01.2020
1459 Snow -6 990 92 0 6.52 236 20:20 02.01.2020
1460 Snow -6 990 92 0 6.52 236 20:20 02.01.2020
1461 Snow -6 990 92 0 6.52 236 19:55 02.01.2020
1462 Snow -6 990 92 0 6.52 236 19:36 02.01.2020
1463 Snow -6 990 92 0 6.52 236 19:18 02.01.2020
1464 Snow -6 990 92 0 6.52 236 18:54 02.01.2020
1465 Snow -6 990 92 0 6.52 236 18:36 02.01.2020
1466 Snow -6 990 92 0 6.52 236 18:18 02.01.2020
1467 Snow -6 990 92 0 6.52 236 17:55 02.01.2020
1468 Snow -6 990 92 0 6.52 236 17:36 02.01.2020
1469 Clouds -6 989 86 0 6.38 257 17:18 02.01.2020
1470 Clouds -6 989 86 0 6.38 257 16:42 02.01.2020
1471 Clouds -6 989 86 0 6.38 257 16:42 02.01.2020
1472 Clouds -6 989 86 0 6.38 257 16:21 02.01.2020
1473 Clouds -6 989 86 0 6.38 257 15:59 02.01.2020
1474 Clouds -6 989 86 0 6.38 257 15:40 02.01.2020
1475 Clouds -6 989 86 0 6.38 257 15:40 02.01.2020
1476 Clouds -6 989 86 0 6.38 257 15:22 02.01.2020
1477 Clouds -6 989 86 0 6.38 257 14:57 02.01.2020
1478 Clouds -6 989 86 0 6.38 257 14:37 02.01.2020
1479 Clouds -6 988 81 0 6.78 265 14:18 02.01.2020
1480 Clouds -6 988 81 0 6.78 265 13:51 02.01.2020
1481 Snow -6 988 91 0 6.4 262 13:32 02.01.2020
1482 Snow -6 988 91 0 6.4 262 12:47 02.01.2020
1483 Snow -6 988 91 0 6.4 262 12:28 02.01.2020
1484 Snow -6 988 91 0 6.4 262 11:59 02.01.2020
1485 Snow -6 988 91 0 6.4 262 11:41 02.01.2020
1486 Clouds -6 987 76 0 7.1 256 11:20 02.01.2020
1487 Clouds -6 987 76 0 7.1 256 10:45 02.01.2020
1488 Clouds -6 987 76 0 7.1 256 10:26 02.01.2020
1489 Clouds -6 987 76 0 7.1 256 09:55 02.01.2020
1490 Clouds -6 987 76 0 7.1 256 09:34 02.01.2020
1491 Clouds -6 987 76 0 7.1 256 08:50 02.01.2020
1492 Clouds -6 987 73 0 7.22 262 08:28 02.01.2020
1493 Clouds -6 985 76 0 6.87 264 07:57 02.01.2020
1494 Clouds -6 985 76 0 6.87 264 07:31 02.01.2020
1495 Clouds -6 985 76 0 6.87 264 06:57 02.01.2020
1496 Clouds -6 985 76 0 6.87 264 06:57 02.01.2020
1497 Clouds -6 985 76 0 6.87 264 06:57 02.01.2020
1498 Clouds -6 985 76 0 6.87 264 06:57 02.01.2020
1499 Clouds -6 985 76 0 6.87 264 06:39 02.01.2020
1500 Clouds -6 985 76 0 6.87 264 05:37 02.01.2020
1501 Clouds -5 984 75 0 6.35 262 04:34 02.01.2020
1502 Clouds -5 984 75 0 6.35 262 03:19 02.01.2020
1503 Snow -5 983 77 0 6.73 255 02:20 02.01.2020
1504 Snow -5 983 77 0 6.73 255 01:47 02.01.2020
1505 Snow -6 983 78 0 6.13 257 01:19 02.01.2020
1506 Snow -6 983 78 0 6.13 257 00:36 02.01.2020
1507 Snow -6 983 78 0 6.13 257 00:18 02.01.2020
1508 Snow -6 983 78 0 6.13 257 23:40 01.01.2020
1509 Snow -5 982 81 0 6.03 253 23:20 01.01.2020
1510 Snow -5 982 81 0 6.03 253 22:38 01.01.2020
1511 Snow -5 982 81 0 6.03 253 22:20 01.01.2020
1512 Snow -5 982 81 0 6.03 253 21:57 01.01.2020
1513 Snow -5 982 81 0 6.03 253 21:38 01.01.2020
1514 Snow -5 982 81 0 6.03 253 21:38 01.01.2020
1515 Snow -5 982 81 0 6.03 253 21:19 01.01.2020
1516 Snow -5 982 81 0 6.03 253 20:56 01.01.2020
1517 Snow -5 982 81 0 6.03 253 20:56 01.01.2020
1518 Snow -5 982 81 0 6.03 253 20:38 01.01.2020
1519 Snow -5 982 81 0 6.03 253 20:38 01.01.2020
1520 Snow -7 981 92 0 8.7 243 20:19 01.01.2020
1521 Snow -7 981 92 0 8.7 243 20:19 01.01.2020
1522 Snow -7 981 92 0 8.7 243 19:55 01.01.2020
1523 Snow -7 981 92 0 8.7 243 19:55 01.01.2020
1524 Snow -7 981 92 0 8.7 243 19:55 01.01.2020
1525 Snow -7 981 92 0 8.7 243 19:37 01.01.2020
1526 Snow -7 981 92 0 8.7 243 19:19 01.01.2020
1527 Snow -7 981 92 0 8.7 243 18:55 01.01.2020
1528 Snow -7 981 92 0 8.7 243 18:36 01.01.2020
1529 Snow -7 981 92 0 8.7 243 18:18 01.01.2020
1530 Snow -7 981 92 0 8.7 243 17:56 01.01.2020
1531 Snow -7 981 92 0 8.7 243 17:38 01.01.2020
1532 Snow -7 981 93 0 7.74 238 17:18 01.01.2020
1533 Snow -7 981 93 0 7.74 238 16:41 01.01.2020
1534 Snow -7 981 93 0 7.74 238 16:22 01.01.2020
1535 Snow -7 981 93 0 7.74 238 15:58 01.01.2020
1536 Snow -7 981 93 0 7.74 238 15:40 01.01.2020
1537 Snow -7 981 93 0 7.74 238 15:21 01.01.2020
1538 Snow -7 981 93 0 7.74 238 14:59 01.01.2020
1539 Snow -7 981 93 0 7.74 238 14:40 01.01.2020
1540 Snow -7 980 90 0 5.94 255 14:21 01.01.2020
1541 Snow -7 980 90 0 5.94 255 13:56 01.01.2020
1542 Snow -7 980 90 0 5.94 255 13:37 01.01.2020
1543 Snow -7 980 90 0 5.94 255 13:37 01.01.2020
1544 Snow -7 980 90 0 5.94 255 13:37 01.01.2020
1545 Snow -7 980 90 0 5.94 255 13:37 01.01.2020
1546 Snow -7 980 89 0 6.6 249 13:18 01.01.2020
1547 Snow -7 980 89 0 6.6 249 12:56 01.01.2020
1548 Snow -7 980 89 0 6.6 249 12:56 01.01.2020
1549 Snow -7 980 89 0 6.6 249 12:38 01.01.2020
1550 Snow -7 980 89 0 6.6 249 12:18 01.01.2020
1551 Snow -7 980 89 0 6.6 249 11:43 01.01.2020
1552 Snow -7 980 89 0 6.6 249 11:23 01.01.2020
1553 Clouds -8 980 89 0 6.09 242 10:59 01.01.2020
1554 Clouds -8 980 89 0 6.09 242 10:41 01.01.2020
1555 Clouds -8 980 89 0 6.09 242 10:21 01.01.2020
1556 Clouds -8 980 89 0 6.09 242 09:57 01.01.2020
1557 Clouds -8 980 89 0 6.09 242 09:37 01.01.2020
1558 Clouds -8 980 89 0 6.09 242 09:18 01.01.2020
1559 Clouds -8 980 89 0 6.09 242 08:55 01.01.2020
1560 Clouds -8 980 89 0 6.09 242 08:36 01.01.2020
1561 Clouds -8 980 89 0 6.09 242 08:36 01.01.2020
1562 Clouds -8 978 78 0 6.54 259 08:18 01.01.2020
1563 Clouds -8 979 78 0 7.09 271 07:51 01.01.2020
1564 Clouds -8 979 78 0 7.09 271 07:32 01.01.2020
1565 Clouds -8 979 78 0 7.09 271 06:44 01.01.2020
1566 Clouds -8 979 78 0 7.09 271 06:20 01.01.2020
1567 Clouds -8 977 79 0 7.89 281 05:21 01.01.2020
1568 Clouds -8 977 79 0 7.89 281 03:43 01.01.2020
1569 Clouds -8 977 79 0 7.89 281 03:22 01.01.2020
1570 Clouds -8 977 79 0 7.89 281 02:57 01.01.2020
1571 Clouds -8 977 79 0 7.89 281 02:34 01.01.2020
1572 Clouds -8 976 80 0 7.35 278 01:55 01.01.2020
1573 Clouds -8 976 80 0 7.35 278 01:36 01.01.2020
1574 Clouds -8 976 80 0 7.78 279 01:18 01.01.2020
1575 Clouds -8 976 80 0 7.78 279 00:44 01.01.2020
1576 Clouds -8 976 80 0 7.78 279 00:24 01.01.2020
1577 Clouds -8 976 80 0 7.78 279 23:41 31.12.2019
1578 Clouds -7 973 82 0 7.77 277 23:21 31.12.2019
1579 Clouds -7 973 82 0 7.77 277 22:57 31.12.2019
1580 Clouds -7 973 82 0 7.77 277 22:38 31.12.2019
1581 Clouds -7 973 82 0 7.77 277 22:19 31.12.2019
1582 Clouds -7 973 82 0 7.77 277 21:57 31.12.2019
1583 Clouds -7 973 82 0 7.77 277 21:38 31.12.2019
1584 Clouds -7 973 82 0 7.77 277 21:20 31.12.2019
1585 Clouds -7 973 82 0 7.77 277 20:55 31.12.2019
1586 Clouds -7 973 82 0 7.77 277 20:36 31.12.2019
1587 Clouds -8 972 82 0 7.95 269 20:18 31.12.2019
1588 Clouds -8 972 82 0 7.95 269 19:42 31.12.2019
1589 Clouds -8 972 82 0 7.95 269 19:24 31.12.2019
1590 Clouds -8 972 82 0 7.95 269 18:59 31.12.2019
1591 Clouds -8 972 82 0 7.95 269 18:40 31.12.2019
1592 Clouds -8 972 82 0 7.95 269 18:20 31.12.2019
1593 Clouds -8 972 82 0 7.95 269 17:57 31.12.2019
1594 Clouds -8 972 82 0 7.95 269 17:38 31.12.2019
1595 Snow -5 970 85 0 7.21 250 17:19 31.12.2019
1596 Snow -5 970 85 0 7.21 250 16:57 31.12.2019
1597 Snow -5 970 85 0 7.21 250 16:38 31.12.2019
1598 Snow -5 970 85 0 7.21 250 16:19 31.12.2019
1599 Snow -5 970 85 0 7.21 250 15:56 31.12.2019
1600 Snow -5 970 85 0 7.21 250 15:38 31.12.2019
1601 Snow -5 970 85 0 7.21 250 15:20 31.12.2019
1602 Snow -5 970 85 0 7.21 250 14:58 31.12.2019
1603 Snow -5 970 85 0 7.21 250 14:38 31.12.2019
1604 Snow -6 968 91 0 10.63 228 14:19 31.12.2019
1605 Snow -6 968 91 0 10.63 228 13:57 31.12.2019
1606 Snow -6 968 91 0 10.63 228 13:39 31.12.2019
1607 Snow -6 969 92 0 10.56 224 13:21 31.12.2019
1608 Snow -6 969 92 0 10.56 224 13:21 31.12.2019
1609 Snow -6 969 92 0 10.56 224 12:58 31.12.2019
1610 Snow -6 969 92 0 10.56 224 12:39 31.12.2019
1611 Snow -6 969 92 0 10.56 224 12:20 31.12.2019
1612 Snow -6 969 92 0 10.56 224 11:56 31.12.2019
1613 Snow -6 969 92 0 10.56 224 11:38 31.12.2019
1614 Clouds -7 967 89 0 11.51 214 11:20 31.12.2019
1615 Clouds -7 967 89 0 11.51 214 10:57 31.12.2019
1616 Clouds -7 967 89 0 11.51 214 10:57 31.12.2019
1617 Clouds -7 967 89 0 11.51 214 10:38 31.12.2019
1618 Clouds -7 967 89 0 11.51 214 10:20 31.12.2019
1619 Clouds -7 967 89 0 11.51 214 09:58 31.12.2019
1620 Clouds -7 967 89 0 11.51 214 09:39 31.12.2019
1621 Clouds -7 967 89 0 11.51 214 09:20 31.12.2019
1622 Clouds -7 967 89 0 11.51 214 08:57 31.12.2019
1623 Clouds -7 967 89 0 11.51 214 08:37 31.12.2019
1624 Snow -7 968 88 0 12.12 216 08:19 31.12.2019
1625 Snow -7 968 88 0 12.12 216 07:42 31.12.2019
1626 Snow -7 968 88 0 12.12 216 07:20 31.12.2019
1627 Snow -7 968 88 0 12.12 216 06:49 31.12.2019
1628 Snow -7 968 88 0 12.12 216 05:57 31.12.2019
1629 Snow -8 969 89 0 11.48 214 04:28 31.12.2019
1630 Snow -8 969 89 0 11.48 214 03:27 31.12.2019
1631 Snow -8 969 89 0 11.48 214 02:54 31.12.2019
1632 Snow -8 969 89 0 11.48 214 02:54 31.12.2019
1633 Snow -8 969 89 0 11.48 214 02:54 31.12.2019
1634 Snow -8 971 91 0 11.64 215 01:58 31.12.2019
1635 Snow -8 971 91 0 11.64 215 01:40 31.12.2019
1636 Snow -8 971 91 0 11.64 215 01:22 31.12.2019
1637 Snow -8 971 91 0 11.54 214 00:45 31.12.2019
1638 Snow -8 971 91 0 11.54 214 00:22 31.12.2019
1639 Snow -8 971 91 0 11.54 214 23:56 30.12.2019
1640 Snow -8 971 91 0 11.54 214 23:38 30.12.2019
1641 Snow -7 973 91 0 11.77 214 23:19 30.12.2019
1642 Snow -7 973 91 0 11.77 214 22:57 30.12.2019
1643 Snow -7 973 91 0 11.77 214 22:57 30.12.2019
1644 Snow -7 973 91 0 11.77 214 22:37 30.12.2019
1645 Snow -7 973 91 0 11.77 214 22:19 30.12.2019
1646 Snow -7 973 91 0 11.77 214 21:56 30.12.2019
1647 Snow -7 973 91 0 11.77 214 21:38 30.12.2019
1648 Snow -7 973 91 0 11.77 214 21:18 30.12.2019
1649 Snow -7 973 91 0 11.77 214 20:56 30.12.2019
1650 Snow -7 973 91 0 11.77 214 20:56 30.12.2019
1651 Snow -7 973 91 0 11.77 214 20:38 30.12.2019
1652 Clouds -8 976 85 0 11.37 210 20:19 30.12.2019
1653 Clouds -8 976 85 0 11.37 210 19:56 30.12.2019
1654 Clouds -8 976 85 0 11.37 210 19:37 30.12.2019
1655 Clouds -8 976 85 0 11.37 210 19:18 30.12.2019
1656 Clouds -8 976 85 0 11.37 210 18:56 30.12.2019
1657 Clouds -8 976 85 0 11.37 210 18:37 30.12.2019
1658 Clouds -8 976 85 0 11.37 210 18:19 30.12.2019
1659 Clouds -8 976 85 0 11.37 210 17:54 30.12.2019
1660 Clouds -8 976 85 0 11.37 210 17:36 30.12.2019
1661 Snow -8 979 87 0 12.69 219 17:18 30.12.2019
1662 Snow -8 979 87 0 12.69 219 16:41 30.12.2019
1663 Snow -8 979 87 0 12.69 219 16:41 30.12.2019
1664 Snow -8 979 87 0 12.69 219 16:21 30.12.2019
1665 Snow -8 979 87 0 12.69 219 15:58 30.12.2019
1666 Snow -8 979 87 0 12.69 219 15:39 30.12.2019
1667 Snow -8 979 87 0 12.69 219 15:20 30.12.2019
1668 Snow -8 979 87 0 12.69 219 14:56 30.12.2019
1669 Snow -8 979 87 0 12.69 219 14:38 30.12.2019
1670 Snow -7 981 90 0 13.33 222 14:18 30.12.2019
1671 Snow -7 981 90 0 13.33 222 13:43 30.12.2019
1672 Snow -7 981 90 0 13.33 222 13:24 30.12.2019
1673 Snow -7 981 91 0 13.27 223 12:59 30.12.2019
1674 Snow -7 981 91 0 13.27 223 12:41 30.12.2019
1675 Snow -7 981 91 0 13.27 223 12:19 30.12.2019
1676 Snow -7 981 91 0 13.27 223 11:58 30.12.2019
1677 Snow -7 981 91 0 13.27 223 11:39 30.12.2019
1678 Snow -6 982 90 0 14.29 227 11:18 30.12.2019
1679 Snow -6 982 90 0 14.29 227 10:43 30.12.2019
1680 Snow -6 982 90 0 14.29 227 10:21 30.12.2019
1681 Snow -6 982 90 0 14.29 227 09:55 30.12.2019
1682 Snow -6 982 90 0 14.29 227 09:37 30.12.2019
1683 Snow -6 982 90 0 14.29 227 09:19 30.12.2019
1684 Snow -6 982 90 0 14.29 227 08:46 30.12.2019
1685 Snow -6 982 90 0 14.29 227 08:23 30.12.2019
1686 Snow -7 983 90 0 15.06 224 07:53 30.12.2019
1687 Snow -7 983 90 0 15.06 224 07:33 30.12.2019
1688 Snow -7 983 90 0 15.06 224 06:50 30.12.2019
1689 Snow -7 986 89 0 14.39 228 04:50 30.12.2019
1690 Snow -7 986 89 0 14.39 228 03:52 30.12.2019
1691 Snow -7 986 89 0 14.39 228 02:47 30.12.2019
1692 Snow -7 986 89 0 14.39 228 02:29 30.12.2019
1693 Snow -7 991 90 0 14.25 228 01:47 30.12.2019
1694 Snow -7 991 90 0 14.25 228 01:19 30.12.2019
1695 Snow -8 992 90 0 14.18 228 00:42 30.12.2019
1696 Snow -8 992 90 0 14.18 228 23:59 29.12.2019
1697 Snow -8 992 90 0 14.18 228 23:59 29.12.2019
1698 Snow -8 992 90 0 14.18 228 23:38 29.12.2019
1699 Snow -8 994 89 0 13.35 232 23:20 29.12.2019
1700 Snow -8 994 89 0 13.35 232 22:42 29.12.2019
1701 Snow -8 994 89 0 13.35 232 22:22 29.12.2019
1702 Snow -8 994 89 0 13.35 232 22:22 29.12.2019
1703 Snow -8 994 89 0 13.35 232 21:57 29.12.2019
1704 Snow -8 994 89 0 13.35 232 21:39 29.12.2019
1705 Snow -8 994 89 0 13.35 232 21:20 29.12.2019
1706 Snow -8 994 89 0 13.35 232 20:57 29.12.2019
1707 Snow -8 994 89 0 13.35 232 20:38 29.12.2019
1708 Snow -7 996 90 0 13.57 234 20:20 29.12.2019
1709 Snow -7 996 90 0 13.57 234 19:58 29.12.2019
1710 Snow -7 996 90 0 13.57 234 19:39 29.12.2019
1711 Snow -7 996 90 0 13.57 234 19:20 29.12.2019
1712 Snow -7 996 90 0 13.57 234 18:56 29.12.2019
1713 Snow -7 996 90 0 13.57 234 18:38 29.12.2019
1714 Snow -7 996 90 0 13.57 234 18:19 29.12.2019
1715 Snow -7 996 90 0 13.57 234 17:57 29.12.2019
1716 Snow -7 996 90 0 13.57 234 17:39 29.12.2019
1717 Snow -3 997 91 0 13.1 244 17:20 29.12.2019
1718 Snow -3 997 91 0 13.1 244 16:56 29.12.2019
1719 Snow -3 997 91 0 13.1 244 16:37 29.12.2019
1720 Snow -3 997 91 0 13.1 244 16:19 29.12.2019
1721 Snow -3 997 91 0 13.1 244 15:56 29.12.2019
1722 Snow -3 997 91 0 13.1 244 15:38 29.12.2019
1723 Snow -3 997 91 0 13.1 244 15:19 29.12.2019
1724 Snow -3 997 91 0 13.1 244 14:55 29.12.2019
1725 Snow -3 997 91 0 13.1 244 14:37 29.12.2019
1726 Snow -3 999 92 0 12.6 234 14:18 29.12.2019
1727 Snow -3 999 92 0 12.6 234 13:55 29.12.2019
1728 Snow -3 999 92 0 12.6 234 13:37 29.12.2019
1729 Snow -4 1000 92 0 12.68 233 13:18 29.12.2019
1730 Snow -4 1000 92 0 12.68 233 12:42 29.12.2019
1731 Snow -4 1000 92 0 12.68 233 12:24 29.12.2019
1732 Snow -4 1000 92 0 12.68 233 11:56 29.12.2019
1733 Snow -4 1000 92 0 12.68 233 11:37 29.12.2019
1734 Snow -4 1000 92 0 12.68 233 11:37 29.12.2019
1735 Snow -4 1000 92 0 12.68 233 11:37 29.12.2019
1736 Snow -6 1002 91 0 13.03 230 11:19 29.12.2019
1737 Snow -6 1002 91 0 13.03 230 10:42 29.12.2019
1738 Snow -6 1002 91 0 13.03 230 10:22 29.12.2019
1739 Snow -6 1002 91 0 13.03 230 09:56 29.12.2019
1740 Snow -6 1002 91 0 13.03 230 09:38 29.12.2019
1741 Snow -6 1002 91 0 13.03 230 09:19 29.12.2019
1742 Snow -6 1002 91 0 13.03 230 08:46 29.12.2019
1743 Snow -7 1003 88 0 13.17 231 08:24 29.12.2019
1744 Snow -7 1005 90 0 13.66 230 07:54 29.12.2019
1745 Snow -7 1005 90 0 13.66 230 07:28 29.12.2019
1746 Snow -7 1005 90 0 13.66 230 06:53 29.12.2019
1747 Snow -7 1005 90 0 13.66 230 06:24 29.12.2019
1748 Snow -7 1005 90 0 13.66 230 05:51 29.12.2019
1749 Snow -6 1008 91 0 12.14 236 04:36 29.12.2019
1750 Snow -6 1008 91 0 12.14 236 03:43 29.12.2019
1751 Snow -6 1008 91 0 12.14 236 03:19 29.12.2019
1752 Snow -5 1011 93 0 11.86 242 02:20 29.12.2019
1753 Snow -5 1011 93 0 11.86 242 02:20 29.12.2019
1754 Snow -5 1011 93 0 11.86 242 01:31 29.12.2019
1755 Snow -5 1011 93 0 11.86 242 01:31 29.12.2019
1756 Snow -5 1011 93 0 11.08 242 00:55 29.12.2019
1757 Snow -5 1011 93 0 11.08 242 00:36 29.12.2019
1758 Snow -5 1011 93 0 11.08 242 00:18 29.12.2019
1759 Snow -5 1011 93 0 11.08 242 23:41 28.12.2019
1760 Snow -4 1012 90 0 11.79 249 23:18 28.12.2019
1761 Snow -4 1012 90 0 11.79 249 22:39 28.12.2019
1762 Snow -4 1012 90 0 11.79 249 22:20 28.12.2019
1763 Snow -4 1012 90 0 11.79 249 21:58 28.12.2019
1764 Snow -4 1012 90 0 11.79 249 21:39 28.12.2019
1765 Snow -4 1012 90 0 11.79 249 21:20 28.12.2019
1766 Snow -4 1012 90 0 11.79 249 20:56 28.12.2019
1767 Snow -4 1012 90 0 11.79 249 20:37 28.12.2019
1768 Snow -4 1014 92 0 10.09 248 20:18 28.12.2019
1769 Snow -4 1015 92 0 10.23 248 19:55 28.12.2019
1770 Snow -4 1015 92 0 10.23 248 19:36 28.12.2019
1771 Snow -4 1015 92 0 10.23 248 19:18 28.12.2019
1772 Snow -4 1015 92 0 10.23 248 18:55 28.12.2019
1773 Snow -4 1015 92 0 10.23 248 18:37 28.12.2019
1774 Snow -4 1015 92 0 10.23 248 18:18 28.12.2019
1775 Snow -4 1015 92 0 10.23 248 17:42 28.12.2019
1776 Snow -11 1018 93 0 7.86 216 17:21 28.12.2019
1777 Snow -11 1018 93 0 7.86 216 16:55 28.12.2019
1778 Snow -11 1018 93 0 7.86 216 16:37 28.12.2019
1779 Snow -11 1018 93 0 7.86 216 16:19 28.12.2019
1780 Snow -11 1018 93 0 7.86 216 15:43 28.12.2019
1781 Snow -11 1018 93 0 7.86 216 15:22 28.12.2019
1782 Snow -11 1018 93 0 7.86 216 14:55 28.12.2019
1783 Snow -11 1018 93 0 7.86 216 14:36 28.12.2019
1784 Clouds -15 1022 93 0 4.63 218 14:18 28.12.2019
1785 Clouds -15 1022 93 0 4.63 218 13:42 28.12.2019
1786 Clouds -15 1022 93 0 4.63 218 13:21 28.12.2019
1787 Clouds -16 1022 93 0 4.19 219 12:58 28.12.2019
1788 Clouds -16 1022 93 0 4.19 219 12:40 28.12.2019
1789 Clouds -16 1022 93 0 4.19 219 12:21 28.12.2019
1790 Clouds -16 1022 93 0 4.19 219 11:40 28.12.2019
1791 Clouds -16 1022 93 0 4.19 219 11:40 28.12.2019
1792 Clouds -18 1023 95 0 2.22 296 11:21 28.12.2019
1793 Clouds -18 1023 95 0 2.22 296 11:21 28.12.2019
1794 Clouds -18 1023 95 0 2.22 296 10:56 28.12.2019
1795 Clouds -18 1023 95 0 2.22 296 10:37 28.12.2019
1796 Clouds -18 1023 95 0 2.22 296 10:18 28.12.2019
1797 Clouds -18 1023 95 0 2.22 296 09:46 28.12.2019
1798 Clouds -18 1023 95 0 2.22 296 09:24 28.12.2019
1799 Clouds -18 1023 95 0 2.22 296 08:58 28.12.2019
1800 Clouds -18 1023 95 0 2.22 296 08:40 28.12.2019
1801 Clouds -19 1023 95 0 2.79 324 08:22 28.12.2019
1802 Clouds -19 1023 95 0 2.79 324 07:43 28.12.2019
1803 Clouds -19 1023 95 0 2.79 324 07:21 28.12.2019
1804 Clouds -19 1023 95 0 2.79 324 05:46 28.12.2019
1805 Clouds -18 1021 94 0 4.06 341 03:48 28.12.2019
1806 Clouds -18 1021 94 0 4.06 341 02:51 28.12.2019
1807 Clouds -17 1019 95 0 4.47 344 02:20 28.12.2019
1808 Clouds -17 1019 95 0 4.47 344 01:55 28.12.2019
1809 Clouds -17 1019 95 0 4.22 342 01:23 28.12.2019
1810 Clouds -17 1019 95 0 4.22 342 00:45 28.12.2019
1811 Clouds -17 1019 95 0 4.22 342 00:27 28.12.2019
1812 Clouds -17 1019 95 0 4.22 342 23:58 27.12.2019
1813 Clouds -17 1019 95 0 4.22 342 23:38 27.12.2019
1814 Snow -14 1017 92 0 4.4 9 23:18 27.12.2019
1815 Snow -14 1017 92 0 4.4 9 22:55 27.12.2019
1816 Snow -14 1017 92 0 4.4 9 22:37 27.12.2019
1817 Snow -14 1017 92 0 4.4 9 22:19 27.12.2019
1818 Snow -14 1017 92 0 4.4 9 21:43 27.12.2019
1819 Snow -14 1017 92 0 4.4 9 21:24 27.12.2019
1820 Snow -14 1017 92 0 4.4 9 20:45 27.12.2019
1821 Snow -14 1017 92 0 4.4 9 20:26 27.12.2019
1822 Snow -16 1015 95 0 1.53 231 19:59 27.12.2019
1823 Snow -16 1015 95 0 1.53 231 19:40 27.12.2019
1824 Snow -16 1015 95 0 1.53 231 19:19 27.12.2019
1825 Snow -16 1015 95 0 1.53 231 18:56 27.12.2019
1826 Snow -16 1015 95 0 1.53 231 18:37 27.12.2019
1827 Snow -16 1015 95 0 1.53 231 18:18 27.12.2019
1828 Snow -16 1015 95 0 1.53 231 17:55 27.12.2019
1829 Snow -16 1015 95 0 1.53 231 17:37 27.12.2019
1830 Snow -17 1014 95 0 4.33 218 17:18 27.12.2019
1831 Snow -17 1014 95 0 4.33 218 16:41 27.12.2019
1832 Snow -17 1014 95 0 4.33 218 16:23 27.12.2019
1833 Snow -17 1014 95 0 4.33 218 15:57 27.12.2019
1834 Snow -17 1014 95 0 4.33 218 15:37 27.12.2019
1835 Snow -17 1014 95 0 4.33 218 15:19 27.12.2019
1836 Snow -17 1014 95 0 4.33 218 14:55 27.12.2019
1837 Snow -17 1014 95 0 4.33 218 14:37 27.12.2019
1838 Clouds -18 1014 95 0 5.07 213 14:19 27.12.2019
1839 Clouds -18 1014 95 0 5.07 213 14:19 27.12.2019
1840 Clouds -18 1014 95 0 5.07 213 13:46 27.12.2019
1841 Clouds -18 1014 96 0 5.88 223 13:23 27.12.2019
1842 Clouds -18 1014 96 0 5.88 223 12:49 27.12.2019
1843 Clouds -18 1014 96 0 5.88 223 12:29 27.12.2019
1844 Clouds -18 1014 96 0 5.88 223 11:59 27.12.2019
1845 Clouds -18 1014 96 0 5.88 223 11:41 27.12.2019
1846 Clouds -20 1015 94 0 4.38 230 11:20 27.12.2019
1847 Clouds -20 1015 94 0 4.38 230 11:20 27.12.2019
1848 Clouds -20 1015 94 0 4.38 230 11:20 27.12.2019
1849 Clouds -20 1015 94 0 4.38 230 10:47 27.12.2019
1850 Clouds -20 1015 94 0 4.38 230 10:24 27.12.2019
1851 Clouds -20 1015 94 0 4.38 230 09:57 27.12.2019
1852 Clouds -20 1015 94 0 4.38 230 09:38 27.12.2019
1853 Clouds -20 1015 94 0 4.38 230 09:20 27.12.2019
1854 Clouds -20 1015 94 0 4.38 230 08:46 27.12.2019
1855 Clouds -20 1015 94 0 4.38 230 08:27 27.12.2019
1856 Clouds -20 1017 91 0 3.11 236 07:41 27.12.2019
1857 Clouds -20 1017 91 0 3.11 236 07:22 27.12.2019
1858 Clouds -20 1017 91 0 3.11 236 06:27 27.12.2019
1859 Clouds -19 1018 89 0 2.3 238 04:40 27.12.2019
1860 Clouds -19 1018 89 0 2.3 238 02:29 27.12.2019
1861 Clouds -18 1020 87 0 1.56 227 01:48 27.12.2019
1862 Clouds -19 1020 86 0 1.52 246 01:23 27.12.2019
1863 Clouds -19 1020 86 0 1.52 246 00:51 27.12.2019
1864 Clouds -19 1020 86 0 1.52 246 00:33 27.12.2019
1865 Clouds -19 1020 86 0 1.52 246 23:57 26.12.2019
1866 Clouds -19 1020 86 0 1.52 246 23:38 26.12.2019
1867 Clouds -19 1021 90 0 1.2 182 23:20 26.12.2019
1868 Clouds -19 1021 90 0 1.2 182 22:42 26.12.2019
1869 Clouds -19 1021 90 0 1.2 182 22:21 26.12.2019
1870 Clouds -19 1021 90 0 1.2 182 21:55 26.12.2019
1871 Clouds -19 1021 90 0 1.2 182 21:37 26.12.2019
1872 Clouds -19 1021 90 0 1.2 182 21:19 26.12.2019
1873 Clouds -19 1021 90 0 1.2 182 20:44 26.12.2019
1874 Clouds -19 1023 92 0 1.5 125 20:22 26.12.2019
1875 Clouds -19 1023 92 0 1.5 125 19:58 26.12.2019
1876 Clouds -19 1023 92 0 1.5 125 19:38 26.12.2019
1877 Clouds -19 1023 92 0 1.5 125 19:20 26.12.2019
1878 Clouds -19 1023 92 0 1.5 125 18:57 26.12.2019
1879 Clouds -19 1023 92 0 1.5 125 18:37 26.12.2019
1880 Clouds -19 1023 92 0 1.5 125 18:19 26.12.2019
1881 Clouds -19 1023 92 0 1.5 125 17:42 26.12.2019
1882 Clouds -19 1023 92 0 1.5 125 17:42 26.12.2019
1883 Clouds -19 1024 89 0 1.24 167 17:22 26.12.2019
1884 Clouds -19 1024 89 0 1.24 167 16:51 26.12.2019
1885 Clouds -19 1024 89 0 1.24 167 16:29 26.12.2019
1886 Clouds -19 1024 89 0 1.24 167 15:59 26.12.2019
1887 Clouds -19 1024 89 0 1.24 167 15:40 26.12.2019
1888 Clouds -19 1024 89 0 1.24 167 15:19 26.12.2019
1889 Clouds -19 1024 89 0 1.24 167 14:43 26.12.2019
1890 Clouds -19 1024 89 0 1.24 167 14:24 26.12.2019
1891 Clouds -19 1024 89 0 1.24 167 14:24 26.12.2019
1892 Clouds -19 1026 92 0 1.57 215 13:58 26.12.2019
1893 Clouds -19 1026 92 0 1.57 215 13:40 26.12.2019
1894 Clouds -20 1025 92 0 1.88 215 13:18 26.12.2019
1895 Clouds -20 1025 92 0 1.88 215 12:56 26.12.2019
1896 Clouds -20 1025 92 0 1.88 215 12:36 26.12.2019
1897 Clouds -20 1025 92 0 1.88 215 12:18 26.12.2019
1898 Clouds -20 1025 92 0 1.88 215 11:42 26.12.2019
1899 Clouds -20 1025 92 0 1.88 215 11:23 26.12.2019
1900 Clouds -20 1026 92 0 2.76 211 10:54 26.12.2019
1901 Clouds -20 1026 92 0 2.76 211 10:36 26.12.2019
1902 Clouds -20 1026 92 0 2.76 211 10:18 26.12.2019
1903 Clouds -20 1026 92 0 2.76 211 09:42 26.12.2019
1904 Clouds -20 1026 92 0 2.76 211 09:24 26.12.2019
1905 Clouds -20 1026 92 0 2.76 211 08:40 26.12.2019
1906 Clouds -20 1026 92 0 2.59 216 08:21 26.12.2019
1907 Clouds -20 1026 92 0 2.59 216 07:44 26.12.2019
1908 Clouds -20 1026 92 0 2.59 216 07:24 26.12.2019
1909 Clouds -20 1026 92 0 2.59 216 06:39 26.12.2019
1910 Clouds -20 1026 92 0 2.59 216 06:20 26.12.2019
1911 Clouds -20 1026 92 0 2.59 216 05:43 26.12.2019
1912 Clouds -20 1027 93 0 2.75 238 04:36 26.12.2019
1913 Clouds -20 1027 93 0 2.75 238 03:32 26.12.2019
1914 Clouds -20 1027 93 0 2.75 238 02:47 26.12.2019
1915 Clouds -20 1027 93 0 2.75 238 02:29 26.12.2019
1916 Clouds -20 1028 99 0 2 228 01:44 26.12.2019
1917 Clouds -20 1028 99 0 2 228 01:25 26.12.2019
1918 Clouds -20 1028 99 0 2.49 235 00:44 26.12.2019
1919 Clouds -20 1028 99 0 2.49 235 00:23 26.12.2019
1920 Clouds -20 1028 99 0 2.49 235 23:57 25.12.2019
1921 Clouds -20 1028 99 0 2.49 235 23:37 25.12.2019
1922 Clouds -20 1027 97 0 1.37 241 23:19 25.12.2019
1923 Clouds -20 1027 97 0 1.37 241 22:56 25.12.2019
1924 Clouds -20 1027 97 0 1.37 241 22:37 25.12.2019
1925 Clouds -20 1027 97 0 1.37 241 22:18 25.12.2019
1926 Clouds -20 1027 97 0 1.37 241 22:18 25.12.2019
1927 Clouds -20 1027 97 0 1.37 241 21:55 25.12.2019
1928 Clouds -20 1027 97 0 1.37 241 21:37 25.12.2019
1929 Clouds -20 1027 97 0 1.37 241 21:19 25.12.2019
1930 Clouds -20 1027 97 0 1.37 241 20:40 25.12.2019
1931 Clouds -20 1026 96 0 0.82 296 20:21 25.12.2019
1932 Clouds -20 1026 96 0 0.82 296 19:59 25.12.2019
1933 Clouds -20 1026 96 0 0.82 296 19:41 25.12.2019
1934 Clouds -20 1026 96 0 0.82 296 19:21 25.12.2019
1935 Clouds -20 1026 96 0 0.82 296 18:40 25.12.2019
1936 Clouds -20 1026 96 0 0.82 296 18:21 25.12.2019
1937 Clouds -20 1026 96 0 0.82 296 18:21 25.12.2019
1938 Clouds -20 1026 96 0 0.82 296 17:57 25.12.2019
1939 Clouds -20 1026 96 0 0.82 296 17:39 25.12.2019
1940 Clouds -20 1026 95 0 0.94 353 17:18 25.12.2019
1941 Clouds -20 1026 95 0 0.94 353 16:54 25.12.2019
1942 Clouds -20 1026 95 0 0.94 353 16:36 25.12.2019
1943 Clouds -20 1026 95 0 0.94 353 16:18 25.12.2019
1944 Clouds -20 1026 95 0 0.94 353 15:40 25.12.2019
1945 Clouds -20 1026 95 0 0.94 353 15:22 25.12.2019
1946 Clouds -20 1026 95 0 0.94 353 14:59 25.12.2019
1947 Clouds -20 1026 95 0 0.94 353 14:41 25.12.2019
1948 Clouds -20 1026 95 0 0.94 353 14:23 25.12.2019
1949 Clouds -20 1025 99 0 2.36 16 13:58 25.12.2019
1950 Clouds -20 1025 99 0 2.36 16 13:39 25.12.2019
1951 Clouds -20 1025 99 0 2.36 16 13:19 25.12.2019
1952 Clouds -20 1025 97 0 2.11 11 12:43 25.12.2019
1953 Clouds -20 1025 97 0 2.11 11 12:22 25.12.2019
1954 Clouds -20 1025 97 0 2.11 11 11:58 25.12.2019
1955 Clouds -20 1025 97 0 2.11 11 11:39 25.12.2019
1956 Clouds -20 1024 98 0 2.68 358 11:20 25.12.2019
1957 Clouds -20 1024 98 0 2.68 358 10:39 25.12.2019
1958 Clouds -20 1024 98 0 2.68 358 10:39 25.12.2019
1959 Clouds -20 1024 98 0 2.68 358 10:21 25.12.2019
1960 Clouds -20 1024 98 0 2.68 358 09:51 25.12.2019
1961 Clouds -20 1024 98 0 2.68 358 09:33 25.12.2019
1962 Clouds -20 1024 98 0 2.68 358 08:56 25.12.2019
1963 Clouds -20 1024 98 0 2.68 358 08:38 25.12.2019
1964 Clouds -20 1022 100 0 3.11 360 08:19 25.12.2019
1965 Clouds -20 1022 98 0 3.06 2 07:40 25.12.2019
1966 Clouds -20 1022 98 0 3.06 2 07:40 25.12.2019
1967 Clouds -20 1022 98 0 3.06 2 07:22 25.12.2019
1968 Clouds -20 1022 98 0 3.06 2 06:24 25.12.2019
1969 Clouds -20 1022 98 0 3.06 2 05:49 25.12.2019
1970 Clouds -20 1021 99 0 3.38 3 04:42 25.12.2019
1971 Clouds -20 1021 99 0 3.38 3 04:24 25.12.2019
1972 Clouds -20 1021 99 0 3.38 3 03:43 25.12.2019
1973 Clouds -20 1021 99 0 3.38 3 02:58 25.12.2019
1974 Clouds -20 1021 99 0 3.38 3 02:29 25.12.2019
1975 Clouds -20 1020 100 0 3.94 4 01:42 25.12.2019
1976 Clouds -20 1021 98 0 3.63 9 01:18 25.12.2019
1977 Clouds -20 1021 98 0 3.63 9 00:41 25.12.2019
1978 Clouds -20 1021 98 0 3.63 9 00:22 25.12.2019
1979 Clouds -20 1021 98 0 3.63 9 23:39 24.12.2019
1980 Clouds -20 1020 99 0 4.11 1 23:20 24.12.2019
1981 Clouds -20 1020 99 0 4.11 1 22:42 24.12.2019
1982 Clouds -20 1020 99 0 4.11 1 22:24 24.12.2019
1983 Clouds -20 1020 99 0 4.11 1 21:59 24.12.2019
1984 Clouds -20 1020 99 0 4.11 1 21:40 24.12.2019
1985 Clouds -20 1020 99 0 4.11 1 21:19 24.12.2019
1986 Clouds -20 1020 99 0 4.11 1 20:42 24.12.2019
1987 Clouds -20 1019 99 0 4.52 4 20:22 24.12.2019
1988 Clouds -20 1019 99 0 4.25 10 19:49 24.12.2019
1989 Clouds -20 1019 99 0 4.25 10 19:22 24.12.2019
1990 Clouds -20 1019 99 0 4.25 10 18:59 24.12.2019
1991 Clouds -20 1019 99 0 4.25 10 18:40 24.12.2019
1992 Clouds -20 1019 99 0 4.25 10 18:18 24.12.2019
1993 Clouds -20 1019 99 0 4.25 10 18:18 24.12.2019
1994 Clouds -20 1019 99 0 4.25 10 17:43 24.12.2019
1995 Clouds -20 1019 99 0 4.31 3 17:22 24.12.2019
1996 Clouds -20 1019 99 0 4.31 3 16:58 24.12.2019
1997 Clouds -20 1019 99 0 4.31 3 16:39 24.12.2019
1998 Clouds -20 1019 99 0 4.31 3 16:20 24.12.2019
1999 Clouds -20 1019 99 0 4.31 3 15:57 24.12.2019
2000 Clouds -20 1019 99 0 4.31 3 15:37 24.12.2019
2001 Clouds -20 1019 99 0 4.31 3 15:19 24.12.2019
2002 Clouds -20 1019 99 0 4.31 3 14:58 24.12.2019
2003 Clouds -20 1019 99 0 4.31 3 14:39 24.12.2019
2004 Clouds -19 1018 98 0 4.96 2 14:21 24.12.2019
2005 Clouds -19 1018 98 0 4.96 2 14:21 24.12.2019
2006 Clouds -19 1018 98 0 4.96 2 13:56 24.12.2019
2007 Clouds -19 1018 98 0 4.96 2 13:37 24.12.2019
2008 Clouds -19 1018 98 0 4.96 2 13:19 24.12.2019
2009 Clouds -19 1019 98 0 4.63 0 12:56 24.12.2019
2010 Clouds -19 1019 98 0 4.63 0 12:56 24.12.2019
2011 Clouds -19 1019 98 0 4.63 0 12:56 24.12.2019
2012 Clouds -19 1019 98 0 4.63 0 12:37 24.12.2019
2013 Clouds -19 1019 98 0 4.63 0 12:19 24.12.2019
2014 Clouds -19 1019 98 0 4.63 0 12:19 24.12.2019
2015 Clouds -19 1019 98 0 4.63 0 12:19 24.12.2019
2016 Clouds -19 1019 98 0 4.63 0 11:56 24.12.2019
2017 Clouds -19 1019 98 0 4.63 0 11:37 24.12.2019
2018 Clouds -19 1019 98 0 4.63 0 11:37 24.12.2019
2019 Clouds -19 1018 99 0 4.89 359 11:19 24.12.2019
2020 Clouds -19 1018 99 0 4.89 359 10:56 24.12.2019
2021 Clouds -19 1018 99 0 4.89 359 10:56 24.12.2019
2022 Clouds -19 1018 99 0 4.89 359 10:37 24.12.2019
2023 Clouds -19 1018 99 0 4.89 359 10:19 24.12.2019
2024 Clouds -19 1018 99 0 4.89 359 09:55 24.12.2019
2025 Clouds -19 1018 99 0 4.89 359 09:37 24.12.2019
2026 Clouds -19 1018 99 0 4.89 359 09:37 24.12.2019
2027 Clouds -19 1018 99 0 4.89 359 09:19 24.12.2019
2028 Clouds -19 1018 99 0 4.89 359 08:45 24.12.2019
2029 Clouds -20 1018 99 0 4.93 0 08:24 24.12.2019
2030 Clouds -19 1018 99 0 5.27 354 07:46 24.12.2019
2031 Clouds -19 1018 99 0 5.27 354 07:26 24.12.2019
2032 Clouds -19 1018 99 0 5.27 354 06:58 24.12.2019
2033 Clouds -19 1018 99 0 5.27 354 06:38 24.12.2019
2034 Clouds -19 1018 99 0 5.27 354 06:19 24.12.2019
2035 Clouds -19 1018 99 0 5.27 354 05:27 24.12.2019
2036 Clouds -20 1017 100 0 5.95 353 04:59 24.12.2019
2037 Clouds -20 1017 100 0 5.95 353 03:50 24.12.2019
2038 Clouds -20 1017 100 0 5.95 353 03:22 24.12.2019
2039 Clouds -20 1017 100 0 5.95 353 02:23 24.12.2019
2040 Clouds -20 1017 99 0 6.5 345 01:51 24.12.2019
2041 Clouds -21 1017 99 0 6.16 346 01:22 24.12.2019
2042 Clouds -21 1017 99 0 6.16 346 00:45 24.12.2019
2043 Clouds -21 1017 99 0 6.16 346 00:24 24.12.2019
2044 Clouds -21 1017 99 0 6.16 346 23:59 23.12.2019
2045 Clouds -21 1017 99 0 6.16 346 23:40 23.12.2019
2046 Clouds -21 1017 98 0 6.68 347 23:22 23.12.2019
2047 Clouds -21 1017 98 0 6.68 347 22:56 23.12.2019
2048 Clouds -21 1017 98 0 6.68 347 22:37 23.12.2019
2049 Clouds -21 1017 98 0 6.68 347 22:18 23.12.2019
2050 Clouds -21 1017 98 0 6.68 347 21:55 23.12.2019
2051 Clouds -21 1017 98 0 6.68 347 21:36 23.12.2019
2052 Clouds -21 1017 98 0 6.68 347 21:18 23.12.2019
2053 Clouds -21 1017 98 0 6.68 347 20:57 23.12.2019
2054 Clouds -21 1017 98 0 6.68 347 20:39 23.12.2019
2055 Clouds -19 1017 100 0 6.24 356 20:18 23.12.2019
2056 Clouds -19 1017 100 0 6.24 356 19:55 23.12.2019
2057 Clouds -19 1017 100 0 6.24 356 19:37 23.12.2019
2058 Clouds -19 1017 100 0 6.24 356 19:19 23.12.2019
2059 Clouds -19 1017 100 0 6.24 356 18:57 23.12.2019
2060 Clouds -19 1017 100 0 6.24 356 18:38 23.12.2019
2061 Clouds -19 1017 100 0 6.24 356 18:20 23.12.2019
2062 Clouds -19 1017 100 0 6.24 356 17:55 23.12.2019
2063 Clouds -19 1017 100 0 6.24 356 17:55 23.12.2019
2064 Clouds -19 1017 100 0 6.24 356 17:37 23.12.2019
2065 Clouds -20 1016 100 0 6.33 2 17:19 23.12.2019
2066 Clouds -20 1016 100 0 6.33 2 16:42 23.12.2019
2067 Clouds -20 1016 100 0 6.33 2 16:42 23.12.2019
2068 Clouds -20 1016 100 0 6.33 2 16:19 23.12.2019
2069 Clouds -20 1016 100 0 6.33 2 15:59 23.12.2019
2070 Clouds -20 1016 100 0 6.33 2 15:39 23.12.2019
2071 Clouds -20 1016 100 0 6.33 2 15:20 23.12.2019
2072 Clouds -20 1016 100 0 6.33 2 14:59 23.12.2019
2073 Clouds -20 1016 100 0 6.33 2 14:41 23.12.2019
2074 Clouds -20 1016 100 0 6.33 2 14:23 23.12.2019
2075 Clouds -19 1015 100 0 6.91 3 13:59 23.12.2019
2076 Clouds -19 1015 100 0 6.91 3 13:40 23.12.2019
2077 Clouds -19 1015 100 0 6.91 3 13:40 23.12.2019
2078 Clouds -18 1015 100 0 6.2 5 13:22 23.12.2019
2079 Clouds -18 1015 100 0 6.2 5 13:22 23.12.2019
2080 Clouds -18 1015 100 0 6.2 5 13:22 23.12.2019
2081 Clouds -18 1015 100 0 6.2 5 12:58 23.12.2019
2082 Clouds -18 1015 100 0 6.2 5 12:39 23.12.2019
2083 Clouds -18 1015 100 0 6.2 5 12:20 23.12.2019
2084 Clouds -18 1015 100 0 6.2 5 11:44 23.12.2019
2085 Clouds -18 1015 100 0 6.2 5 11:26 23.12.2019
2086 Clouds -17 1014 100 0 6.37 9 10:59 23.12.2019
2087 Clouds -17 1014 100 0 6.37 9 10:40 23.12.2019
2088 Clouds -17 1014 100 0 6.37 9 10:21 23.12.2019
2089 Clouds -17 1014 100 0 6.37 9 09:59 23.12.2019
2090 Clouds -17 1014 100 0 6.37 9 09:40 23.12.2019
2091 Clouds -17 1014 100 0 6.37 9 09:21 23.12.2019
2092 Clouds -17 1014 100 0 6.37 9 08:56 23.12.2019
2093 Clouds -17 1014 100 0 6.37 9 08:38 23.12.2019
2094 Clouds -15 1012 96 0 7.32 18 08:20 23.12.2019
2095 Clouds -15 1012 96 0 7.32 18 07:43 23.12.2019
2096 Clouds -15 1012 96 0 7.32 18 07:20 23.12.2019
2097 Clouds -15 1012 96 0 7.32 18 06:53 23.12.2019
2098 Clouds -15 1012 96 0 7.32 18 06:26 23.12.2019
2099 Clouds -15 1012 96 0 7.32 18 05:53 23.12.2019
2100 Clouds -15 1012 96 0 7.32 18 05:28 23.12.2019
2101 Snow -13 1010 92 0 7.64 24 04:31 23.12.2019
2102 Snow -13 1010 92 0 7.64 24 03:18 23.12.2019
2103 Snow -13 1010 92 0 7.64 24 02:40 23.12.2019
2104 Clouds -12 1010 91 0 7.19 24 02:18 23.12.2019
2105 Clouds -12 1010 91 0 7.19 24 01:41 23.12.2019
2106 Clouds -12 1010 91 0 7.19 24 01:20 23.12.2019
2107 Clouds -12 1009 91 0 6.83 27 00:43 23.12.2019
2108 Clouds -12 1009 91 0 6.83 27 00:21 23.12.2019
2109 Clouds -12 1009 91 0 6.83 27 23:39 22.12.2019
2110 Snow -11 1008 94 0 6.3 39 23:21 22.12.2019
2111 Snow -11 1008 94 0 6.3 39 22:58 22.12.2019
2112 Snow -11 1008 94 0 6.3 39 22:39 22.12.2019
2113 Snow -11 1008 94 0 6.3 39 22:19 22.12.2019
2114 Snow -11 1008 94 0 6.3 39 21:57 22.12.2019
2115 Snow -11 1008 94 0 6.3 39 21:39 22.12.2019
2116 Snow -11 1008 94 0 6.3 39 21:21 22.12.2019
2117 Snow -11 1008 94 0 6.3 39 20:57 22.12.2019
2118 Snow -11 1008 94 0 6.3 39 20:38 22.12.2019
2119 Snow -8 1008 88 0 2.79 82 20:18 22.12.2019
2120 Snow -8 1008 88 0 2.79 82 19:55 22.12.2019
2121 Snow -8 1008 88 0 2.79 82 19:37 22.12.2019
2122 Snow -8 1008 88 0 2.79 82 19:18 22.12.2019
2123 Snow -8 1008 88 0 2.79 82 18:40 22.12.2019
2124 Snow -8 1008 88 0 2.79 82 18:22 22.12.2019
2125 Snow -8 1008 88 0 2.79 82 17:55 22.12.2019
2126 Snow -8 1008 88 0 2.79 82 17:37 22.12.2019
2127 Clouds -10 1009 91 0 2 160 17:18 22.12.2019
2128 Clouds -10 1009 91 0 2 160 16:56 22.12.2019
2129 Clouds -10 1009 91 0 2 160 16:37 22.12.2019
2130 Clouds -10 1009 91 0 2 160 16:19 22.12.2019
2131 Clouds -10 1009 91 0 2 160 15:56 22.12.2019
2132 Clouds -10 1009 91 0 2 160 15:36 22.12.2019
2133 Clouds -10 1009 91 0 2 160 15:36 22.12.2019
2134 Clouds -10 1009 91 0 2 160 15:18 22.12.2019
2135 Clouds -10 1009 91 0 2 160 14:54 22.12.2019
2136 Clouds -10 1009 91 0 2 160 14:36 22.12.2019
2137 Snow -10 1011 91 0 2.58 203 14:18 22.12.2019
2138 Snow -10 1011 91 0 2.58 203 13:55 22.12.2019
2139 Snow -10 1011 91 0 2.58 203 13:36 22.12.2019
2140 Snow -10 1010 91 0 2.6 201 13:18 22.12.2019
2141 Snow -10 1010 91 0 2.6 201 12:54 22.12.2019
2142 Snow -10 1010 91 0 2.6 201 12:54 22.12.2019
2143 Snow -10 1010 91 0 2.6 201 12:36 22.12.2019
2144 Snow -10 1010 91 0 2.6 201 12:18 22.12.2019
2145 Snow -10 1010 91 0 2.6 201 11:39 22.12.2019
2146 Clouds -10 1011 91 0 3.21 197 11:20 22.12.2019
2147 Clouds -10 1011 91 0 3.21 197 10:58 22.12.2019
2148 Clouds -10 1011 91 0 3.21 197 10:40 22.12.2019
2149 Clouds -10 1011 91 0 3.21 197 10:21 22.12.2019
2150 Clouds -10 1011 91 0 3.21 197 09:58 22.12.2019
2151 Clouds -10 1011 91 0 3.21 197 09:40 22.12.2019
2152 Clouds -10 1011 91 0 3.21 197 09:21 22.12.2019
2153 Clouds -10 1011 91 0 3.21 197 08:55 22.12.2019
2154 Clouds -10 1011 91 0 3.21 197 08:37 22.12.2019
2155 Clouds -10 1011 92 0 3.91 201 08:18 22.12.2019
2156 Clouds -10 1011 92 0 3.91 201 07:36 22.12.2019
2157 Clouds -10 1011 92 0 3.91 201 07:18 22.12.2019
2158 Clouds -10 1011 92 0 3.91 201 06:40 22.12.2019
2159 Clouds -10 1011 92 0 3.91 201 05:49 22.12.2019
2160 Clouds -10 1011 93 0 3.44 214 05:21 22.12.2019
2161 Clouds -10 1011 93 0 3.44 214 04:28 22.12.2019
2162 Clouds -10 1011 93 0 3.44 214 03:45 22.12.2019
2163 Clouds -10 1011 93 0 3.44 214 02:38 22.12.2019
2164 Clouds -9 1012 91 0 3.73 220 01:37 22.12.2019
2165 Snow -9 1012 91 0 3.73 217 01:18 22.12.2019
2166 Snow -9 1012 91 0 3.73 217 00:45 22.12.2019
2167 Snow -9 1012 91 0 3.73 217 00:21 22.12.2019
2168 Snow -9 1012 91 0 3.73 217 23:42 21.12.2019
2169 Snow -9 1012 91 0 3.73 217 23:24 21.12.2019
2170 Snow -9 1011 92 0 4.13 210 22:59 21.12.2019
2171 Snow -9 1011 92 0 4.13 210 22:40 21.12.2019
2172 Snow -9 1011 92 0 4.13 210 22:19 21.12.2019
2173 Snow -9 1011 92 0 4.13 210 21:56 21.12.2019
2174 Snow -9 1011 92 0 4.13 210 21:37 21.12.2019
2175 Snow -9 1011 92 0 4.13 210 21:19 21.12.2019
2176 Snow -9 1011 92 0 4.13 210 20:58 21.12.2019
2177 Snow -9 1011 92 0 4.13 210 20:39 21.12.2019
2178 Snow -10 1012 90 0 3.07 218 20:21 21.12.2019
2179 Snow -10 1012 90 0 3.07 218 19:57 21.12.2019
2180 Snow -10 1012 90 0 3.07 218 19:39 21.12.2019
2181 Snow -10 1012 90 0 3.07 218 19:19 21.12.2019
2182 Snow -10 1012 90 0 3.07 218 18:44 21.12.2019
2183 Snow -10 1012 90 0 3.07 218 18:24 21.12.2019
2184 Snow -10 1012 90 0 3.07 218 17:57 21.12.2019
2185 Snow -10 1012 90 0 3.07 218 17:39 21.12.2019
2186 Snow -10 1012 92 0 3.7 215 17:21 21.12.2019
2187 Snow -10 1012 92 0 3.7 215 16:58 21.12.2019
2188 Snow -10 1012 92 0 3.7 215 16:39 21.12.2019
2189 Snow -10 1012 92 0 3.7 215 16:18 21.12.2019
2190 Snow -10 1012 92 0 3.7 215 16:18 21.12.2019
2191 Snow -10 1012 92 0 3.7 215 15:57 21.12.2019
2192 Snow -10 1012 92 0 3.7 215 15:38 21.12.2019
2193 Snow -10 1012 92 0 3.7 215 15:19 21.12.2019
2194 Snow -10 1012 92 0 3.7 215 14:55 21.12.2019
2195 Snow -10 1012 92 0 3.7 215 14:37 21.12.2019
2196 Snow -10 1012 93 0 3.75 218 14:18 21.12.2019
2197 Snow -10 1012 93 0 3.75 218 13:54 21.12.2019
2198 Snow -10 1012 93 0 3.75 218 13:36 21.12.2019
2199 Snow -10 1012 93 0 3.74 217 13:18 21.12.2019
2200 Snow -10 1012 93 0 3.74 217 12:54 21.12.2019
2201 Snow -10 1012 93 0 3.74 217 12:36 21.12.2019
2202 Snow -10 1012 93 0 3.74 217 12:18 21.12.2019
2203 Snow -10 1012 93 0 3.74 217 11:41 21.12.2019
2204 Snow -10 1012 93 0 3.74 217 11:23 21.12.2019
2205 Snow -10 1011 93 0 3.98 218 10:42 21.12.2019
2206 Snow -10 1011 93 0 3.98 218 10:23 21.12.2019
2207 Snow -10 1011 93 0 3.98 218 09:59 21.12.2019
2208 Snow -10 1011 93 0 3.98 218 09:41 21.12.2019
2209 Snow -10 1011 93 0 3.98 218 09:20 21.12.2019
2210 Snow -10 1011 93 0 3.98 218 08:55 21.12.2019
2211 Snow -10 1011 93 0 3.98 218 08:36 21.12.2019
2212 Snow -9 1010 92 0 3.48 225 08:18 21.12.2019
2213 Snow -9 1010 92 0 3.48 225 07:41 21.12.2019
2214 Snow -9 1010 92 0 3.48 225 07:21 21.12.2019
2215 Snow -9 1010 92 0 3.48 225 06:42 21.12.2019
2216 Snow -9 1010 92 0 3.48 225 06:24 21.12.2019
2217 Snow -9 1010 92 0 3.48 225 05:45 21.12.2019
2218 Snow -8 1010 92 0 3.37 231 04:57 21.12.2019
2219 Snow -8 1010 92 0 3.37 231 03:56 21.12.2019
2220 Snow -8 1010 92 0 3.37 231 02:40 21.12.2019
2221 Snow -8 1010 92 0 2.25 219 01:53 21.12.2019
2222 Snow -8 1010 92 0 1.68 197 01:27 21.12.2019
2223 Snow -8 1010 92 0 1.68 197 00:50 21.12.2019
2224 Snow -8 1010 92 0 1.68 197 00:28 21.12.2019
2225 Snow -8 1010 92 0 1.68 197 23:55 20.12.2019
2226 Snow -8 1010 92 0 1.68 197 23:36 20.12.2019
2227 Clouds -8 1009 90 0 1.39 189 23:18 20.12.2019
2228 Clouds -8 1009 90 0 1.39 189 22:40 20.12.2019
2229 Clouds -8 1009 90 0 1.39 189 22:21 20.12.2019
2230 Clouds -8 1009 90 0 1.39 189 21:57 20.12.2019
2231 Clouds -8 1009 90 0 1.39 189 21:39 20.12.2019
2232 Clouds -8 1009 90 0 1.39 189 21:18 20.12.2019
2233 Clouds -8 1009 90 0 1.39 189 20:39 20.12.2019
2234 Clouds -8 1009 87 0 2.11 94 20:19 20.12.2019
2235 Clouds -8 1009 87 0 2.11 94 19:57 20.12.2019
2236 Clouds -8 1009 87 0 2.11 94 19:57 20.12.2019
2237 Clouds -8 1009 87 0 2.11 94 19:39 20.12.2019
2238 Clouds -8 1009 87 0 2.11 94 19:19 20.12.2019
2239 Clouds -8 1009 87 0 2.11 94 18:42 20.12.2019
2240 Clouds -8 1009 87 0 2.11 94 18:24 20.12.2019
2241 Clouds -8 1009 87 0 2.11 94 17:58 20.12.2019
2242 Clouds -8 1009 87 0 2.11 94 17:40 20.12.2019
2243 Clouds -8 1009 88 0 2.37 101 17:21 20.12.2019
2244 Clouds -8 1009 88 0 2.37 101 16:59 20.12.2019
2245 Clouds -8 1009 88 0 2.37 101 16:38 20.12.2019
2246 Clouds -8 1009 88 0 2.37 101 16:20 20.12.2019
2247 Clouds -8 1009 88 0 2.37 101 16:20 20.12.2019
2248 Clouds -8 1009 88 0 2.37 101 15:56 20.12.2019
2249 Clouds -8 1009 88 0 2.37 101 15:38 20.12.2019
2250 Clouds -8 1009 88 0 2.37 101 15:38 20.12.2019
2251 Clouds -8 1009 88 0 2.37 101 15:19 20.12.2019
2252 Clouds -8 1009 88 0 2.37 101 14:43 20.12.2019
2253 Clouds -8 1009 88 0 2.37 101 14:24 20.12.2019
2254 Clouds -7 1009 89 0 3.05 96 13:59 20.12.2019
2255 Clouds -7 1009 89 0 3.05 96 13:59 20.12.2019
2256 Clouds -7 1009 89 0 3.05 96 13:40 20.12.2019
2257 Clouds -7 1009 89 0 3.05 96 13:19 20.12.2019
2258 Clouds -7 1009 90 0 2.58 110 12:57 20.12.2019
2259 Clouds -7 1009 90 0 2.58 110 12:37 20.12.2019
2260 Clouds -7 1009 90 0 2.58 110 12:18 20.12.2019
2261 Clouds -7 1009 90 0 2.58 110 11:57 20.12.2019
2262 Clouds -7 1009 90 0 2.58 110 11:39 20.12.2019
2263 Clouds -7 1008 87 0 1.25 117 11:18 20.12.2019
2264 Clouds -7 1008 87 0 1.25 117 10:56 20.12.2019
2265 Clouds -7 1008 87 0 1.25 117 10:38 20.12.2019
2266 Clouds -7 1008 87 0 1.25 117 10:20 20.12.2019
2267 Clouds -7 1008 87 0 1.25 117 09:43 20.12.2019
2268 Clouds -7 1008 87 0 1.25 117 09:21 20.12.2019
2269 Clouds -7 1008 87 0 1.25 117 08:58 20.12.2019
2270 Clouds -7 1008 87 0 1.25 117 08:40 20.12.2019
2271 Clouds -8 1007 84 0 1.87 131 08:21 20.12.2019
2272 Clouds -8 1007 84 0 1.87 131 07:57 20.12.2019
2273 Clouds -8 1007 84 0 1.87 131 07:57 20.12.2019
2274 Clouds -8 1007 84 0 1.87 131 07:38 20.12.2019
2275 Clouds -8 1007 84 0 1.87 131 07:18 20.12.2019
2276 Clouds -8 1007 84 0 1.87 131 06:46 20.12.2019
2277 Clouds -8 1007 84 0 1.87 131 06:28 20.12.2019
2278 Clouds -8 1007 84 0 1.87 131 05:48 20.12.2019
2279 Clouds -8 1006 83 0 2.08 139 05:18 20.12.2019
2280 Clouds -8 1006 83 0 2.08 139 03:50 20.12.2019
2281 Clouds -8 1006 83 0 2.08 139 03:20 20.12.2019
2282 Clouds -8 1006 85 0 2.23 153 02:20 20.12.2019
2283 Clouds -8 1006 85 0 2.23 153 01:36 20.12.2019
2284 Clouds -8 1007 85 0 2.05 143 00:57 20.12.2019
2285 Clouds -8 1007 85 0 2.05 143 00:35 20.12.2019
2286 Clouds -8 1007 85 0 2.05 143 23:58 19.12.2019
2287 Clouds -8 1007 85 0 2.05 143 23:40 19.12.2019
2288 Clouds -8 1006 89 0 3.16 165 23:19 19.12.2019
2289 Clouds -8 1006 89 0 3.16 165 22:40 19.12.2019
2290 Clouds -8 1006 89 0 3.16 165 22:22 19.12.2019
2291 Clouds -8 1006 89 0 3.16 165 21:57 19.12.2019
2292 Clouds -8 1006 89 0 3.16 165 21:39 19.12.2019
2293 Clouds -8 1006 89 0 3.16 165 21:19 19.12.2019
2294 Clouds -8 1006 89 0 3.16 165 20:57 19.12.2019
2295 Clouds -8 1006 89 0 3.16 165 20:37 19.12.2019
2296 Snow -9 1006 91 0 4.7 162 20:19 19.12.2019
2297 Snow -9 1006 91 0 4.7 162 19:58 19.12.2019
2298 Snow -9 1006 91 0 4.7 162 19:58 19.12.2019
2299 Snow -9 1006 91 0 4.7 162 19:39 19.12.2019
2300 Snow -9 1006 91 0 4.7 162 19:19 19.12.2019
2301 Snow -9 1006 91 0 4.7 162 19:19 19.12.2019
2302 Snow -9 1006 91 0 4.7 162 19:19 19.12.2019
2303 Snow -9 1006 91 0 4.7 162 19:19 19.12.2019
2304 Snow -9 1006 91 0 4.7 162 18:57 19.12.2019
2305 Snow -9 1006 91 0 4.7 162 18:39 19.12.2019
2306 Snow -9 1006 91 0 4.7 162 18:19 19.12.2019
2307 Snow -9 1006 91 0 4.7 162 17:55 19.12.2019
2308 Snow -9 1006 91 0 4.7 162 17:37 19.12.2019
2309 Clouds -10 1005 91 0 5.07 156 17:18 19.12.2019
2310 Clouds -10 1005 91 0 5.07 156 16:55 19.12.2019
2311 Clouds -10 1005 91 0 5.07 156 16:37 19.12.2019
2312 Clouds -10 1005 91 0 5.07 156 16:19 19.12.2019
2313 Clouds -10 1005 91 0 5.07 156 15:55 19.12.2019
2314 Clouds -10 1005 91 0 5.07 156 15:37 19.12.2019
2315 Clouds -10 1005 91 0 5.07 156 15:18 19.12.2019
2316 Clouds -10 1005 91 0 5.07 156 14:42 19.12.2019
2317 Clouds -10 1005 88 0 4.85 166 14:20 19.12.2019
2318 Clouds -10 1005 88 0 4.85 166 13:58 19.12.2019
2319 Clouds -10 1005 88 0 4.85 166 13:58 19.12.2019
2320 Clouds -10 1005 88 0 4.85 166 13:38 19.12.2019
2321 Clouds -10 1005 89 0 4.65 165 13:19 19.12.2019
2322 Clouds -10 1005 89 0 4.65 165 12:57 19.12.2019
2323 Clouds -10 1005 89 0 4.65 165 12:39 19.12.2019
2324 Clouds -10 1005 89 0 4.65 165 12:39 19.12.2019
2325 Clouds -10 1005 89 0 4.65 165 12:19 19.12.2019
2326 Clouds -10 1005 89 0 4.65 165 12:19 19.12.2019
2327 Clouds -10 1005 89 0 4.65 165 12:19 19.12.2019
2328 Clouds -10 1005 89 0 4.65 165 11:58 19.12.2019
2329 Clouds -10 1005 89 0 4.65 165 11:40 19.12.2019
2330 Clouds -9 1005 88 0 4.66 173 11:18 19.12.2019
2331 Clouds -9 1005 88 0 4.66 173 11:18 19.12.2019
2332 Clouds -9 1005 88 0 4.66 173 10:56 19.12.2019
2333 Clouds -9 1005 88 0 4.66 173 10:37 19.12.2019
2334 Clouds -9 1005 88 0 4.66 173 10:19 19.12.2019
2335 Clouds -9 1005 88 0 4.66 173 09:40 19.12.2019
2336 Clouds -9 1005 88 0 4.66 173 09:21 19.12.2019
2337 Clouds -9 1005 88 0 4.66 173 08:58 19.12.2019
2338 Clouds -9 1005 88 0 4.66 173 08:40 19.12.2019
2339 Snow -8 1005 91 0 4.9 199 08:19 19.12.2019
2340 Snow -8 1005 91 0 4.9 199 07:57 19.12.2019
2341 Snow -8 1005 91 0 4.9 199 07:38 19.12.2019
2342 Snow -8 1005 91 0 4.9 199 07:19 19.12.2019
2343 Snow -8 1005 91 0 4.9 199 06:50 19.12.2019
2344 Snow -8 1005 91 0 4.9 199 06:50 19.12.2019
2345 Snow -8 1005 91 0 4.9 199 06:29 19.12.2019
2346 Snow -8 1005 91 0 4.9 199 05:55 19.12.2019
2347 Snow -8 1005 91 0 4.9 199 05:36 19.12.2019
2348 Snow -7 1005 92 0 4.41 195 04:52 19.12.2019
2349 Snow -7 1005 92 0 4.41 195 03:21 19.12.2019
2350 Snow -6 1007 93 0 3.49 192 02:22 19.12.2019
2351 Snow -6 1007 93 0 3.49 192 01:22 19.12.2019
2352 Snow -6 1007 93 0 3.34 193 00:43 19.12.2019
2353 Snow -6 1007 93 0 3.34 193 00:24 19.12.2019
2354 Snow -6 1007 93 0 3.34 193 23:57 18.12.2019
2355 Snow -6 1007 93 0 3.34 193 23:38 18.12.2019
2356 Snow -6 1007 93 0 2.02 170 23:18 18.12.2019
2357 Snow -6 1007 93 0 2.02 170 22:55 18.12.2019
2358 Snow -6 1007 93 0 2.02 170 22:36 18.12.2019
2359 Snow -6 1007 93 0 2.02 170 22:18 18.12.2019
2360 Snow -6 1007 93 0 2.02 170 21:55 18.12.2019
2361 Snow -6 1007 93 0 2.02 170 21:37 18.12.2019
2362 Snow -6 1007 93 0 2.02 170 21:18 18.12.2019
2363 Snow -6 1007 93 0 2.02 170 20:54 18.12.2019
2364 Snow -6 1007 93 0 2.02 170 20:36 18.12.2019
2365 Snow -6 1008 88 0 3.31 189 20:18 18.12.2019
2366 Snow -6 1008 88 0 3.31 189 19:54 18.12.2019
2367 Snow -6 1008 88 0 3.31 189 19:36 18.12.2019
2368 Snow -6 1008 88 0 3.31 189 19:18 18.12.2019
2369 Snow -6 1008 88 0 3.31 189 19:18 18.12.2019
2370 Snow -6 1008 88 0 3.31 189 18:43 18.12.2019
2371 Snow -6 1008 88 0 3.31 189 18:25 18.12.2019
2372 Snow -6 1008 88 0 3.31 189 18:25 18.12.2019
2373 Snow -6 1008 88 0 3.31 189 17:57 18.12.2019
2374 Snow -6 1008 88 0 3.31 189 17:38 18.12.2019
2375 Snow -5 1008 94 0 3.61 168 17:19 18.12.2019
2376 Snow -5 1008 94 0 3.61 168 16:54 18.12.2019
2377 Snow -5 1008 94 0 3.61 168 16:36 18.12.2019
2378 Snow -5 1008 94 0 3.61 168 16:18 18.12.2019
2379 Snow -5 1008 94 0 3.61 168 15:55 18.12.2019
2380 Snow -5 1008 94 0 3.61 168 15:36 18.12.2019
2381 Snow -5 1008 94 0 3.61 168 15:18 18.12.2019
2382 Snow -5 1008 94 0 3.61 168 14:40 18.12.2019
2383 Snow -6 1010 92 0 2.89 153 14:20 18.12.2019
2384 Snow -6 1010 92 0 2.89 153 13:57 18.12.2019
2385 Snow -6 1010 92 0 2.89 153 13:37 18.12.2019
2386 Clouds -6 1010 91 0 2.92 163 13:19 18.12.2019
2387 Clouds -6 1010 91 0 2.92 163 12:57 18.12.2019
2388 Clouds -6 1010 91 0 2.92 163 12:37 18.12.2019
2389 Clouds -6 1010 91 0 2.92 163 12:19 18.12.2019
2390 Clouds -6 1010 91 0 2.92 163 11:55 18.12.2019
2391 Clouds -6 1010 91 0 2.92 163 11:37 18.12.2019
2392 Clouds -6 1010 91 0 2.92 163 11:37 18.12.2019
2393 Clouds -7 1010 89 0 3.16 193 11:18 18.12.2019
2394 Clouds -7 1010 89 0 3.16 193 10:55 18.12.2019
2395 Clouds -7 1010 89 0 3.16 193 10:37 18.12.2019
2396 Clouds -7 1010 89 0 3.16 193 10:18 18.12.2019
2397 Clouds -7 1010 89 0 3.16 193 09:43 18.12.2019
2398 Clouds -7 1010 89 0 3.16 193 09:18 18.12.2019
2399 Clouds -7 1010 89 0 3.16 193 09:18 18.12.2019
2400 Clouds -7 1010 89 0 3.16 193 08:40 18.12.2019
2401 Clouds -8 1010 88 0 3.7 200 08:21 18.12.2019
2402 Clouds -8 1010 88 0 3.7 200 07:43 18.12.2019
2403 Clouds -8 1010 88 0 3.7 200 07:22 18.12.2019
2404 Clouds -8 1010 88 0 3.7 200 06:55 18.12.2019
2405 Clouds -8 1010 88 0 3.7 200 06:27 18.12.2019
2406 Clouds -8 1010 88 0 3.7 200 05:44 18.12.2019
2407 Clouds -7 1009 87 0 4.05 196 04:52 18.12.2019
2408 Clouds -7 1009 87 0 4.05 196 02:55 18.12.2019
2409 Clouds -7 1009 87 0 4.05 196 02:36 18.12.2019
2410 Snow -6 1010 91 0 4.31 198 02:18 18.12.2019
2411 Snow -6 1010 91 0 4.31 198 01:40 18.12.2019
2412 Snow -6 1010 91 0 4.31 198 01:21 18.12.2019
2413 Snow -6 1010 93 0 4.16 203 00:40 18.12.2019
2414 Snow -6 1010 93 0 4.16 203 00:22 18.12.2019
2415 Snow -6 1010 93 0 4.16 203 23:56 17.12.2019
2416 Snow -6 1010 93 0 4.16 203 23:37 17.12.2019
2417 Snow -5 1010 93 0 4.22 193 23:18 17.12.2019
2418 Snow -5 1010 93 0 4.22 193 23:18 17.12.2019
2419 Snow -5 1010 93 0 4.22 193 22:55 17.12.2019
2420 Snow -5 1010 93 0 4.22 193 22:37 17.12.2019
2421 Snow -5 1010 93 0 4.22 193 22:18 17.12.2019
2422 Snow -5 1010 93 0 4.22 193 21:55 17.12.2019
2423 Snow -5 1010 93 0 4.22 193 21:55 17.12.2019
2424 Snow -5 1010 93 0 4.22 193 21:37 17.12.2019
2425 Snow -5 1010 93 0 4.22 193 21:18 17.12.2019
2426 Snow -5 1010 93 0 4.22 193 20:55 17.12.2019
2427 Snow -5 1010 93 0 4.22 193 20:37 17.12.2019
2428 Snow -5 1011 93 0 3.99 181 20:18 17.12.2019
2429 Snow -5 1011 93 0 4.3 185 19:41 17.12.2019
2430 Snow -5 1011 93 0 4.3 185 19:20 17.12.2019
2431 Snow -5 1011 93 0 4.3 185 18:58 17.12.2019
2432 Snow -5 1011 93 0 4.3 185 18:40 17.12.2019
2433 Snow -5 1011 93 0 4.3 185 18:21 17.12.2019
2434 Snow -5 1011 93 0 4.3 185 17:58 17.12.2019
2435 Snow -5 1011 93 0 4.3 185 17:40 17.12.2019
2436 Snow -5 1011 93 0 3.85 167 17:19 17.12.2019
2437 Snow -5 1011 93 0 3.85 167 16:56 17.12.2019
2438 Snow -5 1011 93 0 3.85 167 16:37 17.12.2019
2439 Snow -5 1011 93 0 3.85 167 16:19 17.12.2019
2440 Snow -5 1011 93 0 3.85 167 15:55 17.12.2019
2441 Snow -5 1011 93 0 3.85 167 15:37 17.12.2019
2442 Snow -5 1011 93 0 3.85 167 15:18 17.12.2019
2443 Snow -5 1011 93 0 3.85 167 14:55 17.12.2019
2444 Snow -5 1011 93 0 3.85 167 14:36 17.12.2019
2445 Snow -5 1012 93 0 4 167 14:18 17.12.2019
2446 Snow -5 1012 93 0 4 167 13:55 17.12.2019
2447 Snow -5 1012 93 0 4 167 13:37 17.12.2019
2448 Snow -5 1012 92 0 4.14 175 13:18 17.12.2019
2449 Snow -5 1012 92 0 4.14 175 12:41 17.12.2019
2450 Snow -5 1012 92 0 4.14 175 12:19 17.12.2019
2451 Snow -5 1012 92 0 4.14 175 12:19 17.12.2019
2452 Snow -5 1012 92 0 4.14 175 11:59 17.12.2019
2453 Snow -5 1012 92 0 4.14 175 11:37 17.12.2019
2454 Snow -5 1012 94 0 4.21 171 11:19 17.12.2019
2455 Snow -5 1012 94 0 4.21 171 10:59 17.12.2019
2456 Snow -5 1012 94 0 4.21 171 10:40 17.12.2019
2457 Snow -5 1012 94 0 4.21 171 10:21 17.12.2019
2458 Snow -5 1012 94 0 4.21 171 09:59 17.12.2019
2459 Snow -5 1012 94 0 4.21 171 09:41 17.12.2019
2460 Snow -5 1012 94 0 4.21 171 09:20 17.12.2019
2461 Snow -5 1012 94 0 4.21 171 08:56 17.12.2019
2462 Snow -5 1012 94 0 4.21 171 08:38 17.12.2019
2463 Clouds -5 1013 90 0 4.39 189 08:19 17.12.2019
2464 Clouds -6 1013 90 0 4.45 189 07:45 17.12.2019
2465 Clouds -6 1013 90 0 4.45 189 07:26 17.12.2019
2466 Clouds -6 1013 90 0 4.45 189 06:56 17.12.2019
2467 Clouds -6 1013 90 0 4.45 189 06:35 17.12.2019
2468 Clouds -6 1013 90 0 4.45 189 05:53 17.12.2019
2469 Clouds -6 1013 90 0 4.45 189 05:34 17.12.2019
2470 Snow -6 1013 91 0 3.62 171 04:30 17.12.2019
2471 Snow -6 1013 91 0 3.62 171 02:34 17.12.2019
2472 Clouds -8 1014 91 0 3.46 173 01:54 17.12.2019
2473 Clouds -8 1014 91 0 3.14 170 00:58 17.12.2019
2474 Clouds -8 1014 91 0 3.14 170 00:37 17.12.2019
2475 Clouds -8 1014 91 0 3.14 170 00:18 17.12.2019
2476 Clouds -8 1014 91 0 3.14 170 23:41 16.12.2019
2477 Clouds -9 1014 91 0 3.86 181 23:19 16.12.2019
2478 Clouds -9 1014 91 0 3.86 181 23:19 16.12.2019
2479 Clouds -9 1014 91 0 3.86 181 22:56 16.12.2019
2480 Clouds -9 1014 91 0 3.86 181 22:37 16.12.2019
2481 Clouds -9 1014 91 0 3.86 181 22:19 16.12.2019
2482 Clouds -9 1014 91 0 3.86 181 21:55 16.12.2019
2483 Clouds -9 1014 91 0 3.86 181 21:37 16.12.2019
2484 Clouds -9 1014 91 0 3.86 181 21:37 16.12.2019
2485 Clouds -9 1014 91 0 3.86 181 21:37 16.12.2019
2486 Clouds -9 1014 91 0 3.86 181 21:18 16.12.2019
2487 Clouds -9 1014 91 0 3.86 181 20:56 16.12.2019
2488 Clouds -9 1014 91 0 3.86 181 20:56 16.12.2019
2489 Clouds -9 1014 91 0 3.86 181 20:37 16.12.2019
2490 Clouds -9 1015 90 0 3.95 196 20:19 16.12.2019
2491 Clouds -9 1015 90 0 3.68 202 19:55 16.12.2019
2492 Clouds -9 1015 90 0 3.68 202 19:36 16.12.2019
2493 Clouds -9 1015 90 0 3.68 202 19:18 16.12.2019
2494 Clouds -9 1015 90 0 3.68 202 18:55 16.12.2019
2495 Clouds -9 1015 90 0 3.68 202 18:37 16.12.2019
2496 Clouds -9 1015 90 0 3.68 202 18:37 16.12.2019
2497 Clouds -9 1015 90 0 3.68 202 18:19 16.12.2019
2498 Clouds -9 1015 90 0 3.68 202 17:57 16.12.2019
2499 Clouds -9 1015 90 0 3.68 202 17:37 16.12.2019
2500 Clouds -9 1016 92 0 5.04 216 17:19 16.12.2019
2501 Clouds -9 1016 92 0 5.04 216 16:55 16.12.2019
2502 Clouds -9 1016 92 0 5.04 216 16:37 16.12.2019
2503 Clouds -9 1016 92 0 5.04 216 16:18 16.12.2019
2504 Clouds -9 1016 92 0 5.04 216 15:55 16.12.2019
2505 Clouds -9 1016 92 0 5.04 216 15:37 16.12.2019
2506 Clouds -9 1016 92 0 5.04 216 15:19 16.12.2019
2507 Clouds -9 1016 92 0 5.04 216 14:54 16.12.2019
2508 Clouds -9 1016 92 0 5.04 216 14:36 16.12.2019
2509 Clouds -8 1017 94 0 5.78 217 14:18 16.12.2019
2510 Clouds -8 1017 94 0 5.78 217 14:18 16.12.2019
2511 Clouds -8 1017 94 0 5.78 217 13:55 16.12.2019
2512 Clouds -8 1017 94 0 5.78 217 13:36 16.12.2019
2513 Clouds -8 1017 94 0 5.78 217 13:18 16.12.2019
2514 Clouds -8 1017 94 0 5.68 216 13:18 16.12.2019
2515 Clouds -8 1017 94 0 5.68 216 12:54 16.12.2019
2516 Clouds -8 1017 93 0 5.63 216 12:36 16.12.2019
2517 Clouds -8 1017 93 0 5.63 216 12:18 16.12.2019
2518 Clouds -8 1017 93 0 5.63 216 11:55 16.12.2019
2519 Clouds -8 1017 93 0 5.63 216 11:37 16.12.2019
2520 Clouds -6 1017 92 0 5.83 221 11:19 16.12.2019
2521 Clouds -6 1017 92 0 5.83 221 10:40 16.12.2019
2522 Clouds -6 1017 92 0 5.83 221 10:21 16.12.2019
2523 Clouds -6 1017 92 0 5.83 221 09:56 16.12.2019
2524 Clouds -7 1017 92 0 5.97 220 09:38 16.12.2019
2525 Clouds -7 1017 92 0 5.97 220 09:20 16.12.2019
2526 Clouds -6 1017 92 0 5.83 221 08:40 16.12.2019
2527 Snow -3 1017 93 0 6.44 231 08:19 16.12.2019
2528 Snow -5 1017 93 0 6.73 226 07:52 16.12.2019
2529 Snow -5 1017 93 0 6.73 226 07:31 16.12.2019
2530 Snow -5 1017 93 0 6.73 226 06:52 16.12.2019
2531 Snow -5 1017 93 0 6.73 226 06:27 16.12.2019
2532 Snow -5 1017 93 0 6.73 226 05:59 16.12.2019
2533 Snow -5 1017 93 0 6.73 226 05:40 16.12.2019
2534 Clouds -4 1016 95 0 6.12 233 05:22 16.12.2019
2535 Clouds -4 1016 95 0 6.12 233 02:59 16.12.2019
2536 Snow -3 1017 95 0 5.21 242 01:46 16.12.2019
2537 Clouds -3 1017 94 0 5.03 242 00:57 16.12.2019
2538 Clouds -3 1017 94 0 5.03 242 00:38 16.12.2019
2539 Clouds -3 1017 94 0 5.03 242 00:19 16.12.2019
2540 Clouds -3 1017 94 0 5.03 242 23:44 15.12.2019
2541 Clouds -3 1017 94 0 5.03 242 23:25 15.12.2019
2542 Snow -2 1016 95 0 5.42 240 22:57 15.12.2019
2543 Snow -2 1016 95 0 5.42 240 22:38 15.12.2019
2544 Snow -2 1016 95 0 5.42 240 22:38 15.12.2019
2545 Snow -2 1016 95 0 5.42 240 22:19 15.12.2019
2546 Snow -2 1016 95 0 5.42 240 21:58 15.12.2019
2547 Snow -2 1016 95 0 5.42 240 21:39 15.12.2019
2548 Snow -2 1016 95 0 5.42 240 21:20 15.12.2019
2549 Snow -2 1016 95 0 5.42 240 20:58 15.12.2019
2550 Snow -2 1016 95 0 5.42 240 20:58 15.12.2019
2551 Snow -2 1016 95 0 5.42 240 20:40 15.12.2019
2552 Snow -3 1015 95 0 5.37 242 20:22 15.12.2019
2553 Snow -3 1015 96 0 5.16 251 19:58 15.12.2019
2554 Clouds -3 1015 96 0 4.74 252 19:40 15.12.2019
2555 Snow -3 1015 96 0 5.16 251 19:20 15.12.2019
2556 Snow -3 1015 96 0 5.16 251 18:58 15.12.2019
2557 Snow -3 1015 96 0 5.16 251 18:39 15.12.2019
2558 Snow -3 1015 96 0 5.16 251 18:19 15.12.2019
2559 Snow -3 1015 96 0 5.16 251 17:57 15.12.2019
2560 Clouds -3 1015 96 0 4.74 252 17:38 15.12.2019
2561 Snow -3 1013 96 0 5.5 251 17:19 15.12.2019
2562 Snow -3 1014 95 0 5.68 246 16:59 15.12.2019
2563 Snow -3 1014 95 0 5.68 246 16:41 15.12.2019
2564 Snow -3 1013 96 0 5.5 251 16:21 15.12.2019
2565 Snow -3 1013 96 0 5.5 251 15:56 15.12.2019
2566 Snow -3 1014 95 0 5.68 246 15:56 15.12.2019
2567 Snow -3 1014 95 0 5.68 246 15:38 15.12.2019
2568 Snow -3 1014 95 0 5.68 246 15:19 15.12.2019
2569 Snow -3 1013 96 0 5.5 251 14:56 15.12.2019
2570 Snow -3 1013 96 0 5.5 251 14:37 15.12.2019
2571 Snow -3 1013 95 0 6.25 238 14:18 15.12.2019
2572 Snow -3 1014 95 0 6.27 238 13:58 15.12.2019
2573 Snow -3 1013 95 0 6.25 238 13:37 15.12.2019
2574 Snow -3 1013 95 0 6.25 238 13:19 15.12.2019
2575 Snow -3 1013 95 0 6.25 238 12:56 15.12.2019
2576 Snow -3 1013 95 0 6.25 238 12:38 15.12.2019
2577 Snow -3 1013 95 0 6.25 238 12:20 15.12.2019
2578 Snow -3 1013 95 0 6.25 238 11:55 15.12.2019
2579 Snow -3 1013 95 0 6.25 238 11:36 15.12.2019
2580 Snow -4 1012 94 0 6.37 231 11:18 15.12.2019
2581 Snow -4 1012 94 0 6.37 231 10:55 15.12.2019
2582 Snow -4 1012 94 0 6.37 231 10:36 15.12.2019
2583 Snow -4 1012 94 0 6.37 231 10:18 15.12.2019
2584 Snow -4 1012 94 0 6.37 231 09:39 15.12.2019
2585 Snow -4 1012 94 0 6.37 231 09:20 15.12.2019
2586 Snow -4 1012 94 0 6.37 231 08:57 15.12.2019
2587 Snow -4 1012 94 0 6.37 231 08:39 15.12.2019
2588 Snow -4 1012 95 0 6.14 232 08:20 15.12.2019
2589 Snow -3 1012 94 0 7.18 232 07:55 15.12.2019
2590 Snow -3 1012 94 0 7.18 232 07:34 15.12.2019
2591 Snow -3 1012 94 0 7.18 232 06:39 15.12.2019
2592 Snow -3 1012 94 0 7.18 232 06:19 15.12.2019
2593 Snow -3 1012 94 0 7.18 232 05:25 15.12.2019
2594 Snow -3 1012 94 0 7.18 232 05:25 15.12.2019
2595 Snow -3 1011 94 0 7.01 238 04:24 15.12.2019
2596 Snow -3 1011 94 0 7.01 238 03:22 15.12.2019
2597 Snow -3 1011 94 0 7.01 238 02:33 15.12.2019
2598 Snow -3 1012 94 0 6.94 234 01:44 15.12.2019
2599 Snow -3 1012 94 0 6.94 234 01:25 15.12.2019
2600 Snow -3 1012 94 0 6.7 238 00:54 15.12.2019
2601 Snow -3 1012 94 0 6.7 238 00:35 15.12.2019
2602 Snow -3 1012 94 0 6.7 238 23:58 14.12.2019
2603 Snow -3 1012 94 0 6.7 238 23:39 14.12.2019
2604 Snow -4 1011 93 0 7.75 229 23:19 14.12.2019
2605 Snow -4 1011 93 0 7.75 229 22:57 14.12.2019
2606 Snow -4 1011 93 0 7.75 229 22:39 14.12.2019
2607 Snow -4 1011 93 0 7.75 229 22:39 14.12.2019
2608 Snow -4 1011 93 0 7.75 229 22:20 14.12.2019
2609 Snow -4 1011 93 0 7.75 229 21:55 14.12.2019
2610 Snow -4 1011 93 0 7.75 229 21:37 14.12.2019
2611 Snow -4 1011 93 0 7.75 229 21:18 14.12.2019
2612 Snow -4 1011 93 0 7.75 229 20:54 14.12.2019
2613 Snow -4 1011 93 0 7.75 229 20:36 14.12.2019
2614 Snow -6 1011 92 0 6.86 223 20:18 14.12.2019
2615 Snow -6 1011 92 0 6.86 223 20:18 14.12.2019
2616 Snow -6 1011 92 0 6.86 223 19:40 14.12.2019
2617 Snow -6 1011 92 0 6.86 223 19:21 14.12.2019
2618 Snow -6 1011 92 0 6.86 223 19:21 14.12.2019
2619 Snow -6 1011 92 0 6.86 223 18:57 14.12.2019
2620 Snow -6 1011 92 0 6.86 223 18:39 14.12.2019
2621 Snow -6 1011 92 0 6.86 223 18:21 14.12.2019
2622 Snow -6 1011 92 0 6.86 223 17:58 14.12.2019
2623 Snow -6 1011 92 0 6.86 223 17:40 14.12.2019
2624 Clouds -5 1011 91 0 6.57 221 17:21 14.12.2019
2625 Clouds -5 1011 91 0 6.57 221 16:41 14.12.2019
2626 Clouds -5 1011 91 0 6.57 221 16:19 14.12.2019
2627 Clouds -5 1011 91 0 6.57 221 15:56 14.12.2019
2628 Clouds -5 1011 91 0 6.57 221 15:38 14.12.2019
2629 Clouds -5 1011 91 0 6.57 221 15:19 14.12.2019
2630 Clouds -5 1011 91 0 6.57 221 14:56 14.12.2019
2631 Clouds -5 1011 91 0 6.57 221 14:37 14.12.2019
2632 Snow -6 1011 91 0 5.66 209 14:18 14.12.2019
2633 Snow -6 1011 91 0 5.66 209 13:44 14.12.2019
2634 Snow -6 1011 91 0 5.38 208 13:19 14.12.2019
2635 Snow -6 1011 91 0 5.38 208 12:57 14.12.2019
2636 Snow -5 1012 90 0 6.88 215 12:38 14.12.2019
2637 Snow -5 1012 90 0 6.88 215 12:38 14.12.2019
2638 Snow -5 1012 90 0 6.88 215 12:20 14.12.2019
2639 Snow -6 1011 91 0 5.38 208 11:56 14.12.2019
2640 Snow -6 1011 91 0 5.38 208 11:38 14.12.2019
2641 Snow -7 1011 92 0 4.79 175 11:19 14.12.2019
2642 Snow -7 1011 91 0 5.23 195 10:56 14.12.2019
2643 Snow -7 1011 92 0 4.79 175 10:38 14.12.2019
2644 Snow -7 1011 92 0 4.79 175 10:19 14.12.2019
2645 Snow -7 1011 92 0 4.79 175 09:43 14.12.2019
2646 Snow -7 1011 92 0 4.79 175 09:23 14.12.2019
2647 Snow -7 1011 91 0 5.23 195 08:57 14.12.2019
2648 Snow -7 1011 91 0 5.23 195 08:57 14.12.2019
2649 Snow -7 1011 92 0 4.79 175 08:38 14.12.2019
2650 Clouds -8 1012 86 0 5.3 173 08:19 14.12.2019
2651 Clouds -8 1012 86 0 5.3 173 07:40 14.12.2019
2652 Clouds -8 1012 86 0 5.3 173 07:21 14.12.2019
2653 Clouds -8 1012 86 0 5.3 173 06:55 14.12.2019
2654 Clouds -8 1012 86 0 5.3 173 06:36 14.12.2019
2655 Clouds -8 1012 86 0 5.3 173 05:52 14.12.2019
2656 Clouds -8 1012 84 0 4.36 164 04:29 14.12.2019
2657 Clouds -8 1012 84 0 4.36 164 02:24 14.12.2019
2658 Clouds -9 1013 86 0 4.34 158 01:44 14.12.2019
2659 Clouds -9 1013 86 0 4.51 158 01:20 14.12.2019
2660 Clouds -9 1013 86 0 4.51 158 00:43 14.12.2019
2661 Clouds -9 1013 86 0 4.51 158 00:22 14.12.2019
2662 Clouds -9 1013 86 0 4.51 158 23:41 13.12.2019
2663 Clouds -9 1013 81 0 2.4 131 23:20 13.12.2019
2664 Clouds -9 1013 81 0 2.4 131 22:57 13.12.2019
2665 Clouds -9 1013 81 0 2.4 131 22:38 13.12.2019
2666 Clouds -9 1013 81 0 2.4 131 22:18 13.12.2019
2667 Clouds -9 1013 81 0 2.4 131 21:44 13.12.2019
2668 Clouds -9 1013 81 0 2.4 131 21:22 13.12.2019
2669 Clouds -9 1013 81 0 2.4 131 20:59 13.12.2019
2670 Clouds -9 1013 81 0 2.4 131 20:40 13.12.2019
2671 Clouds -10 1012 87 0 2.78 74 20:21 13.12.2019
2672 Clouds -9 1012 86 0 3.22 101 19:57 13.12.2019
2673 Clouds -9 1012 86 0 3.22 101 19:39 13.12.2019
2674 Clouds -9 1012 86 0 3.22 101 19:20 13.12.2019
2675 Clouds -9 1012 86 0 3.22 101 18:55 13.12.2019
2676 Clouds -9 1012 86 0 3.22 101 18:36 13.12.2019
2677 Clouds -9 1012 86 0 3.22 101 18:18 13.12.2019
2678 Clouds -9 1012 86 0 3.22 101 17:40 13.12.2019
2679 Clouds -9 1012 86 0 3.22 101 17:40 13.12.2019
2680 Clouds -9 1011 83 0 2.26 71 17:19 13.12.2019
2681 Clouds -9 1011 83 0 2.26 71 16:58 13.12.2019
2682 Clouds -9 1011 83 0 2.26 71 16:39 13.12.2019
2683 Clouds -9 1011 83 0 2.26 71 16:20 13.12.2019
2684 Clouds -9 1011 83 0 2.26 71 15:43 13.12.2019
2685 Clouds -9 1011 83 0 2.26 71 15:22 13.12.2019
2686 Clouds -9 1011 83 0 2.26 71 14:57 13.12.2019
2687 Clouds -9 1011 83 0 2.26 71 14:57 13.12.2019
2688 Clouds -9 1011 83 0 2.26 71 14:39 13.12.2019
2689 Clouds -9 1011 81 0 3.05 34 14:19 13.12.2019
2690 Clouds -9 1011 81 0 3.05 34 13:44 13.12.2019
2691 Clouds -9 1011 81 0 3.05 34 13:26 13.12.2019
2692 Clouds -9 1011 82 0 3.1 26 12:59 13.12.2019
2693 Clouds -9 1011 82 0 3.1 26 12:41 13.12.2019
2694 Clouds -9 1011 82 0 3.1 26 12:19 13.12.2019
2695 Clouds -9 1011 82 0 3.1 26 11:45 13.12.2019
2696 Clouds -9 1011 82 0 3.1 26 11:45 13.12.2019
2697 Clouds -9 1011 82 0 3.1 26 11:26 13.12.2019
2698 Clouds -9 1010 81 0 3.22 359 10:58 13.12.2019
2699 Clouds -9 1010 81 0 3.22 359 10:40 13.12.2019
2700 Clouds -9 1010 81 0 3.22 359 10:21 13.12.2019
2701 Clouds -9 1010 81 0 3.22 359 09:43 13.12.2019
2702 Clouds -9 1010 81 0 3.22 359 09:22 13.12.2019
2703 Clouds -9 1010 81 0 3.22 359 08:55 13.12.2019
2704 Clouds -9 1010 81 0 3.22 359 08:36 13.12.2019
2705 Snow -9 1009 82 0 3.54 357 08:18 13.12.2019
2706 Snow -9 1009 82 0 3.48 7 07:42 13.12.2019
2707 Snow -9 1009 82 0 3.48 7 07:19 13.12.2019
2708 Snow -9 1009 82 0 3.48 7 06:45 13.12.2019
2709 Snow -9 1009 82 0 3.48 7 06:25 13.12.2019
2710 Snow -9 1009 82 0 3.48 7 05:38 13.12.2019
2711 Clouds -8 1008 83 0 4.38 13 05:20 13.12.2019
2712 Clouds -8 1008 83 0 4.38 13 04:29 13.12.2019
2713 Clouds -8 1008 83 0 4.38 13 02:57 13.12.2019
2714 Clouds -8 1008 83 0 4.38 13 02:30 13.12.2019
2715 Snow -7 1008 81 0 3.8 4 01:38 13.12.2019
2716 Clouds -7 1008 81 0 3.08 357 00:51 13.12.2019
2717 Clouds -7 1008 81 0 3.08 357 00:28 13.12.2019
2718 Clouds -7 1008 81 0 3.08 357 23:44 12.12.2019
2719 Snow -7 1007 83 0 3.72 357 23:26 12.12.2019
2720 Snow -7 1007 83 0 3.72 357 22:57 12.12.2019
2721 Snow -7 1007 83 0 3.72 357 22:39 12.12.2019
2722 Snow -7 1007 83 0 3.72 357 22:21 12.12.2019
2723 Snow -7 1007 83 0 3.72 357 21:56 12.12.2019
2724 Snow -7 1007 83 0 3.72 357 21:37 12.12.2019
2725 Snow -7 1007 83 0 3.72 357 21:19 12.12.2019
2726 Snow -7 1007 83 0 3.72 357 21:19 12.12.2019
2727 Snow -7 1007 83 0 3.72 357 20:59 12.12.2019
2728 Snow -7 1007 83 0 3.72 357 20:40 12.12.2019
2729 Snow -6 1006 84 0 3.13 326 20:22 12.12.2019
2730 Snow -6 1006 84 0 3.13 326 19:56 12.12.2019
2731 Snow -6 1006 84 0 3.13 326 19:37 12.12.2019
2732 Snow -6 1006 84 0 3.13 326 19:18 12.12.2019
2733 Snow -6 1006 84 0 3.13 326 18:56 12.12.2019
2734 Snow -6 1006 84 0 3.13 326 18:38 12.12.2019
2735 Snow -6 1006 84 0 3.13 326 18:19 12.12.2019
2736 Snow -6 1006 84 0 3.13 326 17:57 12.12.2019
2737 Snow -6 1006 84 0 3.13 326 17:38 12.12.2019
2738 Snow -6 1006 86 0 4.61 303 17:19 12.12.2019
2739 Snow -6 1006 86 0 4.61 303 16:55 12.12.2019
2740 Snow -6 1006 86 0 4.61 303 16:36 12.12.2019
2741 Snow -6 1006 86 0 4.61 303 16:18 12.12.2019
2742 Snow -6 1006 86 0 4.61 303 15:42 12.12.2019
2743 Snow -6 1006 86 0 4.61 303 15:20 12.12.2019
2744 Snow -6 1006 86 0 4.61 303 14:59 12.12.2019
2745 Snow -6 1006 86 0 4.61 303 14:38 12.12.2019
2746 Snow -6 1005 87 0 4.5 305 14:19 12.12.2019
2747 Snow -6 1005 87 0 4.5 305 13:56 12.12.2019
2748 Snow -6 1005 87 0 4.5 305 13:38 12.12.2019
2749 Snow -6 1006 86 0 4.84 301 13:20 12.12.2019
2750 Snow -6 1006 86 0 4.84 301 12:56 12.12.2019
2751 Snow -6 1006 86 0 4.84 301 12:38 12.12.2019
2752 Snow -6 1006 86 0 4.84 301 12:19 12.12.2019
2753 Snow -6 1006 86 0 4.84 301 11:54 12.12.2019
2754 Snow -6 1006 86 0 4.84 301 11:36 12.12.2019
2755 Snow -5 1005 88 0 4.27 318 11:18 12.12.2019
2756 Snow -5 1005 88 0 4.27 318 10:41 12.12.2019
2757 Snow -5 1005 88 0 4.27 318 10:23 12.12.2019
2758 Snow -5 1005 88 0 4.27 318 10:23 12.12.2019
2759 Snow -5 1005 88 0 4.27 318 09:59 12.12.2019
2760 Snow -5 1005 88 0 4.27 318 09:41 12.12.2019
2761 Snow -5 1005 88 0 4.27 318 09:23 12.12.2019
2762 Snow -5 1005 88 0 4.27 318 08:55 12.12.2019
2763 Snow -5 1005 88 0 4.27 318 08:37 12.12.2019
2764 Snow -5 1005 82 0 3.78 331 08:18 12.12.2019
2765 Snow -5 1005 82 0 3.78 331 07:41 12.12.2019
2766 Snow -5 1005 82 0 3.78 331 07:23 12.12.2019
2767 Snow -5 1005 82 0 3.78 331 06:44 12.12.2019
2768 Snow -5 1005 82 0 3.78 331 06:24 12.12.2019
2769 Snow -5 1005 82 0 3.78 331 05:36 12.12.2019
2770 Snow -5 1003 83 0 4.33 356 04:51 12.12.2019
2771 Snow -5 1003 83 0 4.33 356 02:57 12.12.2019
2772 Snow -5 1003 83 0 4.33 356 02:37 12.12.2019
2773 Clouds -5 1003 84 0 4.67 356 02:18 12.12.2019
2774 Clouds -5 1003 84 0 4.67 356 01:37 12.12.2019
2775 Clouds -5 1003 84 0 4.67 356 01:18 12.12.2019
2776 Clouds -5 1003 83 0 4.14 355 00:40 12.12.2019
2777 Clouds -5 1003 83 0 4.14 355 00:18 12.12.2019
2778 Clouds -5 1003 83 0 4.14 355 23:42 11.12.2019
2779 Snow -4 1000 87 0 5.84 17 23:20 11.12.2019
2780 Snow -4 1000 87 0 5.84 17 22:57 11.12.2019
2781 Snow -4 1000 87 0 5.84 17 22:57 11.12.2019
2782 Snow -4 1000 87 0 5.84 17 22:38 11.12.2019
2783 Snow -4 1000 87 0 5.84 17 22:19 11.12.2019
2784 Snow -4 1000 87 0 5.84 17 21:56 11.12.2019
2785 Snow -4 1000 87 0 5.84 17 21:37 11.12.2019
2786 Snow -4 1000 87 0 5.84 17 21:37 11.12.2019
2787 Snow -4 1000 87 0 5.84 17 21:19 11.12.2019
2788 Snow -4 1000 87 0 5.84 17 21:19 11.12.2019
2789 Snow -4 1000 87 0 5.84 17 20:55 11.12.2019
2790 Snow -4 1000 87 0 5.84 17 20:37 11.12.2019
2791 Snow -5 999 87 0 4.73 329 20:18 11.12.2019
2792 Snow -5 999 85 0 4.85 321 19:55 11.12.2019
2793 Snow -5 999 85 0 4.85 321 19:36 11.12.2019
2794 Snow -5 999 85 0 4.85 321 19:18 11.12.2019
2795 Snow -5 999 85 0 4.85 321 18:40 11.12.2019
2796 Snow -5 999 85 0 4.85 321 18:21 11.12.2019
2797 Snow -5 999 85 0 4.85 321 17:57 11.12.2019
2798 Snow -5 999 85 0 4.85 321 17:38 11.12.2019
2799 Clouds -6 996 82 0 4.64 314 17:18 11.12.2019
2800 Clouds -6 996 82 0 4.64 314 16:57 11.12.2019
2801 Clouds -6 996 82 0 4.64 314 16:38 11.12.2019
2802 Clouds -6 996 82 0 4.64 314 16:19 11.12.2019
2803 Clouds -6 996 82 0 4.64 314 15:58 11.12.2019
2804 Clouds -6 996 82 0 4.64 314 15:38 11.12.2019
2805 Clouds -6 996 82 0 4.64 314 15:20 11.12.2019
2806 Clouds -6 996 82 0 4.64 314 14:56 11.12.2019
2807 Clouds -6 996 82 0 4.64 314 14:37 11.12.2019
2808 Clouds -6 996 82 0 4.64 314 14:37 11.12.2019
2809 Clouds -6 995 81 0 5.28 314 14:19 11.12.2019
2810 -273 0 0 0 0 0 13:54 11.12.2019
2811 Clouds -6 995 81 0 5.28 314 13:36 11.12.2019
2812 Clouds -6 995 81 0 5.28 314 13:18 11.12.2019
2813 Clouds -6 995 81 0 4.62 321 12:54 11.12.2019
2814 Clouds -6 995 81 0 4.62 321 12:36 11.12.2019
2815 Clouds -6 995 81 0 4.62 321 12:36 11.12.2019
2816 Clouds -6 995 81 0 4.62 321 12:18 11.12.2019
2817 Clouds -6 995 81 0 4.62 321 11:54 11.12.2019
2818 Clouds -6 995 81 0 4.62 321 11:36 11.12.2019
2819 Clouds -6 993 82 0 4.88 309 11:18 11.12.2019
2820 Clouds -6 993 82 0 4.88 309 10:40 11.12.2019
2821 Clouds -6 993 82 0 4.88 309 10:22 11.12.2019
2822 Clouds -6 993 82 0 4.88 309 09:58 11.12.2019
2823 Clouds -6 993 82 0 4.88 309 09:38 11.12.2019
2824 Clouds -6 993 82 0 4.88 309 09:19 11.12.2019
2825 Clouds -6 993 82 0 4.88 309 08:56 11.12.2019
2826 Clouds -6 993 82 0 4.88 309 08:37 11.12.2019
2827 Clouds -6 992 85 0 4.32 303 08:18 11.12.2019
2828 Clouds -6 992 85 0 4.32 303 07:43 11.12.2019
2829 Clouds -6 992 85 0 4.32 303 07:24 11.12.2019
2830 Clouds -6 992 85 0 4.32 303 07:24 11.12.2019
2831 Clouds -6 992 85 0 4.32 303 06:46 11.12.2019
2832 Clouds -6 992 85 0 4.32 303 06:25 11.12.2019
2833 Clouds -6 992 85 0 4.32 303 05:56 11.12.2019
2834 Clouds -6 992 85 0 4.32 303 05:35 11.12.2019
2835 Clouds -5 990 87 0 4.94 310 04:51 11.12.2019
2836 Clouds -5 990 87 0 4.94 310 03:29 11.12.2019
2837 Clouds -5 990 87 0 4.94 310 02:35 11.12.2019
2838 Snow -4 990 90 0 5.24 304 01:22 11.12.2019
2839 Snow -5 991 90 0 5.13 307 00:43 11.12.2019
2840 Snow -5 991 90 0 5.13 307 00:43 11.12.2019
2841 Snow -5 991 90 0 5.13 307 00:19 11.12.2019
2842 Snow -5 991 90 0 5.13 307 23:45 10.12.2019
2843 Snow -5 991 90 0 5.13 307 23:26 10.12.2019
2844 Clouds -3 988 92 0 5.25 328 22:57 10.12.2019
2845 Clouds -3 988 92 0 5.25 328 22:39 10.12.2019
2846 Clouds -3 988 92 0 5.25 328 22:20 10.12.2019
2847 Clouds -3 988 92 0 5.25 328 21:54 10.12.2019
2848 Clouds -3 988 92 0 5.25 328 21:36 10.12.2019
2849 Clouds -3 988 92 0 5.25 328 21:18 10.12.2019
2850 Clouds -3 988 92 0 5.25 328 20:55 10.12.2019
2851 Clouds -3 988 92 0 5.25 328 20:36 10.12.2019
2852 Clouds -4 986 94 0 3.42 354 20:18 10.12.2019
2853 Clouds -4 986 94 0 3.42 354 19:44 10.12.2019
2854 Clouds -4 986 94 0 3.42 354 19:25 10.12.2019
2855 Clouds -4 986 94 0 3.42 354 18:57 10.12.2019
2856 Clouds -4 986 94 0 3.42 354 18:39 10.12.2019
2857 Clouds -4 986 94 0 3.42 354 18:19 10.12.2019
2858 Clouds -4 986 94 0 3.42 354 17:55 10.12.2019
2859 Clouds -4 986 94 0 3.42 354 17:36 10.12.2019
2860 Clouds -4 983 95 0 3.29 21 17:18 10.12.2019
2861 Clouds -4 983 95 0 3.29 21 17:18 10.12.2019
2862 Clouds -4 983 95 0 3.29 21 16:42 10.12.2019
2863 Clouds -4 983 95 0 3.29 21 16:20 10.12.2019
2864 Clouds -4 983 95 0 3.29 21 15:54 10.12.2019
2865 Clouds -4 983 95 0 3.29 21 15:36 10.12.2019
2866 Clouds -4 983 95 0 3.29 21 15:18 10.12.2019
2867 Clouds -4 983 95 0 3.29 21 15:18 10.12.2019
2868 Clouds -4 983 95 0 3.29 21 14:54 10.12.2019
2869 Clouds -4 983 95 0 3.29 21 14:36 10.12.2019
2870 Clouds -4 983 94 0 1.52 61 14:18 10.12.2019
2871 Clouds -4 983 94 0 1.52 61 14:18 10.12.2019
2872 Clouds -4 983 94 0 1.52 61 13:54 10.12.2019
2873 Clouds -4 983 94 0 1.52 61 13:36 10.12.2019
2874 Clouds -4 983 94 0 1.52 61 13:18 10.12.2019
2875 Snow -3 983 95 0 2.41 47 12:38 10.12.2019
2876 Snow -3 983 95 0 2.41 47 12:20 10.12.2019
2877 Snow -3 983 95 0 2.41 47 11:41 10.12.2019
2878 Snow -3 983 95 0 2.41 47 11:41 10.12.2019
2879 Snow -3 983 95 0 2.41 47 11:23 10.12.2019
2880 Snow -3 983 96 0 3.02 125 10:56 10.12.2019
2881 Snow -3 983 96 0 3.02 125 10:37 10.12.2019
2882 Snow -3 983 96 0 3.02 125 10:19 10.12.2019
2883 Snow -3 983 96 0 3.02 125 09:54 10.12.2019
2884 Snow -3 983 96 0 3.02 125 09:36 10.12.2019
2885 Snow -3 983 96 0 3.02 125 09:18 10.12.2019
2886 Snow -3 983 96 0 3.02 125 08:41 10.12.2019
2887 Snow -3 984 93 0 3.32 153 08:22 10.12.2019
2888 Snow -3 984 93 0 3.32 153 07:57 10.12.2019
2889 Snow -3 984 93 0 3.32 153 07:39 10.12.2019
2890 Snow -3 984 93 0 3.32 153 07:21 10.12.2019
2891 Snow -3 984 93 0 3.32 153 06:46 10.12.2019
2892 Snow -3 984 93 0 3.32 153 06:19 10.12.2019
2893 Snow -3 984 93 0 3.32 153 05:52 10.12.2019
2894 Clouds -4 984 90 0 5.59 200 04:51 10.12.2019
2895 Clouds -4 984 90 0 5.59 200 03:36 10.12.2019
2896 Clouds -4 984 90 0 5.59 200 02:44 10.12.2019
2897 Clouds -5 985 90 0 8.98 214 01:44 10.12.2019
2898 Clouds -5 985 90 0 8.98 214 01:20 10.12.2019
2899 Clouds -5 985 89 0 9.12 215 00:41 10.12.2019
2900 Clouds -5 985 89 0 9.12 215 00:20 10.12.2019
2901 Clouds -5 985 89 0 9.12 215 23:41 09.12.2019
2902 Snow -3 984 91 0 10.09 231 23:22 09.12.2019
2903 Snow -3 984 91 0 10.09 231 22:58 09.12.2019
2904 Snow -3 984 91 0 10.09 231 22:40 09.12.2019
2905 Snow -3 984 91 0 10.09 231 22:19 09.12.2019
2906 Snow -3 984 91 0 10.09 231 21:56 09.12.2019
2907 Snow -3 984 91 0 10.09 231 21:38 09.12.2019
2908 Snow -3 984 91 0 10.09 231 21:19 09.12.2019
2909 Snow -3 984 91 0 10.09 231 20:56 09.12.2019
2910 Snow -3 984 91 0 10.09 231 20:38 09.12.2019
2911 Clouds -3 983 90 0 10.75 232 20:20 09.12.2019
2912 Clouds -3 983 90 0 10.75 232 19:55 09.12.2019
2913 Clouds -3 983 90 0 10.75 232 19:37 09.12.2019
2914 Clouds -3 983 90 0 10.75 232 19:19 09.12.2019
2915 Clouds -3 983 90 0 10.75 232 18:56 09.12.2019
2916 Clouds -3 983 90 0 10.75 232 18:37 09.12.2019
2917 Clouds -3 983 90 0 10.75 232 18:19 09.12.2019
2918 Clouds -3 983 90 0 10.75 232 17:57 09.12.2019
2919 Clouds -3 983 90 0 10.75 232 17:38 09.12.2019
2920 Clouds -2 980 93 0 7.45 222 17:20 09.12.2019
2921 Clouds -2 980 93 0 7.45 222 16:56 09.12.2019
2922 Clouds -2 980 93 0 7.45 222 16:37 09.12.2019
2923 Clouds -2 980 93 0 7.45 222 16:19 09.12.2019
2924 Clouds -2 980 93 0 7.45 222 15:55 09.12.2019
2925 Clouds -2 980 93 0 7.45 222 15:37 09.12.2019
2926 Clouds -2 980 93 0 7.45 222 15:19 09.12.2019
2927 Clouds -2 980 93 0 7.45 222 14:42 09.12.2019
2928 Clouds -2 979 91 0 7.56 198 14:19 09.12.2019
2929 Clouds -2 979 91 0 7.56 198 13:59 09.12.2019
2930 Clouds -2 979 91 0 7.56 198 13:39 09.12.2019
2931 Clouds -2 980 92 0 7.47 198 13:19 09.12.2019
2932 Clouds -2 980 92 0 7.47 198 12:57 09.12.2019
2933 Clouds -2 980 92 0 7.47 198 12:38 09.12.2019
2934 Clouds -2 980 92 0 7.47 198 12:20 09.12.2019
2935 Clouds -2 980 92 0 7.47 198 11:58 09.12.2019
2936 Clouds -2 980 92 0 7.47 198 11:39 09.12.2019
2937 Snow -1 978 93 0 6.89 188 11:21 09.12.2019
2938 Snow -1 978 93 0 6.89 188 10:55 09.12.2019
2939 Snow -1 978 93 0 6.89 188 10:37 09.12.2019
2940 Snow -1 978 93 0 6.89 188 10:18 09.12.2019
2941 Snow -1 978 93 0 6.89 188 09:41 09.12.2019
2942 Snow -1 978 93 0 6.89 188 09:22 09.12.2019
2943 Snow -1 978 93 0 6.89 188 08:55 09.12.2019
2944 Snow -1 978 93 0 6.89 188 08:37 09.12.2019
2945 Snow -2 980 92 0 6.53 185 08:19 09.12.2019
2946 Snow -2 980 92 0 6.53 185 07:42 09.12.2019
2947 Snow -2 980 92 0 6.53 185 07:24 09.12.2019
2948 Snow -2 980 92 0 6.53 185 06:54 09.12.2019
2949 Snow -2 980 92 0 6.53 185 06:26 09.12.2019
2950 Snow -2 980 92 0 6.53 185 05:29 09.12.2019
2951 Snow -2 980 92 0 7.63 193 04:49 09.12.2019
2952 Snow -2 980 92 0 7.63 193 04:20 09.12.2019
2953 Snow -2 980 92 0 7.63 193 02:27 09.12.2019
2954 Snow -6 982 92 0 7.58 166 01:44 09.12.2019
2955 Snow -6 982 91 0 7.97 167 00:53 09.12.2019
2956 Snow -6 982 91 0 7.97 167 00:32 09.12.2019
2957 Snow -6 982 91 0 7.97 167 23:54 08.12.2019
2958 Snow -6 982 91 0 7.97 167 23:36 08.12.2019
2959 Snow -7 985 94 0 9.48 142 23:18 08.12.2019
2960 Snow -7 985 94 0 9.48 142 22:56 08.12.2019
2961 Snow -7 985 94 0 9.48 142 22:37 08.12.2019
2962 Snow -7 985 94 0 9.48 142 22:18 08.12.2019
2963 Snow -7 985 94 0 9.48 142 21:54 08.12.2019
2964 Snow -7 985 94 0 9.48 142 21:36 08.12.2019
2965 Snow -7 985 94 0 9.48 142 21:18 08.12.2019
2966 Snow -7 985 94 0 9.48 142 20:54 08.12.2019
2967 Snow -7 985 94 0 9.48 142 20:36 08.12.2019
2968 Snow -9 989 93 0 9.05 122 20:18 08.12.2019
2969 Snow -9 989 93 0 9.05 122 19:42 08.12.2019
2970 Snow -9 989 93 0 9.05 122 19:23 08.12.2019
2971 Snow -9 989 93 0 9.05 122 18:56 08.12.2019
2972 Snow -9 989 93 0 9.05 122 18:56 08.12.2019
2973 Snow -9 989 93 0 9.05 122 18:37 08.12.2019
2974 Snow -9 989 93 0 9.05 122 18:19 08.12.2019
2975 Snow -9 989 93 0 9.05 122 17:57 08.12.2019
2976 Snow -9 989 93 0 9.05 122 17:39 08.12.2019
2977 Clouds -11 992 76 0 7.8 122 17:20 08.12.2019
2978 Clouds -11 992 76 0 7.8 122 16:58 08.12.2019
2979 Clouds -11 992 76 0 7.8 122 16:40 08.12.2019
2980 Clouds -11 992 76 0 7.8 122 16:21 08.12.2019
2981 Clouds -11 992 76 0 7.8 122 15:57 08.12.2019
2982 Clouds -11 992 76 0 7.8 122 15:37 08.12.2019
2983 Clouds -11 992 76 0 7.8 122 15:18 08.12.2019
2984 Clouds -11 992 76 0 7.8 122 14:44 08.12.2019
2985 Clouds -11 992 76 0 7.8 122 14:24 08.12.2019
2986 Clouds -12 996 73 0 5.74 140 13:59 08.12.2019
2987 Clouds -12 996 73 0 5.74 140 13:40 08.12.2019
2988 Clouds -12 996 73 0 5.73 143 13:22 08.12.2019
2989 Clouds -12 996 73 0 5.73 143 12:58 08.12.2019
2990 Clouds -12 996 73 0 5.73 143 12:38 08.12.2019
2991 Clouds -12 996 73 0 5.73 143 12:18 08.12.2019
2992 Clouds -12 996 73 0 5.73 143 11:57 08.12.2019
2993 Clouds -12 996 73 0 5.73 143 11:37 08.12.2019
2994 Clouds -14 999 80 0 5.32 167 11:19 08.12.2019
2995 Clouds -14 999 80 0 5.32 167 10:40 08.12.2019
2996 Clouds -14 999 80 0 5.32 167 10:22 08.12.2019
2997 Clouds -14 999 80 0 5.32 167 09:58 08.12.2019
2998 Clouds -14 999 80 0 5.32 167 09:39 08.12.2019
2999 Clouds -14 999 80 0 5.32 167 09:20 08.12.2019
3000 Clouds -14 999 80 0 5.32 167 08:59 08.12.2019
3001 Clouds -14 999 80 0 5.32 167 08:41 08.12.2019
3002 Clouds -17 1001 91 0 6.74 202 08:22 08.12.2019
3003 Clouds -17 1001 91 0 6.74 202 07:49 08.12.2019
3004 Clouds -17 1001 91 0 6.74 202 07:21 08.12.2019
3005 Clouds -17 1001 91 0 6.74 202 06:53 08.12.2019
3006 Clouds -17 1001 91 0 6.74 202 06:23 08.12.2019
3007 Clouds -17 1001 91 0 6.74 202 05:58 08.12.2019
3008 Clouds -16 1001 96 0 7.89 213 05:20 08.12.2019
3009 Clouds -16 1001 96 0 7.89 213 03:55 08.12.2019
3010 Clouds -16 1001 96 0 7.89 213 03:37 08.12.2019
3011 Clouds -16 1001 96 0 7.89 213 02:40 08.12.2019
3012 Clouds -14 1001 95 0 8.41 223 01:57 08.12.2019
3013 Clouds -14 1001 95 0 8.53 223 01:33 08.12.2019
3014 Clouds -14 1001 95 0 8.53 223 00:45 08.12.2019
3015 Clouds -14 1001 95 0 8.53 223 00:21 08.12.2019
3016 Clouds -14 1001 95 0 8.53 223 23:55 07.12.2019
3017 Clouds -14 1001 95 0 8.53 223 23:36 07.12.2019
3018 Clouds -12 999 94 0 8.59 231 23:18 07.12.2019
3019 Clouds -12 999 94 0 8.59 231 22:54 07.12.2019
3020 Clouds -12 999 94 0 8.59 231 22:36 07.12.2019
3021 Clouds -12 999 94 0 8.59 231 22:18 07.12.2019
3022 Clouds -12 999 94 0 8.59 231 21:54 07.12.2019
3023 Clouds -12 999 94 0 8.59 231 21:36 07.12.2019
3024 Clouds -12 999 94 0 8.59 231 21:18 07.12.2019
3025 Clouds -12 999 94 0 8.59 231 20:37 07.12.2019
3026 Snow -12 998 95 0 7.55 239 20:19 07.12.2019
3027 Snow -12 998 95 0 7.55 239 19:57 07.12.2019
3028 Snow -12 998 95 0 7.55 239 19:39 07.12.2019
3029 Snow -12 998 95 0 7.55 239 19:21 07.12.2019
3030 Snow -12 998 95 0 7.55 239 18:57 07.12.2019
3031 Snow -12 998 95 0 7.55 239 18:38 07.12.2019
3032 Snow -12 998 95 0 7.55 239 18:18 07.12.2019
3033 Snow -12 998 95 0 7.55 239 17:55 07.12.2019
3034 Snow -12 998 95 0 7.55 239 17:36 07.12.2019
3035 Snow -11 996 89 0 6.97 252 17:18 07.12.2019
3036 Snow -11 996 89 0 6.97 252 16:54 07.12.2019
3037 Snow -11 996 89 0 6.97 252 16:36 07.12.2019
3038 Snow -11 996 89 0 6.97 252 16:18 07.12.2019
3039 Snow -11 996 89 0 6.97 252 15:40 07.12.2019
3040 Snow -11 996 89 0 6.97 252 15:22 07.12.2019
3041 Snow -11 996 89 0 6.97 252 14:43 07.12.2019
3042 Snow -10 995 86 0 3.65 275 14:19 07.12.2019
3043 Snow -10 995 86 0 3.65 275 13:59 07.12.2019
3044 Snow -10 995 86 0 3.65 275 13:39 07.12.2019
3045 Snow -10 995 86 0 3.65 275 13:39 07.12.2019
3046 Snow -10 995 86 0 3.76 274 13:19 07.12.2019
3047 Snow -10 995 86 0 3.76 274 12:54 07.12.2019
3048 Snow -10 995 86 0 3.76 274 12:36 07.12.2019
3049 Snow -10 995 86 0 3.76 274 12:36 07.12.2019
3050 Snow -10 995 86 0 3.76 274 12:18 07.12.2019
3051 Snow -10 995 86 0 3.76 274 11:41 07.12.2019
3052 Snow -10 995 86 0 3.76 274 11:23 07.12.2019
3053 Snow -11 993 84 0 1.34 316 10:54 07.12.2019
3054 Snow -11 993 84 0 1.34 316 10:36 07.12.2019
3055 Snow -11 993 84 0 1.34 316 10:18 07.12.2019
3056 Snow -11 993 84 0 1.34 316 09:39 07.12.2019
3057 Snow -11 993 84 0 1.34 316 09:21 07.12.2019
3058 Snow -11 993 84 0 1.34 316 08:45 07.12.2019
3059 Snow -11 994 85 0 2.25 336 08:24 07.12.2019
3060 Snow -11 994 85 0 2.25 336 08:24 07.12.2019
3061 Snow -12 992 87 0 1.38 288 07:49 07.12.2019
3062 Snow -12 992 87 0 1.38 288 07:28 07.12.2019
3063 Snow -12 992 87 0 1.38 288 06:53 07.12.2019
3064 Snow -12 992 87 0 1.38 288 06:26 07.12.2019
3065 Snow -12 992 87 0 1.38 288 05:47 07.12.2019
3066 Snow -12 990 88 0 2.25 29 04:44 07.12.2019
3067 Snow -12 990 88 0 2.25 29 03:50 07.12.2019
3068 Snow -12 990 88 0 2.25 29 02:23 07.12.2019
3069 Snow -12 989 84 0 3.33 34 01:42 07.12.2019
3070 Snow -12 989 85 0 2.99 33 01:24 07.12.2019
3071 Snow -12 989 85 0 2.99 33 00:22 07.12.2019
3072 Snow -12 989 85 0 2.99 33 23:59 06.12.2019
3073 Snow -12 989 85 0 2.99 33 23:40 06.12.2019
3074 Clouds -12 988 82 0 3.14 34 23:20 06.12.2019
3075 Clouds -12 988 82 0 3.14 34 22:39 06.12.2019
3076 Clouds -12 988 82 0 3.14 34 22:21 06.12.2019
3077 Clouds -12 988 82 0 3.14 34 21:59 06.12.2019
3078 Clouds -12 988 82 0 3.14 34 21:41 06.12.2019
3079 Clouds -12 988 82 0 3.14 34 21:21 06.12.2019
3080 Clouds -12 988 82 0 3.14 34 20:56 06.12.2019
3081 Clouds -12 988 82 0 3.14 34 20:38 06.12.2019
3082 Snow -11 987 85 0 3.24 69 20:19 06.12.2019
3083 Snow -11 987 85 0 3.24 69 19:42 06.12.2019
3084 Snow -11 987 85 0 3.24 69 19:24 06.12.2019
3085 Snow -11 987 85 0 3.24 69 18:59 06.12.2019
3086 Snow -11 987 85 0 3.24 69 18:40 06.12.2019
3087 Snow -11 987 85 0 3.24 69 18:21 06.12.2019
3088 Snow -11 987 85 0 3.24 69 17:58 06.12.2019
3089 Snow -11 987 85 0 3.24 69 17:40 06.12.2019
3090 Snow -11 987 85 0 3.24 69 17:40 06.12.2019
3091 Snow -11 986 88 0 2.56 74 17:22 06.12.2019
3092 Snow -11 986 88 0 2.56 74 16:57 06.12.2019
3093 Snow -11 986 88 0 2.56 74 16:37 06.12.2019
3094 Snow -11 986 88 0 2.56 74 16:19 06.12.2019
3095 Snow -11 986 88 0 2.56 74 15:41 06.12.2019
3096 Snow -11 986 88 0 2.56 74 15:22 06.12.2019
3097 Snow -11 986 88 0 2.56 74 14:58 06.12.2019
3098 Snow -11 986 88 0 2.56 74 14:40 06.12.2019
3099 Snow -11 986 88 0 1.84 94 14:20 06.12.2019
3100 Snow -11 986 88 0 1.84 94 13:46 06.12.2019
3101 Snow -11 986 88 0 1.84 94 13:26 06.12.2019
3102 Snow -11 986 89 0 0.61 179 12:57 06.12.2019
3103 Snow -11 986 89 0 0.61 179 12:39 06.12.2019
3104 Snow -11 986 89 0 0.61 179 12:20 06.12.2019
3105 Snow -11 986 89 0 0.61 179 11:42 06.12.2019
3106 Snow -11 986 89 0 0.61 179 11:23 06.12.2019
3107 Snow -11 986 87 0 1.37 136 10:55 06.12.2019
3108 Snow -11 986 87 0 1.37 136 10:37 06.12.2019
3109 Snow -11 986 87 0 1.37 136 10:19 06.12.2019
3110 Snow -11 986 87 0 1.37 136 09:55 06.12.2019
3111 Snow -11 986 87 0 1.37 136 09:55 06.12.2019
3112 Snow -11 986 87 0 1.37 136 09:36 06.12.2019
3113 Snow -11 986 87 0 1.37 136 09:18 06.12.2019
3114 Snow -11 986 87 0 1.37 136 08:40 06.12.2019
3115 Snow -11 987 88 0 1.41 175 08:22 06.12.2019
3116 Snow -11 987 88 0 1.41 175 07:38 06.12.2019
3117 Snow -11 987 88 0 1.41 175 07:20 06.12.2019
3118 Snow -11 987 88 0 1.41 175 07:20 06.12.2019
3119 Snow -11 987 88 0 1.41 175 06:48 06.12.2019
3120 Snow -11 987 88 0 1.41 175 06:24 06.12.2019
3121 Snow -11 987 88 0 1.41 175 05:47 06.12.2019
3122 Snow -11 988 90 0 2.08 176 02:46 06.12.2019
3123 Snow -11 990 88 0 2.38 137 01:45 06.12.2019
3124 Snow -12 991 87 0 2.42 131 00:50 06.12.2019
3125 Snow -12 991 87 0 2.42 131 00:23 06.12.2019
3126 Snow -12 991 87 0 2.42 131 23:51 05.12.2019
3127 Snow -12 993 88 0 3.27 117 23:20 05.12.2019
3128 Snow -12 993 88 0 3.27 117 22:58 05.12.2019
3129 Snow -12 993 88 0 3.27 117 22:39 05.12.2019
3130 Snow -12 993 88 0 3.27 117 22:19 05.12.2019
3131 Snow -12 993 88 0 3.27 117 21:57 05.12.2019
3132 Snow -12 993 88 0 3.27 117 21:57 05.12.2019
3133 Snow -12 993 88 0 3.27 117 21:39 05.12.2019
3134 Snow -12 993 88 0 3.27 117 21:39 05.12.2019
3135 Snow -12 993 88 0 3.27 117 21:20 05.12.2019
3136 Snow -12 993 88 0 3.27 117 20:56 05.12.2019
3137 Snow -12 993 88 0 3.27 117 20:38 05.12.2019
3138 Snow -12 993 88 0 3.27 117 20:38 05.12.2019
3139 Snow -10 996 89 0 3.8 132 20:18 05.12.2019
3140 Snow -10 996 89 0 3.8 132 20:18 05.12.2019
3141 Snow -10 996 89 0 3.8 132 19:41 05.12.2019
3142 Snow -10 996 89 0 3.8 132 19:22 05.12.2019
3143 Snow -10 996 89 0 3.8 132 18:59 05.12.2019
3144 Snow -10 996 89 0 3.8 132 18:39 05.12.2019
3145 Snow -10 996 89 0 3.8 132 18:20 05.12.2019
3146 Snow -10 996 89 0 3.8 132 17:55 05.12.2019
3147 Snow -10 996 89 0 3.8 132 17:37 05.12.2019
3148 Snow -9 999 85 0 3.12 98 17:18 05.12.2019
3149 Snow -9 999 85 0 3.12 98 16:40 05.12.2019
3150 Snow -9 999 85 0 3.12 98 16:22 05.12.2019
3151 Snow -9 999 85 0 3.12 98 15:58 05.12.2019
3152 Snow -9 999 85 0 3.12 98 15:40 05.12.2019
3153 Snow -9 999 85 0 3.12 98 15:20 05.12.2019
3154 Snow -9 999 85 0 3.12 98 14:56 05.12.2019
3155 Snow -9 999 85 0 3.12 98 14:38 05.12.2019
3156 Snow -9 1002 90 0 4.14 114 14:20 05.12.2019
3157 Snow -9 1002 90 0 4.14 114 13:58 05.12.2019
3158 Snow -9 1002 90 0 4.14 114 13:39 05.12.2019
3159 Snow -9 1002 89 0 4.08 112 13:21 05.12.2019
3160 Snow -9 1002 89 0 4.08 112 12:58 05.12.2019
3161 Snow -9 1002 89 0 4.08 112 12:39 05.12.2019
3162 Snow -9 1002 89 0 4.08 112 12:21 05.12.2019
3163 Snow -9 1002 89 0 4.08 112 11:40 05.12.2019
3164 Clouds -9 1004 90 0 5.19 113 11:22 05.12.2019
3165 Clouds -9 1004 90 0 5.19 113 10:58 05.12.2019
3166 Clouds -9 1004 90 0 5.19 113 10:40 05.12.2019
3167 Clouds -9 1004 90 0 5.19 113 10:19 05.12.2019
3168 Clouds -9 1004 90 0 5.19 113 09:56 05.12.2019
3169 Clouds -9 1004 90 0 5.19 113 09:38 05.12.2019
3170 Clouds -9 1004 90 0 5.19 113 09:19 05.12.2019
3171 Clouds -9 1004 90 0 5.19 113 08:56 05.12.2019
3172 Clouds -9 1004 90 0 5.19 113 08:37 05.12.2019
3173 Clouds -8 1005 81 0 3.46 105 08:18 05.12.2019
3174 Clouds -8 1005 88 0 3.55 109 08:18 05.12.2019
3175 Clouds -8 1005 81 0 3.46 105 07:41 05.12.2019
3176 Clouds -8 1005 81 0 3.46 105 07:21 05.12.2019
3177 Clouds -8 1005 81 0 3.46 105 06:47 05.12.2019
3178 Clouds -8 1005 81 0 3.46 105 06:23 05.12.2019
3179 Clouds -8 1005 81 0 3.46 105 05:54 05.12.2019
3180 Clouds -8 1005 81 0 3.46 105 05:24 05.12.2019
3181 Clouds -8 1006 80 0 3.91 173 04:37 05.12.2019
3182 Clouds -8 1006 80 0 3.91 173 03:35 05.12.2019
3183 Clouds -8 1006 80 0 3.91 173 02:41 05.12.2019
3184 Clouds -9 1007 84 0 5.72 174 02:21 05.12.2019
3185 Clouds -9 1007 84 0 5.72 174 01:50 05.12.2019
3186 Clouds -9 1007 84 0 5.72 174 01:50 05.12.2019
3187 Clouds -9 1007 84 0 5.72 174 01:23 05.12.2019
3188 Clouds -9 1007 85 0 5.76 178 00:43 05.12.2019
3189 Clouds -9 1007 85 0 5.76 178 00:20 05.12.2019
3190 Clouds -9 1007 85 0 5.76 178 23:46 04.12.2019
3191 Clouds -9 1007 85 0 6.23 167 23:22 04.12.2019
3192 Clouds -9 1007 85 0 6.23 167 22:59 04.12.2019
3193 Clouds -9 1007 85 0 6.23 167 22:38 04.12.2019
3194 Clouds -9 1007 85 0 6.23 167 22:19 04.12.2019
3195 Clouds -9 1007 85 0 6.23 167 21:57 04.12.2019
3196 Clouds -9 1007 85 0 6.23 167 21:38 04.12.2019
3197 Clouds -9 1007 85 0 6.23 167 21:19 04.12.2019
3198 Clouds -9 1007 85 0 6.23 167 20:56 04.12.2019
3199 Clouds -9 1007 85 0 6.23 167 20:38 04.12.2019
3200 Clouds -9 1007 86 0 5.43 177 20:20 04.12.2019
3201 Clouds -9 1007 86 0 5.43 177 19:54 04.12.2019
3202 Clouds -9 1007 86 0 5.43 177 19:36 04.12.2019
3203 Clouds -9 1007 86 0 5.43 177 19:18 04.12.2019
3204 Clouds -9 1007 86 0 5.43 177 18:41 04.12.2019
3205 Clouds -9 1007 86 0 5.43 177 18:22 04.12.2019
3206 Clouds -9 1007 86 0 5.43 177 17:58 04.12.2019
3207 Clouds -9 1007 86 0 5.43 177 17:39 04.12.2019
3208 Clouds -9 1006 84 0 5.49 191 17:19 04.12.2019
3209 Clouds -9 1006 84 0 5.49 191 16:56 04.12.2019
3210 Clouds -9 1006 84 0 5.49 191 16:38 04.12.2019
3211 Clouds -9 1006 84 0 5.49 191 16:38 04.12.2019
3212 Clouds -9 1006 84 0 5.49 191 16:18 04.12.2019
3213 Clouds -9 1006 84 0 5.49 191 15:54 04.12.2019
3214 Clouds -9 1006 84 0 5.49 191 15:36 04.12.2019
3215 Clouds -9 1006 84 0 5.49 191 15:18 04.12.2019
3216 Clouds -9 1006 84 0 5.49 191 14:41 04.12.2019
3217 Clouds -9 1006 88 0 5.82 195 14:23 04.12.2019
3218 Clouds -9 1006 88 0 5.82 195 13:56 04.12.2019
3219 Clouds -9 1006 88 0 5.82 195 13:37 04.12.2019
3220 Clouds -10 1006 87 0 5.66 195 13:18 04.12.2019
3221 Clouds -10 1006 87 0 5.66 195 12:43 04.12.2019
3222 Clouds -10 1006 87 0 5.66 195 12:23 04.12.2019
3223 Clouds -10 1006 87 0 5.66 195 11:45 04.12.2019
3224 Clouds -10 1006 87 0 5.66 195 11:27 04.12.2019
3225 Clouds -11 1005 89 0 5.66 198 10:59 04.12.2019
3226 Clouds -11 1005 89 0 5.66 198 10:41 04.12.2019
3227 Clouds -11 1005 89 0 5.66 198 10:22 04.12.2019
3228 Clouds -11 1005 89 0 5.66 198 09:46 04.12.2019
3229 Clouds -11 1005 89 0 5.66 198 09:25 04.12.2019
3230 Clouds -11 1005 89 0 5.66 198 09:25 04.12.2019
3231 Clouds -11 1005 89 0 5.66 198 08:59 04.12.2019
3232 Clouds -11 1005 89 0 5.66 198 08:38 04.12.2019
3233 Clouds -11 1005 90 0 6.27 194 08:19 04.12.2019
3234 Clouds -11 1005 90 0 6.27 194 07:42 04.12.2019
3235 Clouds -11 1005 90 0 6.27 194 07:23 04.12.2019
3236 Clouds -11 1005 90 0 6.27 194 06:33 04.12.2019
3237 Clouds -11 1005 90 0 6.27 194 05:48 04.12.2019
3238 Clouds -11 1004 89 0 5.71 201 04:58 04.12.2019
3239 Clouds -11 1004 89 0 5.71 201 03:54 04.12.2019
3240 Clouds -11 1005 92 0 5.74 199 02:21 04.12.2019
3241 Clouds -12 1005 93 0 5.8 203 00:50 04.12.2019
3242 Clouds -12 1005 93 0 5.8 203 00:23 04.12.2019
3243 Clouds -12 1005 93 0 5.8 203 23:56 03.12.2019
3244 Clouds -12 1005 93 0 5.8 203 23:38 03.12.2019
3245 Clouds -12 1005 92 0 5.66 198 23:19 03.12.2019
3246 Clouds -12 1005 92 0 5.66 198 22:40 03.12.2019
3247 Clouds -12 1005 92 0 5.66 198 22:19 03.12.2019
3248 Clouds -12 1005 92 0 5.66 198 21:58 03.12.2019
3249 Clouds -12 1005 92 0 5.66 198 21:37 03.12.2019
3250 Clouds -12 1005 92 0 5.66 198 21:19 03.12.2019
3251 Clouds -12 1005 92 0 5.66 198 20:57 03.12.2019
3252 Clouds -12 1005 92 0 5.66 198 20:38 03.12.2019
3253 Clouds -11 1005 93 0 6.26 204 20:18 03.12.2019
3254 Clouds -11 1005 93 0 6.26 204 19:54 03.12.2019
3255 Clouds -11 1005 93 0 6.26 204 19:36 03.12.2019
3256 Clouds -11 1005 93 0 6.26 204 19:18 03.12.2019
3257 Clouds -11 1005 93 0 6.26 204 18:55 03.12.2019
3258 Clouds -11 1005 93 0 6.26 204 18:37 03.12.2019
3259 Clouds -11 1005 93 0 6.26 204 18:19 03.12.2019
3260 Clouds -11 1005 93 0 6.26 204 18:19 03.12.2019
3261 Clouds -11 1005 93 0 6.26 204 17:40 03.12.2019
3262 Clouds -11 1004 92 0 6.55 208 17:19 03.12.2019
3263 Clouds -11 1004 92 0 6.55 208 16:59 03.12.2019
3264 Clouds -11 1004 92 0 6.55 208 16:40 03.12.2019
3265 Clouds -11 1004 92 0 6.55 208 16:21 03.12.2019
3266 Clouds -11 1004 92 0 6.55 208 15:59 03.12.2019
3267 Clouds -11 1004 92 0 6.55 208 15:39 03.12.2019
3268 Clouds -11 1004 92 0 6.55 208 15:20 03.12.2019
3269 Clouds -11 1004 92 0 6.55 208 15:20 03.12.2019
3270 Clouds -11 1004 92 0 6.55 208 14:56 03.12.2019
3271 Clouds -11 1004 92 0 6.55 208 14:38 03.12.2019
3272 Clouds -11 1004 92 0 6.39 205 14:18 03.12.2019
3273 Clouds -11 1004 92 0 6.39 205 13:38 03.12.2019
3274 Clouds -11 1004 92 0 6.39 205 13:20 03.12.2019
3275 Clouds -10 1005 92 0 6.67 206 13:20 03.12.2019
3276 Clouds -10 1005 92 0 6.67 206 12:58 03.12.2019
3277 Clouds -10 1005 92 0 6.67 206 12:37 03.12.2019
3278 Clouds -10 1005 92 0 6.67 206 12:18 03.12.2019
3279 Clouds -10 1005 92 0 6.67 206 11:57 03.12.2019
3280 Clouds -10 1005 92 0 6.67 206 11:37 03.12.2019
3281 Clouds -10 1004 93 0 7.3 205 11:19 03.12.2019
3282 Clouds -10 1004 93 0 7.3 205 10:56 03.12.2019
3283 Clouds -10 1004 93 0 7.3 205 10:38 03.12.2019
3284 Clouds -10 1004 93 0 7.3 205 10:18 03.12.2019
3285 Clouds -10 1004 93 0 7.3 205 09:42 03.12.2019
3286 Clouds -10 1004 93 0 7.3 205 09:23 03.12.2019
3287 Clouds -10 1004 93 0 7.3 205 08:56 03.12.2019
3288 Clouds -10 1004 93 0 7.3 205 08:56 03.12.2019
3289 Clouds -10 1004 93 0 7.3 205 08:38 03.12.2019
3290 Clouds -10 1003 87 0 7.26 211 08:19 03.12.2019
3291 Clouds -10 1003 87 0 7.26 211 07:51 03.12.2019
3292 Clouds -10 1003 87 0 7.26 211 07:25 03.12.2019
3293 Clouds -10 1003 87 0 7.26 211 07:25 03.12.2019
3294 Clouds -10 1003 87 0 7.26 211 06:38 03.12.2019
3295 Clouds -10 1003 87 0 7.26 211 06:19 03.12.2019
3296 Clouds -8 1002 85 0 8.7 220 04:56 03.12.2019
3297 Clouds -8 1002 85 0 8.7 220 03:42 03.12.2019
3298 Clouds -8 1002 85 0 8.7 220 03:20 03.12.2019
3299 Clouds -8 1002 85 0 8.7 220 02:51 03.12.2019
3300 Clouds -8 1002 85 0 8.7 220 02:32 03.12.2019
3301 Clouds -7 1001 80 0 8.25 229 01:56 03.12.2019
3302 Clouds -7 1001 80 0 8.25 229 01:37 03.12.2019
3303 Clouds -7 1002 80 0 8.36 225 00:59 03.12.2019
3304 Clouds -7 1002 80 0 8.36 225 00:40 03.12.2019
3305 Clouds -7 1002 80 0 8.36 225 00:40 03.12.2019
3306 Clouds -7 1002 80 0 8.36 225 00:21 03.12.2019
3307 Clouds -7 1002 80 0 8.36 225 23:43 02.12.2019
3308 Snow -5 1000 86 0 8.74 244 23:21 02.12.2019
3309 Snow -5 1000 86 0 8.74 244 22:55 02.12.2019
3310 Snow -5 1000 86 0 8.74 244 22:37 02.12.2019
3311 Snow -5 1000 86 0 8.74 244 22:19 02.12.2019
3312 Snow -5 1000 86 0 8.74 244 21:39 02.12.2019
3313 Snow -5 1000 86 0 8.74 244 21:39 02.12.2019
3314 Snow -5 1000 86 0 8.74 244 21:39 02.12.2019
3315 Snow -5 1000 86 0 8.74 244 21:20 02.12.2019
3316 Snow -5 1000 86 0 8.74 244 20:57 02.12.2019
3317 Snow -5 1000 86 0 8.74 244 20:39 02.12.2019
3318 Snow -4 998 91 0 8.28 225 20:20 02.12.2019
3319 Snow -4 998 91 0 8.28 225 19:56 02.12.2019
3320 Snow -4 998 91 0 8.28 225 19:56 02.12.2019
3321 Snow -4 998 91 0 8.28 225 19:56 02.12.2019
3322 Snow -4 998 91 0 8.28 225 19:38 02.12.2019
3323 Snow -4 998 91 0 8.28 225 19:38 02.12.2019
3324 Snow -4 998 91 0 8.28 225 19:20 02.12.2019
3325 Snow -4 998 91 0 8.28 225 18:48 02.12.2019
3326 Snow -4 998 91 0 8.28 225 18:24 02.12.2019
3327 Snow -4 998 91 0 8.28 225 17:59 02.12.2019
3328 Snow -4 998 91 0 8.28 225 17:40 02.12.2019
3329 Snow -5 997 93 0 7.21 214 17:20 02.12.2019
3330 Snow -5 997 93 0 7.21 214 17:20 02.12.2019
3331 Snow -5 997 93 0 7.21 214 16:57 02.12.2019
3332 Snow -5 997 93 0 7.21 214 16:38 02.12.2019
3333 Snow -5 997 93 0 7.21 214 16:18 02.12.2019
3334 Snow -5 997 93 0 7.21 214 15:55 02.12.2019
3335 Snow -5 997 93 0 7.21 214 15:37 02.12.2019
3336 Snow -5 997 93 0 7.21 214 15:19 02.12.2019
3337 Snow -5 997 93 0 7.21 214 14:39 02.12.2019
3338 Snow -3 997 94 0 5.01 144 14:20 02.12.2019
3339 Snow -3 997 94 0 5.01 144 13:58 02.12.2019
3340 Snow -3 997 94 0 5.01 144 13:40 02.12.2019
3341 Snow -3 997 94 0 5.01 144 13:20 02.12.2019
3342 Snow -3 997 94 0 5.01 144 13:20 02.12.2019
3343 Snow -3 997 95 0 4.9 138 12:58 02.12.2019
3344 Snow -3 997 95 0 4.9 138 12:40 02.12.2019
3345 Snow -3 997 95 0 4.9 138 12:20 02.12.2019
3346 Snow -3 997 95 0 4.9 138 11:56 02.12.2019
3347 Snow -3 997 95 0 4.9 138 11:37 02.12.2019
3348 Snow -3 998 94 0 5.75 160 11:18 02.12.2019
3349 -273 0 0 0 0 0 10:55 02.12.2019
3350 Snow -3 998 94 0 5.75 160 10:36 02.12.2019
3351 Snow -3 998 94 0 5.75 160 10:18 02.12.2019
3352 Snow -3 998 94 0 5.75 160 09:41 02.12.2019
3353 Snow -3 998 94 0 5.75 160 09:19 02.12.2019
3354 Snow -3 998 94 0 5.75 160 08:57 02.12.2019
3355 Snow -3 998 94 0 5.75 160 08:38 02.12.2019
3356 Clouds -4 1000 86 0 6.74 175 08:20 02.12.2019
3357 Clouds -4 1000 86 0 6.74 175 07:42 02.12.2019
3358 Clouds -4 1000 86 0 6.74 175 07:21 02.12.2019
3359 Clouds -4 1000 86 0 6.74 175 06:56 02.12.2019
3360 Clouds -4 1000 86 0 6.74 175 06:37 02.12.2019
3361 Clouds -4 1000 86 0 6.74 175 05:25 02.12.2019
3362 Snow -4 999 86 0 7.37 176 04:21 02.12.2019
3363 Snow -4 999 86 0 7.37 176 02:51 02.12.2019
3364 Snow -4 999 86 0 7.37 176 02:26 02.12.2019
3365 Clouds -4 1000 89 0 7.45 186 01:25 02.12.2019
3366 Clouds -5 1001 87 0 7.51 188 00:55 02.12.2019
3367 Clouds -5 1001 87 0 7.51 188 00:24 02.12.2019
3368 Clouds -5 1001 87 0 7.51 188 23:45 01.12.2019
3369 Clouds -5 1001 87 0 7.51 188 23:23 01.12.2019
3370 Clouds -4 1001 87 0 8.45 196 22:58 01.12.2019
3371 Clouds -4 1001 87 0 8.45 196 22:39 01.12.2019
3372 Clouds -4 1001 87 0 8.45 196 22:20 01.12.2019
3373 Clouds -4 1001 87 0 8.45 196 21:58 01.12.2019
3374 Clouds -4 1001 87 0 8.45 196 21:40 01.12.2019
3375 Clouds -4 1001 87 0 8.45 196 21:22 01.12.2019
3376 Clouds -4 1001 87 0 8.45 196 20:59 01.12.2019
3377 Clouds -4 1001 87 0 8.45 196 20:59 01.12.2019
3378 Clouds -4 1001 87 0 8.45 196 20:41 01.12.2019
3379 Clouds -2 1001 89 0 7.78 199 20:23 01.12.2019
3380 Clouds -2 1001 89 0 7.78 199 19:59 01.12.2019
3381 Clouds -2 1001 89 0 7.78 199 19:40 01.12.2019
3382 Clouds -2 1001 89 0 7.78 199 19:21 01.12.2019
3383 Clouds -2 1001 89 0 7.78 199 18:57 01.12.2019
3384 Clouds -2 1001 89 0 7.78 199 18:39 01.12.2019
3385 Clouds -2 1001 89 0 7.78 199 18:20 01.12.2019
3386 Clouds -2 1001 89 0 7.78 199 17:59 01.12.2019
3387 Clouds -2 1001 89 0 7.78 199 17:41 01.12.2019
3388 Clouds -2 1000 88 0 8.53 196 17:23 01.12.2019
3389 Clouds -2 1000 88 0 8.53 196 17:23 01.12.2019
3390 Clouds -2 1000 88 0 8.53 196 16:56 01.12.2019
3391 Clouds -2 1000 88 0 8.53 196 16:38 01.12.2019
3392 Clouds -2 1000 88 0 8.53 196 16:20 01.12.2019
3393 Clouds -2 1000 88 0 8.53 196 15:46 01.12.2019
3394 Clouds -2 1000 88 0 8.53 196 15:28 01.12.2019
3395 Clouds -2 1000 88 0 8.53 196 14:43 01.12.2019
3396 Snow -3 1000 88 0 7.97 194 14:20 01.12.2019
3397 Snow -3 1000 88 0 7.97 194 13:59 01.12.2019
3398 Snow -3 1000 88 0 7.97 194 13:39 01.12.2019
3399 Snow -3 1000 88 0 7.97 194 13:19 01.12.2019
3400 Clouds -3 1001 88 0 8.34 196 12:43 01.12.2019
3401 Clouds -3 1001 88 0 8.34 196 11:58 01.12.2019
3402 Clouds -3 1001 88 0 8.34 196 11:39 01.12.2019
3403 Snow -2 1000 86 0 8.89 193 11:19 01.12.2019
3404 Snow -2 1000 86 0 8.89 193 10:43 01.12.2019
3405 Snow -2 1000 86 0 8.89 193 10:21 01.12.2019
3406 Snow -2 1000 86 0 8.89 193 09:57 01.12.2019
3407 Snow -2 1000 86 0 8.89 193 09:38 01.12.2019
3408 Snow -2 1000 86 0 8.89 193 09:20 01.12.2019
3409 Snow -2 1000 86 0 8.89 193 09:20 01.12.2019
3410 Snow -2 1000 86 0 8.89 193 08:44 01.12.2019
3411 Snow -3 1000 89 0 8.73 190 08:19 01.12.2019
3412 Snow -4 1000 90 0 7.07 186 07:50 01.12.2019
3413 Snow -4 1000 90 0 7.07 186 07:50 01.12.2019
3414 Snow -4 1000 90 0 7.07 186 07:30 01.12.2019
3415 Snow -4 1000 90 0 7.07 186 06:56 01.12.2019
3416 Snow -4 1000 90 0 7.07 186 06:25 01.12.2019
3417 Snow -4 1000 90 0 7.07 186 05:46 01.12.2019
3418 Snow -3 1000 91 0 7.52 190 04:34 01.12.2019
3419 Snow -3 1000 91 0 7.52 190 02:47 01.12.2019
3420 Snow -3 1000 91 0 7.52 190 02:29 01.12.2019
3421 Snow -1 1001 97 0 6.17 185 01:56 01.12.2019
3422 Snow -1 1001 97 0 6.17 185 01:38 01.12.2019
3423 Snow -1 1001 97 0 6.05 185 00:59 01.12.2019
3424 Snow -1 1001 97 0 6.05 185 00:39 01.12.2019
3425 Snow -1 1001 97 0 6.05 185 00:20 01.12.2019
3426 Snow -1 1001 97 0 6.05 185 23:41 30.11.2019
3427 Snow -1 1001 97 0 4.84 171 23:22 30.11.2019
3428 Snow -1 1001 97 0 4.84 171 22:49 30.11.2019
3429 Snow -1 1001 97 0 4.84 171 22:29 30.11.2019
3430 Snow -1 1001 97 0 4.84 171 21:57 30.11.2019
3431 Snow -1 1001 97 0 4.84 171 21:39 30.11.2019
3432 Snow -1 1001 97 0 4.84 171 21:19 30.11.2019
3433 Snow -1 1001 97 0 4.84 171 20:55 30.11.2019
3434 Snow -1 1001 97 0 4.84 171 20:36 30.11.2019
3435 Snow -1 1002 98 0 5.04 158 20:18 30.11.2019
3436 Snow -1 1002 98 0 5.04 158 19:54 30.11.2019
3437 Snow -1 1002 98 0 5.04 158 19:36 30.11.2019
3438 Snow -1 1002 98 0 5.04 158 19:18 30.11.2019
3439 Snow -1 1002 98 0 5.04 158 18:54 30.11.2019
3440 Snow -1 1002 98 0 5.04 158 18:54 30.11.2019
3441 Snow -1 1002 98 0 5.04 158 18:36 30.11.2019
3442 Snow -1 1002 98 0 5.04 158 18:18 30.11.2019
3443 Snow -1 1002 98 0 5.04 158 17:55 30.11.2019
3444 Snow -1 1002 98 0 5.04 158 17:36 30.11.2019
3445 Snow -6 1002 95 0 9.89 122 17:18 30.11.2019
3446 Snow -6 1002 95 0 9.89 122 16:41 30.11.2019
3447 Snow -6 1002 95 0 9.89 122 16:22 30.11.2019
3448 Snow -6 1002 95 0 9.89 122 15:55 30.11.2019
3449 Snow -6 1002 95 0 9.89 122 15:37 30.11.2019
3450 Snow -6 1002 95 0 9.89 122 15:18 30.11.2019
3451 Snow -6 1002 95 0 9.89 122 14:55 30.11.2019
3452 Snow -6 1002 95 0 9.89 122 14:37 30.11.2019
3453 Snow -7 1004 95 0 11.18 119 14:18 30.11.2019
3454 Snow -7 1004 95 0 11.18 119 13:45 30.11.2019
3455 Snow -7 1004 95 0 11.18 119 13:26 30.11.2019
3456 Snow -7 1003 95 0 10.42 119 12:58 30.11.2019
3457 Snow -7 1003 95 0 10.42 119 12:40 30.11.2019
3458 Snow -7 1003 95 0 10.42 119 12:21 30.11.2019
3459 Snow -7 1003 95 0 10.42 119 11:42 30.11.2019
3460 Clouds -8 1004 93 0 10.32 117 11:19 30.11.2019
3461 Clouds -8 1004 93 0 10.32 117 10:56 30.11.2019
3462 Clouds -8 1004 93 0 10.32 117 10:37 30.11.2019
3463 Clouds -8 1004 93 0 10.32 117 10:19 30.11.2019
3464 Clouds -8 1004 93 0 10.32 117 09:46 30.11.2019
3465 Clouds -8 1004 93 0 10.32 117 09:24 30.11.2019
3466 Clouds -8 1004 93 0 10.32 117 08:44 30.11.2019
3467 Clouds -8 1004 93 0 10.32 117 08:44 30.11.2019
3468 Clouds -8 1005 92 0 10.1 119 08:22 30.11.2019
3469 Clouds -8 1005 92 0 10.1 119 07:58 30.11.2019
3470 Clouds -8 1005 92 0 10.1 119 07:39 30.11.2019
3471 Clouds -8 1005 92 0 10.1 119 06:56 30.11.2019
3472 Clouds -8 1005 92 0 10.1 119 06:29 30.11.2019
3473 Clouds -8 1005 92 0 10.1 119 05:50 30.11.2019
3474 Clouds -8 1005 89 0 7.99 120 03:53 30.11.2019
3475 Clouds -8 1005 89 0 7.99 120 02:40 30.11.2019
3476 Snow -8 1005 89 0 7.83 135 02:22 30.11.2019
3477 Snow -8 1006 90 0 7.9 133 01:25 30.11.2019
3478 Snow -8 1006 90 0 7.9 133 01:25 30.11.2019
3479 Snow -8 1006 90 0 7.9 133 00:50 30.11.2019
3480 Snow -8 1006 90 0 7.9 133 00:31 30.11.2019
3481 Snow -8 1006 90 0 7.9 133 23:59 29.11.2019
3482 Snow -8 1006 90 0 7.9 133 23:40 29.11.2019
3483 Snow -8 1006 94 0 10.57 139 23:22 29.11.2019
3484 Snow -8 1006 94 0 10.57 139 22:45 29.11.2019
3485 Snow -8 1006 94 0 10.57 139 22:26 29.11.2019
3486 Snow -8 1006 94 0 10.57 139 21:44 29.11.2019
3487 Snow -8 1006 94 0 10.57 139 21:25 29.11.2019
3488 Snow -8 1006 94 0 10.57 139 20:58 29.11.2019
3489 Snow -8 1006 94 0 10.57 139 20:38 29.11.2019
3490 Snow -8 1008 94 0 11.79 141 20:19 29.11.2019
3491 Snow -8 1009 94 0 12.56 139 19:58 29.11.2019
3492 Snow -8 1009 94 0 12.56 139 19:39 29.11.2019
3493 Snow -8 1009 94 0 12.56 139 19:20 29.11.2019
3494 Snow -8 1009 94 0 12.56 139 18:57 29.11.2019
3495 Snow -8 1009 94 0 12.56 139 18:38 29.11.2019
3496 Snow -8 1009 94 0 12.56 139 18:19 29.11.2019
3497 Snow -8 1009 94 0 12.56 139 17:43 29.11.2019
3498 Snow -8 1009 94 0 12.56 139 17:24 29.11.2019
3499 Clouds -7 1011 65 0 9.69 142 16:57 29.11.2019
3500 Clouds -7 1011 65 0 9.69 142 16:38 29.11.2019
3501 Clouds -7 1011 65 0 9.69 142 16:18 29.11.2019
3502 Clouds -7 1011 65 0 9.69 142 15:41 29.11.2019
3503 Clouds -7 1011 65 0 9.69 142 15:22 29.11.2019
3504 Clouds -7 1011 65 0 9.69 142 14:56 29.11.2019
3505 Clouds -7 1011 65 0 9.69 142 14:38 29.11.2019
3506 Clouds -8 1014 64 0 7.27 148 14:19 29.11.2019
3507 Clouds -8 1014 64 0 7.27 148 13:41 29.11.2019
3508 Clouds -8 1013 66 0 7.45 142 13:21 29.11.2019
3509 Clouds -8 1013 66 0 7.45 142 12:57 29.11.2019
3510 Clouds -8 1013 66 0 7.45 142 12:39 29.11.2019
3511 Clouds -8 1013 66 0 7.45 142 12:39 29.11.2019
3512 Clouds -8 1013 66 0 7.45 142 12:20 29.11.2019
3513 Clouds -8 1013 66 0 7.45 142 11:54 29.11.2019
3514 Clouds -8 1013 66 0 7.45 142 11:36 29.11.2019
3515 Clouds -9 1015 70 0 5.24 166 11:18 29.11.2019
3516 Clouds -9 1015 70 0 5.24 166 10:55 29.11.2019
3517 Clouds -9 1015 70 0 5.24 166 10:36 29.11.2019
3518 Clouds -9 1015 70 0 5.24 166 10:18 29.11.2019
3519 Clouds -9 1015 70 0 5.24 166 09:41 29.11.2019
3520 Clouds -9 1015 70 0 5.24 166 09:22 29.11.2019
3521 Clouds -9 1015 70 0 5.24 166 08:59 29.11.2019
3522 Clouds -9 1015 70 0 5.24 166 08:38 29.11.2019
3523 Clouds -11 1016 90 0 7.24 201 08:20 29.11.2019
3524 Clouds -11 1016 90 0 7.24 201 07:55 29.11.2019
3525 Clouds -11 1016 90 0 7.24 201 07:37 29.11.2019
3526 Clouds -11 1016 90 0 7.24 201 07:18 29.11.2019
3527 Clouds -11 1016 90 0 7.24 201 06:41 29.11.2019
3528 Clouds -11 1016 90 0 7.24 201 05:47 29.11.2019
3529 Clouds -11 1016 90 0 7.24 201 05:23 29.11.2019
3530 Clouds -10 1017 92 0 7.2 205 04:20 29.11.2019
3531 Clouds -10 1017 92 0 7.2 205 03:21 29.11.2019
3532 Clouds -10 1017 92 0 7.2 205 02:28 29.11.2019
3533 Clouds -10 1017 92 0 5.8 210 01:51 29.11.2019
3534 Clouds -10 1017 92 0 5.8 210 01:25 29.11.2019
3535 Clouds -10 1017 90 0 5.79 207 00:42 29.11.2019
3536 Clouds -10 1017 90 0 5.79 207 00:20 29.11.2019
3537 Clouds -10 1017 90 0 5.79 207 23:46 28.11.2019
3538 Snow -9 1015 89 0 6.29 210 23:22 28.11.2019
3539 Snow -9 1015 89 0 6.29 210 22:59 28.11.2019
3540 Snow -9 1015 89 0 6.29 210 22:38 28.11.2019
3541 Snow -9 1015 89 0 6.29 210 22:38 28.11.2019
3542 Snow -9 1015 89 0 6.29 210 22:20 28.11.2019
3543 Snow -9 1015 89 0 6.29 210 21:58 28.11.2019
3544 Snow -9 1015 89 0 6.29 210 21:40 28.11.2019
3545 Snow -9 1015 89 0 6.29 210 21:20 28.11.2019
3546 Snow -9 1015 89 0 6.29 210 20:56 28.11.2019
3547 Snow -9 1015 89 0 6.29 210 20:38 28.11.2019
3548 Clouds -9 1015 76 0 1.01 217 20:18 28.11.2019
3549 Clouds -9 1015 76 0 1.01 217 19:55 28.11.2019
3550 Clouds -9 1015 76 0 1.01 217 19:36 28.11.2019
3551 Clouds -9 1015 76 0 1.01 217 19:18 28.11.2019
3552 Clouds -9 1015 76 0 1.01 217 18:55 28.11.2019
3553 Clouds -9 1015 76 0 1.01 217 18:37 28.11.2019
3554 Clouds -9 1015 76 0 1.01 217 18:18 28.11.2019
3555 Clouds -9 1015 76 0 1.01 217 17:41 28.11.2019
3556 Clouds -9 1015 76 0 1.01 217 17:23 28.11.2019
3557 Snow -9 1012 67 0 3.24 0 16:58 28.11.2019
3558 Snow -9 1012 67 0 3.24 0 16:38 28.11.2019
3559 Snow -9 1012 67 0 3.24 0 16:19 28.11.2019
3560 Snow -9 1012 67 0 3.24 0 15:55 28.11.2019
3561 Snow -9 1012 67 0 3.24 0 15:55 28.11.2019
3562 Snow -9 1012 67 0 3.24 0 15:36 28.11.2019
3563 Snow -9 1012 67 0 3.24 0 15:18 28.11.2019
3564 Snow -9 1012 67 0 3.24 0 14:41 28.11.2019
3565 Snow -8 1010 67 0 5.13 12 14:22 28.11.2019
3566 Snow -8 1010 67 0 5.13 12 13:59 28.11.2019
3567 Snow -8 1010 67 0 5.13 12 13:41 28.11.2019
3568 Snow -9 1011 72 0 6.09 10 13:21 28.11.2019
3569 Snow -9 1011 72 0 6.09 10 12:49 28.11.2019
3570 Snow -9 1011 72 0 6.09 10 12:29 28.11.2019
3571 Snow -9 1011 72 0 6.09 10 11:59 28.11.2019
3572 Snow -9 1011 72 0 6.09 10 11:40 28.11.2019
3573 Snow -9 1007 74 0 7.77 25 11:21 28.11.2019
3574 Snow -9 1007 74 0 7.77 25 10:59 28.11.2019
3575 Snow -9 1007 74 0 7.77 25 10:40 28.11.2019
3576 Snow -9 1007 74 0 7.77 25 10:20 28.11.2019
3577 Snow -9 1007 74 0 7.77 25 09:41 28.11.2019
3578 Snow -9 1007 74 0 7.77 25 09:23 28.11.2019
3579 Snow -9 1007 74 0 7.77 25 08:58 28.11.2019
3580 Snow -9 1007 74 0 7.77 25 08:39 28.11.2019
3581 Snow -8 1003 83 0 10.73 47 08:21 28.11.2019
3582 Snow -8 1003 83 0 10.73 47 07:42 28.11.2019
3583 Snow -8 1003 83 0 10.73 47 07:24 28.11.2019
3584 Snow -8 1003 83 0 10.73 47 06:51 28.11.2019
3585 Snow -8 1003 83 0 10.73 47 06:31 28.11.2019
3586 Snow -8 1003 83 0 10.73 47 05:51 28.11.2019
3587 Snow -8 999 86 0 12.87 60 05:18 28.11.2019
3588 Snow -8 999 86 0 12.87 60 05:18 28.11.2019
3589 Snow -8 999 86 0 12.87 60 02:50 28.11.2019
3590 Snow -8 995 85 0 12.93 73 01:50 28.11.2019
3591 Snow -8 996 85 0 12.91 74 00:48 28.11.2019
3592 Snow -8 996 85 0 12.91 74 00:24 28.11.2019
3593 Snow -8 996 85 0 12.91 74 23:55 27.11.2019
3594 Snow -8 996 85 0 12.91 74 23:37 27.11.2019
3595 Snow -8 996 85 0 12.91 74 23:37 27.11.2019
3596 Snow -7 994 89 0 12.67 86 23:19 27.11.2019
3597 Snow -7 994 89 0 12.67 86 22:39 27.11.2019
3598 Snow -7 994 89 0 12.67 86 22:20 27.11.2019
3599 Snow -7 994 89 0 12.67 86 21:56 27.11.2019
3600 Snow -7 994 89 0 12.67 86 21:38 27.11.2019
3601 Snow -7 994 89 0 12.67 86 21:38 27.11.2019
3602 Snow -7 994 89 0 12.67 86 21:19 27.11.2019
3603 Snow -7 994 89 0 12.67 86 20:59 27.11.2019
3604 Snow -7 994 89 0 12.67 86 20:59 27.11.2019
3605 Snow -7 994 89 0 12.67 86 20:40 27.11.2019
3606 Snow -7 995 92 0 11.88 112 20:21 27.11.2019
3607 Snow -7 995 92 0 11.88 112 19:58 27.11.2019
3608 Snow -7 995 92 0 11.88 112 19:40 27.11.2019
3609 Snow -7 995 92 0 11.88 112 19:22 27.11.2019
3610 Snow -7 995 92 0 11.88 112 18:59 27.11.2019
3611 Snow -7 995 92 0 11.88 112 18:38 27.11.2019
3612 Snow -7 995 92 0 11.88 112 18:19 27.11.2019
3613 Snow -7 995 92 0 11.88 112 17:58 27.11.2019
3614 Snow -7 995 92 0 11.88 112 17:40 27.11.2019
3615 Snow -6 996 92 0 11.05 116 17:21 27.11.2019
3616 Snow -6 996 92 0 11.05 116 16:57 27.11.2019
3617 -273 0 0 0 0 0 16:38 27.11.2019
3618 Snow -6 996 92 0 11.05 116 16:20 27.11.2019
3619 Snow -6 996 92 0 11.05 116 16:20 27.11.2019
3620 Snow -6 996 92 0 11.05 116 15:57 27.11.2019
3621 Snow -6 996 92 0 11.05 116 15:39 27.11.2019
3622 Snow -6 996 92 0 11.05 116 15:20 27.11.2019
3623 Snow -6 996 92 0 11.05 116 14:57 27.11.2019
3624 Snow -6 996 92 0 11.05 116 14:39 27.11.2019
3625 Clouds -6 998 83 0 11.24 113 14:21 27.11.2019
3626 Clouds -6 998 83 0 11.24 113 13:57 27.11.2019
3627 Clouds -6 998 83 0 11.24 113 13:38 27.11.2019
3628 Clouds -6 998 83 0 11.12 108 13:19 27.11.2019
3629 Clouds -6 998 83 0 11.12 108 12:56 27.11.2019
3630 Clouds -6 998 83 0 11.12 108 12:38 27.11.2019
3631 Clouds -6 998 83 0 11.12 108 12:18 27.11.2019
3632 Clouds -6 998 83 0 11.12 108 11:38 27.11.2019
3633 Clouds -6 1000 77 0 9.08 124 11:19 27.11.2019
3634 Clouds -6 1000 77 0 9.08 124 10:57 27.11.2019
3635 Clouds -6 1000 77 0 9.08 124 10:39 27.11.2019
3636 Clouds -6 1000 77 0 9.08 124 10:21 27.11.2019
3637 Clouds -6 1000 77 0 9.08 124 09:43 27.11.2019
3638 Clouds -6 1000 77 0 9.08 124 09:25 27.11.2019
3639 Clouds -6 1000 77 0 9.08 124 08:43 27.11.2019
3640 Clouds -6 1000 77 0 9.08 124 08:25 27.11.2019
3641 Clouds -5 1001 69 0 6.12 109 07:59 27.11.2019
3642 Clouds -5 1001 69 0 6.12 109 07:41 27.11.2019
3643 Clouds -5 1001 69 0 6.12 109 07:21 27.11.2019
3644 Clouds -5 1001 69 0 6.12 109 06:46 27.11.2019
3645 Clouds -5 1001 69 0 6.12 109 06:26 27.11.2019
3646 Clouds -5 1001 69 0 6.12 109 05:27 27.11.2019
3647 Clouds -6 1001 68 0 3.78 100 04:59 27.11.2019
3648 Clouds -6 1001 68 0 3.78 100 04:39 27.11.2019
3649 Clouds -6 1001 68 0 3.78 100 03:51 27.11.2019
3650 Clouds -6 1001 68 0 3.78 100 03:22 27.11.2019
3651 Clouds -6 1001 68 0 3.78 100 02:54 27.11.2019
3652 Clouds -6 1001 71 0 3.78 62 01:35 27.11.2019
3653 Clouds -5 1001 72 0 4.1 58 00:44 27.11.2019
3654 Clouds -5 1001 72 0 4.1 58 00:25 27.11.2019
3655 Clouds -5 1001 72 0 4.1 58 23:47 26.11.2019
3656 Clouds -5 1001 72 0 4.1 58 23:26 26.11.2019
3657 Clouds -5 999 79 0 5.76 27 22:56 26.11.2019
3658 Clouds -5 999 79 0 5.76 27 22:38 26.11.2019
3659 Clouds -5 999 79 0 5.76 27 22:19 26.11.2019
3660 Clouds -5 999 79 0 5.76 27 21:57 26.11.2019
3661 Clouds -5 999 79 0 5.76 27 21:37 26.11.2019
3662 Clouds -5 999 79 0 5.76 27 21:19 26.11.2019
3663 Clouds -5 999 79 0 5.76 27 21:19 26.11.2019
3664 Clouds -5 999 79 0 5.76 27 20:54 26.11.2019
3665 Clouds -5 999 79 0 5.76 27 20:36 26.11.2019
3666 Clouds -4 999 86 0 7.51 360 20:18 26.11.2019
3667 Clouds -4 999 86 0 7.51 360 19:54 26.11.2019
3668 Clouds -4 999 86 0 7.51 360 19:36 26.11.2019
3669 Clouds -4 999 86 0 7.51 360 19:18 26.11.2019
3670 Clouds -4 999 86 0 7.51 360 18:54 26.11.2019
3671 Clouds -4 999 86 0 7.51 360 18:36 26.11.2019
3672 Clouds -4 999 86 0 7.51 360 18:18 26.11.2019
3673 Clouds -4 999 86 0 7.51 360 17:41 26.11.2019
3674 Clouds -4 999 86 0 7.51 360 17:23 26.11.2019
3675 Clouds -4 999 86 0 7.51 360 17:23 26.11.2019
3676 Snow -2 997 94 0 6.34 343 16:57 26.11.2019
3677 Snow -2 997 94 0 6.34 343 16:38 26.11.2019
3678 Snow -2 997 94 0 6.34 343 16:38 26.11.2019
3679 Snow -2 997 94 0 6.34 343 16:19 26.11.2019
3680 Snow -2 997 94 0 6.34 343 15:59 26.11.2019
3681 Snow -2 997 94 0 6.34 343 15:59 26.11.2019
3682 Snow -2 997 94 0 6.34 343 15:38 26.11.2019
3683 Snow -2 997 94 0 6.34 343 15:20 26.11.2019
3684 Snow -2 997 94 0 6.34 343 14:59 26.11.2019
3685 Snow -2 997 94 0 6.34 343 14:41 26.11.2019
3686 Snow -2 998 95 0 11.77 229 14:22 26.11.2019
3687 Snow -2 998 95 0 11.77 229 13:43 26.11.2019
3688 Snow -2 998 96 0 11.43 235 13:23 26.11.2019
3689 Snow -2 998 96 0 11.43 235 12:54 26.11.2019
3690 Snow -2 998 96 0 11.43 235 12:36 26.11.2019
3691 Snow -2 998 96 0 11.43 235 12:18 26.11.2019
3692 Snow -2 998 96 0 11.43 235 11:54 26.11.2019
3693 Snow -2 998 96 0 11.43 235 11:36 26.11.2019
3694 Snow -2 998 95 0 12.48 232 11:18 26.11.2019
3695 Snow -2 998 95 0 12.48 232 10:54 26.11.2019
3696 Snow -2 998 95 0 12.48 232 10:36 26.11.2019
3697 Snow -2 998 95 0 12.48 232 10:18 26.11.2019
3698 Snow -2 998 95 0 12.48 232 09:42 26.11.2019
3699 Snow -2 998 95 0 12.48 232 09:23 26.11.2019
3700 Snow -2 998 95 0 12.48 232 08:46 26.11.2019
3701 Snow -2 998 95 0 12.48 232 08:27 26.11.2019
3702 Snow -1 999 97 0 10.25 237 07:57 26.11.2019
3703 Snow -1 999 97 0 10.25 237 07:36 26.11.2019
3704 Snow -1 999 97 0 10.25 237 07:18 26.11.2019
3705 Snow -1 999 97 0 10.25 237 06:41 26.11.2019
3706 Snow -1 999 97 0 10.25 237 05:58 26.11.2019
3707 Snow -1 999 97 0 11.26 240 04:57 26.11.2019
3708 Snow -1 999 97 0 11.26 240 03:21 26.11.2019
3709 Snow -1 1000 98 0 11.12 246 01:36 26.11.2019
3710 Snow -1 1000 98 0 11.12 246 01:18 26.11.2019
3711 Snow -1 1000 98 0 11.74 241 00:40 26.11.2019
3712 Snow -1 1000 98 0 11.74 241 23:56 25.11.2019
3713 Snow -1 1000 98 0 11.74 241 23:37 25.11.2019
3714 Snow -1 1000 98 0 10.34 243 23:18 25.11.2019
3715 Snow -1 1000 98 0 10.34 243 22:39 25.11.2019
3716 Snow -1 1000 98 0 10.34 243 22:19 25.11.2019
3717 Snow -1 1000 98 0 10.34 243 21:59 25.11.2019
3718 Snow -1 1000 98 0 10.34 243 21:40 25.11.2019
3719 Snow -1 1000 98 0 10.34 243 21:22 25.11.2019
3720 Snow -1 1000 98 0 10.34 243 20:58 25.11.2019
3721 Snow -1 1000 98 0 10.34 243 20:40 25.11.2019
3722 Snow -1 1000 98 0 10.34 243 20:40 25.11.2019
3723 Snow -1 1002 97 0 9.14 251 20:20 25.11.2019
3724 Snow -1 1002 97 0 9.14 251 19:56 25.11.2019
3725 Snow -1 1002 97 0 9.14 251 19:38 25.11.2019
3726 Snow -1 1002 97 0 9.14 251 19:19 25.11.2019
3727 Snow -1 1002 97 0 9.14 251 18:57 25.11.2019
3728 Snow -1 1002 97 0 9.14 251 18:39 25.11.2019
3729 Snow -1 1002 97 0 9.14 251 18:21 25.11.2019
3730 Snow -1 1002 97 0 9.14 251 17:58 25.11.2019
3731 Snow -1 1002 97 0 9.14 251 17:39 25.11.2019
3732 Snow -2 1002 96 0 12.14 234 17:20 25.11.2019
3733 Snow -2 1002 96 0 12.14 234 16:57 25.11.2019
3734 Snow -2 1002 96 0 12.14 234 16:39 25.11.2019
3735 Snow -2 1002 96 0 12.14 234 16:21 25.11.2019
3736 Snow -2 1002 96 0 12.14 234 15:55 25.11.2019
3737 Snow -2 1002 96 0 12.14 234 15:37 25.11.2019
3738 Snow -2 1002 96 0 12.14 234 15:18 25.11.2019
3739 Snow -2 1002 96 0 12.14 234 14:42 25.11.2019
3740 Snow -2 1002 96 0 12.14 234 14:23 25.11.2019
3741 Snow -3 1004 93 0 12.74 227 13:56 25.11.2019
3742 Snow -3 1004 93 0 12.74 227 13:36 25.11.2019
3743 Snow -3 1004 93 0 12.72 229 13:18 25.11.2019
3744 Snow -3 1004 93 0 12.74 227 13:18 25.11.2019
3745 Snow -3 1004 93 0 12.72 229 12:55 25.11.2019
3746 Snow -3 1004 93 0 12.72 229 12:36 25.11.2019
3747 Snow -3 1004 93 0 12.72 229 12:18 25.11.2019
3748 Snow -3 1004 93 0 12.72 229 11:40 25.11.2019
3749 Snow -3 1004 93 0 12.72 229 11:40 25.11.2019
3750 Snow -4 1005 90 0 13.19 227 11:21 25.11.2019
3751 Snow -4 1005 90 0 13.19 227 10:57 25.11.2019
3752 Snow -4 1005 90 0 13.19 227 10:38 25.11.2019
3753 Snow -4 1005 90 0 13.19 227 10:18 25.11.2019
3754 Snow -4 1005 90 0 13.19 227 09:42 25.11.2019
3755 Snow -4 1005 90 0 13.19 227 09:23 25.11.2019
3756 Snow -4 1005 90 0 13.19 227 08:42 25.11.2019
3757 Snow -4 1005 90 0 13.19 227 08:23 25.11.2019
3758 Snow -4 1007 93 0 12.93 233 07:47 25.11.2019
3759 Snow -4 1007 93 0 12.93 233 07:29 25.11.2019
3760 Snow -4 1007 93 0 12.93 233 06:59 25.11.2019
3761 Snow -4 1007 93 0 12.93 233 06:24 25.11.2019
3762 Snow -4 1007 93 0 12.93 233 05:51 25.11.2019
3763 Snow -4 1007 93 0 12.93 233 05:31 25.11.2019
3764 Snow -4 1008 92 0 13.71 237 04:48 25.11.2019
3765 Snow -4 1008 92 0 13.71 237 02:36 25.11.2019
3766 Snow -3 1009 92 0 14.13 235 01:43 25.11.2019
3767 Snow -4 1010 92 0 13.44 235 01:24 25.11.2019
3768 Snow -4 1010 92 0 13.44 235 00:45 25.11.2019
3769 Snow -4 1010 92 0 13.44 235 00:20 25.11.2019
3770 Snow -4 1010 92 0 13.44 235 23:44 24.11.2019
3771 Snow -3 1011 91 0 13.15 242 23:20 24.11.2019
3772 Snow -3 1011 91 0 13.15 242 22:57 24.11.2019
3773 Snow -3 1011 91 0 13.15 242 22:39 24.11.2019
3774 Snow -3 1011 91 0 13.15 242 22:19 24.11.2019
3775 Snow -3 1011 91 0 13.15 242 21:57 24.11.2019
3776 Snow -3 1011 91 0 13.15 242 21:38 24.11.2019
3777 Snow -3 1011 91 0 13.15 242 21:20 24.11.2019
3778 Snow -3 1011 91 0 13.15 242 20:56 24.11.2019
3779 Snow -3 1011 91 0 13.15 242 20:37 24.11.2019
3780 Clouds -3 1012 88 0 13.75 244 20:18 24.11.2019
3781 Clouds -3 1012 88 0 13.75 244 19:56 24.11.2019
3782 Clouds -3 1012 88 0 13.75 244 19:38 24.11.2019
3783 Clouds -3 1012 88 0 13.75 244 19:19 24.11.2019
3784 Clouds -3 1012 88 0 13.75 244 19:19 24.11.2019
3785 Clouds -3 1012 88 0 13.75 244 18:56 24.11.2019
3786 Clouds -3 1012 88 0 13.75 244 18:36 24.11.2019
3787 Clouds -3 1012 88 0 13.75 244 18:18 24.11.2019
3788 Clouds -3 1012 88 0 13.75 244 18:18 24.11.2019
3789 Clouds -3 1012 88 0 13.75 244 17:55 24.11.2019
3790 Clouds -3 1012 88 0 13.75 244 17:36 24.11.2019
3791 Snow -2 1014 87 0 13.46 249 17:18 24.11.2019
3792 Snow -2 1014 87 0 13.46 249 16:54 24.11.2019
3793 Snow -2 1014 87 0 13.46 249 16:36 24.11.2019
3794 Snow -2 1014 87 0 13.46 249 16:18 24.11.2019
3795 Snow -2 1014 87 0 13.46 249 15:42 24.11.2019
3796 Snow -2 1014 87 0 13.46 249 15:24 24.11.2019
3797 Snow -2 1014 87 0 13.46 249 15:24 24.11.2019
3798 Snow -2 1014 87 0 13.46 249 14:56 24.11.2019
3799 Snow -2 1014 87 0 13.46 249 14:38 24.11.2019
3800 Snow -1 1016 93 0 12.25 248 14:18 24.11.2019
3801 Snow -1 1016 93 0 12.25 248 13:39 24.11.2019
3802 Snow -2 1016 94 0 11.56 249 13:21 24.11.2019
3803 Snow -2 1016 94 0 11.56 249 12:57 24.11.2019
3804 Snow -2 1016 94 0 11.56 249 12:39 24.11.2019
3805 Snow -2 1016 94 0 11.56 249 12:18 24.11.2019
3806 Snow -2 1016 94 0 11.56 249 11:55 24.11.2019
3807 Snow -2 1016 94 0 11.56 249 11:36 24.11.2019
3808 Clouds -3 1018 92 0 11.04 229 11:18 24.11.2019
3809 Clouds -3 1018 92 0 11.04 229 10:45 24.11.2019
3810 Clouds -3 1018 92 0 11.04 229 10:26 24.11.2019
3811 Clouds -3 1018 92 0 11.04 229 09:54 24.11.2019
3812 Clouds -3 1018 92 0 11.04 229 09:36 24.11.2019
3813 Clouds -3 1018 92 0 11.04 229 09:18 24.11.2019
3814 Clouds -3 1018 92 0 11.04 229 09:18 24.11.2019
3815 Clouds -3 1018 92 0 11.04 229 08:42 24.11.2019
3816 Clouds -4 1020 91 0 10.63 218 08:21 24.11.2019
3817 Clouds -4 1020 91 0 10.63 218 07:52 24.11.2019
3818 Clouds -4 1020 91 0 10.63 218 07:34 24.11.2019
3819 Clouds -4 1020 91 0 10.63 218 06:55 24.11.2019
3820 Clouds -4 1020 91 0 10.63 218 05:47 24.11.2019
3821 Clouds -6 1021 93 0 10.31 220 04:45 24.11.2019
3822 Clouds -6 1021 93 0 10.31 220 02:50 24.11.2019
3823 Clouds -7 1024 90 0 8.53 217 01:57 24.11.2019
3824 Clouds -7 1024 90 0 8.53 217 01:39 24.11.2019
3825 Clouds -6 1024 90 0 8.36 222 01:20 24.11.2019
3826 Clouds -6 1024 90 0 8.36 222 00:45 24.11.2019
3827 Clouds -6 1024 90 0 8.36 222 00:22 24.11.2019
3828 Clouds -6 1024 90 0 8.36 222 23:44 23.11.2019
3829 Clouds -7 1025 89 0 6.81 217 23:21 23.11.2019
3830 Clouds -7 1025 89 0 6.81 217 22:57 23.11.2019
3831 Clouds -7 1025 89 0 6.81 217 22:38 23.11.2019
3832 Clouds -7 1025 89 0 6.81 217 22:38 23.11.2019
3833 Clouds -7 1025 89 0 6.81 217 22:20 23.11.2019
3834 Clouds -7 1025 89 0 6.81 217 21:57 23.11.2019
3835 Clouds -7 1025 89 0 6.81 217 21:39 23.11.2019
3836 Clouds -7 1025 89 0 6.81 217 21:21 23.11.2019
3837 Clouds -7 1025 89 0 6.81 217 21:21 23.11.2019
3838 Clouds -7 1025 89 0 6.81 217 20:40 23.11.2019
3839 Clouds -6 1025 86 0 4.46 194 20:21 23.11.2019
3840 Clouds -6 1025 86 0 4.46 194 20:21 23.11.2019
3841 Clouds -6 1025 87 0 4.69 208 19:58 23.11.2019
3842 Clouds -6 1025 87 0 4.69 208 19:39 23.11.2019
3843 Clouds -6 1025 87 0 4.69 208 19:19 23.11.2019
3844 Clouds -6 1025 87 0 4.69 208 18:59 23.11.2019
3845 Clouds -6 1025 87 0 4.69 208 18:39 23.11.2019
3846 Clouds -6 1025 87 0 4.69 208 18:20 23.11.2019
3847 Clouds -6 1025 87 0 4.69 208 17:45 23.11.2019
3848 Clouds -6 1025 87 0 4.69 208 17:23 23.11.2019
3849 Snow -7 1025 89 0 4.59 152 16:57 23.11.2019
3850 Snow -7 1025 89 0 4.59 152 16:39 23.11.2019
3851 Snow -7 1025 89 0 4.59 152 16:21 23.11.2019
3852 Snow -7 1025 89 0 4.59 152 15:59 23.11.2019
3853 Snow -7 1025 89 0 4.59 152 15:39 23.11.2019
3854 Snow -7 1025 89 0 4.59 152 15:19 23.11.2019
3855 Snow -7 1025 89 0 4.59 152 14:57 23.11.2019
3856 Snow -7 1025 89 0 4.59 152 14:39 23.11.2019
3857 Clouds -6 1025 83 0 4.92 136 14:21 23.11.2019
3858 Clouds -6 1025 83 0 4.92 136 13:54 23.11.2019
3859 Clouds -6 1025 83 0 4.92 136 13:36 23.11.2019
3860 Clouds -6 1025 83 0 4.94 137 13:18 23.11.2019
3861 Clouds -6 1025 83 0 4.94 137 12:41 23.11.2019
3862 Clouds -6 1025 83 0 4.94 137 12:22 23.11.2019
3863 Clouds -6 1025 83 0 4.94 137 11:44 23.11.2019
3864 Clouds -6 1025 83 0 4.94 137 11:23 23.11.2019
3865 Clouds -5 1024 82 0 4.87 114 10:45 23.11.2019
3866 Clouds -5 1024 82 0 4.87 114 10:23 23.11.2019
3867 Clouds -5 1024 82 0 4.87 114 09:58 23.11.2019
3868 Clouds -5 1024 82 0 4.87 114 09:39 23.11.2019
3869 Clouds -5 1024 82 0 4.87 114 09:18 23.11.2019
3870 Clouds -5 1024 82 0 4.87 114 08:41 23.11.2019
3871 Clouds -4 1023 89 0 7 86 08:18 23.11.2019
3872 Clouds -4 1023 89 0 7 86 07:41 23.11.2019
3873 Clouds -4 1023 89 0 7 86 06:52 23.11.2019
3874 Clouds -4 1023 89 0 7 86 06:26 23.11.2019
3875 Clouds -4 1023 89 0 7 86 05:57 23.11.2019
3876 Clouds -4 1023 89 0 7 86 05:31 23.11.2019
3877 Clear -2 1020 81 0 4.9 41 04:54 23.11.2019
3878 Clear -2 1020 81 0 4.9 41 04:31 23.11.2019
3879 Clear -2 1020 81 0 4.9 41 03:25 23.11.2019
3880 Clear -2 1020 81 0 4.9 41 02:31 23.11.2019
3881 Clouds -2 1019 77 0 5.01 46 01:39 23.11.2019
3882 Snow -2 1018 77 0 4.84 52 00:45 23.11.2019
3883 Snow -2 1018 77 0 4.84 52 00:19 23.11.2019
3884 Snow -2 1018 77 0 4.84 52 23:43 22.11.2019
3885 Snow -3 1016 91 0 4.74 59 23:23 22.11.2019
3886 Snow -3 1016 91 0 4.74 59 23:00 22.11.2019
3887 Snow -3 1016 91 0 4.74 59 22:59 22.11.2019
3888 Snow -3 1016 91 0 4.74 59 22:59 22.11.2019
3889 Snow -3 1016 91 0 4.74 59 22:41 22.11.2019
3890 Snow -3 1016 91 0 4.74 59 22:23 22.11.2019
3891 Snow -3 1016 91 0 4.74 59 21:59 22.11.2019
3892 Snow -3 1016 91 0 4.74 59 21:40 22.11.2019
3893 Snow -3 1016 91 0 4.74 59 21:20 22.11.2019
3894 Snow -3 1016 91 0 4.74 59 20:44 22.11.2019
3895 Snow -2 1015 96 0 4.86 52 20:23 22.11.2019
3896 Snow -2 1015 96 0 4.86 52 19:58 22.11.2019
3897 Snow -2 1015 96 0 4.86 52 19:39 22.11.2019
3898 Snow -2 1015 96 0 4.86 52 19:19 22.11.2019
3899 Snow -2 1015 96 0 4.86 52 18:59 22.11.2019
3900 Snow -2 1015 96 0 4.86 52 18:37 22.11.2019
3901 Snow -2 1015 96 0 4.86 52 18:18 22.11.2019
3902 Snow -2 1015 96 0 4.86 52 17:41 22.11.2019
3903 Snow -1 1014 98 0 6.35 300 17:22 22.11.2019
3904 Snow -1 1014 98 0 6.35 300 16:48 22.11.2019
3905 Snow -1 1014 98 0 6.35 300 16:30 22.11.2019
3906 Snow -1 1014 98 0 6.35 300 15:55 22.11.2019
3907 Snow -1 1014 98 0 6.35 300 15:37 22.11.2019
3908 Snow -1 1014 98 0 6.35 300 15:19 22.11.2019
3909 Snow -1 1014 98 0 6.35 300 14:54 22.11.2019
3910 Snow -1 1014 98 0 6.35 300 14:36 22.11.2019
3911 Snow 0 1014 97 0 8.16 286 14:18 22.11.2019
3912 Snow 0 1014 97 0 8.16 286 13:38 22.11.2019
3913 Snow 0 1014 98 0 8.54 291 13:19 22.11.2019
3914 Snow 0 1014 98 0 8.54 291 12:58 22.11.2019
3915 Snow 0 1014 98 0 8.54 291 12:40 22.11.2019
3916 Snow 0 1014 98 0 8.54 291 12:19 22.11.2019
3917 Snow 0 1014 98 0 8.54 291 11:56 22.11.2019
3918 Snow 0 1014 98 0 8.54 291 11:36 22.11.2019
3919 Snow 0 1014 98 0 8.54 291 11:36 22.11.2019
3920 Snow -1 1014 98 0 7.41 296 11:18 22.11.2019
3921 Snow -1 1014 98 0 7.41 296 10:42 22.11.2019
3922 Snow -1 1014 98 0 7.41 296 10:23 22.11.2019
3923 Snow -1 1014 98 0 7.41 296 09:59 22.11.2019
3924 Snow -1 1014 98 0 7.41 296 09:40 22.11.2019
3925 Snow -1 1014 98 0 7.41 296 09:21 22.11.2019
3926 Snow -1 1014 98 0 7.41 296 08:57 22.11.2019
3927 Snow -1 1014 98 0 7.41 296 08:38 22.11.2019
3928 Snow -1 1014 98 0 6.08 297 08:20 22.11.2019
3929 Snow -1 1014 98 0 6.08 297 07:41 22.11.2019
3930 Snow -1 1014 98 0 6.08 297 07:19 22.11.2019
3931 Snow -1 1014 98 0 6.08 297 06:42 22.11.2019
3932 Snow -1 1014 98 0 6.08 297 06:21 22.11.2019
3933 Snow -1 1014 98 0 6.08 297 05:32 22.11.2019
3934 Snow -2 1013 97 0 5.44 265 03:25 22.11.2019
3935 Snow -2 1013 97 0 5.44 265 03:25 22.11.2019
3936 Snow -2 1013 97 0 5.44 265 02:39 22.11.2019
3937 Clouds -2 1016 95 0 5.85 292 02:20 22.11.2019
3938 Clouds -2 1016 95 0 5.85 292 01:43 22.11.2019
3939 Clouds -2 1016 96 0 4.83 283 01:18 22.11.2019
3940 Clouds -2 1016 96 0 4.83 283 00:40 22.11.2019
3941 Clouds -2 1016 96 0 4.83 283 00:19 22.11.2019
3942 Clouds -2 1016 96 0 4.83 283 23:43 21.11.2019
3943 Clouds -2 1016 96 0 4.83 283 23:24 21.11.2019
3944 Snow -3 1016 94 0 6.36 238 22:56 21.11.2019
3945 Snow -3 1016 94 0 6.36 238 22:37 21.11.2019
3946 Snow -3 1016 94 0 6.36 238 22:19 21.11.2019
3947 Snow -3 1016 94 0 6.36 238 21:54 21.11.2019
3948 Snow -3 1016 94 0 6.36 238 21:36 21.11.2019
3949 Snow -3 1016 94 0 6.36 238 21:18 21.11.2019
3950 Snow -3 1016 94 0 6.36 238 20:57 21.11.2019
3951 Snow -3 1016 94 0 6.36 238 20:37 21.11.2019
3952 Snow -4 1018 93 0 6.29 229 20:18 21.11.2019
3953 Clouds -4 1018 93 0 6.48 235 19:55 21.11.2019
3954 Clouds -4 1018 93 0 6.48 235 19:55 21.11.2019
3955 Clouds -4 1018 93 0 6.48 235 19:36 21.11.2019
3956 Clouds -4 1018 93 0 6.48 235 19:18 21.11.2019
3957 Clouds -4 1018 93 0 6.48 235 18:41 21.11.2019
3958 Clouds -4 1018 93 0 6.48 235 18:21 21.11.2019
3959 Clouds -4 1018 93 0 6.48 235 17:58 21.11.2019
3960 Clouds -4 1018 93 0 6.48 235 17:39 21.11.2019
3961 Snow -4 1018 92 0 7.22 227 17:21 21.11.2019
3962 Snow -4 1018 92 0 7.22 227 16:57 21.11.2019
3963 Snow -4 1018 92 0 7.22 227 16:57 21.11.2019
3964 Snow -4 1018 92 0 7.22 227 16:39 21.11.2019
3965 Snow -4 1018 92 0 7.22 227 16:20 21.11.2019
3966 Snow -4 1018 92 0 7.22 227 15:44 21.11.2019
3967 Snow -4 1018 92 0 7.22 227 15:21 21.11.2019
3968 Snow -4 1018 92 0 7.22 227 14:58 21.11.2019
3969 Snow -4 1018 92 0 7.22 227 14:38 21.11.2019
3970 Snow -4 1019 94 0 8.2 224 14:20 21.11.2019
3971 Snow -4 1019 94 0 8.2 224 13:57 21.11.2019
3972 Snow -4 1019 94 0 8.2 224 13:37 21.11.2019
3973 Snow -3 1020 94 0 7.61 226 13:18 21.11.2019
3974 Snow -3 1020 94 0 7.61 226 12:41 21.11.2019
3975 Snow -3 1020 94 0 7.61 226 12:22 21.11.2019
3976 Snow -3 1020 94 0 7.61 226 11:56 21.11.2019
3977 Snow -3 1020 94 0 7.61 226 11:37 21.11.2019
3978 Snow -3 1020 94 0 7.61 226 11:37 21.11.2019
3979 Clouds -2 1021 93 0 4.76 223 11:19 21.11.2019
3980 Clouds -2 1021 93 0 4.76 223 10:42 21.11.2019
3981 Clouds -2 1021 93 0 4.76 223 10:24 21.11.2019
3982 Clouds -2 1021 93 0 4.76 223 09:59 21.11.2019
3983 Clouds -2 1021 93 0 4.76 223 09:59 21.11.2019
3984 Clouds -2 1021 93 0 4.76 223 09:40 21.11.2019
3985 Clouds -2 1021 93 0 4.76 223 09:22 21.11.2019
3986 Clouds -2 1021 93 0 4.76 223 08:46 21.11.2019
3987 Clouds -2 1021 94 0 2.94 211 08:24 21.11.2019
3988 Clouds -3 1022 91 0 3.28 243 07:59 21.11.2019
3989 Clouds -3 1022 91 0 3.28 243 07:37 21.11.2019
3990 Clouds -3 1022 91 0 3.28 243 07:18 21.11.2019
3991 Clouds -3 1022 91 0 3.28 243 06:42 21.11.2019
3992 Clouds -3 1022 91 0 3.28 243 06:24 21.11.2019
3993 Clouds -3 1022 89 0 4.09 265 04:34 21.11.2019
3994 Clouds -3 1022 89 0 4.09 265 02:42 21.11.2019
3995 Clouds -3 1022 89 0 4.09 265 02:24 21.11.2019
3996 Clouds -2 1023 90 0 3.96 281 01:52 21.11.2019
3997 Clouds -2 1023 92 0 3.65 286 01:21 21.11.2019
3998 Clouds -2 1023 92 0 3.65 286 00:41 21.11.2019
3999 Clouds -2 1023 92 0 3.65 286 00:20 21.11.2019
4000 Clouds -2 1023 92 0 3.65 286 23:48 20.11.2019
4001 Clouds -2 1022 92 0 4.59 300 23:22 20.11.2019
4002 Clouds -2 1022 92 0 4.59 300 22:58 20.11.2019
4003 Clouds -2 1022 92 0 4.59 300 22:40 20.11.2019
4004 Clouds -2 1022 92 0 4.59 300 22:19 20.11.2019
4005 Clouds -2 1022 92 0 4.59 300 21:58 20.11.2019
4006 Clouds -2 1022 92 0 4.59 300 21:39 20.11.2019
4007 Clouds -2 1022 92 0 4.59 300 21:20 20.11.2019
4008 Clouds -2 1022 92 0 4.59 300 21:20 20.11.2019
4009 Clouds -2 1022 92 0 4.59 300 20:57 20.11.2019
4010 Clouds -2 1022 92 0 4.59 300 20:57 20.11.2019
4011 Clouds -2 1022 92 0 4.59 300 20:39 20.11.2019
4012 Clear -1 1023 89 0 6.77 302 20:20 20.11.2019
4013 Clear -1 1023 89 0 6.77 302 19:56 20.11.2019
4014 Clear -1 1023 89 0 6.77 302 19:37 20.11.2019
4015 Clear -1 1023 89 0 6.77 302 19:18 20.11.2019
4016 Clear -1 1023 89 0 6.77 302 18:58 20.11.2019
4017 Clear -1 1023 89 0 6.77 302 18:39 20.11.2019
4018 Clear -1 1023 89 0 6.77 302 18:20 20.11.2019
4019 Clear -1 1023 89 0 6.77 302 17:56 20.11.2019
4020 Clear -1 1023 89 0 6.77 302 17:38 20.11.2019
4021 Clouds -1 1022 88 0 7.22 306 17:20 20.11.2019
4022 Clouds -1 1022 88 0 7.22 306 16:55 20.11.2019
4023 Clouds -1 1022 88 0 7.22 306 16:36 20.11.2019
4024 Clouds -1 1022 88 0 7.22 306 16:18 20.11.2019
4025 Clouds -1 1022 88 0 7.22 306 15:41 20.11.2019
4026 Clouds -1 1022 88 0 7.22 306 15:21 20.11.2019
4027 Clouds -1 1022 88 0 7.22 306 14:59 20.11.2019
4028 Clouds -1 1022 88 0 7.22 306 14:40 20.11.2019
4029 Snow -1 1022 90 0 9.17 301 14:21 20.11.2019
4030 Snow -1 1022 90 0 9.17 301 13:57 20.11.2019
4031 Snow -1 1022 90 0 9.17 301 13:38 20.11.2019
4032 Snow 0 1022 89 0 9.15 299 13:19 20.11.2019
4033 Snow 0 1022 89 0 9.15 299 13:19 20.11.2019
4034 Snow 0 1022 89 0 9.15 299 12:43 20.11.2019
4035 Snow 0 1022 89 0 9.15 299 12:43 20.11.2019
4036 Snow 0 1022 89 0 9.15 299 12:25 20.11.2019
4037 Snow 0 1022 89 0 9.15 299 11:58 20.11.2019
4038 Snow 0 1022 89 0 9.15 299 11:38 20.11.2019
4039 Snow -3 1023 95 0 13.86 253 11:20 20.11.2019
4040 Snow -3 1023 95 0 13.86 253 10:55 20.11.2019
4041 Snow -3 1023 95 0 13.86 253 10:37 20.11.2019
4042 Snow -3 1023 95 0 13.86 253 10:19 20.11.2019
4043 Snow -3 1023 95 0 13.86 253 09:43 20.11.2019
4044 Snow -3 1023 95 0 13.86 253 09:21 20.11.2019
4045 Snow -3 1023 95 0 13.86 253 08:56 20.11.2019
4046 Snow -3 1023 95 0 13.86 253 08:37 20.11.2019
4047 Snow -7 1028 92 0 16.38 242 08:19 20.11.2019
4048 Snow -7 1028 92 0 16.38 242 07:45 20.11.2019
4049 Snow -7 1028 92 0 16.38 242 07:25 20.11.2019
4050 Snow -7 1028 92 0 16.38 242 06:47 20.11.2019
4051 Snow -7 1028 92 0 16.38 242 06:21 20.11.2019
4052 Clouds -9 1032 94 0 15.25 239 04:52 20.11.2019
4053 Clouds -9 1032 94 0 15.25 239 03:30 20.11.2019
4054 Clouds -10 1036 98 0 13.91 237 02:21 20.11.2019
4055 Clouds -10 1036 98 0 13.91 237 01:32 20.11.2019
4056 Clouds -11 1036 97 0 13.81 238 00:40 20.11.2019
4057 Clouds -11 1036 97 0 13.81 238 23:52 19.11.2019
4058 Clouds -11 1036 97 0 13.81 238 23:26 19.11.2019
4059 Clouds -11 1039 96 0 12.97 243 22:58 19.11.2019
4060 Clouds -11 1039 96 0 12.97 243 22:39 19.11.2019
4061 Clouds -11 1039 96 0 12.97 243 22:19 19.11.2019
4062 Clouds -11 1039 96 0 12.97 243 21:56 19.11.2019
4063 Clouds -11 1039 96 0 12.97 243 21:37 19.11.2019
4064 Clouds -11 1039 96 0 12.97 243 21:19 19.11.2019
4065 Clouds -11 1039 96 0 12.97 243 21:19 19.11.2019
4066 Clouds -11 1039 96 0 12.97 243 20:56 19.11.2019
4067 Clouds -11 1039 96 0 12.97 243 20:38 19.11.2019
4068 Clouds -11 1042 94 0 11.94 240 20:19 19.11.2019
4069 Clouds -11 1042 92 0 12.07 238 19:55 19.11.2019
4070 Clouds -11 1042 92 0 12.07 238 19:37 19.11.2019
4071 Clouds -11 1042 92 0 12.07 238 19:18 19.11.2019
4072 Clouds -11 1042 92 0 12.07 238 18:54 19.11.2019
4073 Clouds -11 1042 92 0 12.07 238 18:36 19.11.2019
4074 Clouds -11 1042 92 0 12.07 238 18:18 19.11.2019
4075 Clouds -11 1042 92 0 12.07 238 17:55 19.11.2019
4076 Clouds -11 1042 92 0 12.07 238 17:36 19.11.2019
4077 Clouds -10 1044 89 0 10.62 239 17:18 19.11.2019
4078 Clouds -10 1044 89 0 10.62 239 16:41 19.11.2019
4079 Clouds -10 1044 89 0 10.62 239 16:22 19.11.2019
4080 Clouds -10 1044 89 0 10.62 239 15:54 19.11.2019
4081 Clouds -10 1044 89 0 10.62 239 15:36 19.11.2019
4082 Clouds -10 1044 89 0 10.62 239 15:18 19.11.2019
4083 Clouds -10 1044 89 0 10.62 239 14:54 19.11.2019
4084 Clouds -10 1044 89 0 10.62 239 14:36 19.11.2019
4085 Clear -10 1046 79 0 9.52 242 14:18 19.11.2019
4086 Clear -10 1046 79 0 9.52 242 13:40 19.11.2019
4087 Clear -10 1046 76 0 9.63 243 13:19 19.11.2019
4088 Clear -10 1046 76 0 9.63 243 12:40 19.11.2019
4089 Clear -10 1046 76 0 9.63 243 12:21 19.11.2019
4090 Clear -10 1046 76 0 9.63 243 11:57 19.11.2019
4091 Clear -10 1046 76 0 9.63 243 11:38 19.11.2019
4092 Clear -10 1047 73 0 8.36 246 11:19 19.11.2019
4093 Clear -10 1047 73 0 8.36 246 11:19 19.11.2019
4094 Clear -10 1047 73 0 8.36 246 10:47 19.11.2019
4095 Clear -10 1047 73 0 8.36 246 10:22 19.11.2019
4096 Clear -10 1047 73 0 8.36 246 09:57 19.11.2019
4097 Clear -10 1047 73 0 8.36 246 09:39 19.11.2019
4098 Clear -10 1047 73 0 8.36 246 09:18 19.11.2019
4099 Clear -10 1047 73 0 8.36 246 08:41 19.11.2019
4100 Clear -11 1047 76 0 7.29 246 08:22 19.11.2019
4101 Clear -10 1047 76 0 6.76 250 07:57 19.11.2019
4102 Clear -10 1047 76 0 6.76 250 07:38 19.11.2019
4103 Clear -10 1047 76 0 6.76 250 07:19 19.11.2019
4104 Clear -10 1047 76 0 6.76 250 06:45 19.11.2019
4105 Clear -10 1047 76 0 6.76 250 06:27 19.11.2019
4106 Clear -10 1047 69 0 5.13 247 05:20 19.11.2019
4107 Clear -10 1047 69 0 5.13 247 03:45 19.11.2019
4108 Clear -10 1047 69 0 5.13 247 03:22 19.11.2019
4109 Clear -10 1047 69 0 5.13 247 02:51 19.11.2019
4110 Clear -10 1047 64 0 4.4 255 01:58 19.11.2019
4111 Clear -10 1047 66 0 4.56 253 00:59 19.11.2019
4112 Clear -10 1047 66 0 4.56 253 00:21 19.11.2019
4113 Clear -10 1047 66 0 4.56 253 00:21 19.11.2019
4114 Clear -10 1047 66 0 4.56 253 23:56 18.11.2019
4115 Clear -10 1047 66 0 4.56 253 23:37 18.11.2019
4116 Clear -11 1046 63 0 2.93 231 23:18 18.11.2019
4117 Clear -11 1046 63 0 2.93 231 22:41 18.11.2019
4118 Clear -11 1046 63 0 2.93 231 22:23 18.11.2019
4119 Clear -11 1046 63 0 2.93 231 21:54 18.11.2019
4120 Clear -11 1046 63 0 2.93 231 21:54 18.11.2019
4121 Clear -11 1046 63 0 2.93 231 21:36 18.11.2019
4122 Clear -11 1046 63 0 2.93 231 21:36 18.11.2019
4123 Clear -11 1046 63 0 2.93 231 21:18 18.11.2019
4124 Clear -11 1046 63 0 2.93 231 20:41 18.11.2019
4125 Clouds -11 1046 66 0 2.78 185 20:20 18.11.2019
4126 Clouds -11 1046 66 0 2.78 185 19:58 18.11.2019
4127 Clouds -11 1046 66 0 2.78 185 19:39 18.11.2019
4128 Clouds -11 1046 66 0 2.78 185 19:21 18.11.2019
4129 Clouds -11 1046 66 0 2.78 185 18:56 18.11.2019
4130 Clouds -11 1046 66 0 2.78 185 18:56 18.11.2019
4131 Clouds -11 1046 66 0 2.78 185 18:38 18.11.2019
4132 Clouds -11 1046 66 0 2.78 185 18:19 18.11.2019
4133 Clouds -11 1046 66 0 2.78 185 17:59 18.11.2019
4134 Clouds -11 1046 66 0 2.78 185 17:37 18.11.2019
4135 Clouds -12 1044 73 0 4.27 144 17:19 18.11.2019
4136 Clouds -12 1044 73 0 4.27 144 16:43 18.11.2019
4137 Clouds -12 1044 73 0 4.27 144 16:24 18.11.2019
4138 Clouds -12 1044 73 0 4.27 144 15:59 18.11.2019
4139 Clouds -12 1044 73 0 4.27 144 15:40 18.11.2019
4140 Clouds -12 1044 73 0 4.27 144 15:22 18.11.2019
4141 Clouds -12 1044 73 0 4.27 144 14:58 18.11.2019
4142 Clouds -12 1044 73 0 4.27 144 14:39 18.11.2019
4143 Clouds -12 1045 82 0 5.21 137 14:20 18.11.2019
4144 Clouds -12 1045 82 0 5.21 137 13:43 18.11.2019
4145 Clouds -12 1045 82 0 5.21 137 13:25 18.11.2019
4146 Clouds -12 1044 75 0 6.03 138 12:45 18.11.2019
4147 Clouds -12 1044 75 0 6.03 138 12:20 18.11.2019
4148 Clouds -12 1044 75 0 6.03 138 11:58 18.11.2019
4149 Clouds -12 1044 75 0 6.03 138 11:40 18.11.2019
4150 Clouds -12 1043 88 0 7.48 134 11:22 18.11.2019
4151 Clouds -12 1043 88 0 7.48 134 10:44 18.11.2019
4152 Clouds -12 1043 88 0 7.48 134 10:25 18.11.2019
4153 Clouds -12 1043 88 0 7.48 134 09:58 18.11.2019
4154 Clouds -12 1043 88 0 7.48 134 09:38 18.11.2019
4155 Clouds -12 1043 88 0 7.48 134 09:20 18.11.2019
4156 Clouds -12 1043 88 0 7.48 134 08:55 18.11.2019
4157 Clouds -12 1043 88 0 7.48 134 08:36 18.11.2019
4158 Clouds -14 1042 89 0 6.54 125 08:18 18.11.2019
4159 Clouds -14 1042 89 0 6.54 125 07:44 18.11.2019
4160 Clouds -14 1042 89 0 6.54 125 07:23 18.11.2019
4161 Clouds -14 1042 89 0 6.54 125 06:48 18.11.2019
4162 Clouds -14 1042 89 0 6.54 125 06:28 18.11.2019
4163 Clouds -14 1042 89 0 6.54 125 05:42 18.11.2019
4164 Clouds -14 1040 97 0 7.69 128 03:59 18.11.2019
4165 Clouds -13 1039 98 0 8.91 121 01:40 18.11.2019
4166 Clouds -13 1039 97 0 8.46 123 00:54 18.11.2019
4167 Clouds -13 1039 97 0 8.46 123 00:20 18.11.2019
4168 Clouds -13 1039 97 0 8.46 123 23:41 17.11.2019
4169 Clouds -13 1037 98 0 8.99 120 23:22 17.11.2019
4170 Clouds -13 1037 98 0 8.99 120 22:57 17.11.2019
4171 Clouds -13 1037 98 0 8.99 120 22:39 17.11.2019
4172 Clouds -13 1037 98 0 8.99 120 22:21 17.11.2019
4173 Clouds -13 1037 98 0 8.99 120 21:56 17.11.2019
4174 Clouds -13 1037 98 0 8.99 120 21:56 17.11.2019
4175 Clouds -13 1037 98 0 8.99 120 21:37 17.11.2019
4176 Clouds -13 1037 98 0 8.99 120 21:18 17.11.2019
4177 Clouds -13 1037 98 0 8.99 120 20:55 17.11.2019
4178 Clouds -13 1037 98 0 8.99 120 20:36 17.11.2019
4179 Snow -12 1036 97 0 10.33 113 20:18 17.11.2019
4180 Snow -12 1036 97 0 10.33 113 19:55 17.11.2019
4181 Snow -12 1036 97 0 10.33 113 19:36 17.11.2019
4182 Snow -12 1036 97 0 10.33 113 19:18 17.11.2019
4183 Snow -12 1036 97 0 10.33 113 18:54 17.11.2019
4184 Snow -12 1036 97 0 10.33 113 18:36 17.11.2019
4185 Snow -12 1036 97 0 10.33 113 18:18 17.11.2019
4186 Snow -12 1036 97 0 10.33 113 17:56 17.11.2019
4187 Snow -12 1036 97 0 10.33 113 17:38 17.11.2019
4188 Snow -12 1033 95 0 10.5 105 17:18 17.11.2019
4189 Snow -12 1033 95 0 10.5 105 16:42 17.11.2019
4190 Snow -12 1033 95 0 10.5 105 16:22 17.11.2019
4191 Snow -12 1033 95 0 10.5 105 15:59 17.11.2019
4192 Snow -12 1033 95 0 10.5 105 15:41 17.11.2019
4193 Snow -12 1033 95 0 10.5 105 15:19 17.11.2019
4194 Snow -12 1033 95 0 10.5 105 14:57 17.11.2019
4195 Snow -12 1033 95 0 10.5 105 14:39 17.11.2019
4196 Snow -12 1031 96 0 10.73 101 14:20 17.11.2019
4197 Snow -12 1031 96 0 10.73 101 13:59 17.11.2019
4198 Snow -12 1031 96 0 10.73 101 13:59 17.11.2019
4199 Snow -12 1031 96 0 10.73 101 13:40 17.11.2019
4200 Snow -12 1031 97 0 11.48 101 13:20 17.11.2019
4201 Snow -12 1031 97 0 11.48 101 12:45 17.11.2019
4202 Snow -12 1031 97 0 11.48 101 12:24 17.11.2019
4203 Snow -12 1031 97 0 11.48 101 11:59 17.11.2019
4204 Snow -12 1031 97 0 11.48 101 11:40 17.11.2019
4205 Snow -12 1027 97 0 11.87 99 11:21 17.11.2019
4206 Snow -12 1027 97 0 11.87 99 10:56 17.11.2019
4207 Snow -12 1027 97 0 11.87 99 10:56 17.11.2019
4208 Snow -12 1027 97 0 11.87 99 10:36 17.11.2019
4209 Snow -12 1027 97 0 11.87 99 10:18 17.11.2019
4210 Snow -12 1027 97 0 11.87 99 09:41 17.11.2019
4211 Snow -12 1027 97 0 11.87 99 09:23 17.11.2019
4212 Snow -12 1027 97 0 11.87 99 08:44 17.11.2019
4213 Snow -12 1028 97 0 11.3 100 08:24 17.11.2019
4214 Clouds -11 1024 95 0 11.73 98 07:56 17.11.2019
4215 Clouds -11 1024 95 0 11.73 98 07:38 17.11.2019
4216 Clouds -11 1024 95 0 11.73 98 07:19 17.11.2019
4217 Clouds -11 1024 95 0 11.73 98 06:50 17.11.2019
4218 Clouds -11 1024 95 0 11.73 98 06:28 17.11.2019
4219 Snow -11 1020 94 0 12.01 99 04:57 17.11.2019
4220 Snow -11 1020 94 0 12.01 99 03:59 17.11.2019
4221 Snow -11 1020 94 0 12.01 99 03:59 17.11.2019
4222 Snow -11 1020 94 0 12.01 99 03:33 17.11.2019
4223 Snow -11 1020 94 0 12.01 99 02:59 17.11.2019
4224 Snow -9 1017 92 0 12.31 101 01:50 17.11.2019
4225 Snow -10 1017 92 0 12.49 101 00:59 17.11.2019
4226 Snow -10 1017 92 0 12.49 101 00:38 17.11.2019
4227 Snow -10 1017 92 0 12.49 101 00:19 17.11.2019
4228 Snow -10 1017 92 0 12.49 101 23:40 16.11.2019
4229 Snow -9 1013 92 0 12.8 99 23:18 16.11.2019
4230 Snow -9 1013 92 0 12.8 99 22:42 16.11.2019
4231 Snow -9 1013 92 0 12.8 99 22:20 16.11.2019
4232 Snow -9 1013 92 0 12.8 99 21:58 16.11.2019
4233 Snow -9 1013 92 0 12.8 99 21:40 16.11.2019
4234 Snow -9 1013 92 0 12.8 99 21:21 16.11.2019
4235 Snow -9 1013 92 0 12.8 99 20:57 16.11.2019
4236 Snow -9 1013 92 0 12.8 99 20:39 16.11.2019
4237 Clouds -9 1010 92 0 12.5 101 20:19 16.11.2019
4238 Clouds -9 1010 92 0 12.5 101 19:41 16.11.2019
4239 Clouds -9 1010 92 0 12.5 101 19:22 16.11.2019
4240 Clouds -9 1010 92 0 12.5 101 18:58 16.11.2019
4241 Clouds -9 1010 92 0 12.5 101 18:39 16.11.2019
4242 Clouds -9 1010 92 0 12.5 101 18:20 16.11.2019
4243 Clouds -9 1010 92 0 12.5 101 17:55 16.11.2019
4244 Clouds -9 1010 92 0 12.5 101 17:36 16.11.2019
4245 Clouds -8 1006 94 0 11.57 97 17:18 16.11.2019
4246 Clouds -8 1006 94 0 11.57 97 16:43 16.11.2019
4247 Clouds -8 1006 94 0 11.57 97 16:25 16.11.2019
4248 Clouds -8 1006 94 0 11.57 97 15:54 16.11.2019
4249 Clouds -8 1006 94 0 11.57 97 15:36 16.11.2019
4250 Clouds -8 1006 94 0 11.57 97 15:18 16.11.2019
4251 Clouds -8 1006 94 0 11.57 97 14:40 16.11.2019
4252 Snow -6 1003 94 0 9.65 99 14:21 16.11.2019
4253 Snow -6 1003 94 0 9.65 99 13:56 16.11.2019
4254 Snow -6 1003 94 0 9.65 99 13:38 16.11.2019
4255 Clouds -7 1003 93 0 9.11 100 13:19 16.11.2019
4256 Clouds -7 1003 93 0 9.11 100 12:57 16.11.2019
4257 Clouds -7 1003 93 0 9.11 100 12:57 16.11.2019
4258 Clouds -7 1003 93 0 9.11 100 12:57 16.11.2019
4259 Clouds -7 1003 93 0 9.11 100 12:39 16.11.2019
4260 Clouds -7 1003 93 0 9.11 100 12:20 16.11.2019
4261 Clouds -7 1003 93 0 9.11 100 11:44 16.11.2019
4262 Clouds -7 1003 93 0 9.11 100 11:26 16.11.2019
4263 Snow -5 1000 95 0 7.87 108 10:56 16.11.2019
4264 Snow -5 1000 95 0 7.87 108 10:38 16.11.2019
4265 Snow -5 1000 95 0 7.87 108 10:20 16.11.2019
4266 Snow -5 1000 95 0 7.87 108 09:43 16.11.2019
4267 Snow -5 1000 95 0 7.87 108 09:21 16.11.2019
4268 Snow -5 1000 95 0 7.87 108 08:58 16.11.2019
4269 Snow -5 1000 95 0 7.87 108 08:37 16.11.2019
4270 Snow -7 998 94 0 10.61 101 08:18 16.11.2019
4271 Snow -7 998 94 0 10.61 101 07:41 16.11.2019
4272 Snow -7 998 94 0 10.61 101 07:41 16.11.2019
4273 Snow -7 998 94 0 10.61 101 07:20 16.11.2019
4274 Snow -7 998 94 0 10.61 101 06:45 16.11.2019
4275 Snow -7 998 94 0 10.61 101 06:26 16.11.2019
4276 Snow -8 996 95 0 10.96 112 04:50 16.11.2019
4277 Snow -8 996 95 0 10.96 112 03:42 16.11.2019
4278 Snow -8 996 95 0 10.96 112 03:23 16.11.2019
4279 Snow -9 997 95 0 9.73 120 01:44 16.11.2019
4280 Snow -9 997 95 0 8.79 122 01:19 16.11.2019
4281 Snow -9 997 95 0 8.79 122 00:42 16.11.2019
4282 Snow -9 997 95 0 8.79 122 00:22 16.11.2019
4283 Snow -9 997 95 0 8.79 122 23:40 15.11.2019
4284 Snow -10 998 96 0 8.78 142 23:20 15.11.2019
4285 -273 0 0 0 0 0 22:55 15.11.2019
4286 Snow -10 998 96 0 8.78 142 22:37 15.11.2019
4287 Snow -10 998 96 0 8.78 142 22:18 15.11.2019
4288 Snow -10 998 96 0 8.78 142 21:41 15.11.2019
4289 Snow -10 998 96 0 8.78 142 21:21 15.11.2019
4290 Snow -10 998 96 0 8.78 142 20:59 15.11.2019
4291 Snow -10 998 96 0 8.78 142 20:40 15.11.2019
4292 Snow -10 1002 95 0 10.43 147 20:21 15.11.2019
4293 Snow -10 1002 95 0 10.43 147 19:59 15.11.2019
4294 Snow -10 1002 95 0 10.43 147 19:40 15.11.2019
4295 Snow -10 1002 95 0 10.43 147 19:20 15.11.2019
4296 Snow -10 1002 95 0 10.43 147 18:58 15.11.2019
4297 Snow -10 1002 95 0 10.43 147 18:40 15.11.2019
4298 Snow -10 1002 95 0 10.43 147 18:21 15.11.2019
4299 Snow -10 1002 95 0 10.43 147 17:43 15.11.2019
4300 Snow -10 1002 95 0 10.43 147 17:25 15.11.2019
4301 Snow -10 1007 95 0 10.84 144 16:57 15.11.2019
4302 Snow -10 1007 95 0 10.84 144 16:38 15.11.2019
4303 Snow -10 1007 95 0 10.84 144 16:19 15.11.2019
4304 Snow -10 1007 95 0 10.84 144 15:39 15.11.2019
4305 Snow -10 1007 95 0 10.84 144 15:20 15.11.2019
4306 Snow -10 1007 95 0 10.84 144 14:57 15.11.2019
4307 Snow -10 1007 95 0 10.84 144 14:38 15.11.2019
4308 Snow -10 1013 94 0 10.01 156 14:20 15.11.2019
4309 Snow -10 1013 94 0 10.01 156 13:58 15.11.2019
4310 Snow -10 1013 94 0 10.01 156 13:39 15.11.2019
4311 Snow -10 1013 95 0 9.4 153 13:21 15.11.2019
4312 Snow -10 1013 95 0 9.4 153 12:58 15.11.2019
4313 Snow -10 1013 95 0 9.4 153 12:40 15.11.2019
4314 Snow -10 1013 95 0 9.4 153 12:20 15.11.2019
4315 Snow -10 1013 95 0 9.4 153 11:58 15.11.2019
4316 Snow -10 1013 95 0 9.4 153 11:38 15.11.2019
4317 Snow -10 1017 95 0 7.72 157 11:20 15.11.2019
4318 Snow -10 1017 95 0 7.72 157 10:56 15.11.2019
4319 Snow -10 1017 95 0 7.72 157 10:38 15.11.2019
4320 Snow -10 1017 95 0 7.72 157 10:18 15.11.2019
4321 Snow -10 1017 95 0 7.72 157 09:41 15.11.2019
4322 Snow -10 1017 95 0 7.72 157 09:20 15.11.2019
4323 Snow -10 1017 95 0 7.72 157 08:44 15.11.2019
4324 Snow -10 1017 95 0 7.72 157 08:44 15.11.2019
4325 Snow -10 1020 93 0 6.77 156 08:23 15.11.2019
4326 Snow -10 1020 93 0 6.77 156 07:49 15.11.2019
4327 Snow -10 1020 93 0 6.77 156 07:49 15.11.2019
4328 Snow -10 1020 93 0 6.77 156 07:28 15.11.2019
4329 Snow -10 1020 93 0 6.77 156 06:50 15.11.2019
4330 Snow -10 1020 93 0 6.77 156 06:31 15.11.2019
4331 Snow -10 1020 93 0 6.77 156 05:42 15.11.2019
4332 Snow -10 1020 93 0 6.77 156 05:23 15.11.2019
4333 Clouds -8 1022 68 0 7.87 150 03:53 15.11.2019
4334 Clouds -8 1022 68 0 7.87 150 03:24 15.11.2019
4335 Clouds -8 1025 64 0 8.89 142 02:20 15.11.2019
4336 Clouds -8 1025 65 0 8.23 144 01:33 15.11.2019
4337 Clouds -8 1025 65 0 8.23 144 01:33 15.11.2019
4338 Clouds -8 1025 65 0 8.23 144 00:54 15.11.2019
4339 Clouds -8 1025 65 0 8.23 144 00:33 15.11.2019
4340 Clouds -8 1025 65 0 8.23 144 23:53 14.11.2019
4341 Clouds -8 1025 65 0 8.23 144 23:28 14.11.2019
4342 Clouds -9 1028 70 0 8.11 133 22:59 14.11.2019
4343 Clouds -9 1028 70 0 8.11 133 22:39 14.11.2019
4344 Clouds -9 1028 70 0 8.11 133 22:21 14.11.2019
4345 Clouds -9 1028 70 0 8.11 133 21:55 14.11.2019
4346 Clouds -9 1028 70 0 8.11 133 21:37 14.11.2019
4347 Clouds -9 1028 70 0 8.11 133 21:19 14.11.2019
4348 Clouds -9 1028 70 0 8.11 133 20:42 14.11.2019
4349 Clouds -9 1030 67 0 6.36 144 20:23 14.11.2019
4350 Clouds -9 1030 67 0 6.36 144 19:59 14.11.2019
4351 Clouds -9 1030 67 0 6.36 144 19:59 14.11.2019
4352 Clouds -9 1030 67 0 6.36 144 19:40 14.11.2019
4353 Clouds -9 1030 67 0 6.36 144 19:18 14.11.2019
4354 Clouds -9 1030 67 0 6.36 144 19:18 14.11.2019
4355 Clouds -9 1030 67 0 6.36 144 19:18 14.11.2019
4356 Clouds -9 1030 67 0 6.36 144 18:56 14.11.2019
4357 Clouds -9 1030 67 0 6.36 144 18:38 14.11.2019
4358 Clouds -9 1030 67 0 6.36 144 18:19 14.11.2019
4359 Clouds -9 1030 67 0 6.36 144 17:55 14.11.2019
4360 Clouds -9 1030 67 0 6.36 144 17:36 14.11.2019
4361 Clouds -9 1032 71 0 5.55 146 17:18 14.11.2019
4362 Clouds -9 1032 71 0 5.55 146 16:55 14.11.2019
4363 Clouds -9 1032 71 0 5.55 146 16:36 14.11.2019
4364 Clouds -9 1032 71 0 5.55 146 16:18 14.11.2019
4365 Clouds -9 1032 71 0 5.55 146 15:54 14.11.2019
4366 Clouds -9 1032 71 0 5.55 146 15:36 14.11.2019
4367 Clouds -9 1032 71 0 5.55 146 15:18 14.11.2019
4368 Clouds -9 1032 71 0 5.55 146 14:41 14.11.2019
4369 Clouds -10 1035 79 0 5.15 147 14:22 14.11.2019
4370 Clouds -10 1035 79 0 5.15 147 13:55 14.11.2019
4371 Clouds -10 1035 79 0 5.15 147 13:37 14.11.2019
4372 Clouds -10 1035 79 0 5.15 147 13:18 14.11.2019
4373 Clouds -9 1035 78 0 5.09 146 12:46 14.11.2019
4374 Clouds -9 1035 78 0 5.09 146 12:26 14.11.2019
4375 Clouds -9 1035 78 0 5.09 146 11:58 14.11.2019
4376 Clouds -9 1035 78 0 5.09 146 11:38 14.11.2019
4377 Clouds -11 1036 80 0 4.4 171 11:19 14.11.2019
4378 Clouds -11 1036 80 0 4.4 171 10:57 14.11.2019
4379 Clouds -11 1036 80 0 4.4 171 10:37 14.11.2019
4380 Clouds -11 1036 80 0 4.4 171 10:19 14.11.2019
4381 Clouds -11 1036 80 0 4.4 171 09:55 14.11.2019
4382 Clouds -11 1036 80 0 4.4 171 09:37 14.11.2019
4383 Clouds -11 1036 80 0 4.4 171 09:18 14.11.2019
4384 Clouds -11 1036 80 0 4.4 171 08:46 14.11.2019
4385 Clouds -11 1036 80 0 4.4 171 08:46 14.11.2019
4386 Clouds -11 1037 78 0 4.42 202 08:23 14.11.2019
4387 Clouds -11 1037 78 0 4.42 202 07:42 14.11.2019
4388 Clouds -11 1037 78 0 4.42 202 07:24 14.11.2019
4389 Clouds -11 1037 78 0 4.42 202 06:47 14.11.2019
4390 Clouds -11 1037 78 0 4.42 202 06:21 14.11.2019
4391 Clouds -11 1037 78 0 4.42 202 05:59 14.11.2019
4392 Clouds -12 1037 83 0 5.29 214 04:38 14.11.2019
4393 Clouds -12 1037 83 0 5.29 214 03:47 14.11.2019
4394 Clouds -12 1037 83 0 5.29 214 02:40 14.11.2019
4395 Clouds -11 1037 89 0 5.14 218 01:41 14.11.2019
4396 Clouds -12 1037 85 0 4.85 218 00:58 14.11.2019
4397 Clouds -12 1037 85 0 4.85 218 00:40 14.11.2019
4398 Clouds -12 1037 85 0 4.85 218 00:20 14.11.2019
4399 Clouds -12 1037 85 0 4.85 218 23:39 13.11.2019
4400 Clouds -12 1037 93 0 6.32 229 23:20 13.11.2019
4401 Clouds -12 1037 93 0 6.32 229 22:55 13.11.2019
4402 Clouds -12 1037 93 0 6.32 229 22:37 13.11.2019
4403 Clouds -12 1037 93 0 6.32 229 22:19 13.11.2019
4404 Clouds -12 1037 93 0 6.32 229 21:55 13.11.2019
4405 Clouds -12 1037 93 0 6.32 229 21:37 13.11.2019
4406 Clouds -12 1037 93 0 6.32 229 21:18 13.11.2019
4407 Clouds -12 1037 93 0 6.32 229 20:55 13.11.2019
4408 Clouds -12 1037 93 0 6.32 229 20:37 13.11.2019
4409 Clouds -12 1037 95 0 6.06 220 20:18 13.11.2019
4410 Clouds -12 1037 95 0 6.06 220 20:18 13.11.2019
4411 Snow -12 1037 93 0 6.11 226 19:43 13.11.2019
4412 Snow -12 1037 93 0 6.11 226 19:19 13.11.2019
4413 Snow -12 1037 93 0 6.11 226 18:56 13.11.2019
4414 Snow -12 1037 93 0 6.11 226 18:38 13.11.2019
4415 Snow -12 1037 93 0 6.11 226 18:19 13.11.2019
4416 Snow -12 1037 93 0 6.11 226 18:19 13.11.2019
4417 Snow -12 1037 93 0 6.11 226 17:57 13.11.2019
4418 Snow -12 1037 93 0 6.11 226 17:38 13.11.2019
4419 Clouds -12 1036 89 0 6.28 229 17:19 13.11.2019
4420 Clouds -12 1036 94 0 5.92 223 16:58 13.11.2019
4421 Clouds -12 1036 89 0 6.28 229 16:39 13.11.2019
4422 Clouds -12 1036 94 0 5.92 223 16:39 13.11.2019
4423 Clouds -12 1036 94 0 5.92 223 16:21 13.11.2019
4424 Clouds -12 1036 94 0 5.92 223 15:57 13.11.2019
4425 Clouds -12 1036 94 0 5.92 223 15:38 13.11.2019
4426 Clouds -12 1036 94 0 5.92 223 15:20 13.11.2019
4427 Clouds -12 1036 89 0 6.28 229 14:42 13.11.2019
4428 Clouds -12 1035 89 0 5.66 229 14:21 13.11.2019
4429 Clouds -12 1036 92 0 5.61 224 13:57 13.11.2019
4430 Clouds -12 1036 92 0 5.61 224 13:36 13.11.2019
4431 Clouds -12 1035 89 0 5.66 229 13:18 13.11.2019
4432 Clouds -12 1035 89 0 5.66 229 12:43 13.11.2019
4433 Clouds -12 1035 89 0 5.66 229 12:25 13.11.2019
4434 Clouds -12 1035 89 0 5.66 229 11:59 13.11.2019
4435 Clouds -12 1035 89 0 5.66 229 11:38 13.11.2019
4436 Clouds -12 1035 90 0 5.57 225 11:19 13.11.2019
4437 Clouds -12 1035 90 0 5.57 225 10:57 13.11.2019
4438 Clouds -12 1035 90 0 5.57 225 10:39 13.11.2019
4439 Clouds -12 1035 90 0 5.57 225 10:19 13.11.2019
4440 Clouds -12 1035 90 0 5.57 225 10:19 13.11.2019
4441 Clouds -12 1035 90 0 5.57 225 09:45 13.11.2019
4442 Clouds -12 1035 90 0 5.57 225 09:21 13.11.2019
4443 Clouds -12 1035 90 0 5.57 225 09:21 13.11.2019
4444 Clouds -12 1035 90 0 5.57 225 08:55 13.11.2019
4445 Clouds -12 1035 90 0 5.57 225 08:36 13.11.2019
4446 Clouds -12 1034 87 0 4.52 221 08:18 13.11.2019
4447 Clouds -12 1034 87 0 4.52 221 07:42 13.11.2019
4448 Clouds -12 1034 87 0 4.52 221 07:20 13.11.2019
4449 Clouds -12 1034 87 0 4.52 221 06:43 13.11.2019
4450 Clouds -12 1034 87 0 4.52 221 06:19 13.11.2019
4451 Clouds -12 1034 87 0 4.52 221 06:19 13.11.2019
4452 Clouds -12 1034 87 0 4.52 221 06:19 13.11.2019
4453 Clouds -12 1034 87 0 4.52 221 06:19 13.11.2019
4454 Clouds -12 1034 87 0 4.52 221 06:19 13.11.2019
4455 Clouds -12 1034 87 0 4.52 221 05:51 13.11.2019
4456 Clouds -12 1034 87 0 4.52 221 05:30 13.11.2019
4457 Clouds -12 1033 87 0 4.26 210 04:20 13.11.2019
4458 Clouds -12 1032 89 0 4.21 215 01:58 13.11.2019
4459 Clouds -12 1032 89 0 4.21 215 01:40 13.11.2019
4460 Clouds -12 1032 88 0 4.07 214 00:44 13.11.2019
4461 Clouds -12 1032 88 0 4.07 214 23:59 12.11.2019
4462 Clouds -12 1032 88 0 4.07 214 23:41 12.11.2019
4463 Clouds -12 1031 90 0 3.94 210 23:21 12.11.2019
4464 Clouds -12 1031 90 0 3.94 210 22:44 12.11.2019
4465 Clouds -12 1031 90 0 3.94 210 22:21 12.11.2019
4466 Clouds -12 1031 90 0 3.94 210 21:59 12.11.2019
4467 Clouds -12 1031 90 0 3.94 210 21:40 12.11.2019
4468 Clouds -12 1031 90 0 3.94 210 21:22 12.11.2019
4469 Clouds -12 1031 90 0 3.94 210 20:56 12.11.2019
4470 Clouds -12 1031 90 0 3.94 210 20:37 12.11.2019
4471 Clouds -11 1031 85 0 3.78 190 20:18 12.11.2019
4472 Clouds -11 1031 85 0 3.78 190 19:57 12.11.2019
4473 Clouds -11 1031 85 0 3.78 190 19:38 12.11.2019
4474 Clouds -11 1031 85 0 3.78 190 19:19 12.11.2019
4475 Clouds -11 1031 85 0 3.78 190 18:58 12.11.2019
4476 Clouds -11 1031 85 0 3.78 190 18:58 12.11.2019
4477 Clouds -11 1031 85 0 3.78 190 18:39 12.11.2019
4478 Clouds -11 1031 85 0 3.78 190 18:21 12.11.2019
4479 Clouds -11 1031 85 0 3.78 190 17:57 12.11.2019
4480 Clouds -11 1031 85 0 3.78 190 17:39 12.11.2019
4481 Clouds -10 1029 85 0 3.86 195 17:20 12.11.2019
4482 Clouds -10 1029 85 0 3.86 195 16:44 12.11.2019
4483 Clouds -10 1029 85 0 3.86 195 16:26 12.11.2019
4484 Clouds -10 1029 85 0 3.86 195 15:58 12.11.2019
4485 Clouds -10 1029 85 0 3.86 195 15:40 12.11.2019
4486 Clouds -10 1029 85 0 3.86 195 15:21 12.11.2019
4487 Clouds -10 1029 85 0 3.86 195 14:56 12.11.2019
4488 Clouds -10 1029 85 0 3.86 195 14:36 12.11.2019
4489 Clouds -10 1029 85 0 3.86 195 14:36 12.11.2019
4490 Clouds -9 1029 86 0 3.7 200 14:18 12.11.2019
4491 Clouds -9 1029 86 0 3.7 200 13:55 12.11.2019
4492 Clouds -9 1029 86 0 3.7 200 13:36 12.11.2019
4493 Clouds -9 1029 86 0 3.7 200 13:36 12.11.2019
4494 Clouds -10 1029 84 0 3.91 200 13:18 12.11.2019
4495 Clouds -10 1029 84 0 3.91 200 13:18 12.11.2019
4496 Clouds -10 1029 84 0 3.91 200 12:40 12.11.2019
4497 Clouds -9 1029 86 0 3.77 199 12:19 12.11.2019
4498 Clouds -9 1029 86 0 3.77 199 11:57 12.11.2019
4499 Clouds -10 1029 84 0 3.91 200 11:39 12.11.2019
4500 Clouds -9 1028 89 0 3.67 207 11:21 12.11.2019
4501 Clouds -9 1028 85 0 3.63 204 10:55 12.11.2019
4502 Clouds -9 1028 85 0 3.63 204 10:37 12.11.2019
4503 Clouds -9 1028 85 0 3.63 204 10:19 12.11.2019
4504 Clouds -9 1028 89 0 3.67 207 09:40 12.11.2019
4505 Clouds -9 1028 89 0 3.67 207 09:20 12.11.2019
4506 Clouds -9 1028 89 0 3.67 207 08:51 12.11.2019
4507 Clouds -9 1028 85 0 3.63 204 08:30 12.11.2019
4508 Clouds -8 1027 85 0 2.81 185 07:44 12.11.2019
4509 Clouds -8 1027 85 0 2.81 185 07:25 12.11.2019
4510 Clouds -8 1027 85 0 2.81 185 06:56 12.11.2019
4511 Clouds -8 1027 85 0 2.81 185 06:30 12.11.2019
4512 Clouds -8 1027 85 0 2.81 185 05:57 12.11.2019
4513 Clouds -8 1027 85 0 2.81 185 05:29 12.11.2019
4514 Clouds -8 1026 75 0 2.95 100 04:39 12.11.2019
4515 Clouds -8 1026 75 0 2.95 100 02:51 12.11.2019
4516 Clouds -8 1025 73 0 3.74 53 01:39 12.11.2019
4517 Clouds -8 1025 73 0 3.74 53 01:19 12.11.2019
4518 Clouds -7 1024 71 0 3.99 47 00:44 12.11.2019
4519 Clouds -7 1024 71 0 3.99 47 00:21 12.11.2019
4520 Clouds -7 1024 71 0 3.99 47 23:42 11.11.2019
4521 Clouds -7 1023 70 0 4.81 29 23:21 11.11.2019
4522 Clouds -7 1023 70 0 4.81 29 23:21 11.11.2019
4523 Clouds -7 1023 70 0 4.81 29 22:40 11.11.2019
4524 Clouds -7 1023 70 0 4.81 29 22:20 11.11.2019
4525 Clouds -7 1023 70 0 4.81 29 21:59 11.11.2019
4526 Clouds -7 1023 70 0 4.81 29 21:59 11.11.2019
4527 Clouds -7 1023 70 0 4.81 29 21:40 11.11.2019
4528 Clouds -7 1023 70 0 4.81 29 21:21 11.11.2019
4529 Clouds -7 1023 70 0 4.81 29 20:59 11.11.2019
4530 Clouds -7 1023 70 0 4.81 29 20:41 11.11.2019
4531 Clouds -9 1022 79 0 2.61 316 20:20 11.11.2019
4532 Clear -9 1022 77 0 2.85 304 19:56 11.11.2019
4533 Clear -9 1022 77 0 2.85 304 19:38 11.11.2019
4534 Clear -9 1022 77 0 2.85 304 19:18 11.11.2019
4535 Clear -9 1022 77 0 2.85 304 19:18 11.11.2019
4536 Clear -9 1022 77 0 2.85 304 18:41 11.11.2019
4537 Clear -9 1022 77 0 2.85 304 18:21 11.11.2019
4538 Clear -9 1022 77 0 2.85 304 17:59 11.11.2019
4539 Clear -9 1022 77 0 2.85 304 17:40 11.11.2019
4540 Clear -11 1022 78 0 1.73 243 17:22 11.11.2019
4541 Clear -11 1022 78 0 1.73 243 16:39 11.11.2019
4542 Clear -11 1022 78 0 1.73 243 16:20 11.11.2019
4543 Clear -11 1022 78 0 1.73 243 16:20 11.11.2019
4544 Clear -11 1022 78 0 1.73 243 15:55 11.11.2019
4545 Clear -11 1022 78 0 1.73 243 15:37 11.11.2019
4546 Clear -11 1022 78 0 1.73 243 15:19 11.11.2019
4547 Clear -11 1022 78 0 1.73 243 14:42 11.11.2019
4548 Clear -11 1022 78 0 1.73 243 14:24 11.11.2019
4549 Clouds -11 1022 82 0 2.97 167 13:57 11.11.2019
4550 Clouds -11 1022 82 0 2.97 167 13:37 11.11.2019
4551 Clouds -11 1022 79 0 2.36 178 13:19 11.11.2019
4552 Clouds -11 1022 79 0 2.36 178 13:19 11.11.2019
4553 Clouds -11 1022 79 0 2.36 178 12:56 11.11.2019
4554 Clouds -11 1022 79 0 2.36 178 12:38 11.11.2019
4555 Clouds -11 1022 79 0 2.36 178 12:19 11.11.2019
4556 Clouds -11 1022 79 0 2.36 178 11:41 11.11.2019
4557 Clear -11 1022 82 0 4.57 146 11:22 11.11.2019
4558 Clear -11 1022 82 0 4.57 146 10:55 11.11.2019
4559 Clear -11 1022 82 0 4.57 146 10:37 11.11.2019
4560 Clear -11 1022 82 0 4.57 146 10:18 11.11.2019
4561 Clear -11 1022 82 0 4.57 146 09:42 11.11.2019
4562 Clear -11 1022 82 0 4.57 146 09:21 11.11.2019
4563 Clear -11 1022 82 0 4.57 146 08:43 11.11.2019
4564 Clear -10 1023 77 0 4.22 139 08:23 11.11.2019
4565 Clear -10 1024 76 0 4.52 142 07:58 11.11.2019
4566 Clear -10 1024 76 0 4.52 142 07:39 11.11.2019
4567 Clear -10 1024 76 0 4.52 142 07:39 11.11.2019
4568 Clear -10 1024 76 0 4.52 142 07:20 11.11.2019
4569 Clear -10 1024 76 0 4.52 142 06:57 11.11.2019
4570 Clear -10 1024 76 0 4.52 142 06:38 11.11.2019
4571 Clear -10 1024 76 0 4.52 142 06:20 11.11.2019
4572 Clear -10 1024 76 0 4.52 142 05:48 11.11.2019
4573 Clear -10 1025 71 0 4.17 138 03:34 11.11.2019
4574 Clear -10 1025 71 0 4.17 138 02:49 11.11.2019
4575 Clouds -10 1027 77 0 4.21 176 01:59 11.11.2019
4576 Clouds -10 1027 77 0 4.21 176 01:36 11.11.2019
4577 Clouds -10 1027 75 0 3.98 162 00:55 11.11.2019
4578 Clouds -10 1027 75 0 3.98 162 00:33 11.11.2019
4579 Clouds -10 1027 75 0 3.98 162 23:58 10.11.2019
4580 Clouds -10 1027 75 0 3.98 162 23:38 10.11.2019
4581 Clouds -11 1029 84 0 4.29 190 23:19 10.11.2019
4582 Clouds -11 1029 84 0 4.29 190 23:19 10.11.2019
4583 Clouds -11 1029 84 0 4.29 190 22:56 10.11.2019
4584 Clouds -11 1029 84 0 4.29 190 22:38 10.11.2019
4585 Clouds -11 1029 84 0 4.29 190 22:19 10.11.2019
4586 Clouds -11 1029 84 0 4.29 190 21:55 10.11.2019
4587 Clouds -11 1029 84 0 4.29 190 21:36 10.11.2019
4588 Clouds -11 1029 84 0 4.29 190 21:18 10.11.2019
4589 Clouds -11 1029 84 0 4.29 190 20:41 10.11.2019
4590 Clouds -11 1031 92 0 6 204 20:22 10.11.2019
4591 Clouds -11 1031 92 0 6 204 19:56 10.11.2019
4592 Clouds -11 1031 92 0 6 204 19:56 10.11.2019
4593 Clouds -11 1031 92 0 6 204 19:37 10.11.2019
4594 Clouds -11 1031 92 0 6 204 19:19 10.11.2019
4595 Clouds -11 1031 92 0 6 204 18:58 10.11.2019
4596 Clouds -11 1031 92 0 6 204 18:39 10.11.2019
4597 Clouds -11 1031 92 0 6 204 18:19 10.11.2019
4598 Clouds -11 1031 92 0 6 204 18:19 10.11.2019
4599 Clouds -11 1031 92 0 6 204 17:56 10.11.2019
4600 Clouds -11 1031 92 0 6 204 17:38 10.11.2019
4601 Clouds -12 1032 94 0 7.6 210 17:19 10.11.2019
4602 Clouds -12 1032 94 0 7.6 210 16:58 10.11.2019
4603 Clouds -12 1032 94 0 7.6 210 16:38 10.11.2019
4604 Clouds -12 1032 94 0 7.6 210 16:20 10.11.2019
4605 Clouds -12 1032 94 0 7.6 210 15:55 10.11.2019
4606 Clouds -12 1032 94 0 7.6 210 15:36 10.11.2019
4607 Clouds -12 1032 94 0 7.6 210 15:36 10.11.2019
4608 Clouds -12 1032 94 0 7.6 210 15:18 10.11.2019
4609 Clouds -12 1032 94 0 7.6 210 14:41 10.11.2019
4610 Clear -11 1033 85 0 8.11 209 14:23 10.11.2019
4611 Clear -11 1033 85 0 8.11 209 13:58 10.11.2019
4612 Clear -11 1033 85 0 8.11 209 13:40 10.11.2019
4613 Clear -11 1033 88 0 7.73 208 13:20 10.11.2019
4614 Clear -11 1033 88 0 7.73 208 12:44 10.11.2019
4615 Clear -11 1033 88 0 7.73 208 12:21 10.11.2019
4616 Clear -11 1033 88 0 7.73 208 11:57 10.11.2019
4617 Clear -11 1033 88 0 7.73 208 11:39 10.11.2019
4618 Clear -10 1033 84 0 7.32 215 11:20 10.11.2019
4619 Clear -10 1033 84 0 7.32 215 10:59 10.11.2019
4620 Clear -10 1033 84 0 7.32 215 10:40 10.11.2019
4621 Clear -10 1033 84 0 7.32 215 10:20 10.11.2019
4622 Clear -10 1033 84 0 7.32 215 09:42 10.11.2019
4623 Clear -10 1033 84 0 7.32 215 09:42 10.11.2019
4624 Clear -10 1033 84 0 7.32 215 09:22 10.11.2019
4625 Clear -10 1033 84 0 7.32 215 08:40 10.11.2019
4626 Clouds -10 1033 88 0 6.86 224 08:21 10.11.2019
4627 Clouds -10 1033 87 0 6.58 225 07:58 10.11.2019
4628 Clouds -10 1033 87 0 6.58 225 07:38 10.11.2019
4629 Clouds -10 1033 87 0 6.58 225 07:18 10.11.2019
4630 Clouds -10 1033 87 0 6.58 225 06:25 10.11.2019
4631 Clouds -9 1033 86 0 6.03 238 04:46 10.11.2019
4632 Clouds -9 1033 86 0 6.03 238 03:19 10.11.2019
4633 Clouds -7 1032 86 0 6.55 248 01:44 10.11.2019
4634 Clouds -7 1032 84 0 6.59 245 01:19 10.11.2019
4635 Clouds -7 1032 84 0 6.59 245 00:40 10.11.2019
4636 Clouds -7 1032 84 0 6.59 245 23:43 09.11.2019
4637 Clouds -6 1031 61 0 3.18 277 23:21 09.11.2019
4638 Clouds -6 1031 61 0 3.18 277 22:59 09.11.2019
4639 Clouds -6 1031 61 0 3.18 277 22:40 09.11.2019
4640 Clouds -6 1031 61 0 3.18 277 22:19 09.11.2019
4641 Clouds -6 1031 61 0 3.18 277 21:55 09.11.2019
4642 Clouds -6 1031 61 0 3.18 277 21:37 09.11.2019
4643 Clouds -6 1031 61 0 3.18 277 21:19 09.11.2019
4644 Clouds -6 1031 61 0 3.18 277 20:41 09.11.2019
4645 Clouds -6 1031 61 0 3.18 277 20:41 09.11.2019
4646 Clouds -6 1030 58 0 1.09 346 20:22 09.11.2019
4647 Clouds -6 1030 58 0 1.09 346 19:57 09.11.2019
4648 Clouds -6 1030 58 0 1.09 346 19:38 09.11.2019
4649 Clouds -6 1030 58 0 1.09 346 19:19 09.11.2019
4650 Clouds -6 1030 58 0 1.09 346 18:40 09.11.2019
4651 Clouds -6 1030 58 0 1.09 346 18:19 09.11.2019
4652 Clouds -6 1030 58 0 1.09 346 17:58 09.11.2019
4653 Clouds -6 1030 58 0 1.09 346 17:58 09.11.2019
4654 Clouds -6 1030 58 0 1.09 346 17:40 09.11.2019
4655 Snow -5 1029 58 0 2.22 352 17:22 09.11.2019
4656 Snow -5 1029 58 0 2.22 352 16:42 09.11.2019
4657 Snow -5 1029 58 0 2.22 352 16:21 09.11.2019
4658 Snow -5 1029 58 0 2.22 352 15:57 09.11.2019
4659 Snow -5 1029 58 0 2.22 352 15:39 09.11.2019
4660 Snow -5 1029 58 0 2.22 352 15:20 09.11.2019
4661 Snow -5 1029 58 0 2.22 352 14:42 09.11.2019
4662 Snow -5 1029 58 0 2.22 352 14:42 09.11.2019
4663 Clouds -5 1028 56 0 2.26 356 14:22 09.11.2019
4664 Clouds -5 1028 56 0 2.26 356 13:57 09.11.2019
4665 Clouds -5 1028 56 0 2.26 356 13:38 09.11.2019
4666 Snow -5 1028 58 0 3.52 19 13:19 09.11.2019
4667 Snow -5 1028 58 0 3.52 19 12:55 09.11.2019
4668 Snow -5 1028 58 0 3.52 19 12:37 09.11.2019
4669 Snow -5 1028 58 0 3.52 19 12:18 09.11.2019
4670 Snow -5 1028 58 0 3.52 19 11:44 09.11.2019
4671 Clouds -5 1026 57 0 2.71 14 11:20 09.11.2019
4672 Clouds -5 1026 57 0 2.71 14 10:42 09.11.2019
4673 Clouds -5 1026 57 0 2.71 14 10:20 09.11.2019
4674 Clouds -5 1026 57 0 2.71 14 10:00 09.11.2019
4675 Clouds -5 1026 57 0 2.71 14 09:41 09.11.2019
4676 Clouds -5 1026 57 0 2.71 14 09:20 09.11.2019
4677 Clouds -5 1026 57 0 2.71 14 08:43 09.11.2019
4678 Clouds -5 1026 57 0 2.71 14 08:25 09.11.2019
4679 Clouds -6 1025 68 0 2.58 271 07:55 09.11.2019
4680 Clouds -6 1025 68 0 2.58 271 07:37 09.11.2019
4681 Clouds -6 1025 68 0 2.58 271 07:19 09.11.2019
4682 Clouds -6 1025 68 0 2.58 271 06:43 09.11.2019
4683 Clouds -6 1025 68 0 2.58 271 06:25 09.11.2019
4684 Clouds -6 1025 68 0 2.58 271 05:40 09.11.2019
4685 Snow -7 1023 75 0 3.31 253 04:29 09.11.2019
4686 Snow -7 1023 75 0 3.31 253 02:49 09.11.2019
4687 Snow -7 1023 75 0 3.31 253 02:26 09.11.2019
4688 Snow -5 1023 62 0 2.38 288 01:18 09.11.2019
4689 Snow -5 1023 62 0 2.38 288 00:40 09.11.2019
4690 Snow -5 1023 62 0 2.38 288 00:22 09.11.2019
4691 Snow -5 1023 62 0 2.38 288 23:40 08.11.2019
4692 Clouds -5 1022 59 0 3.41 287 23:22 08.11.2019
4693 Clouds -5 1022 59 0 3.41 287 22:59 08.11.2019
4694 Clouds -5 1022 59 0 3.41 287 22:39 08.11.2019
4695 Clouds -5 1022 59 0 3.41 287 22:21 08.11.2019
4696 Clouds -5 1022 59 0 3.41 287 21:42 08.11.2019
4697 Clouds -5 1022 59 0 3.41 287 21:23 08.11.2019
4698 Clouds -5 1022 59 0 3.41 287 20:58 08.11.2019
4699 Clouds -5 1022 59 0 3.41 287 20:40 08.11.2019
4700 Snow -5 1021 62 0 4.34 334 20:19 08.11.2019
4701 Snow -5 1021 62 0 4.34 334 19:54 08.11.2019
4702 Snow -5 1021 62 0 4.34 334 19:36 08.11.2019
4703 Snow -5 1021 62 0 4.34 334 19:18 08.11.2019
4704 Snow -5 1021 62 0 4.34 334 18:54 08.11.2019
4705 Snow -5 1021 62 0 4.34 334 18:36 08.11.2019
4706 Snow -5 1021 62 0 4.34 334 18:18 08.11.2019
4707 Snow -5 1021 62 0 4.34 334 17:54 08.11.2019
4708 Snow -5 1021 62 0 4.34 334 17:36 08.11.2019
4709 Snow -5 1020 64 0 5.21 333 17:18 08.11.2019
4710 Snow -5 1020 64 0 5.21 333 17:18 08.11.2019
4711 Snow -5 1020 64 0 5.21 333 16:55 08.11.2019
4712 Snow -5 1020 64 0 5.21 333 16:37 08.11.2019
4713 Snow -5 1020 64 0 5.21 333 16:18 08.11.2019
4714 Snow -5 1020 64 0 5.21 333 15:41 08.11.2019
4715 Snow -5 1020 64 0 5.21 333 15:22 08.11.2019
4716 Snow -5 1020 64 0 5.21 333 15:22 08.11.2019
4717 Snow -5 1020 64 0 5.21 333 14:57 08.11.2019
4718 Snow -5 1020 64 0 5.21 333 14:38 08.11.2019
4719 Snow -5 1020 63 0 6.63 336 14:20 08.11.2019
4720 Snow -5 1020 63 0 6.63 336 13:59 08.11.2019
4721 Snow -5 1020 63 0 6.63 336 13:39 08.11.2019
4722 Snow -5 1020 63 0 6.73 336 13:21 08.11.2019
4723 Snow -5 1020 63 0 6.73 336 12:45 08.11.2019
4724 Snow -5 1020 63 0 6.73 336 12:27 08.11.2019
4725 Snow -5 1020 63 0 6.73 336 11:58 08.11.2019
4726 Snow -5 1020 63 0 6.73 336 11:40 08.11.2019
4727 Snow -5 1018 65 0 6.87 338 11:21 08.11.2019
4728 Snow -5 1018 65 0 6.87 338 10:58 08.11.2019
4729 Snow -5 1018 65 0 6.87 338 10:40 08.11.2019
4730 Snow -5 1018 65 0 6.87 338 10:21 08.11.2019
4731 Snow -5 1018 65 0 6.87 338 09:58 08.11.2019
4732 Snow -5 1018 65 0 6.87 338 09:37 08.11.2019
4733 Snow -5 1018 65 0 6.87 338 09:18 08.11.2019
4734 Snow -5 1018 65 0 6.87 338 08:45 08.11.2019
4735 Snow -5 1018 66 0 6.51 352 08:21 08.11.2019
4736 Snow -5 1018 66 0 6.51 352 07:44 08.11.2019
4737 Snow -5 1018 66 0 6.51 352 07:23 08.11.2019
4738 Snow -5 1018 66 0 6.51 352 06:56 08.11.2019
4739 Snow -5 1018 66 0 6.51 352 06:37 08.11.2019
4740 Snow -5 1018 66 0 6.51 352 06:19 08.11.2019
4741 Snow -5 1018 66 0 6.51 352 05:25 08.11.2019
4742 Snow -5 1016 70 0 7.21 2 04:28 08.11.2019
4743 Snow -5 1016 70 0 7.21 2 03:42 08.11.2019
4744 Snow -5 1016 70 0 7.21 2 03:42 08.11.2019
4745 Snow -5 1016 70 0 7.21 2 02:55 08.11.2019
4746 Snow -5 1016 73 0 6.68 4 01:53 08.11.2019
4747 Snow -5 1015 72 0 6.85 6 01:33 08.11.2019
4748 Snow -5 1015 72 0 6.85 6 00:40 08.11.2019
4749 Snow -5 1015 72 0 6.85 6 00:20 08.11.2019
4750 Snow -5 1015 72 0 6.85 6 23:46 07.11.2019
4751 Snow -5 1015 72 0 6.85 6 23:27 07.11.2019
4752 Snow -5 1013 73 0 6.85 11 22:57 07.11.2019
4753 Snow -5 1013 73 0 6.85 11 22:37 07.11.2019
4754 Snow -5 1013 73 0 6.85 11 22:19 07.11.2019
4755 Snow -5 1013 73 0 6.85 11 21:39 07.11.2019
4756 Snow -5 1013 73 0 6.85 11 21:20 07.11.2019
4757 Snow -5 1013 73 0 6.85 11 20:58 07.11.2019
4758 Snow -5 1013 73 0 6.85 11 20:40 07.11.2019
4759 Snow -5 1013 73 0 7.3 9 20:21 07.11.2019
4760 Snow -5 1013 73 0 7.3 9 19:57 07.11.2019
4761 Snow -5 1013 73 0 7.3 9 19:57 07.11.2019
4762 Snow -5 1013 73 0 7.3 9 19:38 07.11.2019
4763 Snow -5 1013 73 0 7.3 9 19:20 07.11.2019
4764 Snow -5 1013 73 0 7.3 9 18:57 07.11.2019
4765 Snow -5 1013 73 0 7.3 9 18:38 07.11.2019
4766 Snow -5 1013 73 0 7.3 9 18:19 07.11.2019
4767 Snow -5 1013 73 0 7.3 9 17:54 07.11.2019
4768 Snow -5 1013 73 0 7.3 9 17:36 07.11.2019
4769 Snow -5 1011 71 0 6.95 9 17:18 07.11.2019
4770 Snow -5 1011 71 0 6.95 9 16:54 07.11.2019
4771 Snow -5 1011 71 0 6.95 9 16:36 07.11.2019
4772 Snow -5 1011 71 0 6.95 9 16:18 07.11.2019
4773 Snow -5 1011 71 0 6.95 9 15:40 07.11.2019
4774 Snow -5 1011 71 0 6.95 9 15:19 07.11.2019
4775 Snow -5 1011 71 0 6.95 9 14:54 07.11.2019
4776 Snow -5 1011 71 0 6.95 9 14:36 07.11.2019
4777 Snow -5 1011 72 0 5.93 23 14:18 07.11.2019
4778 Snow -5 1011 72 0 5.93 23 13:54 07.11.2019
4779 Snow -5 1011 74 0 5.77 27 13:36 07.11.2019
4780 Snow -5 1011 74 0 5.77 27 13:18 07.11.2019
4781 Snow -5 1011 74 0 5.77 27 12:54 07.11.2019
4782 Snow -5 1011 74 0 5.77 27 12:54 07.11.2019
4783 Snow -5 1011 74 0 5.77 27 12:36 07.11.2019
4784 Snow -5 1011 74 0 5.77 27 12:18 07.11.2019
4785 Snow -5 1011 74 0 5.77 27 11:40 07.11.2019
4786 Snow -5 1010 76 0 6.9 38 11:22 07.11.2019
4787 Snow -5 1010 76 0 6.9 38 10:42 07.11.2019
4788 Snow -5 1010 76 0 6.9 38 10:19 07.11.2019
4789 Snow -5 1010 76 0 6.9 38 09:45 07.11.2019
4790 Snow -5 1010 76 0 6.9 38 09:25 07.11.2019
4791 Snow -5 1010 76 0 6.9 38 08:59 07.11.2019
4792 Snow -5 1010 76 0 6.9 38 08:59 07.11.2019
4793 Snow -5 1010 76 0 6.9 38 08:40 07.11.2019
4794 Snow -5 1008 74 0 7.32 40 08:22 07.11.2019
4795 Snow -5 1008 74 0 7.32 40 07:56 07.11.2019
4796 Snow -5 1008 74 0 7.32 40 07:37 07.11.2019
4797 Snow -5 1008 74 0 7.32 40 07:19 07.11.2019
4798 Snow -5 1008 74 0 7.32 40 06:42 07.11.2019
4799 Snow -5 1008 74 0 7.32 40 06:23 07.11.2019
4800 Snow -5 1008 74 0 7.32 40 06:22 07.11.2019
4801 Snow -5 1008 74 0 7.32 40 05:47 07.11.2019
4802 Snow -5 1008 74 0 7.32 40 05:29 07.11.2019
4803 Snow -5 1007 75 0 7.32 41 04:49 07.11.2019
4804 Snow -5 1007 75 0 7.32 41 04:28 07.11.2019
4805 Snow -5 1006 77 0 6.71 41 01:18 07.11.2019
4806 Snow -5 1006 77 0 6.71 41 00:26 07.11.2019
4807 Snow -5 1006 77 0 6.71 41 23:50 06.11.2019
4808 Snow -5 1005 76 0 6.23 41 23:23 06.11.2019
4809 Snow -5 1005 76 0 6.23 41 22:58 06.11.2019
4810 Snow -5 1005 76 0 6.23 41 22:39 06.11.2019
4811 Snow -5 1005 76 0 6.23 41 22:39 06.11.2019
4812 Snow -5 1005 76 0 6.23 41 22:20 06.11.2019
4813 Snow -5 1005 76 0 6.23 41 21:57 06.11.2019
4814 Snow -5 1005 76 0 6.23 41 21:38 06.11.2019
4815 Snow -5 1005 76 0 6.23 41 21:19 06.11.2019
4816 Snow -5 1005 76 0 6.23 41 20:55 06.11.2019
4817 Snow -5 1005 76 0 6.23 41 20:37 06.11.2019
4818 Snow -4 1004 78 0 7.1 35 20:19 06.11.2019
4819 Snow -5 1004 77 0 7.04 33 19:40 06.11.2019
4820 Snow -5 1004 77 0 7.04 33 19:22 06.11.2019
4821 Snow -5 1004 77 0 7.04 33 18:59 06.11.2019
4822 Snow -5 1004 77 0 7.04 33 18:39 06.11.2019
4823 Snow -5 1004 77 0 7.04 33 18:20 06.11.2019
4824 Snow -5 1004 77 0 7.04 33 17:59 06.11.2019
4825 Snow -5 1004 77 0 7.04 33 17:41 06.11.2019
4826 Snow -4 1003 73 0 7.86 24 17:22 06.11.2019
4827 Snow -4 1003 73 0 7.86 24 16:57 06.11.2019
4828 Snow -4 1003 73 0 7.86 24 16:38 06.11.2019
4829 Snow -4 1003 73 0 7.86 24 16:38 06.11.2019
4830 Snow -4 1003 73 0 7.86 24 16:19 06.11.2019
4831 Snow -4 1003 73 0 7.86 24 15:56 06.11.2019
4832 Snow -4 1003 73 0 7.86 24 15:56 06.11.2019
4833 Snow -4 1003 73 0 7.86 24 15:37 06.11.2019
4834 Snow -4 1003 73 0 7.86 24 15:19 06.11.2019
4835 Snow -4 1003 73 0 7.86 24 14:56 06.11.2019
4836 Snow -4 1003 73 0 7.86 24 14:38 06.11.2019
4837 Snow -4 1002 72 0 7.32 22 14:20 06.11.2019
4838 Snow -4 1002 72 0 7.32 22 13:54 06.11.2019
4839 Snow -4 1002 72 0 7.32 22 13:36 06.11.2019
4840 Snow -4 1002 73 0 7.53 21 13:18 06.11.2019
4841 Snow -4 1002 73 0 7.53 21 12:43 06.11.2019
4842 Snow -4 1002 73 0 7.53 21 12:23 06.11.2019
4843 Snow -4 1002 73 0 7.53 21 11:59 06.11.2019
4844 Snow -4 1002 73 0 7.53 21 11:59 06.11.2019
4845 Snow -4 1002 73 0 7.53 21 11:38 06.11.2019
4846 Snow -4 1000 74 0 7.86 11 11:19 06.11.2019
4847 Snow -4 1000 74 0 7.86 11 10:57 06.11.2019
4848 Snow -4 1000 74 0 7.86 11 10:39 06.11.2019
4849 Snow -4 1000 74 0 7.86 11 10:21 06.11.2019
4850 Snow -4 1000 74 0 7.86 11 09:57 06.11.2019
4851 Snow -4 1000 74 0 7.86 11 09:38 06.11.2019
4852 Snow -4 1000 74 0 7.86 11 09:19 06.11.2019
4853 Snow -4 1000 74 0 7.86 11 08:55 06.11.2019
4854 Snow -4 1000 74 0 7.86 11 08:36 06.11.2019
4855 Snow -4 998 76 0 8.4 11 08:18 06.11.2019
4856 Snow -4 998 76 0 8.4 11 08:18 06.11.2019
4857 Snow -4 998 76 0 8.4 11 07:41 06.11.2019
4858 Snow -4 998 76 0 8.4 11 07:22 06.11.2019
4859 Snow -4 998 76 0 8.4 11 06:47 06.11.2019
4860 Snow -4 998 76 0 8.4 11 06:28 06.11.2019
4861 Snow -4 996 80 0 8.36 12 04:53 06.11.2019
4862 Snow -4 996 80 0 8.36 12 02:28 06.11.2019
4863 Snow -4 993 83 0 8.64 17 01:41 06.11.2019
4864 Snow -4 993 81 0 8.79 11 00:46 06.11.2019
4865 Snow -4 993 81 0 8.79 11 23:59 05.11.2019
4866 Snow -4 993 81 0 8.79 11 23:39 05.11.2019
4867 Snow -3 991 85 0 9.45 31 23:21 05.11.2019
4868 Snow -3 991 85 0 9.45 31 22:55 05.11.2019
4869 Snow -3 991 85 0 9.45 31 22:36 05.11.2019
4870 Snow -3 991 85 0 9.45 31 22:18 05.11.2019
4871 Snow -3 991 85 0 9.45 31 21:42 05.11.2019
4872 Snow -3 991 85 0 9.45 31 21:21 05.11.2019
4873 Snow -3 991 85 0 9.45 31 21:21 05.11.2019
4874 Snow -3 991 85 0 9.45 31 20:59 05.11.2019
4875 Snow -3 991 85 0 9.45 31 20:39 05.11.2019
4876 Snow -2 989 92 0 7.98 32 20:20 05.11.2019
4877 Snow -2 989 92 0 7.98 32 19:57 05.11.2019
4878 Snow -2 989 92 0 7.98 32 19:38 05.11.2019
4879 Snow -2 989 92 0 7.98 32 19:20 05.11.2019
4880 Snow -2 989 92 0 7.98 32 18:57 05.11.2019
4881 Snow -2 989 92 0 7.98 32 18:39 05.11.2019
4882 Snow -2 989 92 0 7.98 32 18:20 05.11.2019
4883 Snow -2 989 92 0 7.98 32 17:57 05.11.2019
4884 Snow -2 989 92 0 7.98 32 17:38 05.11.2019
4885 Snow -2 988 93 0 4.83 256 17:18 05.11.2019
4886 Snow -2 988 93 0 4.83 256 16:54 05.11.2019
4887 Snow -2 988 93 0 4.83 256 16:36 05.11.2019
4888 Snow -2 988 93 0 4.83 256 16:18 05.11.2019
4889 Snow -2 988 93 0 4.83 256 15:37 05.11.2019
4890 Snow -2 988 93 0 4.83 256 15:19 05.11.2019
4891 Snow -2 988 93 0 4.83 256 15:19 05.11.2019
4892 Snow -2 988 93 0 4.83 256 14:57 05.11.2019
4893 Snow -2 988 93 0 4.83 256 14:38 05.11.2019
4894 Snow -2 988 93 0 4.83 256 14:38 05.11.2019
4895 Snow -2 987 83 0 5.26 247 14:20 05.11.2019
4896 Snow -2 987 83 0 5.26 247 13:43 05.11.2019
4897 Snow -3 987 86 0 6.7 259 13:24 05.11.2019
4898 Snow -3 987 86 0 6.7 259 12:59 05.11.2019
4899 Snow -3 987 86 0 6.7 259 12:39 05.11.2019
4900 Snow -3 987 86 0 6.7 259 12:19 05.11.2019
4901 Snow -3 987 86 0 6.7 259 11:54 05.11.2019
4902 Snow -3 987 86 0 6.7 259 11:36 05.11.2019
4903 Snow -3 987 86 0 6.7 259 11:36 05.11.2019
4904 Snow -3 987 92 0 6 255 11:18 05.11.2019
4905 Snow -3 987 92 0 6 255 11:18 05.11.2019
4906 Snow -3 987 92 0 6 255 10:41 05.11.2019
4907 Snow -3 987 92 0 6 255 10:23 05.11.2019
4908 Snow -3 987 92 0 6 255 10:23 05.11.2019
4909 Snow -3 987 92 0 6 255 09:57 05.11.2019
4910 Snow -3 987 92 0 6 255 09:38 05.11.2019
4911 Snow -3 987 92 0 6 255 09:19 05.11.2019
4912 Snow -3 987 92 0 6 255 08:41 05.11.2019
4913 Snow -2 987 85 0 6.83 243 08:21 05.11.2019
4914 Snow -2 987 85 0 6.83 243 07:59 05.11.2019
4915 Snow -2 987 85 0 6.83 243 07:41 05.11.2019
4916 Snow -2 987 85 0 6.83 243 07:23 05.11.2019
4917 Snow -2 987 85 0 6.83 243 06:51 05.11.2019
4918 Snow -2 987 85 0 6.83 243 05:51 05.11.2019
4919 Snow -2 987 85 0 6.83 243 05:29 05.11.2019
4920 Snow -3 988 92 0 9.63 181 04:47 05.11.2019
4921 Snow -3 988 92 0 9.63 181 03:56 05.11.2019
4922 Snow -3 988 92 0 9.63 181 02:59 05.11.2019
4923 Snow -3 988 92 0 9.63 181 02:41 05.11.2019
4924 Snow -5 990 93 0 9.17 127 01:26 05.11.2019
4925 Snow -5 990 93 0 9.17 127 00:38 05.11.2019
4926 Snow -5 990 93 0 9.17 127 23:59 04.11.2019
4927 Snow -5 990 93 0 9.17 127 23:40 04.11.2019
4928 Snow -6 992 90 0 10.78 149 23:18 04.11.2019
4929 Snow -6 992 90 0 10.78 149 22:43 04.11.2019
4930 Snow -6 992 90 0 10.78 149 22:24 04.11.2019
4931 Snow -6 992 90 0 10.78 149 21:57 04.11.2019
4932 Snow -6 992 90 0 10.78 149 21:38 04.11.2019
4933 Snow -6 992 90 0 10.78 149 21:20 04.11.2019
4934 Snow -6 992 90 0 10.78 149 20:59 04.11.2019
4935 Snow -6 992 90 0 10.78 149 20:40 04.11.2019
4936 Snow -6 996 93 0 11.94 149 20:21 04.11.2019
4937 Snow -6 996 93 0 11.94 149 19:59 04.11.2019
4938 Snow -6 996 93 0 11.94 149 19:41 04.11.2019
4939 Snow -6 996 93 0 11.94 149 19:22 04.11.2019
4940 Snow -6 996 93 0 11.94 149 18:58 04.11.2019
4941 Snow -6 996 93 0 11.94 149 18:39 04.11.2019
4942 Snow -6 996 93 0 11.94 149 18:20 04.11.2019
4943 Snow -6 996 93 0 11.94 149 17:56 04.11.2019
4944 Snow -6 996 93 0 11.94 149 17:36 04.11.2019
4945 Snow -6 999 89 0 11.68 154 17:18 04.11.2019
4946 Snow -6 999 89 0 11.68 154 16:42 04.11.2019
4947 Snow -6 999 89 0 11.68 154 16:23 04.11.2019
4948 Snow -6 999 89 0 11.68 154 15:58 04.11.2019
4949 Snow -6 999 89 0 11.68 154 15:39 04.11.2019
4950 Snow -6 999 89 0 11.68 154 15:21 04.11.2019
4951 Snow -6 999 89 0 11.68 154 14:57 04.11.2019
4952 Snow -6 999 89 0 11.68 154 14:39 04.11.2019
4953 Clouds -6 1003 82 0 11.45 157 14:20 04.11.2019
4954 Clouds -6 1003 82 0 11.45 157 13:57 04.11.2019
4955 Clouds -6 1003 82 0 11.45 157 13:39 04.11.2019
4956 Clouds -6 1003 82 0 11.56 158 13:20 04.11.2019
4957 Clouds -6 1003 82 0 11.56 158 12:45 04.11.2019
4958 Clouds -6 1003 82 0 11.56 158 12:25 04.11.2019
4959 Clouds -6 1003 82 0 11.56 158 11:58 04.11.2019
4960 Clouds -6 1003 82 0 11.56 158 11:40 04.11.2019
4961 Clouds -6 1006 75 0 12.56 160 11:21 04.11.2019
4962 Clouds -6 1006 75 0 12.56 160 10:47 04.11.2019
4963 Clouds -6 1006 75 0 12.56 160 10:26 04.11.2019
4964 Clouds -6 1006 75 0 12.56 160 09:56 04.11.2019
4965 Clouds -6 1006 75 0 12.56 160 09:38 04.11.2019
4966 Clouds -6 1006 75 0 12.56 160 09:19 04.11.2019
4967 Clouds -6 1006 75 0 12.56 160 08:42 04.11.2019
4968 Clouds -6 1008 75 0 12.66 162 08:23 04.11.2019
4969 Clouds -6 1008 75 0 12.66 162 07:56 04.11.2019
4970 Clouds -6 1008 75 0 12.66 162 07:38 04.11.2019
4971 Clouds -6 1008 75 0 12.66 162 07:38 04.11.2019
4972 Clouds -6 1008 75 0 12.66 162 07:19 04.11.2019
4973 Clouds -6 1008 75 0 12.66 162 06:41 04.11.2019
4974 Clouds -6 1008 75 0 12.66 162 06:18 04.11.2019
4975 Clouds -6 1008 75 0 12.66 162 05:31 04.11.2019
4976 Clear -6 1011 64 0 11.63 165 04:27 04.11.2019
4977 Clear -6 1011 64 0 11.63 165 03:31 04.11.2019
4978 Clear -6 1014 65 0 10.76 177 01:24 04.11.2019
4979 Clear -6 1014 65 0 10.76 177 00:59 04.11.2019
4980 Clear -6 1014 65 0 10.76 177 00:22 04.11.2019
4981 Clear -6 1014 65 0 10.76 177 23:58 03.11.2019
4982 Clear -6 1014 65 0 10.76 177 23:37 03.11.2019
4983 Clear -7 1016 75 0 10.17 193 23:18 03.11.2019
4984 Clear -7 1016 75 0 10.17 193 22:56 03.11.2019
4985 Clear -7 1016 75 0 10.17 193 22:38 03.11.2019
4986 Clear -7 1016 75 0 10.17 193 22:18 03.11.2019
4987 Clear -7 1016 75 0 10.17 193 21:42 03.11.2019
4988 Clear -7 1016 75 0 10.17 193 21:21 03.11.2019
4989 Clear -7 1016 75 0 10.17 193 20:58 03.11.2019
4990 Clear -7 1016 75 0 10.17 193 20:37 03.11.2019
4991 Clear -8 1017 84 0 10.46 204 20:19 03.11.2019
4992 Clear -8 1017 84 0 10.46 204 19:57 03.11.2019
4993 Clear -8 1017 84 0 10.46 204 19:38 03.11.2019
4994 Clear -8 1017 84 0 10.46 204 19:20 03.11.2019
4995 Clear -8 1017 84 0 10.46 204 18:55 03.11.2019
4996 Clear -8 1017 84 0 10.46 204 18:36 03.11.2019
4997 Clear -8 1017 84 0 10.46 204 18:18 03.11.2019
4998 Clear -8 1017 84 0 10.46 204 17:42 03.11.2019
4999 Clouds -8 1018 87 0 10.34 211 17:20 03.11.2019
5000 Clouds -8 1018 87 0 10.34 211 16:57 03.11.2019
5001 Clouds -8 1018 87 0 10.34 211 16:39 03.11.2019
5002 Clouds -8 1018 87 0 10.34 211 16:21 03.11.2019
5003 Clouds -8 1018 87 0 10.34 211 15:57 03.11.2019
5004 Clouds -8 1018 87 0 10.34 211 15:39 03.11.2019
5005 Clouds -8 1018 87 0 10.34 211 15:21 03.11.2019
5006 Clouds -8 1018 87 0 10.34 211 14:42 03.11.2019
5007 Clouds -7 1018 91 0 10.15 219 14:20 03.11.2019
5008 Clouds -7 1018 91 0 10.15 219 13:58 03.11.2019
5009 Clouds -7 1018 91 0 10.15 219 13:40 03.11.2019
5010 Clouds -7 1017 90 0 10.43 220 13:18 03.11.2019
5011 Clouds -7 1017 90 0 10.43 220 12:39 03.11.2019
5012 Clouds -7 1017 90 0 10.43 220 12:20 03.11.2019
5013 Clouds -7 1017 90 0 10.43 220 11:59 03.11.2019
5014 Clouds -7 1017 90 0 10.43 220 11:41 03.11.2019
5015 Snow -5 1016 88 0 10.43 229 11:20 03.11.2019
5016 Snow -5 1016 88 0 10.43 229 10:55 03.11.2019
5017 Snow -5 1016 88 0 10.43 229 10:37 03.11.2019
5018 Snow -5 1016 88 0 10.43 229 10:18 03.11.2019
5019 Snow -5 1016 88 0 10.43 229 10:18 03.11.2019
5020 Snow -5 1016 88 0 10.43 229 09:42 03.11.2019
5021 Snow -5 1016 88 0 10.43 229 09:23 03.11.2019
5022 Snow -5 1016 88 0 10.43 229 08:56 03.11.2019
5023 Snow -5 1016 88 0 10.43 229 08:36 03.11.2019
5024 Clouds -3 1014 89 0 7.46 256 08:18 03.11.2019
5025 Clouds -3 1014 89 0 7.46 256 07:44 03.11.2019
5026 Clouds -3 1014 89 0 7.46 256 07:20 03.11.2019
5027 Clouds -3 1014 89 0 7.46 256 06:39 03.11.2019
5028 Clouds -3 1014 89 0 7.46 256 05:52 03.11.2019
5029 Clouds -3 1014 89 0 7.46 256 05:32 03.11.2019
5030 Clouds -2 1013 74 0 2.2 307 04:51 03.11.2019
5031 Clouds -2 1013 74 0 2.2 307 03:54 03.11.2019
5032 Clouds -2 1013 74 0 2.2 307 02:47 03.11.2019
5033 Clouds -2 1011 75 0 6.99 298 02:23 03.11.2019
5034 Clouds -2 1011 75 0 6.99 298 01:49 03.11.2019
5035 Clouds -2 1011 76 0 7.58 302 01:24 03.11.2019
5036 Clouds -2 1011 76 0 7.58 302 00:57 03.11.2019
5037 Clouds -2 1011 76 0 7.58 302 00:38 03.11.2019
5038 Clouds -2 1011 76 0 7.58 302 00:19 03.11.2019
5039 Clouds -2 1011 76 0 7.58 302 23:40 02.11.2019
5040 Clouds -2 1009 71 0 8.29 282 23:20 02.11.2019
5041 Clouds -2 1009 71 0 8.29 282 22:56 02.11.2019
5042 Clouds -2 1009 71 0 8.29 282 22:38 02.11.2019
5043 Clouds -2 1009 71 0 8.29 282 22:19 02.11.2019
5044 Clouds -2 1009 71 0 8.29 282 21:57 02.11.2019
5045 Clouds -2 1009 71 0 8.29 282 21:38 02.11.2019
5046 Clouds -2 1009 71 0 8.29 282 21:19 02.11.2019
5047 Clouds -2 1009 71 0 8.29 282 21:19 02.11.2019
5048 Clouds -2 1009 71 0 8.29 282 21:19 02.11.2019
5049 Clouds -2 1009 71 0 8.29 282 20:59 02.11.2019
5050 Clouds -2 1009 71 0 8.29 282 20:40 02.11.2019
5051 Snow -3 1008 86 0 11.45 223 20:21 02.11.2019
5052 Snow -3 1008 86 0 11.45 223 19:57 02.11.2019
5053 Snow -3 1008 86 0 11.45 223 19:36 02.11.2019
5054 Snow -3 1008 86 0 11.45 223 19:18 02.11.2019
5055 Snow -3 1008 86 0 11.45 223 18:54 02.11.2019
5056 Snow -3 1008 86 0 11.45 223 18:36 02.11.2019
5057 Snow -3 1008 86 0 11.45 223 18:18 02.11.2019
5058 Snow -3 1008 86 0 11.45 223 18:18 02.11.2019
5059 Snow -3 1008 86 0 11.45 223 17:42 02.11.2019
5060 Snow -3 1008 86 0 11.45 223 17:24 02.11.2019
5061 Snow -5 1007 93 0 11.24 214 16:58 02.11.2019
5062 Snow -5 1007 93 0 11.24 214 16:39 02.11.2019
5063 Snow -5 1007 93 0 11.24 214 16:20 02.11.2019
5064 Snow -5 1007 93 0 11.24 214 15:42 02.11.2019
5065 Snow -5 1007 93 0 11.24 214 15:21 02.11.2019
5066 Snow -5 1007 93 0 11.24 214 14:57 02.11.2019
5067 Snow -5 1007 93 0 11.24 214 14:39 02.11.2019
5068 Clouds -6 1007 91 0 9.63 210 14:20 02.11.2019
5069 Clouds -6 1007 91 0 9.63 210 13:40 02.11.2019
5070 Clouds -6 1007 91 0 10.58 215 13:20 02.11.2019
5071 Clouds -6 1007 91 0 10.58 215 12:58 02.11.2019
5072 Clouds -6 1007 91 0 10.58 215 12:38 02.11.2019
5073 Clouds -6 1007 91 0 10.58 215 12:20 02.11.2019
5074 Clouds -6 1007 91 0 10.58 215 11:42 02.11.2019
5075 Clouds -6 1007 91 0 10.58 215 11:24 02.11.2019
5076 Clouds -6 1007 86 0 8.37 218 10:57 02.11.2019
5077 Clouds -6 1007 86 0 8.37 218 10:39 02.11.2019
5078 Clouds -6 1007 86 0 8.37 218 10:20 02.11.2019
5079 Clouds -6 1007 86 0 8.37 218 09:43 02.11.2019
5080 Clouds -6 1007 86 0 8.37 218 09:22 02.11.2019
5081 Clouds -6 1007 86 0 8.37 218 08:55 02.11.2019
5082 Clouds -6 1007 86 0 8.37 218 08:37 02.11.2019
5083 Clouds -6 1007 83 0 6.56 222 08:18 02.11.2019
5084 Clouds -6 1007 83 0 6.56 222 07:43 02.11.2019
5085 Clouds -6 1007 83 0 6.56 222 07:25 02.11.2019
5086 Clouds -6 1007 83 0 6.56 222 06:52 02.11.2019
5087 Clouds -6 1007 83 0 6.56 222 06:52 02.11.2019
5088 Clouds -6 1007 83 0 6.56 222 06:24 02.11.2019
5089 Clouds -6 1007 83 0 6.56 222 05:44 02.11.2019
5090 Clouds -5 1007 78 0 4.83 251 04:25 02.11.2019
5091 Clouds -5 1007 78 0 4.83 251 03:51 02.11.2019
5092 Clouds -5 1007 78 0 4.83 251 03:30 02.11.2019
5093 Clouds -5 1007 78 0 4.83 251 03:30 02.11.2019
5094 Clouds -5 1007 78 0 4.83 251 02:29 02.11.2019
5095 Clouds -4 1007 72 0 4.15 277 01:29 02.11.2019
5096 Clouds -4 1007 72 0 4.15 277 00:57 02.11.2019
5097 Clouds -4 1007 72 0 4.15 277 00:30 02.11.2019
5098 Clouds -4 1007 72 0 4.15 277 23:57 01.11.2019
5099 Clouds -4 1007 72 0 4.15 277 23:38 01.11.2019
5100 Clouds -4 1007 65 0 2.19 284 23:19 01.11.2019
5101 Clouds -4 1007 65 0 2.19 284 22:42 01.11.2019
5102 Clouds -4 1007 65 0 2.19 284 22:21 01.11.2019
5103 Clouds -4 1007 65 0 2.19 284 21:43 01.11.2019
5104 Clouds -4 1007 65 0 2.19 284 21:24 01.11.2019
5105 Clouds -4 1007 65 0 2.19 284 20:59 01.11.2019
5106 Clouds -4 1007 65 0 2.19 284 20:41 01.11.2019
5107 Clouds -4 1007 61 0 0.72 35 20:23 01.11.2019
5108 Clouds -4 1008 65 0 1.15 266 19:59 01.11.2019
5109 Clouds -4 1008 65 0 1.15 266 19:40 01.11.2019
5110 Clouds -4 1008 65 0 1.15 266 19:21 01.11.2019
5111 Clouds -4 1008 65 0 1.15 266 18:41 01.11.2019
5112 Clouds -4 1008 65 0 1.15 266 18:21 01.11.2019
5113 Clouds -4 1008 65 0 1.15 266 17:58 01.11.2019
5114 Clouds -4 1008 65 0 1.15 266 17:40 01.11.2019
5115 Clouds -4 1008 62 0 0.37 25 17:22 01.11.2019
5116 Clouds -4 1008 62 0 0.37 25 16:40 01.11.2019
5117 Clouds -4 1008 62 0 0.37 25 16:20 01.11.2019
5118 Clouds -4 1008 62 0 0.37 25 15:56 01.11.2019
5119 Clouds -4 1008 62 0 0.37 25 15:38 01.11.2019
5120 Clouds -4 1008 62 0 0.37 25 15:20 01.11.2019
5121 Clouds -4 1008 62 0 0.37 25 14:44 01.11.2019
5122 Clouds -4 1008 62 0 0.37 25 14:25 01.11.2019
5123 Clouds -4 1008 70 0 1.27 282 13:59 01.11.2019
5124 Clouds -4 1008 70 0 1.27 282 13:40 01.11.2019
5125 Clouds -4 1008 63 0 2.75 44 13:21 01.11.2019
5126 Clouds -4 1008 63 0 2.75 44 12:55 01.11.2019
5127 Clouds -4 1008 63 0 2.75 44 12:37 01.11.2019
5128 Clouds -4 1008 63 0 2.75 44 12:18 01.11.2019
5129 Clouds -4 1008 63 0 2.75 44 11:41 01.11.2019
5130 Clouds -4 1009 68 0 1.41 10 11:23 01.11.2019
5131 Clouds -4 1009 68 0 1.41 10 10:43 01.11.2019
5132 Clouds -4 1009 68 0 1.41 10 10:25 01.11.2019
5133 Clouds -4 1009 68 0 1.41 10 09:58 01.11.2019
5134 Clouds -4 1009 68 0 1.41 10 09:40 01.11.2019
5135 Clouds -4 1009 68 0 1.41 10 09:20 01.11.2019
5136 Clouds -4 1009 68 0 1.41 10 09:20 01.11.2019
5137 Clouds -4 1009 68 0 1.41 10 08:45 01.11.2019
5138 Clouds -5 1009 76 0 1.52 294 08:22 01.11.2019
5139 Clouds -5 1009 76 0 1.52 294 07:57 01.11.2019
5140 Clouds -5 1009 76 0 1.52 294 07:39 01.11.2019
5141 Clouds -5 1009 76 0 1.52 294 07:20 01.11.2019
5142 Clouds -5 1009 76 0 1.52 294 06:47 01.11.2019
5143 Clouds -5 1009 76 0 1.52 294 06:22 01.11.2019
5144 Clouds -5 1009 76 0 1.52 294 05:44 01.11.2019
5145 Clouds -5 1009 76 0 1.52 294 05:44 01.11.2019
5146 Clouds -4 1009 71 0 0.85 269 04:28 01.11.2019
5147 Clouds -4 1009 71 0 0.85 269 03:24 01.11.2019
5148 Clouds -4 1009 67 0 1.56 323 01:35 01.11.2019
5149 Clouds -4 1009 72 0 1.62 307 00:42 01.11.2019
5150 Clouds -4 1009 72 0 1.62 307 00:18 01.11.2019
5151 Clouds -4 1009 72 0 1.62 307 23:43 31.10.2019
5152 Clouds -4 1009 71 0 1.57 272 23:23 31.10.2019
5153 Clouds -4 1009 71 0 1.57 272 22:56 31.10.2019
5154 Clouds -4 1009 71 0 1.57 272 22:56 31.10.2019
5155 Clouds -4 1009 71 0 1.57 272 22:38 31.10.2019
5156 Clouds -4 1009 71 0 1.57 272 22:19 31.10.2019
5157 Clouds -4 1009 71 0 1.57 272 21:43 31.10.2019
5158 Clouds -4 1009 71 0 1.57 272 21:20 31.10.2019
5159 Clouds -4 1009 71 0 1.57 272 20:57 31.10.2019
5160 Clouds -4 1009 71 0 1.57 272 20:39 31.10.2019
5161 Clouds -4 1009 68 0 1.45 260 20:20 31.10.2019
5162 Clouds -4 1009 68 0 1.45 260 19:42 31.10.2019
5163 Clouds -4 1009 68 0 1.45 260 19:22 31.10.2019
5164 Clouds -4 1009 68 0 1.45 260 18:57 31.10.2019
5165 Clouds -4 1009 68 0 1.45 260 18:39 31.10.2019
5166 Clouds -4 1009 68 0 1.45 260 18:19 31.10.2019
5167 Clouds -4 1009 68 0 1.45 260 17:42 31.10.2019
5168 Clouds -4 1008 64 0 1.54 333 17:22 31.10.2019
5169 Clouds -4 1008 64 0 1.54 333 16:58 31.10.2019
5170 Clouds -4 1008 64 0 1.54 333 16:40 31.10.2019
5171 Clouds -4 1008 64 0 1.54 333 16:20 31.10.2019
5172 Clouds -4 1008 64 0 1.54 333 15:56 31.10.2019
5173 Clouds -4 1008 64 0 1.54 333 15:37 31.10.2019
5174 Clouds -4 1008 64 0 1.54 333 15:19 31.10.2019
5175 Clouds -4 1008 64 0 1.54 333 15:19 31.10.2019
5176 Clouds -4 1008 64 0 1.54 333 14:54 31.10.2019
5177 Clouds -4 1008 64 0 1.54 333 14:36 31.10.2019
5178 Clouds -3 1007 68 0 3.23 351 14:18 31.10.2019
5179 Clouds -3 1007 68 0 3.23 351 13:40 31.10.2019
5180 Snow -4 1007 68 0 3.31 348 13:20 31.10.2019
5181 Snow -4 1007 68 0 3.31 348 12:58 31.10.2019
5182 Snow -4 1007 68 0 3.31 348 12:40 31.10.2019
5183 Snow -4 1007 68 0 3.31 348 12:22 31.10.2019
5184 Snow -4 1007 68 0 3.31 348 11:47 31.10.2019
5185 Snow -4 1006 72 0 3.15 331 11:21 31.10.2019
5186 Snow -4 1006 72 0 3.15 331 10:59 31.10.2019
5187 Snow -4 1006 72 0 3.15 331 10:40 31.10.2019
5188 Snow -4 1006 72 0 3.15 331 10:21 31.10.2019
5189 Snow -4 1006 72 0 3.15 331 09:57 31.10.2019
5190 Snow -4 1006 72 0 3.15 331 09:39 31.10.2019
5191 Snow -4 1006 72 0 3.15 331 09:18 31.10.2019
5192 Snow -4 1006 72 0 3.15 331 08:46 31.10.2019
5193 Snow -3 1006 71 0 3.8 330 08:26 31.10.2019
5194 Snow -4 1005 74 0 3.94 339 07:49 31.10.2019
5195 Snow -4 1005 74 0 3.94 339 07:28 31.10.2019
5196 Snow -4 1005 74 0 3.94 339 06:55 31.10.2019
5197 Snow -4 1005 74 0 3.94 339 06:33 31.10.2019
5198 Snow -4 1005 74 0 3.94 339 05:32 31.10.2019
5199 Snow -3 1004 75 0 4.65 347 03:22 31.10.2019
5200 Snow -3 1004 75 0 4.65 347 02:38 31.10.2019
5201 Snow -3 1002 79 0 5.55 344 01:43 31.10.2019
5202 Snow -3 1002 80 0 5.83 342 00:35 31.10.2019
5203 Snow -3 1002 80 0 5.83 342 23:53 30.10.2019
5204 Snow -3 1002 80 0 5.83 342 23:28 30.10.2019
5205 Snow -3 1001 77 0 7.63 342 22:43 30.10.2019
5206 Snow -3 1001 77 0 7.63 342 22:21 30.10.2019
5207 Snow -3 1001 77 0 7.63 342 21:55 30.10.2019
5208 Snow -3 1001 77 0 7.63 342 21:37 30.10.2019
5209 Snow -3 1001 77 0 7.63 342 21:18 30.10.2019
5210 Snow -3 1001 77 0 7.63 342 20:58 30.10.2019
5211 Snow -3 1001 77 0 7.63 342 20:39 30.10.2019
5212 Snow -3 999 78 0 8.81 350 20:21 30.10.2019
5213 Snow -3 999 78 0 8.81 350 19:57 30.10.2019
5214 Snow -3 999 78 0 8.81 350 19:57 30.10.2019
5215 Snow -3 999 78 0 8.81 350 19:38 30.10.2019
5216 Snow -3 999 78 0 8.81 350 19:19 30.10.2019
5217 Snow -3 999 78 0 8.81 350 18:39 30.10.2019
5218 Snow -3 999 78 0 8.81 350 18:20 30.10.2019
5219 Snow -3 999 78 0 8.81 350 17:58 30.10.2019
5220 Snow -3 999 78 0 8.81 350 17:40 30.10.2019
5221 Snow -3 998 78 0 9.72 344 17:19 30.10.2019
5222 Snow -3 998 78 0 9.72 344 16:55 30.10.2019
5223 Snow -3 998 78 0 9.72 344 16:37 30.10.2019
5224 Snow -3 998 78 0 9.72 344 16:19 30.10.2019
5225 Snow -3 998 78 0 9.72 344 15:55 30.10.2019
5226 Snow -3 998 78 0 9.72 344 15:37 30.10.2019
5227 Snow -3 998 78 0 9.72 344 15:19 30.10.2019
5228 Snow -3 998 78 0 9.72 344 14:42 30.10.2019
5229 Snow -2 997 80 0 8.32 334 14:22 30.10.2019
5230 Snow -2 997 80 0 8.32 334 13:58 30.10.2019
5231 Snow -2 997 80 0 8.32 334 13:40 30.10.2019
5232 Snow -2 996 80 0 8.94 330 13:20 30.10.2019
5233 Snow -2 996 80 0 8.94 330 12:57 30.10.2019
5234 Snow -2 996 80 0 8.94 330 12:38 30.10.2019
5235 Snow -2 996 80 0 8.94 330 12:19 30.10.2019
5236 Snow -2 996 80 0 8.94 330 11:42 30.10.2019
5237 Clouds -3 996 72 0 5.12 299 11:23 30.10.2019
5238 Clouds -3 996 72 0 5.12 299 11:23 30.10.2019
5239 Clouds -3 996 72 0 5.12 299 10:46 30.10.2019
5240 Clouds -3 996 72 0 5.12 299 10:27 30.10.2019
5241 Clouds -3 996 72 0 5.12 299 09:59 30.10.2019
5242 Clouds -3 996 72 0 5.12 299 09:39 30.10.2019
5243 Clouds -3 996 72 0 5.12 299 09:21 30.10.2019
5244 Clouds -3 996 72 0 5.12 299 08:42 30.10.2019
5245 Clouds -4 995 69 0 3.99 352 08:22 30.10.2019
5246 Clouds -4 995 69 0 3.99 352 07:57 30.10.2019
5247 Clouds -4 995 69 0 3.99 352 07:37 30.10.2019
5248 Clouds -4 995 69 0 3.99 352 06:46 30.10.2019
5249 Clouds -4 995 69 0 3.99 352 06:27 30.10.2019
5250 Clouds -4 995 69 0 3.99 352 05:54 30.10.2019
5251 Clouds -4 995 69 0 3.99 352 05:35 30.10.2019
5252 Clouds -4 994 75 0 5.35 22 03:50 30.10.2019
5253 Clouds -4 994 75 0 5.35 22 03:21 30.10.2019
5254 Clouds -4 994 75 0 5.35 22 02:48 30.10.2019
5255 Clouds -3 992 71 0 6.86 19 01:42 30.10.2019
5256 Clouds -3 992 71 0 7.24 14 00:36 30.10.2019
5257 Clouds -3 992 71 0 7.24 14 00:18 30.10.2019
5258 Clouds -3 992 71 0 7.24 14 23:38 29.10.2019
5259 Snow -3 990 73 0 8.52 10 23:18 29.10.2019
5260 Snow -3 990 73 0 8.52 10 22:41 29.10.2019
5261 Snow -3 990 73 0 8.52 10 22:19 29.10.2019
5262 Snow -3 990 73 0 8.52 10 21:55 29.10.2019
5263 Snow -3 990 73 0 8.52 10 21:36 29.10.2019
5264 Snow -3 990 73 0 8.52 10 21:18 29.10.2019
5265 Snow -3 990 73 0 8.52 10 20:41 29.10.2019
5266 Snow -3 988 83 0 8.31 350 20:22 29.10.2019
5267 Snow -3 988 83 0 8.31 350 19:58 29.10.2019
5268 Snow -3 988 83 0 8.31 350 19:39 29.10.2019
5269 Snow -3 988 83 0 8.31 350 19:20 29.10.2019
5270 Snow -3 988 83 0 8.31 350 18:58 29.10.2019
5271 Snow -3 988 83 0 8.31 350 18:38 29.10.2019
5272 Snow -3 988 83 0 8.31 350 18:20 29.10.2019
5273 Snow -3 988 83 0 8.31 350 17:56 29.10.2019
5274 Snow -3 988 83 0 8.31 350 17:37 29.10.2019
5275 Snow -3 988 83 0 8.31 350 17:37 29.10.2019
5276 Snow -3 986 85 0 8.24 339 17:19 29.10.2019
5277 Snow -3 986 85 0 8.24 339 16:41 29.10.2019
5278 Snow -3 986 85 0 8.24 339 16:22 29.10.2019
5279 Snow -3 986 85 0 8.24 339 15:58 29.10.2019
5280 Snow -3 986 85 0 8.24 339 15:39 29.10.2019
5281 Snow -3 986 85 0 8.24 339 15:20 29.10.2019
5282 Snow -3 986 85 0 8.24 339 14:56 29.10.2019
5283 Snow -3 986 85 0 8.24 339 14:38 29.10.2019
5284 Snow -3 986 74 0 8.77 344 14:19 29.10.2019
5285 Snow -3 986 74 0 8.77 344 13:40 29.10.2019
5286 Snow -2 986 70 0 9.62 335 13:22 29.10.2019
5287 Snow -2 986 70 0 9.62 335 12:56 29.10.2019
5288 Snow -2 986 70 0 9.62 335 12:37 29.10.2019
5289 Snow -2 986 70 0 9.62 335 12:19 29.10.2019
5290 Snow -2 986 70 0 9.62 335 11:42 29.10.2019
5291 Snow -2 986 70 0 9.62 335 11:42 29.10.2019
5292 Snow -2 986 91 0 11.67 320 11:22 29.10.2019
5293 Snow -2 986 91 0 11.67 320 10:58 29.10.2019
5294 Snow -2 986 91 0 11.67 320 10:39 29.10.2019
5295 Snow -2 986 91 0 11.67 320 10:20 29.10.2019
5296 Snow -2 986 91 0 11.67 320 09:58 29.10.2019
5297 Snow -2 986 91 0 11.67 320 09:40 29.10.2019
5298 Snow -2 986 91 0 11.67 320 09:21 29.10.2019
5299 Snow -2 986 91 0 11.67 320 08:45 29.10.2019
5300 Snow -2 986 91 0 11.67 320 08:25 29.10.2019
5301 Snow -2 986 74 0 14.93 309 07:55 29.10.2019
5302 Snow -2 986 74 0 14.93 309 07:37 29.10.2019
5303 Snow -2 986 74 0 14.93 309 07:18 29.10.2019
5304 Snow -2 986 74 0 14.93 309 06:44 29.10.2019
5305 Snow -2 986 74 0 14.93 309 06:21 29.10.2019
5306 Snow -2 986 74 0 14.93 309 05:50 29.10.2019
5307 Snow -2 986 74 0 14.93 309 05:26 29.10.2019
5308 Snow -3 986 88 0 16.77 328 04:31 29.10.2019
5309 Snow -3 986 88 0 16.77 328 02:33 29.10.2019
5310 Snow -2 987 74 0 12.13 327 01:47 29.10.2019
5311 Snow -3 986 91 0 12.83 323 01:18 29.10.2019
5312 Snow -3 986 91 0 12.83 323 00:43 29.10.2019
5313 Snow -3 986 91 0 12.83 323 23:43 28.10.2019
5314 Snow -2 987 60 0 10.48 338 23:21 28.10.2019
5315 Snow -2 987 60 0 10.48 338 22:58 28.10.2019
5316 Snow -2 987 60 0 10.48 338 22:37 28.10.2019
5317 Snow -2 987 60 0 10.48 338 22:18 28.10.2019
5318 Snow -2 987 60 0 10.48 338 21:56 28.10.2019
5319 Snow -2 987 60 0 10.48 338 21:38 28.10.2019
5320 Snow -2 987 60 0 10.48 338 21:20 28.10.2019
5321 Snow -2 987 60 0 10.48 338 20:45 28.10.2019
5322 Snow -2 987 60 0 10.59 337 20:25 28.10.2019
5323 Snow -3 988 63 0 9.05 345 19:59 28.10.2019
5324 Snow -3 988 63 0 9.05 345 19:39 28.10.2019
5325 Snow -3 988 63 0 9.05 345 19:21 28.10.2019
5326 Snow -3 988 63 0 9.05 345 18:59 28.10.2019
5327 Snow -3 988 63 0 9.05 345 18:40 28.10.2019
5328 Snow -3 988 63 0 9.05 345 18:21 28.10.2019
5329 Snow -3 988 63 0 9.05 345 17:57 28.10.2019
5330 Snow -3 988 63 0 9.05 345 17:38 28.10.2019
5331 Snow -3 988 65 0 7.45 7 17:19 28.10.2019
5332 Snow -3 988 65 0 7.45 7 16:57 28.10.2019
5333 Snow -3 988 65 0 7.45 7 16:39 28.10.2019
5334 Snow -3 988 65 0 7.45 7 16:21 28.10.2019
5335 Snow -3 988 65 0 7.45 7 15:58 28.10.2019
5336 Snow -3 988 65 0 7.45 7 15:39 28.10.2019
5337 Snow -3 988 65 0 7.45 7 15:20 28.10.2019
5338 Snow -3 988 65 0 7.45 7 14:57 28.10.2019
5339 Snow -3 988 65 0 7.45 7 14:38 28.10.2019
5340 Snow -4 988 68 0 5.47 25 14:18 28.10.2019
5341 Snow -4 988 68 0 5.47 25 13:55 28.10.2019
5342 Snow -4 988 68 0 5.47 25 13:37 28.10.2019
5343 Clouds -5 988 68 0 5.2 31 13:18 28.10.2019
5344 Clouds -5 988 68 0 5.2 31 12:42 28.10.2019
5345 Clouds -5 988 68 0 5.2 31 12:20 28.10.2019
5346 Clouds -5 988 68 0 5.2 31 11:40 28.10.2019
5347 Snow -4 987 76 0 7.21 57 11:22 28.10.2019
5348 Snow -4 987 76 0 7.21 57 10:58 28.10.2019
5349 Snow -4 987 76 0 7.21 57 10:38 28.10.2019
5350 Snow -4 987 76 0 7.21 57 10:20 28.10.2019
5351 Snow -4 987 76 0 7.21 57 09:56 28.10.2019
5352 Snow -4 987 76 0 7.21 57 09:37 28.10.2019
5353 Snow -4 987 76 0 7.21 57 09:18 28.10.2019
5354 Snow -4 987 76 0 7.21 57 08:56 28.10.2019
5355 Snow -4 987 76 0 7.21 57 08:37 28.10.2019
5356 Snow -3 987 71 0 5.82 35 08:18 28.10.2019
5357 Snow -3 987 71 0 5.82 35 07:54 28.10.2019
5358 Snow -3 987 71 0 5.82 35 07:36 28.10.2019
5359 Snow -3 987 71 0 5.82 35 07:18 28.10.2019
5360 Snow -3 987 71 0 5.82 35 06:39 28.10.2019
5361 Snow -3 987 71 0 5.82 35 05:29 28.10.2019
5362 Snow -3 987 67 0 5.16 15 03:44 28.10.2019
5363 Snow -3 987 67 0 5.16 15 02:46 28.10.2019
5364 Snow -2 987 71 0 4.15 21 01:52 28.10.2019
5365 Snow -2 987 71 0 4.15 21 00:47 28.10.2019
5366 Snow -2 987 71 0 4.15 21 00:47 28.10.2019
5367 Snow -2 987 71 0 4.15 21 00:26 28.10.2019
5368 Snow -2 987 71 0 4.15 21 23:45 27.10.2019
5369 Snow -3 987 77 0 4.45 1 23:22 27.10.2019
5370 Snow -3 987 77 0 4.45 1 22:57 27.10.2019
5371 Snow -3 987 77 0 4.45 1 22:37 27.10.2019
5372 Snow -3 987 77 0 4.45 1 22:19 27.10.2019
5373 Snow -3 987 77 0 4.45 1 21:56 27.10.2019
5374 Snow -3 987 77 0 4.45 1 21:38 27.10.2019
5375 Snow -3 987 77 0 4.45 1 21:20 27.10.2019
5376 Snow -3 987 77 0 4.45 1 20:42 27.10.2019
5377 Snow -3 987 70 0 4.84 358 20:23 27.10.2019
5378 Snow -3 987 70 0 4.84 358 19:59 27.10.2019
5379 Snow -3 987 70 0 4.84 358 19:39 27.10.2019
5380 Snow -3 987 70 0 4.84 358 19:20 27.10.2019
5381 Snow -3 987 70 0 4.84 358 19:20 27.10.2019
5382 Snow -3 987 70 0 4.84 358 18:57 27.10.2019
5383 Snow -3 987 70 0 4.84 358 18:39 27.10.2019
5384 Snow -3 987 70 0 4.84 358 18:21 27.10.2019
5385 Snow -3 987 70 0 4.84 358 17:55 27.10.2019
5386 Snow -3 987 70 0 4.84 358 17:37 27.10.2019
5387 Snow -2 987 78 0 6.1 14 17:19 27.10.2019
5388 Snow -2 987 78 0 6.1 14 16:55 27.10.2019
5389 Snow -2 987 78 0 6.1 14 16:37 27.10.2019
5390 Snow -2 987 78 0 6.1 14 16:19 27.10.2019
5391 Snow -2 987 78 0 6.1 14 15:55 27.10.2019
5392 Snow -2 987 78 0 6.1 14 15:37 27.10.2019
5393 Snow -2 987 78 0 6.1 14 15:18 27.10.2019
5394 Snow -2 987 78 0 6.1 14 14:41 27.10.2019
5395 Snow -2 988 78 0 6.2 12 14:20 27.10.2019
5396 Snow -2 988 78 0 6.2 12 13:56 27.10.2019
5397 Snow -2 988 78 0 6.2 12 13:37 27.10.2019
5398 Snow -2 987 79 0 6.12 19 13:19 27.10.2019
5399 Snow -2 987 79 0 6.12 19 12:43 27.10.2019
5400 Snow -2 987 79 0 6.12 19 12:24 27.10.2019
5401 Snow -2 987 79 0 6.12 19 11:56 27.10.2019
5402 Snow -2 987 79 0 6.12 19 11:38 27.10.2019
5403 Snow -1 987 77 0 4.74 49 11:19 27.10.2019
5404 Snow -1 987 77 0 4.74 49 10:42 27.10.2019
5405 Snow -1 987 77 0 4.74 49 10:23 27.10.2019
5406 Snow -1 987 77 0 4.74 49 09:44 27.10.2019
5407 Snow -1 987 77 0 4.74 49 09:20 27.10.2019
5408 Snow -1 987 77 0 4.74 49 09:20 27.10.2019
5409 Snow -1 987 77 0 4.74 49 08:59 27.10.2019
5410 Snow -1 987 77 0 4.74 49 08:40 27.10.2019
5411 Snow -1 987 73 0 5.32 29 08:20 27.10.2019
5412 Snow -1 987 73 0 5.32 29 07:50 27.10.2019
5413 Snow -1 987 73 0 5.32 29 07:29 27.10.2019
5414 Snow -1 987 73 0 5.32 29 06:56 27.10.2019
5415 Snow -1 987 73 0 5.32 29 06:37 27.10.2019
5416 Snow -1 987 73 0 5.32 29 06:18 27.10.2019
5417 Snow -1 987 73 0 5.32 29 05:37 27.10.2019
5418 Snow 0 988 74 0 7.37 23 04:32 27.10.2019
5419 Snow -1 988 72 0 5.78 14 02:42 27.10.2019
5420 Snow -1 988 71 0 5.74 15 01:28 27.10.2019
5421 Snow -1 988 71 0 5.74 15 00:56 27.10.2019
5422 Snow -1 988 71 0 5.74 15 00:38 27.10.2019
5423 Clouds -1 988 64 0 5.29 24 23:59 26.10.2019
5424 Clouds -1 988 64 0 5.29 24 23:40 26.10.2019
5425 Clouds -1 988 64 0 5.29 24 23:22 26.10.2019
5426 Clouds -1 988 64 0 5.29 24 22:58 26.10.2019
5427 Clouds -1 988 64 0 5.29 24 22:39 26.10.2019
5428 Clouds -1 988 64 0 5.29 24 22:20 26.10.2019
5429 Clouds -1 988 64 0 5.29 24 21:58 26.10.2019
5430 Clouds -1 988 64 0 5.29 24 21:40 26.10.2019
5431 Snow -1 989 66 0 5.69 22 21:19 26.10.2019
5432 Snow -1 989 66 0 5.69 22 20:45 26.10.2019
5433 Snow -1 989 66 0 5.69 22 20:45 26.10.2019
5434 Snow -1 989 66 0 5.69 22 20:20 26.10.2019
5435 Snow -1 989 66 0 5.69 22 19:56 26.10.2019
5436 Snow -1 989 66 0 5.69 22 19:38 26.10.2019
5437 Snow -1 989 66 0 5.69 22 19:19 26.10.2019
5438 Snow -1 989 66 0 5.69 22 19:19 26.10.2019
5439 Snow -1 989 66 0 5.69 22 18:55 26.10.2019
5440 Snow -1 989 66 0 5.69 22 18:36 26.10.2019
5441 Clouds -1 991 69 0 4.9 43 18:18 26.10.2019
5442 Clouds -1 991 69 0 4.9 43 17:39 26.10.2019
5443 Clouds -1 991 69 0 4.9 43 17:20 26.10.2019
5444 Clouds -1 991 69 0 4.9 43 16:58 26.10.2019
5445 Clouds -1 991 69 0 4.9 43 16:40 26.10.2019
5446 Clouds -1 991 69 0 4.9 43 16:20 26.10.2019
5447 Clouds -1 991 69 0 4.9 43 15:41 26.10.2019
5448 Snow -2 992 62 0 0.55 54 15:19 26.10.2019
5449 Snow -2 992 62 0 0.55 54 14:40 26.10.2019
5450 Snow -1 992 60 0 2.12 102 14:22 26.10.2019
5451 Snow -1 992 60 0 2.12 102 13:59 26.10.2019
5452 Snow -1 992 60 0 2.12 102 13:40 26.10.2019
5453 Snow -1 992 60 0 2.12 102 13:20 26.10.2019
5454 Snow -1 992 60 0 2.12 102 12:46 26.10.2019
5455 Snow -1 994 60 0 1.79 332 12:23 26.10.2019
5456 Snow -1 994 60 0 1.79 332 11:48 26.10.2019
5457 Snow -1 994 60 0 1.79 332 11:28 26.10.2019
5458 Snow -1 994 60 0 1.79 332 11:28 26.10.2019
5459 Snow -1 994 60 0 1.79 332 11:28 26.10.2019
5460 Snow -1 994 60 0 1.79 332 10:48 26.10.2019
5461 Snow -1 994 60 0 1.79 332 10:27 26.10.2019
5462 Snow -1 994 60 0 1.79 332 09:59 26.10.2019
5463 Snow -1 994 60 0 1.79 332 09:41 26.10.2019
5464 Snow -1 996 66 0 5.32 295 09:23 26.10.2019
5465 Snow -1 996 66 0 5.32 295 08:43 26.10.2019
5466 Snow -1 996 66 0 5.32 295 08:25 26.10.2019
5467 Snow -1 996 66 0 5.32 295 08:25 26.10.2019
5468 Snow -1 996 66 0 5.32 295 07:44 26.10.2019
5469 Snow -1 996 66 0 5.32 295 07:44 26.10.2019
5470 Snow -1 996 66 0 5.32 295 07:25 26.10.2019
5471 Snow -1 996 66 0 5.32 295 06:42 26.10.2019
5472 Clear -1 997 69 0 7.43 293 06:23 26.10.2019
5473 Clear -1 997 69 0 7.43 293 05:19 26.10.2019
5474 Clear -1 997 69 0 7.43 293 04:24 26.10.2019
5475 Snow -1 998 68 0 9.3 299 02:46 26.10.2019
5476 Snow -1 998 68 0 9.3 299 01:54 26.10.2019
5477 Snow -1 998 68 0 9.3 299 01:22 26.10.2019
5478 Snow 0 999 71 0 9.71 300 00:23 26.10.2019
5479 Snow 0 999 71 0 9.71 300 23:43 25.10.2019
5480 Snow 0 999 71 0 9.71 300 23:20 25.10.2019
5481 Snow 0 999 71 0 9.71 300 22:40 25.10.2019
5482 Snow 0 999 71 0 9.71 300 22:22 25.10.2019
5483 Snow 0 999 71 0 9.71 300 21:58 25.10.2019
5484 Snow 0 999 71 0 9.71 300 21:39 25.10.2019
5485 Snow 0 999 69 0 8.28 308 21:19 25.10.2019
5486 Snow 0 999 69 0 8.28 308 20:55 25.10.2019
5487 Snow 0 999 69 0 8.28 308 20:37 25.10.2019
5488 Snow 0 999 69 0 8.28 308 20:18 25.10.2019
5489 Snow 0 999 69 0 8.28 308 19:41 25.10.2019
5490 Snow 0 999 69 0 8.28 308 19:23 25.10.2019
5491 Snow 0 999 69 0 8.28 308 18:44 25.10.2019
5492 Snow 0 998 64 0 8.72 324 18:22 25.10.2019
5493 Snow 0 998 64 0 8.72 324 17:41 25.10.2019
5494 Snow 0 998 64 0 8.72 324 17:41 25.10.2019
5495 Snow 0 998 64 0 8.72 324 17:21 25.10.2019
5496 Snow 0 998 64 0 8.72 324 16:54 25.10.2019
5497 Snow 0 998 64 0 8.72 324 16:36 25.10.2019
5498 Snow 0 998 64 0 8.72 324 16:18 25.10.2019
5499 Snow 0 998 64 0 8.72 324 15:40 25.10.2019
5500 Snow 0 998 65 0 9.74 331 15:21 25.10.2019
5501 Snow 0 998 65 0 9.74 331 14:57 25.10.2019
5502 Snow 0 998 65 0 10.05 328 14:39 25.10.2019
5503 Snow 0 998 65 0 10.05 328 14:20 25.10.2019
5504 Snow 0 998 65 0 10.05 328 13:41 25.10.2019
5505 Snow 0 998 65 0 10.05 328 13:23 25.10.2019
5506 Snow 0 998 65 0 10.05 328 12:55 25.10.2019
5507 Snow 0 998 65 0 10.05 328 12:37 25.10.2019
5508 Snow 0 996 65 0 9.48 330 12:19 25.10.2019
5509 Snow 0 996 65 0 9.48 330 11:40 25.10.2019
5510 Snow 0 996 65 0 9.48 330 11:22 25.10.2019
5511 Snow 0 996 65 0 9.48 330 10:57 25.10.2019
5512 Snow 0 996 65 0 9.48 330 10:38 25.10.2019
5513 Snow 0 996 65 0 9.48 330 10:18 25.10.2019
5514 Snow 0 996 65 0 9.48 330 09:42 25.10.2019
5515 Snow 0 994 64 0 8.9 337 09:21 25.10.2019
5516 Snow 0 994 64 0 8.9 337 08:57 25.10.2019
5517 Snow 0 994 64 0 8.9 337 08:39 25.10.2019
5518 Snow 0 994 64 0 8.9 337 08:39 25.10.2019
5519 Snow 0 994 64 0 8.9 337 08:20 25.10.2019
5520 Snow 0 994 64 0 8.9 337 07:45 25.10.2019
5521 Snow 0 994 64 0 8.9 337 07:26 25.10.2019
5522 Snow 0 994 64 0 8.9 337 06:38 25.10.2019
5523 Snow 0 994 67 0 11.4 311 05:49 25.10.2019
5524 Snow 0 994 67 0 11.4 311 05:30 25.10.2019
5525 Snow 0 994 67 0 11.4 311 04:36 25.10.2019
5526 Snow 0 994 69 0 11.96 306 02:42 25.10.2019
5527 Snow 0 993 70 0 12.28 305 01:52 25.10.2019
5528 Snow 0 993 70 0 12.28 305 00:36 25.10.2019
5529 Snow 1 992 68 0 12.09 313 23:55 24.10.2019
5530 Snow 1 992 68 0 12.09 313 23:36 24.10.2019
5531 Snow 1 992 68 0 12.09 313 23:18 24.10.2019
5532 Snow 1 992 68 0 12.09 313 22:39 24.10.2019
5533 Snow 1 992 68 0 12.09 313 22:19 24.10.2019
5534 Snow 1 992 68 0 12.09 313 21:58 24.10.2019
5535 Snow 1 992 68 0 12.09 313 21:40 24.10.2019
5536 Snow 1 992 68 0 11.12 316 21:20 24.10.2019
5537 Snow 1 992 68 0 11.12 316 20:59 24.10.2019
5538 Snow 1 992 68 0 11.12 316 20:39 24.10.2019
5539 Snow 1 992 68 0 11.12 316 20:21 24.10.2019
5540 Snow 1 992 68 0 11.12 316 19:56 24.10.2019
5541 Snow 1 992 68 0 11.12 316 19:37 24.10.2019
5542 Snow 1 992 68 0 11.12 316 19:19 24.10.2019
5543 Snow 1 992 68 0 11.12 316 18:55 24.10.2019
5544 Snow 1 992 68 0 11.12 316 18:37 24.10.2019
5545 Clouds 0 992 78 0 11.28 300 18:18 24.10.2019
5546 Clouds 0 992 78 0 11.28 300 17:41 24.10.2019
5547 Clouds 0 992 78 0 11.28 300 17:20 24.10.2019
5548 Clouds 0 992 78 0 11.28 300 17:20 24.10.2019
5549 Clouds 0 992 78 0 11.28 300 16:56 24.10.2019
5550 Clouds 0 992 78 0 11.28 300 16:38 24.10.2019
5551 Clouds 0 992 78 0 11.28 300 16:19 24.10.2019
5552 Clouds 0 992 78 0 11.28 300 15:58 24.10.2019
5553 Clouds 0 992 78 0 11.28 300 15:40 24.10.2019
5554 Clouds 0 991 74 0 12.52 299 15:21 24.10.2019
5555 Clouds 0 991 74 0 12.52 299 14:57 24.10.2019
5556 Clouds 0 991 72 0 12.61 298 14:38 24.10.2019
5557 Clouds 0 991 72 0 12.61 298 14:19 24.10.2019
5558 Clouds 0 991 72 0 12.61 298 13:40 24.10.2019
5559 Clouds 0 991 72 0 12.61 298 13:19 24.10.2019
5560 Clouds 0 991 72 0 12.61 298 12:57 24.10.2019
5561 Clouds 0 991 72 0 12.61 298 12:39 24.10.2019
5562 Snow 0 990 75 0 14.03 301 12:19 24.10.2019
5563 Snow 0 990 75 0 14.03 301 11:56 24.10.2019
5564 Snow 0 990 75 0 14.03 301 11:56 24.10.2019
5565 Snow 0 990 75 0 14.03 301 11:37 24.10.2019
5566 Snow 0 990 75 0 14.03 301 11:19 24.10.2019
5567 Snow 0 990 75 0 14.03 301 10:55 24.10.2019
5568 Snow 0 990 75 0 14.03 301 10:36 24.10.2019
5569 Snow 0 990 75 0 14.03 301 10:18 24.10.2019
5570 Snow 0 991 75 0 13.69 302 09:37 24.10.2019
5571 Clouds 1 990 70 0 12.06 307 09:18 24.10.2019
5572 Clouds 1 990 70 0 12.06 307 08:44 24.10.2019
5573 Clouds 1 990 70 0 12.06 307 08:20 24.10.2019
5574 Clouds 1 990 70 0 12.06 307 07:56 24.10.2019
5575 Clouds 1 990 70 0 12.06 307 07:38 24.10.2019
5576 Clouds 1 990 70 0 12.06 307 07:20 24.10.2019
5577 Clouds 1 990 70 0 12.06 307 06:39 24.10.2019
5578 Clouds 1 989 71 0 11.84 303 05:56 24.10.2019
5579 Clouds 1 989 71 0 11.84 303 05:36 24.10.2019
5580 Clouds 1 989 71 0 11.84 303 04:44 24.10.2019
5581 Clouds 1 989 71 0 11.84 303 03:36 24.10.2019
5582 Clouds 1 988 74 0 9.85 303 02:50 24.10.2019
5583 Snow 1 988 72 0 10.2 303 02:21 24.10.2019
5584 Snow 1 988 72 0 10.2 303 01:32 24.10.2019
5585 Snow 1 988 72 0 10.2 303 00:57 24.10.2019
5586 Snow 1 988 72 0 10.2 303 00:30 24.10.2019
5587 Clouds 1 986 77 0 9.44 312 23:58 23.10.2019
5588 Clouds 1 986 77 0 9.44 312 23:38 23.10.2019
5589 Clouds 1 986 77 0 9.44 312 23:20 23.10.2019
5590 Clouds 1 986 77 0 9.44 312 22:57 23.10.2019
5591 Clouds 1 986 77 0 9.44 312 22:37 23.10.2019
5592 Clouds 1 986 77 0 9.44 312 22:18 23.10.2019
5593 Clouds 1 986 77 0 9.44 312 21:57 23.10.2019
5594 Clouds 1 986 77 0 9.44 312 21:57 23.10.2019
5595 Clouds 1 986 79 0 9.5 314 21:37 23.10.2019
5596 Snow -1 986 90 0 7.62 225 21:19 23.10.2019
5597 Snow -1 986 90 0 7.62 225 20:54 23.10.2019
5598 Snow -1 986 90 0 7.62 225 20:36 23.10.2019
5599 Snow -1 986 90 0 7.62 225 20:18 23.10.2019
5600 Snow -1 986 90 0 7.62 225 19:43 23.10.2019
5601 Snow -1 986 90 0 7.62 225 19:19 23.10.2019
5602 Snow -1 986 90 0 7.62 225 18:58 23.10.2019
5603 Snow -1 986 90 0 7.62 225 18:39 23.10.2019
5604 Snow -2 987 94 0 8.44 206 18:19 23.10.2019
5605 Snow -2 987 94 0 8.44 206 17:55 23.10.2019
5606 Snow -2 987 94 0 8.44 206 17:37 23.10.2019
5607 Snow -2 987 94 0 8.44 206 17:18 23.10.2019
5608 Snow -2 987 94 0 8.44 206 16:41 23.10.2019
5609 Snow -2 987 94 0 8.44 206 16:21 23.10.2019
5610 Snow -2 987 94 0 8.44 206 15:57 23.10.2019
5611 Snow -2 987 94 0 8.44 206 15:57 23.10.2019
5612 Snow -2 987 94 0 8.44 206 15:39 23.10.2019
5613 Clouds -3 987 87 0 9.37 201 15:21 23.10.2019
5614 Clouds -3 987 87 0 9.37 201 14:56 23.10.2019
5615 Clouds -2 988 86 0 9.46 201 14:37 23.10.2019
5616 Clouds -2 988 86 0 9.46 201 14:19 23.10.2019
5617 Clouds -2 988 86 0 9.46 201 13:43 23.10.2019
5618 Clouds -2 988 86 0 9.46 201 13:25 23.10.2019
5619 Clouds -2 988 86 0 9.46 201 12:57 23.10.2019
5620 Clouds -2 988 86 0 9.46 201 12:39 23.10.2019
5621 Clouds -1 989 86 0 11.13 203 12:19 23.10.2019
5622 Clouds -1 989 86 0 11.13 203 11:58 23.10.2019
5623 Clouds -1 989 86 0 11.13 203 11:39 23.10.2019
5624 Clouds -1 989 86 0 11.13 203 11:21 23.10.2019
5625 Clouds -1 989 86 0 11.13 203 10:55 23.10.2019
5626 Clouds -1 989 86 0 11.13 203 10:37 23.10.2019
5627 Clouds -1 989 86 0 11.13 203 10:18 23.10.2019
5628 Clouds -1 989 86 0 11.13 203 10:18 23.10.2019
5629 Clouds -2 988 86 0 10.8 199 09:40 23.10.2019
5630 Snow -1 990 87 0 11.35 216 09:22 23.10.2019
5631 Snow -1 990 87 0 11.35 216 08:54 23.10.2019
5632 Snow -1 990 87 0 11.35 216 08:36 23.10.2019
5633 Snow -1 990 87 0 11.35 216 08:18 23.10.2019
5634 Snow -1 990 87 0 11.35 216 07:41 23.10.2019
5635 Snow -1 990 87 0 11.35 216 07:19 23.10.2019
5636 Snow -1 990 87 0 11.35 216 06:41 23.10.2019
5637 Snow 0 991 86 0 12.13 222 06:19 23.10.2019
5638 Snow 0 991 86 0 12.13 222 05:19 23.10.2019
5639 Snow 0 991 86 0 12.13 222 03:46 23.10.2019
5640 Snow 2 993 77 0 8.62 250 02:43 23.10.2019
5641 Snow 1 993 86 0 8.46 253 01:40 23.10.2019
5642 Snow 1 993 86 0 8.46 253 01:40 23.10.2019
5643 Snow 1 993 86 0 8.46 253 01:18 23.10.2019
5644 Snow 1 993 86 0 8.46 253 00:34 23.10.2019
5645 Snow 2 993 77 0 8.58 257 23:55 22.10.2019
5646 Snow 2 993 77 0 8.58 257 23:37 22.10.2019
5647 Snow 2 993 77 0 8.58 257 23:18 22.10.2019
5648 Snow 2 993 77 0 8.58 257 23:18 22.10.2019
5649 Snow 2 993 77 0 8.58 257 22:41 22.10.2019
5650 Snow 2 993 77 0 8.58 257 22:23 22.10.2019
5651 Snow 2 993 77 0 8.58 257 21:57 22.10.2019
5652 Snow 2 994 76 0 8.63 254 21:39 22.10.2019
5653 Clouds 1 995 82 0 8.98 227 21:19 22.10.2019
5654 Clouds 1 995 82 0 8.98 227 20:58 22.10.2019
5655 Clouds 1 995 82 0 8.98 227 20:40 22.10.2019
5656 Clouds 1 995 82 0 8.98 227 20:22 22.10.2019
5657 Clouds 1 995 82 0 8.98 227 20:22 22.10.2019
5658 Clouds 1 995 82 0 8.98 227 19:57 22.10.2019
5659 Clouds 1 995 82 0 8.98 227 19:39 22.10.2019
5660 Clouds 1 995 82 0 8.98 227 19:39 22.10.2019
5661 Clouds 1 995 82 0 8.98 227 19:21 22.10.2019
5662 Clouds 1 995 82 0 8.98 227 18:56 22.10.2019
5663 Clouds 1 995 82 0 8.98 227 18:37 22.10.2019
5664 Clouds 0 996 81 0 6.55 249 18:19 22.10.2019
5665 Clouds 0 996 81 0 6.55 249 17:55 22.10.2019
5666 Clouds 0 996 81 0 6.55 249 17:36 22.10.2019
5667 Clouds 0 996 81 0 6.55 249 17:18 22.10.2019
5668 Clouds 0 996 81 0 6.55 249 16:39 22.10.2019
5669 Clouds 0 996 81 0 6.55 249 16:20 22.10.2019
5670 Clouds 0 996 81 0 6.55 249 15:59 22.10.2019
5671 Clouds 0 996 81 0 6.55 249 15:41 22.10.2019
5672 Clouds -2 998 74 0 4.92 258 15:19 22.10.2019
5673 Clouds -2 998 74 0 4.92 258 14:46 22.10.2019
5674 Clouds -2 998 73 0 4.62 248 14:22 22.10.2019
5675 Clouds -2 998 73 0 4.62 248 13:56 22.10.2019
5676 Clouds -2 998 73 0 4.62 248 13:37 22.10.2019
5677 Clouds -2 998 73 0 4.62 248 13:18 22.10.2019
5678 Clouds -2 998 73 0 4.62 248 12:54 22.10.2019
5679 Clouds -2 998 73 0 4.62 248 12:36 22.10.2019
5680 Clouds -3 999 80 0 3.9 254 12:18 22.10.2019
5681 Clouds -3 999 80 0 3.9 254 11:40 22.10.2019
5682 Clouds -3 999 80 0 3.9 254 11:22 22.10.2019
5683 Clouds -3 999 80 0 3.9 254 10:58 22.10.2019
5684 Clouds -3 999 80 0 3.9 254 10:37 22.10.2019
5685 Clouds -3 999 80 0 3.9 254 10:19 22.10.2019
5686 Clouds -3 999 80 0 3.9 254 09:56 22.10.2019
5687 Clouds -3 999 74 0 4.3 260 09:37 22.10.2019
5688 Clouds -5 1000 85 0 3.72 236 09:19 22.10.2019
5689 Clouds -5 1000 85 0 3.72 236 08:43 22.10.2019
5690 Clouds -5 1000 85 0 3.72 236 08:22 22.10.2019
5691 Clouds -5 1000 85 0 3.72 236 07:49 22.10.2019
5692 Clouds -5 1000 85 0 3.72 236 07:29 22.10.2019
5693 Clouds -5 1000 85 0 3.72 236 06:52 22.10.2019
5694 Clouds -5 1000 85 0 3.72 236 06:31 22.10.2019
5695 Clouds -5 1002 83 0 4.24 206 05:58 22.10.2019
5696 Clouds -5 1002 83 0 4.24 206 05:24 22.10.2019
5697 Clouds -4 1005 64 0 5.07 177 02:48 22.10.2019
5698 Clouds -4 1005 65 0 4.88 177 02:28 22.10.2019
5699 Clouds -4 1005 65 0 4.88 177 01:29 22.10.2019
5700 Clouds -4 1005 65 0 4.88 177 00:58 22.10.2019
5701 Clouds -4 1005 65 0 4.88 177 00:40 22.10.2019
5702 Clouds -4 1008 75 0 6.89 199 00:21 22.10.2019
5703 Clouds -4 1008 75 0 6.89 199 23:55 21.10.2019
5704 Clouds -4 1008 75 0 6.89 199 23:37 21.10.2019
5705 Clouds -4 1008 75 0 6.89 199 23:18 21.10.2019
5706 Clouds -4 1008 75 0 6.89 199 23:18 21.10.2019
5707 Clouds -4 1008 75 0 6.89 199 22:56 21.10.2019
5708 Clouds -4 1008 75 0 6.89 199 22:56 21.10.2019
5709 Clouds -4 1008 75 0 6.89 199 22:37 21.10.2019
5710 Clouds -4 1008 75 0 6.89 199 22:19 21.10.2019
5711 Clouds -4 1008 75 0 6.89 199 21:54 21.10.2019
5712 Clouds -4 1008 75 0 6.89 199 21:54 21.10.2019
5713 Clouds -4 1008 75 0 6.89 199 21:54 21.10.2019
5714 Clouds -3 1008 79 0 7.12 201 21:36 21.10.2019
5715 Clouds -3 1008 79 0 7.12 201 21:36 21.10.2019
5716 Clouds -2 1010 82 0 9.66 208 21:18 21.10.2019
5717 Clouds -2 1010 82 0 9.66 208 20:41 21.10.2019
5718 Clouds -2 1010 82 0 9.66 208 20:21 21.10.2019
5719 Clouds -2 1010 82 0 9.66 208 19:59 21.10.2019
5720 Clouds -2 1010 82 0 9.66 208 19:41 21.10.2019
5721 Clouds -2 1010 82 0 9.66 208 19:22 21.10.2019
5722 Clouds -2 1010 82 0 9.66 208 18:56 21.10.2019
5723 Clouds -2 1010 82 0 9.66 208 18:38 21.10.2019
5724 Snow 0 1012 75 0 10.61 218 18:19 21.10.2019
5725 Snow 0 1012 75 0 10.61 218 17:57 21.10.2019
5726 Snow 0 1012 75 0 10.61 218 17:38 21.10.2019
5727 Snow 0 1012 75 0 10.61 218 17:18 21.10.2019
5728 Snow 0 1012 75 0 10.61 218 16:56 21.10.2019
5729 Snow 0 1012 75 0 10.61 218 16:38 21.10.2019
5730 Snow 0 1012 75 0 10.61 218 16:20 21.10.2019
5731 Snow 0 1012 75 0 10.61 218 15:46 21.10.2019
5732 -273 0 0 0 0 0 15:25 21.10.2019
5733 Snow 1 1014 75 0 9.4 242 14:58 21.10.2019
5734 Snow 1 1014 75 0 9.4 242 14:39 21.10.2019
5735 Snow 1 1014 75 0 8.92 237 14:20 21.10.2019
5736 Snow 1 1014 75 0 8.92 237 13:56 21.10.2019
5737 Snow 1 1014 75 0 8.92 237 13:38 21.10.2019
5738 Snow 1 1014 75 0 8.92 237 13:19 21.10.2019
5739 Snow 1 1014 75 0 8.92 237 12:41 21.10.2019
5740 Clouds 0 1015 73 0 7.77 224.619 12:22 21.10.2019
5741 Clouds 0 1015 73 0 7.77 224.619 11:57 21.10.2019
5742 Clouds 0 1015 73 0 7.77 224.619 11:38 21.10.2019
5743 Clouds 0 1015 73 0 7.77 224.619 11:20 21.10.2019
5744 Clouds 0 1015 73 0 7.77 224.619 10:56 21.10.2019
5745 Clouds 0 1015 73 0 7.77 224.619 10:38 21.10.2019
5746 Clouds 0 1015 73 0 7.77 224.619 10:18 21.10.2019
5747 Clouds 0 1015 73 0 7.77 224.619 09:44 21.10.2019
5748 Clouds 0 1015 73 0 7.77 224.619 09:26 21.10.2019
5749 Clouds 0 1015 63 0 6.87 265.593 08:56 21.10.2019
5750 Clouds 0 1015 63 0 6.87 265.593 08:37 21.10.2019
5751 Clouds 0 1015 63 0 6.87 265.593 08:18 21.10.2019
5752 Clouds 0 1015 63 0 6.87 265.593 07:38 21.10.2019
5753 Clouds 0 1015 63 0 6.87 265.593 07:20 21.10.2019
5754 Clouds 0 1015 63 0 6.87 265.593 06:54 21.10.2019
5755 Clouds 0 1015 63 0 6.87 265.593 06:36 21.10.2019
5756 Clouds 0 1015 65 0 7.22 294.583 05:55 21.10.2019
5757 Clouds 0 1015 65 0 7.22 294.583 05:55 21.10.2019
5758 Clouds 0 1015 65 0 7.22 294.583 04:45 21.10.2019
5759 Clouds 0 1015 65 0 7.22 294.583 03:26 21.10.2019
5760 Clouds 0 1014 64 0 9.18 316.042 02:23 21.10.2019
5761 Clouds 0 1014 64 0 9.18 316.042 01:57 21.10.2019
5762 Clouds 0 1014 64 0 9.17 319.59 01:23 21.10.2019
5763 Clouds 0 1014 64 0 9.17 319.59 00:47 21.10.2019
5764 Clouds 0 1014 64 0 9.17 319.59 00:25 21.10.2019
5765 Clouds 0 1012 64 0 10.34 320.188 23:42 20.10.2019
5766 Clouds 0 1012 64 0 10.34 320.188 23:22 20.10.2019
5767 Clouds 0 1012 64 0 10.34 320.188 22:56 20.10.2019
5768 Clouds 0 1012 64 0 10.34 320.188 22:37 20.10.2019
5769 Clouds 0 1012 64 0 10.34 320.188 22:18 20.10.2019
5770 Clouds 0 1012 64 0 10.34 320.188 21:57 20.10.2019
5771 Clouds 0 1012 64 0 10.34 320.188 21:38 20.10.2019
5772 Clouds 0 1010 63 0 10.02 322.9 21:20 20.10.2019
5773 Clouds -1 1010 63 0 9.99 325.205 20:41 20.10.2019
5774 Clouds -1 1010 63 0 9.99 325.205 20:19 20.10.2019
5775 Clouds -1 1010 63 0 9.99 325.205 19:56 20.10.2019
5776 Clouds -1 1010 63 0 9.99 325.205 19:38 20.10.2019
5777 Clouds -1 1010 63 0 9.99 325.205 19:20 20.10.2019
5778 Clouds -1 1010 63 0 9.99 325.205 18:55 20.10.2019
5779 Clouds -1 1010 63 0 9.99 325.205 18:55 20.10.2019
5780 Clouds -1 1010 63 0 9.99 325.205 18:36 20.10.2019
5781 Clouds 0 1008 68 0 9.32 325.756 18:18 20.10.2019
5782 Clouds 0 1008 68 0 9.32 325.756 17:42 20.10.2019
5783 Clouds 0 1008 68 0 9.32 325.756 17:23 20.10.2019
5784 Clouds 0 1008 68 0 9.32 325.756 16:57 20.10.2019
5785 Clouds 0 1008 68 0 9.32 325.756 16:39 20.10.2019
5786 Clouds 0 1008 68 0 9.32 325.756 16:39 20.10.2019
5787 Clouds 0 1008 68 0 9.32 325.756 16:21 20.10.2019
5788 Clouds 0 1008 68 0 9.32 325.756 15:56 20.10.2019
5789 Clouds 0 1008 68 0 9.32 325.756 15:38 20.10.2019
5790 Clouds 0 1007 67 0 7.85 325.091 15:19 20.10.2019
5791 Clouds 0 1007 67 0 7.85 325.091 14:56 20.10.2019
5792 Clouds 0 1007 67 0 7.85 325.091 14:37 20.10.2019
5793 Clouds 0 1007 67 0 7.85 325.091 14:18 20.10.2019
5794 Clouds 0 1007 67 0 7.85 325.091 13:54 20.10.2019
5795 Clouds 0 1007 67 0 7.85 325.091 13:54 20.10.2019
5796 Clouds 0 1007 67 0 7.85 325.091 13:54 20.10.2019
5797 Clouds 0 1007 67 0 7.85 325.091 13:54 20.10.2019
5798 Clouds 0 1007 67 0 7.85 325.091 13:36 20.10.2019
5799 Clouds 0 1007 67 0 8.36 329.804 13:18 20.10.2019
5800 Clouds 0 1007 67 0 8.36 329.804 12:54 20.10.2019
5801 Clouds 0 1007 67 0 8.36 329.804 12:36 20.10.2019
5802 Clouds 0 1005 63 0 6.69 324.335 12:18 20.10.2019
5803 Clouds 0 1005 63 0 6.69 324.335 11:41 20.10.2019
5804 Clouds 0 1005 63 0 6.69 324.335 11:22 20.10.2019
5805 Clouds 0 1005 63 0 6.69 324.335 10:58 20.10.2019
5806 Clouds 0 1005 63 0 6.69 324.335 10:39 20.10.2019
5807 Clouds 0 1005 63 0 6.69 324.335 10:21 20.10.2019
5808 Clouds 0 1005 63 0 6.69 324.335 09:56 20.10.2019
5809 Clouds 0 1005 63 0 6.69 324.335 09:37 20.10.2019
5810 Clouds 0 1006 68 0 3.57 290.485 09:19 20.10.2019
5811 Clouds 1 1005 57 0 4.19 313.966 08:40 20.10.2019
5812 Clouds 1 1005 57 0 4.19 313.966 08:21 20.10.2019
5813 Clouds 1 1005 57 0 4.19 313.966 07:48 20.10.2019
5814 Clouds 1 1005 57 0 4.19 313.966 07:28 20.10.2019
5815 Clouds 1 1005 57 0 4.19 313.966 06:31 20.10.2019
5816 Clouds -1 1005 91 0 4.97 342.623 04:34 20.10.2019
5817 Clouds -1 1005 91 0 4.97 342.623 03:52 20.10.2019
5818 Clouds 0 1006 96 0 3.64 0.944 03:22 20.10.2019
5819 Clouds 0 1006 96 0 3.64 0.944 02:49 20.10.2019
5820 Clouds 0 1006 96 0 3.64 0.944 02:22 20.10.2019
5821 Clouds 0 1006 96 0 3.64 0.944 01:50 20.10.2019
5822 Clouds 0 1006 95 0 3.02 334.157 01:22 20.10.2019
5823 Clouds 0 1006 95 0 3.02 334.157 00:49 20.10.2019
5824 Clouds 2 1007 97 0 7.76 306.849 00:21 20.10.2019
5825 Clouds 2 1007 97 0 7.76 306.849 23:54 19.10.2019
5826 Clouds 2 1007 97 0 7.76 306.849 23:36 19.10.2019
5827 Clouds 2 1007 97 0 7.76 306.849 23:18 19.10.2019
5828 Clouds 2 1007 97 0 7.76 306.849 22:40 19.10.2019
5829 Clouds 2 1007 97 0 7.76 306.849 22:22 19.10.2019
5830 Clouds 2 1007 97 0 7.76 306.849 21:57 19.10.2019
5831 Clouds 2 1007 97 0 7.76 306.849 21:39 19.10.2019
5832 Clouds 2 1007 96 0 15.86 237.598 21:20 19.10.2019
5833 Clouds 1 1007 95 0 16.01 237.678 20:42 19.10.2019
5834 Clouds 1 1007 95 0 16.01 237.678 20:42 19.10.2019
5835 Clouds 1 1007 95 0 16.01 237.678 20:21 19.10.2019
5836 Clouds 1 1007 95 0 16.01 237.678 19:45 19.10.2019
5837 Clouds 1 1007 95 0 16.01 237.678 19:26 19.10.2019
5838 Clouds 1 1007 95 0 16.01 237.678 18:57 19.10.2019
5839 Clouds 1 1007 95 0 16.01 237.678 18:39 19.10.2019
5840 Clouds 0 1008 91 0 16 226.39 18:19 19.10.2019
5841 Clouds 0 1008 91 0 16 226.39 17:41 19.10.2019
5842 Clouds 0 1008 91 0 16 226.39 17:23 19.10.2019
5843 Clouds 0 1008 91 0 16 226.39 16:57 19.10.2019
5844 Clouds 0 1008 91 0 16 226.39 16:57 19.10.2019
5845 Clouds 0 1008 91 0 16 226.39 16:38 19.10.2019
5846 Clouds 0 1008 91 0 16 226.39 16:19 19.10.2019
5847 Clouds 0 1008 91 0 16 226.39 15:43 19.10.2019
5848 Clouds 0 1008 91 0 16 226.39 15:24 19.10.2019
5849 Clouds -1 1011 87 0 16.11 226.253 14:39 19.10.2019
5850 Clouds -1 1011 87 0 16.11 226.253 14:39 19.10.2019
5851 Clouds -1 1011 87 0 16.11 226.253 14:39 19.10.2019
5852 Clouds -1 1011 87 0 16.11 226.253 14:21 19.10.2019
5853 Clouds -1 1011 87 0 16.11 226.253 14:21 19.10.2019
5854 Clouds -1 1011 87 0 16.11 226.253 14:21 19.10.2019
5855 Clouds -1 1011 87 0 16.11 226.253 13:58 19.10.2019
5856 Clouds -1 1011 87 0 16.11 226.253 13:40 19.10.2019
5857 Clouds 0 1011 84 0 15.77 227.675 13:19 19.10.2019
5858 Clouds 0 1011 84 0 15.77 227.675 12:57 19.10.2019
5859 Clouds 0 1011 84 0 15.77 227.675 12:37 19.10.2019
5860 Clouds 0 1013 72 0 14.92 218.68 12:19 19.10.2019
5861 Clouds 0 1013 72 0 14.92 218.68 11:41 19.10.2019
5862 Clouds 0 1013 72 0 14.92 218.68 11:23 19.10.2019
5863 Clouds 0 1013 72 0 14.92 218.68 10:56 19.10.2019
5864 Clouds 0 1013 72 0 14.92 218.68 10:38 19.10.2019
5865 Clouds 0 1013 72 0 14.92 218.68 10:20 19.10.2019
5866 Clouds 0 1013 72 0 14.92 218.68 09:43 19.10.2019
5867 Clouds 0 1013 72 0 14.92 218.68 09:25 19.10.2019
5868 Clouds 0 1015 72 0 15.11 218.185 08:59 19.10.2019
5869 Clouds 0 1015 72 0 15.11 218.185 08:40 19.10.2019
5870 Clouds 0 1015 72 0 15.11 218.185 08:40 19.10.2019
5871 Clouds 0 1015 72 0 15.11 218.185 08:21 19.10.2019
5872 Clouds 0 1015 72 0 15.11 218.185 07:44 19.10.2019
5873 Clouds 0 1015 72 0 15.11 218.185 07:25 19.10.2019
5874 Clouds 0 1015 72 0 15.11 218.185 06:47 19.10.2019
5875 Clouds 0 1015 72 0 15.11 218.185 06:26 19.10.2019
5876 Clouds 0 1015 72 0 15.11 218.185 06:26 19.10.2019
5877 Clouds -1 1017 74 0 14.04 219.04 05:34 19.10.2019
5878 Clouds -1 1017 74 0 14.04 219.04 04:23 19.10.2019
5879 Clouds 0 1019 75 0 13.72 221.717 02:47 19.10.2019
5880 Clouds 0 1019 75 0 13.72 221.717 01:53 19.10.2019
5881 Clouds 0 1019 75 0 13.67 222.705 01:25 19.10.2019
5882 Clouds 0 1019 75 0 13.67 222.705 00:48 19.10.2019
5883 Clouds 0 1019 75 0 13.67 222.705 00:27 19.10.2019
5884 Clouds 0 1020 80 0 12.12 221.882 23:45 18.10.2019
5885 Clouds 0 1020 80 0 12.12 221.882 23:27 18.10.2019
5886 Clouds 0 1020 80 0 12.12 221.882 22:58 18.10.2019
5887 Clouds 0 1020 80 0 12.12 221.882 22:40 18.10.2019
5888 Clouds 0 1020 80 0 12.12 221.882 22:20 18.10.2019
5889 Clouds 0 1020 80 0 12.12 221.882 21:59 18.10.2019
5890 Clouds 0 1020 80 0 12.12 221.882 21:39 18.10.2019
5891 Clouds 1 1021 86 0 11.74 226.936 21:20 18.10.2019
5892 Clouds 1 1021 86 0 11.74 226.936 20:56 18.10.2019
5893 Clouds 1 1021 86 0 11.74 226.936 20:56 18.10.2019
5894 Clouds 1 1021 86 0 11.74 226.936 20:38 18.10.2019
5895 Clouds 1 1021 86 0 11.74 226.936 20:20 18.10.2019
5896 Clouds 1 1021 86 0 11.74 226.936 20:20 18.10.2019
5897 Clouds 1 1021 86 0 11.74 226.936 19:57 18.10.2019
5898 Clouds 1 1021 86 0 11.74 226.936 19:38 18.10.2019
5899 Clouds 1 1021 86 0 11.74 226.936 19:20 18.10.2019
5900 Clouds 1 1021 86 0 11.74 226.936 18:55 18.10.2019
5901 Clouds 1 1021 86 0 11.74 226.936 18:37 18.10.2019
5902 Clouds 0 1022 85 0 9.65 226.445 18:19 18.10.2019
5903 Clouds 0 1022 85 0 9.65 226.445 17:39 18.10.2019
5904 Clouds 0 1022 85 0 9.65 226.445 17:20 18.10.2019
5905 Clouds 0 1022 85 0 9.65 226.445 16:56 18.10.2019
5906 Clouds 0 1022 85 0 9.65 226.445 16:37 18.10.2019
5907 Clouds 0 1022 85 0 9.65 226.445 16:19 18.10.2019
5908 Clouds 0 1022 85 0 9.65 226.445 16:19 18.10.2019
5909 Clouds 0 1022 85 0 9.65 226.445 15:41 18.10.2019
5910 Clouds 0 1023 73 0 9.19 241.412 15:21 18.10.2019
5911 Clouds 0 1023 73 0 9.19 241.412 15:21 18.10.2019
5912 Clouds 0 1023 73 0 9.19 241.412 14:59 18.10.2019
5913 Clouds 0 1023 73 0 9.19 241.412 14:40 18.10.2019
5914 Clouds 0 1023 73 0 9.19 241.412 14:22 18.10.2019
5915 Clouds 0 1023 73 0 9.19 241.412 13:59 18.10.2019
5916 Clouds 0 1023 73 0 9.19 241.412 13:41 18.10.2019
5917 Clouds 0 1023 72 0 9.06 238.486 13:23 18.10.2019
5918 Clouds 0 1023 72 0 9.06 238.486 12:56 18.10.2019
5919 Clouds 0 1023 72 0 9.06 238.486 12:38 18.10.2019
5920 Clouds 0 1023 72 0 9.06 238.486 12:38 18.10.2019
5921 Clouds 0 1023 72 0 9.06 238.486 12:38 18.10.2019
5922 Clouds 0 1023 70 0 7.76 245.299 12:20 18.10.2019
5923 Clouds 0 1023 70 0 7.76 245.299 11:56 18.10.2019
5924 Clouds 0 1023 70 0 7.76 245.299 11:37 18.10.2019
5925 Clouds 0 1023 70 0 7.76 245.299 11:19 18.10.2019
5926 Clouds 0 1023 70 0 7.76 245.299 10:43 18.10.2019
5927 Clouds 0 1023 70 0 7.76 245.299 10:43 18.10.2019
5928 Clouds 0 1023 70 0 7.76 245.299 10:23 18.10.2019
5929 Clouds 0 1023 70 0 7.76 245.299 09:59 18.10.2019
5930 Clouds 0 1023 70 0 7.76 245.299 09:41 18.10.2019
5931 Clouds 0 1023 70 0 5.52 258.061 09:21 18.10.2019
5932 Clouds 0 1023 70 0 5.52 258.061 09:21 18.10.2019
5933 Clouds 0 1023 70 0 5.52 258.061 08:58 18.10.2019
5934 Clouds 0 1023 70 0 5.52 258.061 08:58 18.10.2019
5935 Clouds 0 1023 70 0 5.52 258.061 08:58 18.10.2019
5936 Clouds 0 1023 70 0 5.52 258.061 08:58 18.10.2019
5937 Clouds 0 1023 70 0 5.52 258.061 08:40 18.10.2019
5938 Clouds 0 1023 70 0 5.52 258.061 08:21 18.10.2019
5939 Clouds 0 1023 70 0 5.52 258.061 07:42 18.10.2019
5940 Clouds 0 1023 70 0 5.52 258.061 07:21 18.10.2019
5941 Clouds 0 1023 70 0 5.52 258.061 06:39 18.10.2019
5942 Clouds -1 1022 91 0 5.59 271.179 06:20 18.10.2019
5943 Clouds -1 1022 91 0 5.59 271.179 05:55 18.10.2019
5944 Clouds -1 1022 91 0 5.59 271.179 05:22 18.10.2019
5945 Clouds -1 1022 91 0 5.59 271.179 03:56 18.10.2019
5946 Clouds -1 1022 91 0 5.59 271.179 03:24 18.10.2019
5947 Clouds 0 1022 72 0 3.73 268.588 02:33 18.10.2019
5948 Clouds 0 1022 72 0 3.73 268.588 01:44 18.10.2019
5949 Clouds 0 1022 66 0 3.21 293.876 01:26 18.10.2019
5950 Clouds 0 1022 66 0 3.21 293.876 00:44 18.10.2019
5951 Clouds -1 1021 67 0 2.65 287.055 00:20 18.10.2019
5952 Clouds -1 1021 67 0 2.65 287.055 23:54 17.10.2019
5953 Clouds -1 1021 67 0 2.65 287.055 23:36 17.10.2019
5954 Clouds -1 1021 67 0 2.65 287.055 23:18 17.10.2019
5955 Clouds -1 1021 67 0 2.65 287.055 22:54 17.10.2019
5956 Clouds -1 1021 67 0 2.65 287.055 22:36 17.10.2019
5957 Clouds -1 1021 67 0 2.65 287.055 22:18 17.10.2019
5958 Clouds -1 1021 67 0 2.65 287.055 21:54 17.10.2019
5959 Clouds -1 1021 67 0 2.65 287.055 21:36 17.10.2019
5960 Clouds -1 1021 68 0 2.8 286.519 21:18 17.10.2019
5961 Clouds 0 1022 69 0 2.84 300.409 20:54 17.10.2019
5962 Clouds 0 1022 69 0 2.84 300.409 20:36 17.10.2019
5963 Clouds 0 1022 69 0 2.84 300.409 20:18 17.10.2019
5964 Clouds 0 1022 69 0 2.84 300.409 19:41 17.10.2019
5965 Clouds 0 1022 69 0 2.84 300.409 19:20 17.10.2019
5966 Clouds 0 1022 69 0 2.84 300.409 19:20 17.10.2019
5967 Clouds 0 1022 69 0 2.84 300.409 19:20 17.10.2019
5968 Clouds 0 1022 69 0 2.84 300.409 18:59 17.10.2019
5969 Clouds 0 1022 69 0 2.84 300.409 18:38 17.10.2019
5970 Clouds 0 1022 77 0 3.18 319.514 18:20 17.10.2019
5971 Snow 0 1022 77 0 3.181 319 17:43 17.10.2019
5972 Snow 0 1022 77 0 3.181 319 17:24 17.10.2019
5973 Snow 0 1022 77 0 3.181 319 16:58 17.10.2019
5974 Snow 0 1022 77 0 3.181 319 16:40 17.10.2019
5975 Snow 0 1022 77 0 3.181 319 16:40 17.10.2019
5976 Snow 0 1022 77 0 3.181 319 16:18 17.10.2019
5977 Snow 0 1022 77 0 3.181 319 15:56 17.10.2019
5978 Snow 0 1022 77 0 3.181 319 15:38 17.10.2019
5979 Snow 0 1022 74 0 3.019 334 15:20 17.10.2019
5980 -273 0 0 0 0 0 14:56 17.10.2019
5981 Snow 0 1022 73 0 3.044 327 14:37 17.10.2019
5982 Snow 0 1022 73 0 3.044 327 14:19 17.10.2019
5983 Snow 0 1022 73 0 3.044 327 13:39 17.10.2019
5984 Snow 0 1022 73 0 3.044 327 13:20 17.10.2019
5985 Snow 0 1022 73 0 3.044 327 12:57 17.10.2019
5986 Snow 0 1022 73 0 3.044 327 12:37 17.10.2019
5987 Snow 0 1022 71 0 2.777 337 12:18 17.10.2019
5988 Snow 0 1022 71 0 2.777 337 12:18 17.10.2019
5989 Snow 0 1022 71 0 2.777 337 11:42 17.10.2019
5990 Snow 0 1022 71 0 2.777 337 11:22 17.10.2019
5991 Snow 0 1022 71 0 2.777 337 10:59 17.10.2019
5992 Snow 0 1022 71 0 2.777 337 10:41 17.10.2019
5993 Snow 0 1022 71 0 2.777 337 10:19 17.10.2019
5994 Snow 0 1022 71 0 2.777 337 09:56 17.10.2019
5995 Snow 0 1022 74 0 3.179 334 09:37 17.10.2019
5996 Snow 0 1022 74 0 3.631 342 09:19 17.10.2019
5997 Snow 0 1022 74 0 3.631 342 08:48 17.10.2019
5998 Snow 0 1022 74 0 3.631 342 08:27 17.10.2019
5999 Snow 0 1022 74 0 3.631 342 07:58 17.10.2019
6000 Snow 0 1022 74 0 3.631 342 07:40 17.10.2019
6001 Snow 0 1022 74 0 3.631 342 07:20 17.10.2019
6002 Snow 0 1022 74 0 3.631 342 07:20 17.10.2019
6003 Snow 0 1022 74 0 3.631 342 06:42 17.10.2019
6004 Snow 0 1022 74 0 3.631 342 06:42 17.10.2019
6005 Snow 0 1022 77 0 4.287 334 06:23 17.10.2019
6006 Snow 0 1022 77 0 4.287 334 05:58 17.10.2019
6007 Snow 0 1022 77 0 4.287 334 05:35 17.10.2019
6008 Snow 0 1022 77 0 4.287 334 04:57 17.10.2019
6009 Snow 0 1022 77 0 4.287 334 03:58 17.10.2019
6010 Snow 0 1022 77 0 4.287 334 03:38 17.10.2019
6011 Snow 0 1022 77 0 5.147 339 01:55 17.10.2019
6012 Snow 0 1022 77 0 5.147 339 00:41 17.10.2019
6013 Snow 0 1021 73 0 5.632 344 00:20 17.10.2019
6014 Snow 0 1021 73 0 5.632 344 23:42 16.10.2019
6015 Snow 0 1021 73 0 5.632 344 23:21 16.10.2019
6016 Snow 0 1021 73 0 5.632 344 22:57 16.10.2019
6017 Snow 0 1021 73 0 5.632 344 22:38 16.10.2019
6018 Snow 0 1021 73 0 5.632 344 22:19 16.10.2019
6019 Snow 0 1021 73 0 5.632 344 21:58 16.10.2019
6020 Snow 0 1022 77 0 5.437 347 21:38 16.10.2019
6021 Snow 0 1022 77 0 5.437 347 21:38 16.10.2019
6022 Snow 0 1021 69 0 5.432 352 21:20 16.10.2019
6023 Snow 0 1021 69 0 5.432 352 20:58 16.10.2019
6024 Snow 0 1021 69 0 5.432 352 20:40 16.10.2019
6025 Snow 0 1021 69 0 5.432 352 20:21 16.10.2019
6026 Snow 0 1021 69 0 5.432 352 19:59 16.10.2019
6027 Snow 0 1021 69 0 5.432 352 19:39 16.10.2019
6028 Snow 0 1021 69 0 5.432 352 19:39 16.10.2019
6029 Snow 0 1021 69 0 5.432 352 19:21 16.10.2019
6030 Snow 0 1021 69 0 5.432 352 18:55 16.10.2019
6031 Snow 0 1021 69 0 5.432 352 18:37 16.10.2019
6032 Snow 0 1021 71 0 5.444 358 18:18 16.10.2019
6033 Snow 0 1021 71 0 5.444 358 17:54 16.10.2019
6034 Snow 0 1021 71 0 5.444 358 17:54 16.10.2019
6035 Snow 0 1021 71 0 5.444 358 17:36 16.10.2019
6036 Snow 0 1021 71 0 5.444 358 17:18 16.10.2019
6037 Snow 0 1021 71 0 5.444 358 16:43 16.10.2019
6038 Snow 0 1021 71 0 5.444 358 16:22 16.10.2019
6039 Snow 0 1021 71 0 5.444 358 15:59 16.10.2019
6040 Snow 0 1021 71 0 5.444 358 15:39 16.10.2019
6041 Clouds 0 1021 71 0 5.095 12 15:19 16.10.2019
6042 Clouds 0 1021 71 0 5.095 12 14:58 16.10.2019
6043 Snow 0 1021 71 0 5.2 16 14:39 16.10.2019
6044 Snow 0 1021 71 0 5.2 16 14:39 16.10.2019
6045 Snow 0 1021 71 0 5.2 16 14:20 16.10.2019
6046 Snow 0 1021 71 0 5.2 16 13:57 16.10.2019
6047 Snow 0 1021 71 0 5.2 16 13:39 16.10.2019
6048 Snow 0 1021 71 0 5.2 16 13:20 16.10.2019
6049 Snow 0 1021 71 0 5.2 16 12:42 16.10.2019
6050 Snow 0 1021 72 0 5.379 33 12:20 16.10.2019
6051 Snow 0 1021 72 0 5.379 33 11:55 16.10.2019
6052 Snow 0 1021 72 0 5.379 33 11:36 16.10.2019
6053 Snow 0 1021 72 0 5.379 33 11:18 16.10.2019
6054 Snow 0 1021 72 0 5.379 33 10:36 16.10.2019
6055 Snow 0 1021 72 0 5.379 33 10:18 16.10.2019
6056 Snow 0 1021 72 0 5.379 33 09:40 16.10.2019
6057 Snow 0 1020 76 0 6.738 51 09:22 16.10.2019
6058 Snow 0 1020 76 0 6.738 51 08:56 16.10.2019
6059 -273 0 0 0 0 0 08:56 16.10.2019
6060 Snow 0 1020 76 0 6.738 51 08:38 16.10.2019
6061 Snow 0 1020 76 0 6.738 51 08:19 16.10.2019
6062 Snow 0 1020 76 0 6.738 51 07:41 16.10.2019
6063 Snow 0 1020 76 0 6.738 51 07:23 16.10.2019
6064 Snow 0 1020 76 0 6.738 51 06:48 16.10.2019
6065 Snow 0 1020 76 0 6.738 51 06:29 16.10.2019
6066 Clouds -1 1019 76 0 8.056 56 04:31 16.10.2019
6067 Clouds -1 1017 76 0 8.903 58 02:51 16.10.2019
6068 Snow -1 1017 76 0 8.828 58 01:20 16.10.2019
6069 Snow -1 1017 76 0 8.828 58 00:59 16.10.2019
6070 Snow -1 1017 76 0 8.828 58 00:40 16.10.2019
6071 Clouds -1 1016 77 0 9.717 58 23:58 15.10.2019
6072 Clouds -1 1016 77 0 9.717 58 23:38 15.10.2019
6073 Clouds -1 1016 77 0 9.717 58 23:19 15.10.2019
6074 Clouds -1 1016 77 0 9.717 58 22:55 15.10.2019
6075 Clouds -1 1016 77 0 9.717 58 22:37 15.10.2019
6076 Clouds -1 1016 77 0 9.717 58 22:18 15.10.2019
6077 Clouds -1 1016 77 0 9.717 58 22:18 15.10.2019
6078 Clouds -1 1016 77 0 9.717 58 21:54 15.10.2019
6079 Clouds -1 1015 78 0 9.971 54 21:36 15.10.2019
6080 Snow -1 1013 79 0 10.656 54 21:18 15.10.2019
6081 Snow -1 1013 79 0 10.656 54 20:54 15.10.2019
6082 Snow -1 1013 79 0 10.656 54 20:54 15.10.2019
6083 Snow -1 1013 79 0 10.656 54 20:54 15.10.2019
6084 Snow -1 1013 79 0 10.656 54 20:36 15.10.2019
6085 Snow -1 1013 79 0 10.656 54 20:18 15.10.2019
6086 Snow -1 1013 79 0 10.656 54 19:41 15.10.2019
6087 Snow -1 1013 79 0 10.656 54 19:20 15.10.2019
6088 Snow -1 1013 79 0 10.656 54 18:57 15.10.2019
6089 Snow -1 1013 79 0 10.656 54 18:57 15.10.2019
6090 Snow -1 1013 79 0 10.656 54 18:39 15.10.2019
6091 Snow 0 1012 84 0 10.895 54 18:20 15.10.2019
6092 Snow 0 1012 84 0 10.895 54 17:42 15.10.2019
6093 Snow 0 1012 84 0 10.895 54 17:42 15.10.2019
6094 Snow 0 1012 84 0 10.895 54 17:42 15.10.2019
6095 Snow 0 1012 84 0 10.895 54 17:21 15.10.2019
6096 Snow 0 1012 84 0 10.895 54 16:59 15.10.2019
6097 Snow 0 1012 84 0 10.895 54 16:41 15.10.2019
6098 Snow 0 1012 84 0 10.895 54 16:21 15.10.2019
6099 Snow 0 1012 84 0 10.895 54 15:55 15.10.2019
6100 Snow 0 1012 84 0 10.895 54 15:37 15.10.2019
6101 Snow 1 1010 85 0 10.98 55 15:19 15.10.2019
6102 Snow 1 1010 85 0 10.98 55 14:54 15.10.2019
6103 Snow 1 1010 86 0 10.781 56 14:36 15.10.2019
6104 Snow 1 1010 86 0 10.781 56 14:18 15.10.2019
6105 Snow 1 1010 86 0 10.781 56 13:43 15.10.2019
6106 Snow 1 1010 86 0 10.781 56 13:20 15.10.2019
6107 Snow 1 1010 86 0 10.781 56 12:44 15.10.2019
6108 Snow 2 1008 90 0 10.961 55 12:22 15.10.2019
6109 Snow 2 1008 90 0 10.961 55 11:59 15.10.2019
6110 Snow 2 1008 90 0 10.961 55 11:40 15.10.2019
6111 Snow 2 1008 90 0 10.961 55 11:19 15.10.2019
6112 Snow 2 1008 90 0 10.961 55 10:46 15.10.2019
6113 Clouds 2 1008 90 0 10.96 55.888 10:23 15.10.2019
6114 Clouds 2 1008 90 0 10.96 55.888 09:59 15.10.2019
6115 Clouds 2 1008 90 0 10.96 55.888 09:40 15.10.2019
6116 Clouds 2 1006 93 0 9.94 64.002 09:21 15.10.2019
6117 Clouds 2 1006 92 0 10.37 63.148 08:57 15.10.2019
6118 Clouds 2 1006 92 0 10.37 63.148 08:39 15.10.2019
6119 Clouds 2 1006 92 0 10.37 63.148 08:18 15.10.2019
6120 Clouds 2 1006 92 0 10.37 63.148 07:43 15.10.2019
6121 Clouds 2 1006 92 0 10.37 63.148 07:22 15.10.2019
6122 Clouds 2 1006 92 0 10.37 63.148 06:55 15.10.2019
6123 Clouds 2 1006 92 0 10.37 63.148 06:37 15.10.2019
6124 Clouds 2 1004 94 0 9.69 61.106 05:56 15.10.2019
6125 Clouds 2 1004 94 0 9.69 61.106 05:36 15.10.2019
6126 Clouds 2 1004 94 0 9.69 61.106 04:48 15.10.2019
6127 Clouds 2 1004 94 0 9.69 61.106 03:59 15.10.2019
6128 Clouds 2 1004 94 0 9.69 61.106 03:34 15.10.2019
6129 Clouds 2 1003 96 0 9.61 59.817 01:51 15.10.2019
6130 Clouds 2 1003 95 0 9.83 57.704 01:26 15.10.2019
6131 Clouds 2 1003 95 0 9.83 57.704 00:59 15.10.2019
6132 Clouds 2 1003 95 0 9.83 57.704 00:24 15.10.2019
6133 Clouds 3 1003 85 0 8.09 55.878 23:57 14.10.2019
6134 Clouds 3 1003 85 0 8.09 55.878 23:37 14.10.2019
6135 Clouds 3 1003 85 0 8.09 55.878 23:18 14.10.2019
6136 Clouds 3 1003 85 0 8.09 55.878 22:39 14.10.2019
6137 Clouds 3 1003 85 0 8.09 55.878 22:20 14.10.2019
6138 Clouds 3 1003 85 0 8.09 55.878 21:57 14.10.2019
6139 Clouds 3 1003 85 0 8.09 55.878 21:39 14.10.2019
6140 Clouds 3 1002 90 0 7.7 49.512 21:20 14.10.2019
6141 Clouds 3 1002 84 0 7.72 56.473 20:57 14.10.2019
6142 Clouds 3 1002 84 0 7.72 56.473 20:38 14.10.2019
6143 Clouds 3 1002 84 0 7.72 56.473 20:19 14.10.2019
6144 Snow 3 1002 84 0 7.715 56 19:43 14.10.2019
6145 Snow 3 1002 84 0 7.715 56 19:25 14.10.2019
6146 Clouds 3 1002 84 0 7.72 56.473 18:59 14.10.2019
6147 Clouds 3 1002 84 0 7.72 56.473 18:40 14.10.2019
6148 Clouds 3 1002 84 0 7.72 56.473 18:40 14.10.2019
6149 Rain 3 1003 86 0 6.93 59.343 18:20 14.10.2019
6150 Rain 3 1003 86 0 6.93 59.343 18:20 14.10.2019
6151 Rain 3 1003 86 0 6.93 59.343 17:58 14.10.2019
6152 Rain 3 1003 86 0 6.93 59.343 17:40 14.10.2019
6153 Rain 3 1003 86 0 6.93 59.343 17:21 14.10.2019
6154 Rain 3 1003 86 0 6.93 59.343 16:44 14.10.2019
6155 Rain 3 1003 86 0 6.93 59.343 16:22 14.10.2019
6156 Rain 3 1003 86 0 6.93 59.343 15:57 14.10.2019
6157 Rain 3 1003 86 0 6.93 59.343 15:57 14.10.2019
6158 Rain 3 1003 86 0 6.93 59.343 15:38 14.10.2019
6159 Clouds 3 1002 86 0 5.99 50.497 15:20 14.10.2019
6160 Clouds 3 1002 86 0 5.99 50.497 14:43 14.10.2019
6161 Clouds 3 1002 86 0 5.99 50.497 14:24 14.10.2019
6162 Clouds 3 1002 86 0 5.99 50.497 13:56 14.10.2019
6163 Clouds 3 1002 86 0 5.99 50.497 13:37 14.10.2019
6164 Clouds 3 1002 87 0 5.7 50.152 13:18 14.10.2019
6165 Clouds 3 1002 87 0 5.7 50.152 12:40 14.10.2019
6166 Clouds 3 1002 87 0 5.7 50.152 12:40 14.10.2019
6167 Clouds 3 1002 87 0 3.04 76.247 12:19 14.10.2019
6168 Clouds 3 1002 87 0 3.04 76.247 12:19 14.10.2019
6169 Clouds 3 1002 87 0 3.04 76.247 11:47 14.10.2019
6170 Clouds 3 1002 87 0 3.04 76.247 11:27 14.10.2019
6171 Clouds 3 1002 87 0 3.04 76.247 10:58 14.10.2019
6172 Clouds 3 1002 87 0 3.04 76.247 10:39 14.10.2019
6173 Clouds 3 1002 87 0 3.04 76.247 10:20 14.10.2019
6174 Clouds 3 1002 87 0 3.04 76.247 09:56 14.10.2019
6175 Clouds 3 1002 87 0 3.04 76.247 09:37 14.10.2019
6176 Rain 3 1002 90 0 2.79 138.998 09:18 14.10.2019
6177 Rain 3 1002 90 0 2.79 138.998 08:44 14.10.2019
6178 Rain 3 1002 90 0 2.79 138.998 08:22 14.10.2019
6179 Rain 3 1002 90 0 2.79 138.998 07:42 14.10.2019
6180 Rain 3 1002 90 0 2.79 138.998 07:19 14.10.2019
6181 Rain 3 1002 90 0 2.79 138.998 06:48 14.10.2019
6182 Clouds 3 1002 88 0 1.41 165.865 06:20 14.10.2019
6183 Clouds 3 1002 88 0 1.41 165.865 05:49 14.10.2019
6184 Clouds 3 1002 88 0 1.41 165.865 04:43 14.10.2019
6185 Clouds 3 1002 88 0 1.41 165.865 03:27 14.10.2019
6186 Clouds 3 1002 90 0 2.13 215.193 02:42 14.10.2019
6187 Clouds 3 1002 90 0 1.93 222.164 01:23 14.10.2019
6188 Clouds 3 1002 90 0 1.93 222.164 00:56 14.10.2019
6189 Clouds 3 1001 90 0 4.73 218.554 00:20 14.10.2019
6190 Clouds 3 1001 90 0 4.73 218.554 23:45 13.10.2019
6191 Clouds 3 1001 90 0 4.73 218.554 23:20 13.10.2019
6192 Clouds 3 1001 90 0 4.73 218.554 22:58 13.10.2019
6193 Clouds 3 1001 90 0 4.73 218.554 22:58 13.10.2019
6194 -273 0 0 0 0 0 22:40 13.10.2019
6195 Clouds 3 1001 90 0 4.73 218.554 22:21 13.10.2019
6196 Clouds 3 1001 90 0 4.73 218.554 21:58 13.10.2019
6197 Clouds 3 1001 90 0 4.73 218.554 21:37 13.10.2019
6198 Rain 3 1002 94 0 5.36 213.539 21:19 13.10.2019
6199 Rain 3 1002 94 0 5.36 213.539 20:57 13.10.2019
6200 Rain 3 1002 94 0 5.36 213.539 20:57 13.10.2019
6201 Rain 4 1002 94 0 5.31 220.096 20:38 13.10.2019
6202 -273 0 0 0 0 0 20:20 13.10.2019
6203 Rain 4 1002 94 0 5.31 220.096 19:58 13.10.2019
6204 -273 0 0 0 0 0 19:39 13.10.2019
6205 Rain 4 1002 94 0 5.31 220.096 19:21 13.10.2019
6206 -273 0 0 0 0 0 18:57 13.10.2019
6207 Rain 4 1002 94 0 5.31 220.096 18:56 13.10.2019
6208 Rain 4 1002 94 0 5.31 220.096 18:56 13.10.2019
6209 Rain 4 1002 94 0 5.31 220.096 18:56 13.10.2019
6210 Rain 4 1002 94 0 5.31 220.096 18:36 13.10.2019
6211 Rain 4 1001 93 0 6.48 221.05 18:18 13.10.2019
6212 Rain 4 1001 93 0 6.48 221.05 17:44 13.10.2019
6213 Rain 4 1001 93 0 6.48 221.05 17:44 13.10.2019
6214 Rain 4 1001 93 0 6.48 221.05 17:26 13.10.2019
6215 Rain 4 1001 93 0 6.48 221.05 17:25 13.10.2019
6216 Rain 4 1001 93 0 6.48 221.05 17:25 13.10.2019
6217 -273 0 0 0 0 0 16:56 13.10.2019
6218 Rain 4 1001 93 0 6.48 221.05 16:36 13.10.2019
6219 Rain 4 1001 93 0 6.48 221.05 16:18 13.10.2019
6220 Rain 4 1001 93 0 6.48 221.05 15:55 13.10.2019
6221 Rain 4 1001 93 0 6.48 221.05 15:55 13.10.2019
6222 Rain 4 1001 93 0 6.48 221.05 15:36 13.10.2019
6223 Rain 4 1002 93 0 7.12 219.74 15:18 13.10.2019
6224 Rain 4 1002 93 0 7.12 219.74 14:40 13.10.2019
6225 Rain 4 1002 93 0 7.12 219.74 14:22 13.10.2019
6226 Rain 4 1002 93 0 7.12 219.74 13:59 13.10.2019
6227 Rain 4 1002 93 0 7.12 219.74 13:39 13.10.2019
6228 Rain 4 1002 93 0 7.12 219.74 13:39 13.10.2019
6229 Rain 4 1002 92 0 7.76 214.452 13:21 13.10.2019
6230 Rain 4 1002 92 0 7.76 214.452 12:56 13.10.2019
6231 Rain 4 1002 92 0 7.76 214.452 12:38 13.10.2019
6232 Rain 4 1001 93 0 8.56 219.86 12:19 13.10.2019
6233 Rain 4 1001 93 0 8.56 219.86 11:58 13.10.2019
6234 Rain 4 1001 93 0 8.56 219.86 11:38 13.10.2019
6235 Rain 4 1001 93 0 8.56 219.86 11:38 13.10.2019
6236 Rain 4 1001 93 0 8.56 219.86 11:19 13.10.2019
6237 Rain 4 1001 93 0 8.56 219.86 10:42 13.10.2019
6238 Rain 4 1001 93 0 8.56 219.86 10:23 13.10.2019
6239 Rain 4 1001 93 0 8.56 219.86 10:23 13.10.2019
6240 Rain 4 1001 93 0 8.56 219.86 09:57 13.10.2019
6241 Rain 4 1001 93 0 8.56 219.86 09:38 13.10.2019
6242 Rain 4 1001 93 0 9.95 221.737 09:19 13.10.2019
6243 Rain 4 1001 93 0 9.73 223.1 08:43 13.10.2019
6244 Rain 4 1001 93 0 9.73 223.1 08:22 13.10.2019
6245 Rain 4 1001 93 0 9.73 223.1 07:46 13.10.2019
6246 Rain 4 1001 93 0 9.73 223.1 07:23 13.10.2019
6247 Rain 4 1001 93 0 9.73 223.1 06:46 13.10.2019
6248 Rain 4 1001 92 0 8.3 218.048 05:50 13.10.2019
6249 Rain 4 1001 92 0 8.3 218.048 04:52 13.10.2019
6250 Rain 4 1001 92 0 8.3 218.048 04:32 13.10.2019
6251 Rain 4 1001 94 0 8.86 222.641 02:42 13.10.2019
6252 Rain 4 1001 94 0 8.86 222.641 02:42 13.10.2019
6253 Rain 4 1001 94 0 8.86 222.641 02:18 13.10.2019
6254 Rain 4 1001 94 0 8.86 222.641 01:31 13.10.2019
6255 Rain 4 1001 93 0 8.75 223.097 00:50 13.10.2019
6256 Rain 3 1001 94 0 9.67 219.177 00:22 13.10.2019
6257 Rain 3 1001 94 0 9.67 219.177 23:57 12.10.2019
6258 Rain 3 1001 94 0 9.67 219.177 23:39 12.10.2019
6259 Rain 3 1001 94 0 9.67 219.177 23:20 12.10.2019
6260 Rain 3 1001 94 0 9.67 219.177 22:57 12.10.2019
6261 Rain 3 1001 94 0 9.67 219.177 22:38 12.10.2019
6262 Rain 3 1001 94 0 9.67 219.177 22:20 12.10.2019
6263 Rain 3 1001 94 0 9.67 219.177 21:55 12.10.2019
6264 Rain 3 1001 94 0 9.67 219.177 21:37 12.10.2019
6265 Rain 3 1001 96 0 10.09 217.713 21:19 12.10.2019
6266 -273 0 0 0 0 0 20:41 12.10.2019
6267 Rain 3 1001 93 0 10.58 215.476 20:23 12.10.2019
6268 Rain 3 1001 93 0 10.58 215.476 19:40 12.10.2019
6269 Rain 3 1001 93 0 10.58 215.476 19:40 12.10.2019
6270 Rain 3 1001 93 0 10.58 215.476 19:22 12.10.2019
6271 Rain 3 1001 93 0 10.58 215.476 18:59 12.10.2019
6272 Rain 3 1001 93 0 10.58 215.476 18:40 12.10.2019
6273 Rain 3 1001 93 0 10.58 215.476 18:40 12.10.2019
6274 Clouds 3 1002 96 0 11.21 222.498 18:22 12.10.2019
6275 Clouds 3 1002 96 0 11.21 222.498 17:43 12.10.2019
6276 Clouds 3 1002 96 0 11.21 222.498 17:19 12.10.2019
6277 Clouds 3 1002 96 0 11.21 222.498 16:54 12.10.2019
6278 Clouds 3 1002 96 0 11.21 222.498 16:54 12.10.2019
6279 Clouds 3 1002 96 0 11.21 222.498 16:36 12.10.2019
6280 Clouds 3 1002 96 0 11.21 222.498 16:18 12.10.2019
6281 Clouds 3 1002 96 0 11.21 222.498 15:43 12.10.2019
6282 Clouds 3 1002 96 0 11.73 220.702 15:23 12.10.2019
6283 Clouds 3 1002 96 0 11.73 220.702 14:43 12.10.2019
6284 Clouds 3 1002 96 0 11.73 220.702 14:22 12.10.2019
6285 Clouds 3 1002 96 0 11.73 220.702 13:58 12.10.2019
6286 Clouds 3 1002 96 0 11.73 220.702 13:40 12.10.2019
6287 Clouds 3 1002 96 0 11.73 220.702 13:40 12.10.2019
6288 Rain 3 1002 96 0 11.72 221.401 13:21 12.10.2019
6289 Rain 3 1002 96 0 11.72 221.401 12:39 12.10.2019
6290 Rain 3 1002 93 0 12.05 219.905 12:21 12.10.2019
6291 Rain 3 1002 93 0 12.05 219.905 11:58 12.10.2019
6292 Rain 3 1002 93 0 12.05 219.905 11:39 12.10.2019
6293 Rain 3 1002 93 0 12.05 219.905 11:39 12.10.2019
6294 Rain 3 1002 93 0 12.05 219.905 11:20 12.10.2019
6295 Rain 3 1002 93 0 12.05 219.905 10:43 12.10.2019
6296 Rain 3 1002 93 0 12.05 219.905 10:23 12.10.2019
6297 Rain 3 1002 93 0 12.05 219.905 09:58 12.10.2019
6298 Rain 3 1002 93 0 12.05 219.905 09:39 12.10.2019
6299 Clouds 3 1002 96 0 11.76 210.476 09:21 12.10.2019
6300 Clouds 2 1003 96 0 10.1 217.26 08:57 12.10.2019
6301 Clouds 2 1003 96 0 10.1 217.26 08:38 12.10.2019
6302 Clouds 2 1003 96 0 10.1 217.26 08:19 12.10.2019
6303 Clouds 2 1003 96 0 10.1 217.26 07:34 12.10.2019
6304 Clouds 2 1003 96 0 10.1 217.26 06:51 12.10.2019
6305 Clouds 3 1003 95 0 11.89 216.811 05:47 12.10.2019
6306 Clouds 3 1003 95 0 11.89 216.811 05:22 12.10.2019
6307 Clouds 3 1003 95 0 11.89 216.811 04:24 12.10.2019
6308 Clouds 3 1003 95 0 11.89 216.811 03:30 12.10.2019
6309 Clouds 2 1003 96 0 11.25 209.207 01:38 12.10.2019
6310 Clouds 3 1003 96 0 11.58 207.837 01:19 12.10.2019
6311 Clouds 3 1003 96 0 11.58 207.837 00:40 12.10.2019
6312 Clouds 2 1004 96 0 12.33 200.357 23:59 11.10.2019
6313 Clouds 2 1004 96 0 12.33 200.357 23:40 11.10.2019
6314 Clouds 2 1004 96 0 12.33 200.357 23:20 11.10.2019
6315 Clouds 2 1004 96 0 12.33 200.357 22:41 11.10.2019
6316 Clouds 2 1004 96 0 12.33 200.357 22:41 11.10.2019
6317 Clouds 2 1004 96 0 12.33 200.357 22:21 11.10.2019
6318 Clouds 2 1004 96 0 12.33 200.357 21:57 11.10.2019
6319 Clouds 2 1004 96 0 12.33 200.357 21:38 11.10.2019
6320 Clouds 2 1005 95 0 11.96 204.545 21:20 11.10.2019
6321 Clouds 2 1005 95 0 11.6 203.583 20:44 11.10.2019
6322 Clouds 2 1005 95 0 11.6 203.583 20:26 11.10.2019
6323 Clouds 2 1005 95 0 11.6 203.583 19:58 11.10.2019
6324 Clouds 2 1005 95 0 11.6 203.583 19:39 11.10.2019
6325 Clouds 2 1005 95 0 11.6 203.583 19:18 11.10.2019
6326 Clouds 2 1005 95 0 11.6 203.583 18:58 11.10.2019
6327 Clouds 2 1005 95 0 11.6 203.583 18:38 11.10.2019
6328 Clouds 2 1005 95 0 11.6 203.583 18:38 11.10.2019
6329 Clouds 2 1006 95 0 11.07 198.998 18:19 11.10.2019
6330 Clouds 2 1006 95 0 11.07 198.998 17:58 11.10.2019
6331 Clouds 2 1006 95 0 11.07 198.998 17:38 11.10.2019
6332 Clouds 2 1006 95 0 11.07 198.998 17:19 11.10.2019
6333 Clouds 2 1006 95 0 11.07 198.998 16:56 11.10.2019
6334 Clouds 2 1006 95 0 11.07 198.998 16:37 11.10.2019
6335 Clouds 2 1006 95 0 11.07 198.998 16:18 11.10.2019
6336 Clouds 2 1006 95 0 11.07 198.998 15:41 11.10.2019
6337 Clouds 2 1007 90 0 10.89 202.364 15:20 11.10.2019
6338 Clouds 2 1007 90 0 10.89 202.364 14:58 11.10.2019
6339 Clouds 2 1007 90 0 10.89 202.364 14:58 11.10.2019
6340 Clouds 2 1007 90 0 10.89 202.364 14:37 11.10.2019
6341 Clouds 2 1007 90 0 10.89 202.364 14:19 11.10.2019
6342 Clouds 2 1007 90 0 10.89 202.364 13:43 11.10.2019
6343 Clouds 2 1007 91 0 10.92 200.672 13:24 11.10.2019
6344 Clouds 2 1007 91 0 10.92 200.672 12:56 11.10.2019
6345 Clouds 2 1007 91 0 10.92 200.672 12:38 11.10.2019
6346 Clouds 2 1008 89 0 11.12 206.15 12:20 11.10.2019
6347 Clouds 2 1008 89 0 11.12 206.15 11:57 11.10.2019
6348 Clouds 2 1008 89 0 11.12 206.15 11:38 11.10.2019
6349 Clouds 2 1008 89 0 11.12 206.15 11:20 11.10.2019
6350 Clouds 2 1008 89 0 11.12 206.15 10:42 11.10.2019
6351 Clouds 2 1008 89 0 11.12 206.15 10:23 11.10.2019
6352 Clouds 2 1008 89 0 11.12 206.15 09:59 11.10.2019
6353 Clouds 2 1008 87 0 11.18 207.695 09:40 11.10.2019
6354 Clouds 2 1007 84 0 10.62 215.481 09:20 11.10.2019
6355 Clouds 2 1007 84 0 10.62 215.481 08:56 11.10.2019
6356 Clouds 2 1007 84 0 10.62 215.481 08:38 11.10.2019
6357 Clouds 2 1007 84 0 10.62 215.481 08:19 11.10.2019
6358 Clouds 2 1007 84 0 10.62 215.481 07:51 11.10.2019
6359 Clouds 2 1007 84 0 10.62 215.481 07:33 11.10.2019
6360 Clouds 2 1007 84 0 10.62 215.481 06:49 11.10.2019
6361 Clouds 2 1007 84 0 10.62 215.481 06:24 11.10.2019
6362 Clouds 2 1006 83 0 11.71 223.027 05:41 11.10.2019
6363 Clouds 2 1006 83 0 11.71 223.027 05:20 11.10.2019
6364 Clouds 2 1006 83 0 11.71 223.027 04:38 11.10.2019
6365 Clouds 2 1004 92 0 11.15 239.521 02:47 11.10.2019
6366 Clouds 2 1004 95 0 11.52 241.1 00:52 11.10.2019
6367 Clouds 2 1004 95 0 11.52 241.1 00:29 11.10.2019
6368 Rain 3 1001 96 0 12.35 264.537 23:48 10.10.2019
6369 Rain 3 1001 96 0 12.35 264.537 23:23 10.10.2019
6370 Rain 3 1001 96 0 12.35 264.537 22:58 10.10.2019
6371 Rain 3 1001 96 0 12.35 264.537 22:40 10.10.2019
6372 Rain 3 1001 96 0 12.35 264.537 22:21 10.10.2019
6373 Rain 3 1001 96 0 12.35 264.537 21:58 10.10.2019
6374 Rain 3 1001 96 0 12.35 264.537 21:40 10.10.2019
6375 Rain 3 1000 97 0 8.21 278.488 21:21 10.10.2019
6376 Rain 4 999 96 0 11.16 273.973 20:57 10.10.2019
6377 Rain 4 999 96 0 11.16 273.973 20:57 10.10.2019
6378 Rain 4 999 96 0 11.16 273.973 20:38 10.10.2019
6379 Rain 4 999 96 0 11.16 273.973 20:18 10.10.2019
6380 Rain 4 999 96 0 11.16 273.973 20:18 10.10.2019
6381 Rain 4 999 96 0 11.16 273.973 19:54 10.10.2019
6382 Rain 4 999 96 0 11.16 273.973 19:36 10.10.2019
6383 Rain 4 999 96 0 11.16 273.973 19:18 10.10.2019
6384 Rain 4 999 96 0 11.16 273.973 18:41 10.10.2019
6385 Rain 3 1000 98 0 2.4 3.614 18:20 10.10.2019
6386 Rain 3 1000 98 0 2.4 3.614 17:55 10.10.2019
6387 Rain 3 1000 98 0 2.4 3.614 17:37 10.10.2019
6388 Rain 3 1000 98 0 2.4 3.614 17:18 10.10.2019
6389 Rain 3 1000 98 0 2.4 3.614 16:46 10.10.2019
6390 Rain 3 1000 98 0 2.4 3.614 16:26 10.10.2019
6391 Rain 3 1000 98 0 2.4 3.614 16:26 10.10.2019
6392 Rain 3 1000 98 0 2.4 3.614 15:58 10.10.2019
6393 Rain 3 1000 98 0 2.4 3.614 15:38 10.10.2019
6394 Rain 4 1003 98 0 5.1 51.398 15:19 10.10.2019
6395 Rain 4 1003 98 0 5.1 51.398 14:55 10.10.2019
6396 Rain 4 1003 98 0 5.1 51.398 14:36 10.10.2019
6397 Rain 4 1003 98 0 5.1 51.398 14:18 10.10.2019
6398 Rain 4 1003 98 0 5.1 51.398 13:42 10.10.2019
6399 Rain 4 1003 98 0 5.64 39.293 13:24 10.10.2019
6400 Rain 4 1003 98 0 5.64 39.293 12:58 10.10.2019
6401 Rain 4 1003 98 0 5.64 39.293 12:40 10.10.2019
6402 Rain 3 1006 97 0 5.8 36.481 12:20 10.10.2019
6403 Rain 3 1006 97 0 5.8 36.481 11:57 10.10.2019
6404 Rain 3 1006 97 0 5.8 36.481 11:38 10.10.2019
6405 Rain 3 1006 97 0 5.8 36.481 11:19 10.10.2019
6406 Rain 3 1006 97 0 5.8 36.481 10:44 10.10.2019
6407 Rain 3 1006 97 0 5.8 36.481 10:26 10.10.2019
6408 Rain 3 1006 97 0 5.8 36.481 09:56 10.10.2019
6409 Rain 3 1006 97 0 5.8 36.481 09:38 10.10.2019
6410 Rain 3 1009 95 0 3.61 51.528 09:20 10.10.2019
6411 Rain 3 1010 95 0 2.42 68.998 08:57 10.10.2019
6412 Rain 3 1010 95 0 2.42 68.998 08:37 10.10.2019
6413 Rain 3 1010 95 0 2.42 68.998 08:18 10.10.2019
6414 Rain 3 1010 95 0 2.42 68.998 07:44 10.10.2019
6415 Rain 3 1010 95 0 2.42 68.998 07:21 10.10.2019
6416 Rain 3 1010 95 0 2.42 68.998 06:48 10.10.2019
6417 Rain 3 1010 95 0 2.42 68.998 06:29 10.10.2019
6418 Clouds 2 1012 92 0 2.96 56.412 05:28 10.10.2019
6419 Clouds 2 1012 92 0 2.96 56.412 04:47 10.10.2019
6420 Clouds 2 1012 92 0 2.96 56.412 04:26 10.10.2019
6421 Clouds 2 1012 92 0 2.96 56.412 04:26 10.10.2019
6422 Clouds 2 1012 84 0 1.94 125.113 01:44 10.10.2019
6423 Clouds 2 1012 84 0 1.94 125.113 01:44 10.10.2019
6424 Clouds 2 1012 90 0 2.57 81.826 01:25 10.10.2019
6425 Clouds 2 1012 90 0 2.57 81.826 00:54 10.10.2019
6426 Clouds 2 1012 90 0 2.57 81.826 00:54 10.10.2019
6427 Clouds 3 1014 74 0 2.62 163.401 00:22 10.10.2019
6428 Clouds 3 1014 74 0 2.62 163.401 23:40 09.10.2019
6429 Clouds 3 1014 74 0 2.62 163.401 23:21 09.10.2019
6430 Clouds 3 1014 74 0 2.62 163.401 22:56 09.10.2019
6431 Clouds 3 1014 74 0 2.62 163.401 22:38 09.10.2019
6432 Clouds 3 1014 74 0 2.62 163.401 22:20 09.10.2019
6433 Clouds 3 1014 74 0 2.62 163.401 21:40 09.10.2019
6434 Clouds 3 1015 74 0 3.36 184.972 21:21 09.10.2019
6435 Clouds 3 1016 75 0 2.56 174.198 20:56 09.10.2019
6436 Clouds 3 1016 75 0 2.56 174.198 20:38 09.10.2019
6437 Clouds 3 1016 75 0 2.56 174.198 20:19 09.10.2019
6438 Clouds 3 1016 75 0 2.56 174.198 19:58 09.10.2019
6439 Clouds 3 1016 75 0 2.56 174.198 19:39 09.10.2019
6440 Clouds 3 1016 75 0 2.56 174.198 19:20 09.10.2019
6441 Clouds 3 1016 75 0 2.56 174.198 18:38 09.10.2019
6442 Clouds 3 1016 75 0 2.56 174.198 18:38 09.10.2019
6443 Clouds 4 1016 75 0 4.17 168.423 18:19 09.10.2019
6444 Clouds 4 1016 75 0 4.17 168.423 17:57 09.10.2019
6445 Clouds 4 1016 75 0 4.17 168.423 17:37 09.10.2019
6446 Clouds 4 1016 75 0 4.17 168.423 17:19 09.10.2019
6447 Clouds 4 1016 75 0 4.17 168.423 16:55 09.10.2019
6448 Clouds 4 1016 75 0 4.17 168.423 16:36 09.10.2019
6449 Clouds 4 1016 75 0 4.17 168.423 16:18 09.10.2019
6450 Clouds 4 1016 75 0 4.17 168.423 15:55 09.10.2019
6451 Clouds 4 1016 75 0 4.17 168.423 15:36 09.10.2019
6452 Clouds 4 1016 75 0 4.17 168.423 15:36 09.10.2019
6453 Clouds 4 1016 78 0 5.13 146.372 15:18 09.10.2019
6454 Clouds 4 1016 78 0 5.13 146.372 14:42 09.10.2019
6455 Clouds 4 1016 78 0 5.13 146.372 14:42 09.10.2019
6456 Clouds 4 1016 78 0 5.13 146.372 14:18 09.10.2019
6457 -273 0 0 0 0 0 13:55 09.10.2019
6458 Clouds 4 1016 78 0 5.13 146.372 13:36 09.10.2019
6459 Clouds 4 1016 78 0 5.13 146.372 13:36 09.10.2019
6460 Clouds 4 1016 79 0 5.72 141.454 13:18 09.10.2019
6461 Clouds 4 1016 79 0 5.72 141.454 12:42 09.10.2019
6462 Clouds 4 1017 77 0 4.81 150.683 12:22 09.10.2019
6463 Clouds 4 1017 77 0 4.81 150.683 11:57 09.10.2019
6464 Clouds 4 1017 77 0 4.81 150.683 11:39 09.10.2019
6465 Clouds 4 1017 77 0 4.81 150.683 11:20 09.10.2019
6466 Clouds 4 1017 77 0 4.81 150.683 10:55 09.10.2019
6467 Clouds 4 1017 77 0 4.81 150.683 10:37 09.10.2019
6468 Clouds 4 1017 77 0 4.81 150.683 10:18 09.10.2019
6469 Clouds 4 1017 77 0 4.81 150.683 09:42 09.10.2019
6470 Clouds 4 1017 76 0 5.65 207.018 09:19 09.10.2019
6471 Clouds 4 1017 76 0 5.65 207.018 08:55 09.10.2019
6472 Clouds 4 1017 76 0 5.58 198.402 08:37 09.10.2019
6473 Clouds 4 1017 76 0 5.58 198.402 08:18 09.10.2019
6474 Clouds 4 1017 76 0 5.58 198.402 07:42 09.10.2019
6475 Clouds 4 1017 76 0 5.58 198.402 07:22 09.10.2019
6476 Clouds 4 1017 76 0 5.58 198.402 06:52 09.10.2019
6477 Clouds 4 1016 82 0 9.19 208.053 06:20 09.10.2019
6478 Clouds 4 1016 82 0 9.19 208.053 05:46 09.10.2019
6479 Clouds 4 1016 82 0 9.19 208.053 04:27 09.10.2019
6480 Clouds 4 1014 85 0 6.77 181.59 02:54 09.10.2019
6481 Clouds 4 1014 85 0 6.77 181.59 01:44 09.10.2019
6482 Clouds 4 1014 87 0 5.97 172.937 01:21 09.10.2019
6483 Clouds 4 1014 87 0 5.97 172.937 00:57 09.10.2019
6484 Clouds 4 1014 87 0 5.97 172.937 00:39 09.10.2019
6485 Clouds 3 1014 76 0 7.02 152.559 00:20 09.10.2019
6486 Clouds 3 1014 76 0 7.02 152.559 23:40 08.10.2019
6487 Clouds 3 1014 76 0 7.02 152.559 23:19 08.10.2019
6488 Clouds 3 1014 76 0 7.02 152.559 22:58 08.10.2019
6489 Clouds 3 1014 76 0 7.02 152.559 22:39 08.10.2019
6490 Clouds 3 1014 76 0 7.02 152.559 22:20 08.10.2019
6491 Clouds 3 1014 76 0 7.02 152.559 21:57 08.10.2019
6492 Clouds 3 1014 76 0 7.02 152.559 21:39 08.10.2019
6493 Clouds 3 1014 76 0 7.02 152.559 21:39 08.10.2019
6494 Clouds 3 1015 73 0 7.51 127.457 21:19 08.10.2019
6495 Clouds 3 1015 73 0 7.51 127.457 20:56 08.10.2019
6496 Clouds 3 1015 75 0 7.8 123.498 20:38 08.10.2019
6497 Clouds 3 1015 75 0 7.8 123.498 20:20 08.10.2019
6498 Clouds 3 1015 75 0 7.8 123.498 19:58 08.10.2019
6499 Clouds 3 1015 75 0 7.8 123.498 19:39 08.10.2019
6500 Clouds 3 1015 75 0 7.8 123.498 19:20 08.10.2019
6501 Clouds 3 1015 75 0 7.8 123.498 18:54 08.10.2019
6502 Clouds 3 1015 75 0 7.8 123.498 18:36 08.10.2019
6503 Clouds 3 1016 81 0 10.64 111.385 18:18 08.10.2019
6504 Clouds 3 1016 81 0 10.64 111.385 17:40 08.10.2019
6505 Clouds 3 1016 81 0 10.64 111.385 17:40 08.10.2019
6506 Clouds 3 1016 81 0 10.64 111.385 17:20 08.10.2019
6507 Clouds 3 1016 81 0 10.64 111.385 16:58 08.10.2019
6508 Clouds 3 1016 81 0 10.64 111.385 16:38 08.10.2019
6509 Clouds 3 1016 81 0 10.64 111.385 16:20 08.10.2019
6510 Clouds 3 1016 81 0 10.64 111.385 15:40 08.10.2019
6511 Clouds 3 1019 81 0 11.05 108.916 15:21 08.10.2019
6512 Clouds 3 1019 81 0 11.05 108.916 14:57 08.10.2019
6513 Clouds 3 1019 81 0 11.05 108.916 14:39 08.10.2019
6514 Clouds 3 1019 81 0 11.05 108.916 14:20 08.10.2019
6515 Clouds 3 1019 81 0 11.05 108.916 13:56 08.10.2019
6516 Clouds 3 1019 81 0 11.05 108.916 13:37 08.10.2019
6517 Clouds 3 1019 81 0 11.05 108.916 13:18 08.10.2019
6518 Clouds 3 1019 82 0 11.09 109.598 12:42 08.10.2019
6519 Clouds 3 1020 84 0 8.15 106.085 12:21 08.10.2019
6520 Clouds 3 1020 84 0 8.15 106.085 12:21 08.10.2019
6521 Clouds 3 1020 84 0 8.15 106.085 11:59 08.10.2019
6522 Clouds 3 1020 84 0 8.15 106.085 11:40 08.10.2019
6523 Clouds 3 1020 84 0 8.15 106.085 11:21 08.10.2019
6524 Clouds 3 1020 84 0 8.15 106.085 10:55 08.10.2019
6525 Clouds 3 1020 84 0 8.15 106.085 10:36 08.10.2019
6526 Clouds 3 1020 84 0 8.15 106.085 10:36 08.10.2019
6527 Clouds 3 1020 84 0 8.15 106.085 10:18 08.10.2019
6528 Clouds 3 1020 84 0 8.15 106.085 09:41 08.10.2019
6529 Clouds 2 1022 86 0 4.51 117.68 09:22 08.10.2019
6530 Clouds 2 1022 86 0 4.51 117.68 08:55 08.10.2019
6531 Clouds 2 1022 87 0 4.23 121.584 08:36 08.10.2019
6532 Clouds 2 1022 87 0 4.23 121.584 08:18 08.10.2019
6533 Clouds 2 1022 87 0 4.23 121.584 07:41 08.10.2019
6534 Clouds 2 1022 87 0 4.23 121.584 07:19 08.10.2019
6535 Clouds 2 1022 87 0 4.23 121.584 06:46 08.10.2019
6536 Clouds 2 1022 86 0 0.71 199.382 06:23 08.10.2019
6537 Clouds 2 1022 86 0 0.71 199.382 05:44 08.10.2019
6538 Clouds 2 1022 86 0 0.71 199.382 05:44 08.10.2019
6539 Clouds 2 1022 86 0 0.71 199.382 05:21 08.10.2019
6540 Clouds 2 1022 86 0 0.71 199.382 03:32 08.10.2019
6541 Clouds 2 1022 89 0 1.91 223.431 02:44 08.10.2019
6542 Clouds 2 1022 89 0 1.91 223.431 02:25 08.10.2019
6543 Clouds 2 1022 89 0 1.91 223.431 01:42 08.10.2019
6544 Clouds 2 1022 89 0 2.53 245.045 00:57 08.10.2019
6545 Clouds 2 1022 89 0 2.53 245.045 00:57 08.10.2019
6546 Clouds 2 1022 89 0 2.53 245.045 00:25 08.10.2019
6547 Clouds 3 1021 88 0 3.47 279.15 23:58 07.10.2019
6548 Clouds 3 1021 88 0 3.47 279.15 23:38 07.10.2019
6549 Clouds 3 1021 88 0 3.47 279.15 23:19 07.10.2019
6550 Clouds 3 1021 88 0 3.47 279.15 23:19 07.10.2019
6551 Clouds 3 1021 88 0 3.47 279.15 22:55 07.10.2019
6552 Clouds 3 1021 88 0 3.47 279.15 22:37 07.10.2019
6553 Clouds 3 1021 88 0 3.47 279.15 22:18 07.10.2019
6554 Clouds 3 1021 88 0 3.47 279.15 21:54 07.10.2019
6555 Clouds 3 1021 88 0 3.47 279.15 21:36 07.10.2019
6556 Clouds 3 1021 88 0 3.47 279.15 21:36 07.10.2019
6557 Clouds 3 1020 87 0 4.85 288.371 21:18 07.10.2019
6558 Clouds 3 1020 82 0 2.63 326.135 20:56 07.10.2019
6559 Clouds 3 1020 82 0 2.63 326.135 20:56 07.10.2019
6560 Clouds 3 1020 82 0 2.63 326.135 20:37 07.10.2019
6561 Clouds 3 1020 82 0 2.63 326.135 20:18 07.10.2019
6562 Clouds 3 1020 82 0 2.63 326.135 19:41 07.10.2019
6563 Clouds 3 1020 82 0 2.63 326.135 19:21 07.10.2019
6564 Clouds 3 1020 82 0 2.63 326.135 18:59 07.10.2019
6565 Clouds 3 1020 82 0 2.63 326.135 18:59 07.10.2019
6566 Clouds 3 1020 82 0 2.63 326.135 18:41 07.10.2019
6567 Clouds 3 1018 86 0 5.89 314.278 18:19 07.10.2019
6568 Clouds 3 1018 86 0 5.89 314.278 17:56 07.10.2019
6569 Clouds 3 1018 86 0 5.89 314.278 17:38 07.10.2019
6570 Clouds 3 1018 86 0 5.89 314.278 17:18 07.10.2019
6571 Clouds 3 1018 86 0 5.89 314.278 16:44 07.10.2019
6572 Clouds 3 1018 86 0 5.89 314.278 16:25 07.10.2019
6573 Clouds 3 1018 86 0 5.89 314.278 15:57 07.10.2019
6574 Clouds 3 1018 86 0 5.89 314.278 15:38 07.10.2019
6575 Clouds 3 1016 86 0 7.42 304.191 15:20 07.10.2019
6576 Clouds 3 1016 86 0 7.42 304.191 14:41 07.10.2019
6577 Clouds 3 1016 86 0 7.42 304.191 14:22 07.10.2019
6578 Clouds 3 1016 86 0 7.42 304.191 13:44 07.10.2019
6579 Clouds 3 1017 84 0 7.97 298.397 13:21 07.10.2019
6580 Clouds 3 1017 84 0 7.97 298.397 12:57 07.10.2019
6581 Clouds 3 1017 84 0 7.97 298.397 12:57 07.10.2019
6582 Clouds 3 1017 84 0 7.97 298.397 12:39 07.10.2019
6583 Clouds 3 1014 83 0 9.43 301.741 12:20 07.10.2019
6584 Clouds 3 1014 83 0 9.43 301.741 12:20 07.10.2019
6585 Clouds 3 1014 83 0 9.43 301.741 11:59 07.10.2019
6586 Clouds 3 1014 83 0 9.43 301.741 11:39 07.10.2019
6587 Clouds 3 1014 83 0 9.43 301.741 11:20 07.10.2019
6588 Clouds 3 1014 83 0 9.43 301.741 10:42 07.10.2019
6589 Clouds 3 1014 83 0 9.43 301.741 10:23 07.10.2019
6590 Clouds 3 1014 83 0 9.43 301.741 09:57 07.10.2019
6591 Clouds 3 1014 83 0 9.43 301.741 09:38 07.10.2019
6592 Clouds 3 1014 83 0 9.43 301.741 09:38 07.10.2019
6593 Clouds 3 1011 84 0 8.89 304.334 09:20 07.10.2019
6594 Clouds 3 1012 83 0 8.11 292.258 08:43 07.10.2019
6595 Clouds 3 1012 83 0 8.11 292.258 08:20 07.10.2019
6596 Clouds 3 1012 83 0 8.11 292.258 07:47 07.10.2019
6597 Clouds 3 1012 83 0 8.11 292.258 07:27 07.10.2019
6598 Clouds 3 1012 83 0 8.11 292.258 06:57 07.10.2019
6599 Clouds 3 1012 83 0 8.11 292.258 06:38 07.10.2019
6600 Clouds 3 1009 86 0 9.23 304.663 05:56 07.10.2019
6601 Clouds 3 1009 86 0 9.23 304.663 05:25 07.10.2019
6602 Clouds 3 1009 86 0 9.23 304.663 04:49 07.10.2019
6603 Clouds 3 1009 86 0 9.23 304.663 03:46 07.10.2019
6604 Clouds 3 1009 86 0 9.23 304.663 03:46 07.10.2019
6605 Clouds 3 1009 86 0 9.23 304.663 03:27 07.10.2019
6606 Clouds 3 1006 85 0 10.04 296.108 02:37 07.10.2019
6607 Clouds 3 1006 85 0 10.04 296.108 02:18 07.10.2019
6608 Clouds 3 1006 85 0 10.04 296.108 02:18 07.10.2019
6609 Clouds 2 1006 86 0 10.18 293.015 01:23 07.10.2019
6610 Clouds 2 1006 86 0 10.18 293.015 00:49 07.10.2019
6611 Clouds 2 1003 95 0 9.22 319.136 00:23 07.10.2019
6612 Clouds 2 1003 95 0 9.22 319.136 23:59 06.10.2019
6613 Clouds 2 1003 95 0 9.22 319.136 23:40 06.10.2019
6614 Clouds 2 1003 95 0 9.22 319.136 23:19 06.10.2019
6615 Clouds 2 1003 95 0 9.22 319.136 22:55 06.10.2019
6616 Clouds 2 1003 95 0 9.22 319.136 22:55 06.10.2019
6617 Clouds 2 1003 95 0 9.22 319.136 22:37 06.10.2019
6618 Clouds 2 1003 95 0 9.22 319.136 22:18 06.10.2019
6619 Clouds 2 1003 95 0 9.22 319.136 21:55 06.10.2019
6620 Clouds 2 1003 95 0 9.22 319.136 21:54 06.10.2019
6621 Clouds 2 1003 95 0 9.22 319.136 21:36 06.10.2019
6622 Clouds 2 1003 95 0 9.22 319.136 21:36 06.10.2019
6623 Clouds 2 1003 95 0 9.22 319.136 21:36 06.10.2019
6624 Clouds 2 1000 96 0 8.9 303.52 21:18 06.10.2019
6625 Clouds 2 1000 96 0 8.9 303.52 21:18 06.10.2019
6626 Clouds 2 1000 96 0 8.9 303.52 20:54 06.10.2019
6627 Clouds 2 999 95 0 8.04 309.526 20:36 06.10.2019
6628 Clouds 2 999 95 0 8.04 309.526 20:36 06.10.2019
6629 Clouds 2 999 95 0 8.04 309.526 20:36 06.10.2019
6630 Clouds 2 999 95 0 8.04 309.526 20:18 06.10.2019
6631 Clouds 2 999 95 0 8.04 309.526 19:54 06.10.2019
6632 Clouds 2 999 95 0 8.04 309.526 19:36 06.10.2019
6633 Clouds 2 999 95 0 8.04 309.526 19:18 06.10.2019
6634 Clouds 2 999 95 0 8.04 309.526 18:54 06.10.2019
6635 Clouds 2 999 95 0 8.04 309.526 18:36 06.10.2019
6636 Clouds 2 997 96 0 7.28 307.229 18:18 06.10.2019
6637 Clouds 2 997 96 0 7.28 307.229 17:42 06.10.2019
6638 Clouds 2 997 96 0 7.28 307.229 17:19 06.10.2019
6639 Clouds 2 997 96 0 7.28 307.229 16:54 06.10.2019
6640 Clouds 2 997 96 0 7.28 307.229 16:36 06.10.2019
6641 Clouds 2 997 96 0 7.28 307.229 16:18 06.10.2019
6642 Clouds 2 997 96 0 7.28 307.229 15:42 06.10.2019
6643 Clouds 2 996 93 0 5.28 250.412 15:19 06.10.2019
6644 Clouds 2 996 93 0 5.28 250.412 14:44 06.10.2019
6645 Clouds 2 996 93 0 5.28 250.412 14:25 06.10.2019
6646 Clouds 2 996 93 0 5.28 250.412 13:58 06.10.2019
6647 Clouds 2 996 93 0 5.28 250.412 13:39 06.10.2019
6648 Clouds 2 996 96 0 7.75 265.698 13:21 06.10.2019
6649 Clouds 2 996 96 0 7.75 265.698 12:57 06.10.2019
6650 Clouds 2 996 96 0 7.75 265.698 12:39 06.10.2019
6651 Clouds 2 995 93 0 6.09 214.41 12:20 06.10.2019
6652 Clouds 2 995 93 0 6.09 214.41 12:20 06.10.2019
6653 Clouds 2 995 93 0 6.09 214.41 11:57 06.10.2019
6654 Clouds 2 995 93 0 6.09 214.41 11:38 06.10.2019
6655 Clouds 2 995 93 0 6.09 214.41 11:20 06.10.2019
6656 Clouds 2 995 93 0 6.09 214.41 10:44 06.10.2019
6657 Clouds 2 995 93 0 6.09 214.41 10:26 06.10.2019
6658 Clouds 2 995 93 0 6.09 214.41 09:58 06.10.2019
6659 Clouds 2 995 93 0 6.09 214.41 09:39 06.10.2019
6660 Clouds 2 996 89 0 5.1 202.54 09:18 06.10.2019
6661 Clouds 2 996 89 0 5.1 202.54 08:43 06.10.2019
6662 Clouds 2 997 89 0 4.63 196.022 08:21 06.10.2019
6663 Clouds 2 997 89 0 4.63 196.022 07:56 06.10.2019
6664 Clouds 2 997 89 0 4.63 196.022 07:56 06.10.2019
6665 Clouds 2 997 89 0 4.63 196.022 07:33 06.10.2019
6666 Clouds 1 998 92 0 4.38 143.502 06:20 06.10.2019
6667 Clouds 1 998 92 0 4.38 143.502 05:34 06.10.2019
6668 Clouds 1 998 92 0 4.38 143.502 03:56 06.10.2019
6669 Clouds 2 1000 96 0 8.15 84.718 02:44 06.10.2019
6670 Clouds 2 1000 96 0 8.15 84.718 02:22 06.10.2019
6671 Clouds 2 1000 96 0 8.15 84.718 01:45 06.10.2019
6672 Clouds 2 1000 96 0 8.63 79.909 01:27 06.10.2019
6673 Clouds 2 1000 96 0 8.63 79.909 00:53 06.10.2019
6674 Clouds 2 1000 96 0 8.63 79.909 00:27 06.10.2019
6675 Clouds 2 1002 82 0 6.96 80.52 23:45 05.10.2019
6676 Clouds 2 1002 82 0 6.96 80.52 23:22 05.10.2019
6677 Clouds 2 1002 82 0 6.96 80.52 22:58 05.10.2019
6678 Clouds 2 1002 82 0 6.96 80.52 22:40 05.10.2019
6679 Clouds 2 1002 82 0 6.96 80.52 22:40 05.10.2019
6680 Clouds 2 1002 82 0 6.96 80.52 22:20 05.10.2019
6681 Clouds 2 1002 82 0 6.96 80.52 21:57 05.10.2019
6682 Clouds 2 1002 82 0 6.96 80.52 21:38 05.10.2019
6683 Clouds 2 1005 76 0 5.91 89.893 21:18 05.10.2019
6684 Clouds 2 1005 76 0 5.91 89.893 20:56 05.10.2019
6685 Clouds 2 1005 81 0 6.17 93.635 20:37 05.10.2019
6686 Clouds 2 1005 81 0 6.17 93.635 20:18 05.10.2019
6687 Clouds 2 1005 81 0 6.17 93.635 19:38 05.10.2019
6688 Clouds 2 1005 81 0 6.17 93.635 19:19 05.10.2019
6689 Clouds 2 1005 81 0 6.17 93.635 18:55 05.10.2019
6690 Clouds 2 1005 81 0 6.17 93.635 18:55 05.10.2019
6691 Clouds 2 1005 81 0 6.17 93.635 18:37 05.10.2019
6692 Clouds 2 1006 80 0 5.96 84.278 18:19 05.10.2019
6693 Clouds 2 1006 80 0 5.96 84.278 17:43 05.10.2019
6694 Clouds 2 1006 80 0 5.96 84.278 17:24 05.10.2019
6695 Clouds 2 1006 80 0 5.96 84.278 16:57 05.10.2019
6696 Clouds 2 1006 80 0 5.96 84.278 16:39 05.10.2019
6697 Clouds 2 1006 80 0 5.96 84.278 16:20 05.10.2019
6698 Clouds 2 1006 80 0 5.96 84.278 15:56 05.10.2019
6699 Clouds 2 1006 80 0 5.96 84.278 15:38 05.10.2019
6700 Clouds 2 1008 77 0 6.12 80.021 15:19 05.10.2019
6701 Clouds 2 1008 77 0 6.12 80.021 14:43 05.10.2019
6702 Clouds 2 1008 77 0 6.12 80.021 14:24 05.10.2019
6703 Clouds 2 1008 77 0 6.12 80.021 13:58 05.10.2019
6704 Clouds 2 1008 77 0 6.12 80.021 13:40 05.10.2019
6705 Clouds 2 1008 76 0 6.88 75.204 13:19 05.10.2019
6706 Clouds 2 1008 76 0 6.88 75.204 12:43 05.10.2019
6707 Clouds 2 1008 78 0 5.78 69.457 12:19 05.10.2019
6708 Clouds 2 1008 78 0 5.78 69.457 11:44 05.10.2019
6709 Clouds 2 1008 78 0 5.78 69.457 11:21 05.10.2019
6710 Clouds 2 1008 78 0 5.78 69.457 10:58 05.10.2019
6711 Clouds 2 1008 78 0 5.78 69.457 10:40 05.10.2019
6712 Clouds 2 1008 78 0 5.78 69.457 10:21 05.10.2019
6713 Clouds 2 1008 78 0 5.78 69.457 09:55 05.10.2019
6714 Clouds 2 1008 78 0 5.78 69.457 09:37 05.10.2019
6715 Clouds 2 1008 87 0 5.7 66.985 09:18 05.10.2019
6716 Clouds 2 1009 81 0 6.04 59.455 08:39 05.10.2019
6717 Clouds 2 1009 81 0 6.04 59.455 08:19 05.10.2019
6718 Clouds 2 1009 81 0 6.04 59.455 07:52 05.10.2019
6719 Clouds 2 1009 81 0 6.04 59.455 07:30 05.10.2019
6720 Clouds 2 1009 81 0 6.04 59.455 06:56 05.10.2019
6721 Clouds 2 1009 81 0 5.38 20.611 06:23 05.10.2019
6722 Clouds 2 1009 81 0 5.38 20.611 05:39 05.10.2019
6723 Clouds 2 1009 81 0 5.38 20.611 03:34 05.10.2019
6724 Clouds 3 1008 80 0 6.1 348.598 02:45 05.10.2019
6725 Clouds 3 1008 77 0 6.7 347.99 01:27 05.10.2019
6726 Clouds 3 1008 77 0 6.7 347.99 00:49 05.10.2019
6727 Clouds 3 1008 77 0 6.7 347.99 00:28 05.10.2019
6728 Clouds 3 1008 78 0 7.99 329.172 23:58 04.10.2019
6729 Clouds 3 1008 78 0 7.99 329.172 23:40 04.10.2019
6730 Clouds 3 1008 78 0 7.99 329.172 23:21 04.10.2019
6731 Clouds 3 1008 78 0 7.99 329.172 22:56 04.10.2019
6732 Clouds 3 1008 78 0 7.99 329.172 22:37 04.10.2019
6733 Clouds 3 1008 78 0 7.99 329.172 22:37 04.10.2019
6734 Clouds 3 1008 78 0 7.99 329.172 22:19 04.10.2019
6735 Clouds 3 1008 78 0 7.99 329.172 21:40 04.10.2019
6736 Clouds 3 1006 79 0 8.41 327.928 21:22 04.10.2019
6737 Clouds 3 1006 79 0 8.41 327.928 21:22 04.10.2019
6738 Clouds 3 1006 79 0 8.41 327.928 20:59 04.10.2019
6739 Clouds 3 1006 75 0 8.48 329.399 20:41 04.10.2019
6740 Clouds 3 1006 75 0 8.48 329.399 20:22 04.10.2019
6741 Clouds 3 1006 75 0 8.48 329.399 19:56 04.10.2019
6742 Clouds 3 1006 75 0 8.48 329.399 19:37 04.10.2019
6743 Clouds 3 1006 75 0 8.48 329.399 19:19 04.10.2019
6744 Clouds 3 1006 75 0 8.48 329.399 18:54 04.10.2019
6745 Clouds 3 1006 75 0 8.48 329.399 18:36 04.10.2019
6746 Clouds 3 1005 81 0 8.49 331.156 18:18 04.10.2019
6747 Clouds 3 1005 81 0 8.49 331.156 17:39 04.10.2019
6748 Clouds 3 1005 81 0 8.49 331.156 17:21 04.10.2019
6749 Clouds 3 1005 81 0 8.49 331.156 16:58 04.10.2019
6750 Clouds 3 1005 81 0 8.49 331.156 16:39 04.10.2019
6751 Clouds 3 1005 81 0 8.49 331.156 16:18 04.10.2019
6752 Clouds 3 1005 81 0 8.49 331.156 15:56 04.10.2019
6753 Clouds 3 1005 81 0 8.49 331.156 15:37 04.10.2019
6754 Clouds 4 1003 88 0 6.67 327.187 15:19 04.10.2019
6755 Clouds 4 1003 88 0 6.67 327.187 14:55 04.10.2019
6756 Clouds 4 1003 88 0 6.67 327.187 14:55 04.10.2019
6757 Clouds 4 1003 88 0 6.67 327.187 14:36 04.10.2019
6758 Clouds 4 1003 88 0 6.67 327.187 14:18 04.10.2019
6759 Clouds 4 1003 88 0 6.67 327.187 13:43 04.10.2019
6760 Clouds 3 1003 88 0 6.74 323.629 13:21 04.10.2019
6761 Clouds 3 1003 88 0 6.74 323.629 12:47 04.10.2019
6762 Clouds 3 1003 88 0 6.74 323.629 12:29 04.10.2019
6763 Rain 4 1001 86 0 6.55 312.31 11:59 04.10.2019
6764 Rain 4 1001 86 0 6.55 312.31 11:59 04.10.2019
6765 Rain 4 1001 86 0 6.55 312.31 11:59 04.10.2019
6766 Rain 4 1001 86 0 6.55 312.31 11:59 04.10.2019
6767 Rain 4 1001 86 0 6.55 312.31 11:41 04.10.2019
6768 Rain 4 1001 86 0 6.55 312.31 11:40 04.10.2019
6769 Rain 4 1001 86 0 6.55 312.31 11:40 04.10.2019
6770 Rain 4 1001 86 0 6.55 312.31 11:20 04.10.2019
6771 Rain 4 1001 86 0 6.55 312.31 10:40 04.10.2019
6772 Rain 4 1001 86 0 6.55 312.31 10:21 04.10.2019
6773 Rain 4 1001 86 0 6.55 312.31 09:47 04.10.2019
6774 Clouds 3 1001 86 0 6.92 298.637 09:28 04.10.2019
6775 Clouds 3 998 83 0 5.1 341.266 08:56 04.10.2019
6776 Clouds 3 998 83 0 5.1 341.266 08:38 04.10.2019
6777 Clouds 3 998 83 0 5.1 341.266 08:19 04.10.2019
6778 Clouds 3 998 83 0 5.1 341.266 07:44 04.10.2019
6779 Clouds 3 998 83 0 5.1 341.266 07:22 04.10.2019
6780 Clouds 3 998 83 0 5.1 341.266 06:44 04.10.2019
6781 Clouds 3 998 83 0 5.1 341.266 06:44 04.10.2019
6782 Clouds 3 998 83 0 5.1 341.266 06:25 04.10.2019
6783 Clouds 3 998 83 0 5.1 341.266 06:25 04.10.2019
6784 Clouds 3 994 78 0 5.89 34.392 05:42 04.10.2019
6785 Clouds 3 994 78 0 5.89 34.392 05:18 04.10.2019
6786 Clouds 3 994 78 0 5.89 34.392 03:48 04.10.2019
6787 Rain 3 991 81 0 4.56 93.156 02:53 04.10.2019
6788 Rain 3 991 81 0 4.56 93.156 02:53 04.10.2019
6789 Rain 3 991 81 0 4.56 93.156 01:55 04.10.2019
6790 Clouds 3 991 79 0 4.52 94.482 01:30 04.10.2019
6791 Clouds 3 991 79 0 4.52 94.482 00:58 04.10.2019
6792 Clouds 2 989 96 0 7.68 166.221 23:58 03.10.2019
6793 Clouds 2 989 96 0 7.68 166.221 23:37 03.10.2019
6794 Clouds 2 989 96 0 7.68 166.221 23:18 03.10.2019
6795 Clouds 2 989 96 0 7.68 166.221 23:18 03.10.2019
6796 Clouds 2 989 96 0 7.68 166.221 22:56 03.10.2019
6797 Clouds 2 989 96 0 7.68 166.221 22:37 03.10.2019
6798 Clouds 2 989 96</